<?xml version="1.0" encoding="UTF-8" standalone="no" ?>
<gpx xmlns="http://www.topografix.com/GPX/1/1" xmlns:xsi="http://www.w3.org/2001/XMLSchema-instance" xsi:schemaLocation="http://www.topografix.com/GPX/1/1 http://www.topografix.com/GPX/1/1/gpx.xsd" version="1.1" creator="VisuGPX - https://www.visugpx.com">
  <metadata>
    <name>Jogging dans Central Park avec Matt</name>
    <desc><![CDATA[Du Nord Ouest au Sud Ouest.]]></desc>
  </metadata>
  <trk>
    <name><![CDATA[Jogging dans Central Park avec Matt_1]]></name>
    <trkseg>
      <trkpt lat="40.80125" lon="-73.95515">
        <ele>7</ele>
        <time>2012-04-16T11:10:01Z</time>
      </trkpt>
      <trkpt lat="40.8013" lon="-73.9555">
        <ele>23</ele>
        <time>2012-04-16T11:10:26Z</time>
      </trkpt>
      <trkpt lat="40.8013" lon="-73.95553">
        <ele>23</ele>
        <time>2012-04-16T11:10:28Z</time>
      </trkpt>
      <trkpt lat="40.8013" lon="-73.95555">
        <ele>23</ele>
        <time>2012-04-16T11:10:29Z</time>
      </trkpt>
      <trkpt lat="40.80131" lon="-73.95557">
        <ele>23</ele>
        <time>2012-04-16T11:10:30Z</time>
      </trkpt>
      <trkpt lat="40.80133" lon="-73.95558">
        <ele>23</ele>
        <time>2012-04-16T11:10:31Z</time>
      </trkpt>
      <trkpt lat="40.80134" lon="-73.9556">
        <ele>23</ele>
        <time>2012-04-16T11:10:33Z</time>
      </trkpt>
      <trkpt lat="40.80136" lon="-73.9556">
        <ele>23</ele>
        <time>2012-04-16T11:10:35Z</time>
      </trkpt>
      <trkpt lat="40.80138" lon="-73.95562">
        <ele>23</ele>
        <time>2012-04-16T11:10:36Z</time>
      </trkpt>
      <trkpt lat="40.80138" lon="-73.95564">
        <ele>23</ele>
        <time>2012-04-16T11:10:37Z</time>
      </trkpt>
      <trkpt lat="40.8014" lon="-73.95564">
        <ele>23</ele>
        <time>2012-04-16T11:10:38Z</time>
      </trkpt>
      <trkpt lat="40.80141" lon="-73.95566">
        <ele>23</ele>
        <time>2012-04-16T11:10:39Z</time>
      </trkpt>
      <trkpt lat="40.80143" lon="-73.95567">
        <ele>23</ele>
        <time>2012-04-16T11:10:41Z</time>
      </trkpt>
      <trkpt lat="40.80144" lon="-73.95569">
        <ele>23</ele>
        <time>2012-04-16T11:10:44Z</time>
      </trkpt>
      <trkpt lat="40.80145" lon="-73.95571">
        <ele>23</ele>
        <time>2012-04-16T11:10:45Z</time>
      </trkpt>
      <trkpt lat="40.80146" lon="-73.95573">
        <ele>23</ele>
        <time>2012-04-16T11:10:46Z</time>
      </trkpt>
      <trkpt lat="40.80147" lon="-73.95575">
        <ele>23</ele>
        <time>2012-04-16T11:10:47Z</time>
      </trkpt>
      <trkpt lat="40.80148" lon="-73.95578">
        <ele>22</ele>
        <time>2012-04-16T11:10:48Z</time>
      </trkpt>
      <trkpt lat="40.80149" lon="-73.9558">
        <ele>22</ele>
        <time>2012-04-16T11:10:49Z</time>
      </trkpt>
      <trkpt lat="40.80149" lon="-73.95582">
        <ele>22</ele>
        <time>2012-04-16T11:10:50Z</time>
      </trkpt>
      <trkpt lat="40.8015" lon="-73.95584">
        <ele>22</ele>
        <time>2012-04-16T11:10:51Z</time>
      </trkpt>
      <trkpt lat="40.80151" lon="-73.95587">
        <ele>22</ele>
        <time>2012-04-16T11:10:53Z</time>
      </trkpt>
      <trkpt lat="40.80152" lon="-73.95589">
        <ele>22</ele>
        <time>2012-04-16T11:10:55Z</time>
      </trkpt>
      <trkpt lat="40.80154" lon="-73.95592">
        <ele>22</ele>
        <time>2012-04-16T11:10:57Z</time>
      </trkpt>
      <trkpt lat="40.80156" lon="-73.95593">
        <ele>22</ele>
        <time>2012-04-16T11:10:58Z</time>
      </trkpt>
      <trkpt lat="40.80157" lon="-73.95594">
        <ele>22</ele>
        <time>2012-04-16T11:10:59Z</time>
      </trkpt>
      <trkpt lat="40.8016" lon="-73.95593">
        <ele>22</ele>
        <time>2012-04-16T11:11:00Z</time>
      </trkpt>
      <trkpt lat="40.80163" lon="-73.95605">
        <ele>21</ele>
        <time>2012-04-16T11:11:01Z</time>
      </trkpt>
      <trkpt lat="40.80164" lon="-73.95613">
        <ele>20</ele>
        <time>2012-04-16T11:11:02Z</time>
      </trkpt>
      <trkpt lat="40.80166" lon="-73.95618">
        <ele>19</ele>
        <time>2012-04-16T11:11:03Z</time>
      </trkpt>
      <trkpt lat="40.80167" lon="-73.95621">
        <ele>17</ele>
        <time>2012-04-16T11:11:04Z</time>
      </trkpt>
      <trkpt lat="40.80168" lon="-73.95625">
        <ele>15</ele>
        <time>2012-04-16T11:11:05Z</time>
      </trkpt>
      <trkpt lat="40.80168" lon="-73.95628">
        <ele>13</ele>
        <time>2012-04-16T11:11:06Z</time>
      </trkpt>
      <trkpt lat="40.8017" lon="-73.95631">
        <ele>11</ele>
        <time>2012-04-16T11:11:07Z</time>
      </trkpt>
      <trkpt lat="40.8017" lon="-73.95633">
        <ele>9</ele>
        <time>2012-04-16T11:11:08Z</time>
      </trkpt>
      <trkpt lat="40.80172" lon="-73.95635">
        <ele>7</ele>
        <time>2012-04-16T11:11:09Z</time>
      </trkpt>
      <trkpt lat="40.80175" lon="-73.95637">
        <ele>5</ele>
        <time>2012-04-16T11:11:10Z</time>
      </trkpt>
      <trkpt lat="40.80176" lon="-73.95638">
        <ele>4</ele>
        <time>2012-04-16T11:11:11Z</time>
      </trkpt>
      <trkpt lat="40.80178" lon="-73.95641">
        <ele>2</ele>
        <time>2012-04-16T11:11:12Z</time>
      </trkpt>
      <trkpt lat="40.80179" lon="-73.95642">
        <time>2012-04-16T11:11:13Z</time>
      </trkpt>
      <trkpt lat="40.8018" lon="-73.95644">
        <time>2012-04-16T11:11:14Z</time>
      </trkpt>
      <trkpt lat="40.80182" lon="-73.95646">
        <time>2012-04-16T11:11:15Z</time>
      </trkpt>
      <trkpt lat="40.80184" lon="-73.95647">
        <ele>-1</ele>
        <time>2012-04-16T11:11:16Z</time>
      </trkpt>
      <trkpt lat="40.80185" lon="-73.9565">
        <ele>-2</ele>
        <time>2012-04-16T11:11:17Z</time>
      </trkpt>
      <trkpt lat="40.80186" lon="-73.95652">
        <ele>-3</ele>
        <time>2012-04-16T11:11:18Z</time>
      </trkpt>
      <trkpt lat="40.80186" lon="-73.95654">
        <ele>-4</ele>
        <time>2012-04-16T11:11:19Z</time>
      </trkpt>
      <trkpt lat="40.80188" lon="-73.95655">
        <ele>-7</ele>
        <time>2012-04-16T11:11:20Z</time>
      </trkpt>
      <trkpt lat="40.80188" lon="-73.95659">
        <ele>-9</ele>
        <time>2012-04-16T11:11:22Z</time>
      </trkpt>
      <trkpt lat="40.80188" lon="-73.9566">
        <ele>-10</ele>
        <time>2012-04-16T11:11:23Z</time>
      </trkpt>
      <trkpt lat="40.80188" lon="-73.95662">
        <ele>-12</ele>
        <time>2012-04-16T11:11:24Z</time>
      </trkpt>
      <trkpt lat="40.80186" lon="-73.95665">
        <ele>-13</ele>
        <time>2012-04-16T11:11:25Z</time>
      </trkpt>
      <trkpt lat="40.80184" lon="-73.95668">
        <ele>-14</ele>
        <time>2012-04-16T11:11:26Z</time>
      </trkpt>
      <trkpt lat="40.80183" lon="-73.9567">
        <ele>-14</ele>
        <time>2012-04-16T11:11:27Z</time>
      </trkpt>
      <trkpt lat="40.80182" lon="-73.95671">
        <ele>-14</ele>
        <time>2012-04-16T11:11:28Z</time>
      </trkpt>
      <trkpt lat="40.80182" lon="-73.95673">
        <ele>-14</ele>
        <time>2012-04-16T11:11:29Z</time>
      </trkpt>
      <trkpt lat="40.80182" lon="-73.95676">
        <ele>-14</ele>
        <time>2012-04-16T11:11:30Z</time>
      </trkpt>
      <trkpt lat="40.80181" lon="-73.95678">
        <ele>-14</ele>
        <time>2012-04-16T11:11:31Z</time>
      </trkpt>
      <trkpt lat="40.8018" lon="-73.95679">
        <ele>-14</ele>
        <time>2012-04-16T11:11:32Z</time>
      </trkpt>
      <trkpt lat="40.80179" lon="-73.95682">
        <ele>-13</ele>
        <time>2012-04-16T11:11:33Z</time>
      </trkpt>
      <trkpt lat="40.80179" lon="-73.95683">
        <ele>-12</ele>
        <time>2012-04-16T11:11:34Z</time>
      </trkpt>
      <trkpt lat="40.8018" lon="-73.95685">
        <ele>-10</ele>
        <time>2012-04-16T11:11:35Z</time>
      </trkpt>
      <trkpt lat="40.80179" lon="-73.95687">
        <ele>-9</ele>
        <time>2012-04-16T11:11:36Z</time>
      </trkpt>
      <trkpt lat="40.80179" lon="-73.95689">
        <ele>-8</ele>
        <time>2012-04-16T11:11:37Z</time>
      </trkpt>
      <trkpt lat="40.8018" lon="-73.9569">
        <ele>-6</ele>
        <time>2012-04-16T11:11:39Z</time>
      </trkpt>
      <trkpt lat="40.80179" lon="-73.95692">
        <ele>-4</ele>
        <time>2012-04-16T11:11:40Z</time>
      </trkpt>
      <trkpt lat="40.8018" lon="-73.95693">
        <ele>-3</ele>
        <time>2012-04-16T11:11:41Z</time>
      </trkpt>
      <trkpt lat="40.8018" lon="-73.95695">
        <ele>-1</ele>
        <time>2012-04-16T11:11:43Z</time>
      </trkpt>
      <trkpt lat="40.8018" lon="-73.95697">
        <time>2012-04-16T11:11:44Z</time>
      </trkpt>
      <trkpt lat="40.80181" lon="-73.95699">
        <time>2012-04-16T11:11:45Z</time>
      </trkpt>
      <trkpt lat="40.80182" lon="-73.95701">
        <ele>1</ele>
        <time>2012-04-16T11:11:46Z</time>
      </trkpt>
      <trkpt lat="40.80182" lon="-73.95703">
        <ele>2</ele>
        <time>2012-04-16T11:11:49Z</time>
      </trkpt>
      <trkpt lat="40.80184" lon="-73.95704">
        <ele>3</ele>
        <time>2012-04-16T11:11:49Z</time>
      </trkpt>
      <trkpt lat="40.80186" lon="-73.95705">
        <ele>3</ele>
        <time>2012-04-16T11:11:50Z</time>
      </trkpt>
      <trkpt lat="40.80186" lon="-73.95707">
        <ele>5</ele>
        <time>2012-04-16T11:11:52Z</time>
      </trkpt>
      <trkpt lat="40.80186" lon="-73.95709">
        <ele>6</ele>
        <time>2012-04-16T11:11:53Z</time>
      </trkpt>
      <trkpt lat="40.80184" lon="-73.95711">
        <ele>6</ele>
        <time>2012-04-16T11:11:54Z</time>
      </trkpt>
      <trkpt lat="40.80183" lon="-73.95712">
        <ele>6</ele>
        <time>2012-04-16T11:11:55Z</time>
      </trkpt>
      <trkpt lat="40.80181" lon="-73.95714">
        <ele>6</ele>
        <time>2012-04-16T11:11:57Z</time>
      </trkpt>
      <trkpt lat="40.8018" lon="-73.95715">
        <ele>6</ele>
        <time>2012-04-16T11:11:59Z</time>
      </trkpt>
      <trkpt lat="40.80178" lon="-73.95716">
        <ele>7</ele>
        <time>2012-04-16T11:12:00Z</time>
      </trkpt>
      <trkpt lat="40.80177" lon="-73.95717">
        <ele>8</ele>
        <time>2012-04-16T11:12:01Z</time>
      </trkpt>
      <trkpt lat="40.80175" lon="-73.95718">
        <ele>9</ele>
        <time>2012-04-16T11:12:02Z</time>
      </trkpt>
      <trkpt lat="40.80172" lon="-73.95719">
        <ele>10</ele>
        <time>2012-04-16T11:12:03Z</time>
      </trkpt>
      <trkpt lat="40.8017" lon="-73.95721">
        <ele>11</ele>
        <time>2012-04-16T11:12:04Z</time>
      </trkpt>
      <trkpt lat="40.80167" lon="-73.95721">
        <ele>12</ele>
        <time>2012-04-16T11:12:05Z</time>
      </trkpt>
      <trkpt lat="40.80166" lon="-73.95723">
        <ele>13</ele>
        <time>2012-04-16T11:12:06Z</time>
      </trkpt>
      <trkpt lat="40.80164" lon="-73.95724">
        <ele>14</ele>
        <time>2012-04-16T11:12:07Z</time>
      </trkpt>
      <trkpt lat="40.80162" lon="-73.95725">
        <ele>15</ele>
        <time>2012-04-16T11:12:08Z</time>
      </trkpt>
      <trkpt lat="40.8016" lon="-73.95726">
        <ele>16</ele>
        <time>2012-04-16T11:12:09Z</time>
      </trkpt>
      <trkpt lat="40.80158" lon="-73.95727">
        <ele>17</ele>
        <time>2012-04-16T11:12:10Z</time>
      </trkpt>
      <trkpt lat="40.80156" lon="-73.95728">
        <ele>18</ele>
        <time>2012-04-16T11:12:11Z</time>
      </trkpt>
      <trkpt lat="40.80154" lon="-73.95728">
        <ele>19</ele>
        <time>2012-04-16T11:12:12Z</time>
      </trkpt>
      <trkpt lat="40.80153" lon="-73.95728">
        <ele>20</ele>
        <time>2012-04-16T11:12:13Z</time>
      </trkpt>
      <trkpt lat="40.80151" lon="-73.95731">
        <ele>20</ele>
        <time>2012-04-16T11:12:15Z</time>
      </trkpt>
      <trkpt lat="40.8015" lon="-73.95731">
        <ele>20</ele>
        <time>2012-04-16T11:12:16Z</time>
      </trkpt>
      <trkpt lat="40.80148" lon="-73.95732">
        <ele>20</ele>
        <time>2012-04-16T11:12:17Z</time>
      </trkpt>
      <trkpt lat="40.80146" lon="-73.95734">
        <ele>20</ele>
        <time>2012-04-16T11:12:18Z</time>
      </trkpt>
      <trkpt lat="40.80145" lon="-73.95734">
        <ele>20</ele>
        <time>2012-04-16T11:12:19Z</time>
      </trkpt>
      <trkpt lat="40.80143" lon="-73.95735">
        <ele>21</ele>
        <time>2012-04-16T11:12:20Z</time>
      </trkpt>
      <trkpt lat="40.80141" lon="-73.95735">
        <ele>21</ele>
        <time>2012-04-16T11:12:22Z</time>
      </trkpt>
      <trkpt lat="40.80139" lon="-73.95736">
        <ele>21</ele>
        <time>2012-04-16T11:12:23Z</time>
      </trkpt>
      <trkpt lat="40.80138" lon="-73.95737">
        <ele>22</ele>
        <time>2012-04-16T11:12:24Z</time>
      </trkpt>
      <trkpt lat="40.80136" lon="-73.95738">
        <ele>22</ele>
        <time>2012-04-16T11:12:25Z</time>
      </trkpt>
      <trkpt lat="40.80135" lon="-73.9574">
        <ele>22</ele>
        <time>2012-04-16T11:12:26Z</time>
      </trkpt>
      <trkpt lat="40.80135" lon="-73.95741">
        <ele>23</ele>
        <time>2012-04-16T11:12:27Z</time>
      </trkpt>
      <trkpt lat="40.80133" lon="-73.95742">
        <ele>23</ele>
        <time>2012-04-16T11:12:28Z</time>
      </trkpt>
      <trkpt lat="40.80131" lon="-73.95744">
        <ele>23</ele>
        <time>2012-04-16T11:12:30Z</time>
      </trkpt>
      <trkpt lat="40.80128" lon="-73.95744">
        <ele>23</ele>
        <time>2012-04-16T11:12:32Z</time>
      </trkpt>
      <trkpt lat="40.80127" lon="-73.95747">
        <ele>24</ele>
        <time>2012-04-16T11:12:32Z</time>
      </trkpt>
      <trkpt lat="40.80126" lon="-73.9575">
        <ele>25</ele>
        <time>2012-04-16T11:12:33Z</time>
      </trkpt>
      <trkpt lat="40.80124" lon="-73.95752">
        <ele>26</ele>
        <time>2012-04-16T11:12:34Z</time>
      </trkpt>
      <trkpt lat="40.80122" lon="-73.95753">
        <ele>27</ele>
        <time>2012-04-16T11:12:35Z</time>
      </trkpt>
      <trkpt lat="40.8012" lon="-73.95753">
        <ele>28</ele>
        <time>2012-04-16T11:12:36Z</time>
      </trkpt>
      <trkpt lat="40.80118" lon="-73.95755">
        <ele>29</ele>
        <time>2012-04-16T11:12:37Z</time>
      </trkpt>
      <trkpt lat="40.80116" lon="-73.95756">
        <ele>30</ele>
        <time>2012-04-16T11:12:38Z</time>
      </trkpt>
      <trkpt lat="40.80115" lon="-73.95757">
        <ele>31</ele>
        <time>2012-04-16T11:12:39Z</time>
      </trkpt>
      <trkpt lat="40.80114" lon="-73.95757">
        <ele>32</ele>
        <time>2012-04-16T11:12:40Z</time>
      </trkpt>
      <trkpt lat="40.80112" lon="-73.95758">
        <ele>33</ele>
        <time>2012-04-16T11:12:41Z</time>
      </trkpt>
      <trkpt lat="40.80111" lon="-73.9576">
        <ele>34</ele>
        <time>2012-04-16T11:12:42Z</time>
      </trkpt>
      <trkpt lat="40.8011" lon="-73.9576">
        <ele>35</ele>
        <time>2012-04-16T11:12:43Z</time>
      </trkpt>
      <trkpt lat="40.80108" lon="-73.95761">
        <ele>35</ele>
        <time>2012-04-16T11:12:45Z</time>
      </trkpt>
      <trkpt lat="40.80106" lon="-73.95763">
        <ele>35</ele>
        <time>2012-04-16T11:12:47Z</time>
      </trkpt>
      <trkpt lat="40.80105" lon="-73.95763">
        <ele>35</ele>
        <time>2012-04-16T11:12:48Z</time>
      </trkpt>
      <trkpt lat="40.80104" lon="-73.95763">
        <ele>35</ele>
        <time>2012-04-16T11:12:49Z</time>
      </trkpt>
      <trkpt lat="40.80102" lon="-73.95763">
        <ele>35</ele>
        <time>2012-04-16T11:12:50Z</time>
      </trkpt>
      <trkpt lat="40.80099" lon="-73.95764">
        <ele>35</ele>
        <time>2012-04-16T11:12:51Z</time>
      </trkpt>
      <trkpt lat="40.80097" lon="-73.95764">
        <ele>36</ele>
        <time>2012-04-16T11:12:52Z</time>
      </trkpt>
      <trkpt lat="40.80095" lon="-73.95765">
        <ele>37</ele>
        <time>2012-04-16T11:12:53Z</time>
      </trkpt>
      <trkpt lat="40.80093" lon="-73.95765">
        <ele>38</ele>
        <time>2012-04-16T11:12:54Z</time>
      </trkpt>
      <trkpt lat="40.8009" lon="-73.95765">
        <ele>39</ele>
        <time>2012-04-16T11:12:55Z</time>
      </trkpt>
      <trkpt lat="40.80088" lon="-73.95765">
        <ele>41</ele>
        <time>2012-04-16T11:12:56Z</time>
      </trkpt>
      <trkpt lat="40.80086" lon="-73.95765">
        <ele>43</ele>
        <time>2012-04-16T11:12:57Z</time>
      </trkpt>
      <trkpt lat="40.80083" lon="-73.95765">
        <ele>45</ele>
        <time>2012-04-16T11:12:58Z</time>
      </trkpt>
      <trkpt lat="40.80082" lon="-73.95766">
        <ele>47</ele>
        <time>2012-04-16T11:12:59Z</time>
      </trkpt>
      <trkpt lat="40.80079" lon="-73.95765">
        <ele>49</ele>
        <time>2012-04-16T11:13:00Z</time>
      </trkpt>
      <trkpt lat="40.80081" lon="-73.95766">
        <ele>50</ele>
        <time>2012-04-16T11:13:01Z</time>
      </trkpt>
      <trkpt lat="40.80081" lon="-73.95768">
        <ele>52</ele>
        <time>2012-04-16T11:13:03Z</time>
      </trkpt>
      <trkpt lat="40.80081" lon="-73.9577">
        <ele>51</ele>
        <time>2012-04-16T11:13:05Z</time>
      </trkpt>
      <trkpt lat="40.8008" lon="-73.95772">
        <ele>49</ele>
        <time>2012-04-16T11:13:07Z</time>
      </trkpt>
      <trkpt lat="40.80078" lon="-73.95773">
        <ele>46</ele>
        <time>2012-04-16T11:13:09Z</time>
      </trkpt>
      <trkpt lat="40.80077" lon="-73.95773">
        <ele>43</ele>
        <time>2012-04-16T11:13:11Z</time>
      </trkpt>
      <trkpt lat="40.80075" lon="-73.95773">
        <ele>41</ele>
        <time>2012-04-16T11:13:13Z</time>
      </trkpt>
      <trkpt lat="40.80073" lon="-73.95771">
        <ele>39</ele>
        <time>2012-04-16T11:13:15Z</time>
      </trkpt>
      <trkpt lat="40.80072" lon="-73.9577">
        <ele>36</ele>
        <time>2012-04-16T11:13:18Z</time>
      </trkpt>
      <trkpt lat="40.80069" lon="-73.9577">
        <ele>34</ele>
        <time>2012-04-16T11:13:20Z</time>
      </trkpt>
      <trkpt lat="40.80068" lon="-73.95769">
        <ele>33</ele>
        <time>2012-04-16T11:13:21Z</time>
      </trkpt>
      <trkpt lat="40.80067" lon="-73.95769">
        <ele>32</ele>
        <time>2012-04-16T11:13:22Z</time>
      </trkpt>
      <trkpt lat="40.80065" lon="-73.95769">
        <ele>31</ele>
        <time>2012-04-16T11:13:23Z</time>
      </trkpt>
      <trkpt lat="40.80064" lon="-73.95768">
        <ele>30</ele>
        <time>2012-04-16T11:13:24Z</time>
      </trkpt>
      <trkpt lat="40.80062" lon="-73.95768">
        <ele>30</ele>
        <time>2012-04-16T11:13:25Z</time>
      </trkpt>
      <trkpt lat="40.80061" lon="-73.95768">
        <ele>29</ele>
        <time>2012-04-16T11:13:26Z</time>
      </trkpt>
      <trkpt lat="40.8006" lon="-73.95768">
        <ele>29</ele>
        <time>2012-04-16T11:13:27Z</time>
      </trkpt>
      <trkpt lat="40.80058" lon="-73.95768">
        <ele>29</ele>
        <time>2012-04-16T11:13:29Z</time>
      </trkpt>
      <trkpt lat="40.80056" lon="-73.9577">
        <ele>29</ele>
        <time>2012-04-16T11:13:31Z</time>
      </trkpt>
      <trkpt lat="40.80054" lon="-73.9577">
        <ele>29</ele>
        <time>2012-04-16T11:13:33Z</time>
      </trkpt>
      <trkpt lat="40.80053" lon="-73.9577">
        <ele>29</ele>
        <time>2012-04-16T11:13:37Z</time>
      </trkpt>
      <trkpt lat="40.80054" lon="-73.9577">
        <ele>29</ele>
        <time>2012-04-16T11:13:46Z</time>
      </trkpt>
      <trkpt lat="40.80052" lon="-73.9577">
        <ele>34</ele>
        <time>2012-04-16T11:13:52Z</time>
      </trkpt>
      <trkpt lat="40.80051" lon="-73.95771">
        <ele>35</ele>
        <time>2012-04-16T11:13:53Z</time>
      </trkpt>
      <trkpt lat="40.8005" lon="-73.95772">
        <ele>36</ele>
        <time>2012-04-16T11:13:54Z</time>
      </trkpt>
      <trkpt lat="40.80048" lon="-73.95773">
        <ele>37</ele>
        <time>2012-04-16T11:13:55Z</time>
      </trkpt>
      <trkpt lat="40.80047" lon="-73.95773">
        <ele>37</ele>
        <time>2012-04-16T11:13:56Z</time>
      </trkpt>
      <trkpt lat="40.80046" lon="-73.95774">
        <ele>37</ele>
        <time>2012-04-16T11:13:57Z</time>
      </trkpt>
      <trkpt lat="40.80045" lon="-73.95776">
        <ele>37</ele>
        <time>2012-04-16T11:13:58Z</time>
      </trkpt>
      <trkpt lat="40.80043" lon="-73.95777">
        <ele>37</ele>
        <time>2012-04-16T11:13:59Z</time>
      </trkpt>
      <trkpt lat="40.80042" lon="-73.95778">
        <ele>37</ele>
        <time>2012-04-16T11:14:00Z</time>
      </trkpt>
      <trkpt lat="40.8004" lon="-73.95779">
        <ele>37</ele>
        <time>2012-04-16T11:14:01Z</time>
      </trkpt>
      <trkpt lat="40.80039" lon="-73.95779">
        <ele>37</ele>
        <time>2012-04-16T11:14:02Z</time>
      </trkpt>
      <trkpt lat="40.80037" lon="-73.95781">
        <ele>37</ele>
        <time>2012-04-16T11:14:03Z</time>
      </trkpt>
      <trkpt lat="40.80035" lon="-73.95782">
        <ele>37</ele>
        <time>2012-04-16T11:14:04Z</time>
      </trkpt>
      <trkpt lat="40.80033" lon="-73.95783">
        <ele>36</ele>
        <time>2012-04-16T11:14:05Z</time>
      </trkpt>
      <trkpt lat="40.80032" lon="-73.95786">
        <ele>36</ele>
        <time>2012-04-16T11:14:06Z</time>
      </trkpt>
      <trkpt lat="40.8003" lon="-73.95787">
        <ele>35</ele>
        <time>2012-04-16T11:14:07Z</time>
      </trkpt>
      <trkpt lat="40.80028" lon="-73.95789">
        <ele>34</ele>
        <time>2012-04-16T11:14:08Z</time>
      </trkpt>
      <trkpt lat="40.80027" lon="-73.95791">
        <ele>33</ele>
        <time>2012-04-16T11:14:09Z</time>
      </trkpt>
      <trkpt lat="40.80026" lon="-73.95792">
        <ele>32</ele>
        <time>2012-04-16T11:14:10Z</time>
      </trkpt>
      <trkpt lat="40.80024" lon="-73.95794">
        <ele>32</ele>
        <time>2012-04-16T11:14:11Z</time>
      </trkpt>
      <trkpt lat="40.80022" lon="-73.95794">
        <ele>31</ele>
        <time>2012-04-16T11:14:12Z</time>
      </trkpt>
      <trkpt lat="40.80021" lon="-73.95794">
        <ele>31</ele>
        <time>2012-04-16T11:14:13Z</time>
      </trkpt>
      <trkpt lat="40.80019" lon="-73.95794">
        <ele>31</ele>
        <time>2012-04-16T11:14:14Z</time>
      </trkpt>
      <trkpt lat="40.80016" lon="-73.95794">
        <ele>31</ele>
        <time>2012-04-16T11:14:15Z</time>
      </trkpt>
      <trkpt lat="40.80014" lon="-73.95793">
        <ele>31</ele>
        <time>2012-04-16T11:14:16Z</time>
      </trkpt>
      <trkpt lat="40.80012" lon="-73.95792">
        <ele>31</ele>
        <time>2012-04-16T11:14:17Z</time>
      </trkpt>
      <trkpt lat="40.8001" lon="-73.9579">
        <ele>31</ele>
        <time>2012-04-16T11:14:18Z</time>
      </trkpt>
      <trkpt lat="40.80008" lon="-73.95789">
        <ele>31</ele>
        <time>2012-04-16T11:14:19Z</time>
      </trkpt>
      <trkpt lat="40.80006" lon="-73.95789">
        <ele>31</ele>
        <time>2012-04-16T11:14:20Z</time>
      </trkpt>
      <trkpt lat="40.80004" lon="-73.95788">
        <ele>31</ele>
        <time>2012-04-16T11:14:21Z</time>
      </trkpt>
      <trkpt lat="40.80002" lon="-73.95787">
        <ele>31</ele>
        <time>2012-04-16T11:14:22Z</time>
      </trkpt>
      <trkpt lat="40.79999" lon="-73.95786">
        <ele>30</ele>
        <time>2012-04-16T11:14:23Z</time>
      </trkpt>
      <trkpt lat="40.79997" lon="-73.95785">
        <ele>30</ele>
        <time>2012-04-16T11:14:24Z</time>
      </trkpt>
      <trkpt lat="40.79994" lon="-73.95783">
        <ele>30</ele>
        <time>2012-04-16T11:14:25Z</time>
      </trkpt>
      <trkpt lat="40.79992" lon="-73.95782">
        <ele>29</ele>
        <time>2012-04-16T11:14:26Z</time>
      </trkpt>
      <trkpt lat="40.7999" lon="-73.95782">
        <ele>29</ele>
        <time>2012-04-16T11:14:27Z</time>
      </trkpt>
      <trkpt lat="40.79988" lon="-73.95782">
        <ele>29</ele>
        <time>2012-04-16T11:14:28Z</time>
      </trkpt>
      <trkpt lat="40.79985" lon="-73.95782">
        <ele>28</ele>
        <time>2012-04-16T11:14:29Z</time>
      </trkpt>
      <trkpt lat="40.79984" lon="-73.95782">
        <ele>28</ele>
        <time>2012-04-16T11:14:30Z</time>
      </trkpt>
      <trkpt lat="40.79982" lon="-73.95781">
        <ele>27</ele>
        <time>2012-04-16T11:14:31Z</time>
      </trkpt>
      <trkpt lat="40.79979" lon="-73.9578">
        <ele>27</ele>
        <time>2012-04-16T11:14:32Z</time>
      </trkpt>
      <trkpt lat="40.79977" lon="-73.9578">
        <ele>27</ele>
        <time>2012-04-16T11:14:33Z</time>
      </trkpt>
      <trkpt lat="40.79975" lon="-73.9578">
        <ele>27</ele>
        <time>2012-04-16T11:14:34Z</time>
      </trkpt>
      <trkpt lat="40.79974" lon="-73.9578">
        <ele>27</ele>
        <time>2012-04-16T11:14:35Z</time>
      </trkpt>
      <trkpt lat="40.79971" lon="-73.95779">
        <ele>27</ele>
        <time>2012-04-16T11:14:36Z</time>
      </trkpt>
      <trkpt lat="40.79969" lon="-73.95779">
        <ele>27</ele>
        <time>2012-04-16T11:14:37Z</time>
      </trkpt>
      <trkpt lat="40.79967" lon="-73.95779">
        <ele>27</ele>
        <time>2012-04-16T11:14:38Z</time>
      </trkpt>
      <trkpt lat="40.79966" lon="-73.95779">
        <ele>27</ele>
        <time>2012-04-16T11:14:39Z</time>
      </trkpt>
      <trkpt lat="40.79963" lon="-73.9578">
        <ele>27</ele>
        <time>2012-04-16T11:14:40Z</time>
      </trkpt>
      <trkpt lat="40.79961" lon="-73.95782">
        <ele>27</ele>
        <time>2012-04-16T11:14:41Z</time>
      </trkpt>
      <trkpt lat="40.7996" lon="-73.95783">
        <ele>27</ele>
        <time>2012-04-16T11:14:42Z</time>
      </trkpt>
      <trkpt lat="40.79958" lon="-73.95786">
        <ele>27</ele>
        <time>2012-04-16T11:14:43Z</time>
      </trkpt>
      <trkpt lat="40.79957" lon="-73.95789">
        <ele>27</ele>
        <time>2012-04-16T11:14:44Z</time>
      </trkpt>
      <trkpt lat="40.79956" lon="-73.95791">
        <ele>27</ele>
        <time>2012-04-16T11:14:45Z</time>
      </trkpt>
      <trkpt lat="40.79955" lon="-73.95793">
        <ele>27</ele>
        <time>2012-04-16T11:14:46Z</time>
      </trkpt>
      <trkpt lat="40.79953" lon="-73.95795">
        <ele>27</ele>
        <time>2012-04-16T11:14:47Z</time>
      </trkpt>
      <trkpt lat="40.79951" lon="-73.95797">
        <ele>27</ele>
        <time>2012-04-16T11:14:48Z</time>
      </trkpt>
      <trkpt lat="40.79949" lon="-73.95798">
        <ele>27</ele>
        <time>2012-04-16T11:14:49Z</time>
      </trkpt>
      <trkpt lat="40.79947" lon="-73.958">
        <ele>27</ele>
        <time>2012-04-16T11:14:50Z</time>
      </trkpt>
      <trkpt lat="40.79945" lon="-73.95802">
        <ele>27</ele>
        <time>2012-04-16T11:14:51Z</time>
      </trkpt>
      <trkpt lat="40.79944" lon="-73.95804">
        <ele>27</ele>
        <time>2012-04-16T11:14:52Z</time>
      </trkpt>
      <trkpt lat="40.79942" lon="-73.95806">
        <ele>26</ele>
        <time>2012-04-16T11:14:53Z</time>
      </trkpt>
      <trkpt lat="40.79941" lon="-73.95808">
        <ele>26</ele>
        <time>2012-04-16T11:14:54Z</time>
      </trkpt>
      <trkpt lat="40.7994" lon="-73.9581">
        <ele>25</ele>
        <time>2012-04-16T11:14:55Z</time>
      </trkpt>
      <trkpt lat="40.79939" lon="-73.95811">
        <ele>25</ele>
        <time>2012-04-16T11:14:56Z</time>
      </trkpt>
      <trkpt lat="40.79937" lon="-73.95814">
        <ele>25</ele>
        <time>2012-04-16T11:14:57Z</time>
      </trkpt>
      <trkpt lat="40.79936" lon="-73.95815">
        <ele>25</ele>
        <time>2012-04-16T11:14:58Z</time>
      </trkpt>
      <trkpt lat="40.79934" lon="-73.95817">
        <ele>25</ele>
        <time>2012-04-16T11:14:59Z</time>
      </trkpt>
      <trkpt lat="40.79933" lon="-73.95818">
        <ele>25</ele>
        <time>2012-04-16T11:15:00Z</time>
      </trkpt>
      <trkpt lat="40.79931" lon="-73.95821">
        <ele>25</ele>
        <time>2012-04-16T11:15:01Z</time>
      </trkpt>
      <trkpt lat="40.79929" lon="-73.95822">
        <ele>25</ele>
        <time>2012-04-16T11:15:02Z</time>
      </trkpt>
      <trkpt lat="40.79928" lon="-73.95824">
        <ele>25</ele>
        <time>2012-04-16T11:15:03Z</time>
      </trkpt>
      <trkpt lat="40.79927" lon="-73.95825">
        <ele>25</ele>
        <time>2012-04-16T11:15:04Z</time>
      </trkpt>
      <trkpt lat="40.79925" lon="-73.95827">
        <ele>25</ele>
        <time>2012-04-16T11:15:05Z</time>
      </trkpt>
      <trkpt lat="40.79923" lon="-73.95827">
        <ele>25</ele>
        <time>2012-04-16T11:15:06Z</time>
      </trkpt>
      <trkpt lat="40.79922" lon="-73.95829">
        <ele>24</ele>
        <time>2012-04-16T11:15:07Z</time>
      </trkpt>
      <trkpt lat="40.7992" lon="-73.9583">
        <ele>24</ele>
        <time>2012-04-16T11:15:08Z</time>
      </trkpt>
      <trkpt lat="40.79918" lon="-73.95832">
        <ele>24</ele>
        <time>2012-04-16T11:15:09Z</time>
      </trkpt>
      <trkpt lat="40.79916" lon="-73.95834">
        <ele>24</ele>
        <time>2012-04-16T11:15:10Z</time>
      </trkpt>
      <trkpt lat="40.79914" lon="-73.95835">
        <ele>24</ele>
        <time>2012-04-16T11:15:11Z</time>
      </trkpt>
      <trkpt lat="40.79912" lon="-73.95836">
        <ele>24</ele>
        <time>2012-04-16T11:15:12Z</time>
      </trkpt>
      <trkpt lat="40.7991" lon="-73.95837">
        <ele>24</ele>
        <time>2012-04-16T11:15:13Z</time>
      </trkpt>
      <trkpt lat="40.79908" lon="-73.95838">
        <ele>24</ele>
        <time>2012-04-16T11:15:15Z</time>
      </trkpt>
      <trkpt lat="40.79907" lon="-73.9584">
        <ele>24</ele>
        <time>2012-04-16T11:15:15Z</time>
      </trkpt>
      <trkpt lat="40.79905" lon="-73.9584">
        <ele>24</ele>
        <time>2012-04-16T11:15:16Z</time>
      </trkpt>
      <trkpt lat="40.79903" lon="-73.95841">
        <ele>24</ele>
        <time>2012-04-16T11:15:17Z</time>
      </trkpt>
      <trkpt lat="40.79902" lon="-73.95843">
        <ele>24</ele>
        <time>2012-04-16T11:15:18Z</time>
      </trkpt>
      <trkpt lat="40.799" lon="-73.95844">
        <ele>24</ele>
        <time>2012-04-16T11:15:19Z</time>
      </trkpt>
      <trkpt lat="40.79898" lon="-73.95844">
        <ele>24</ele>
        <time>2012-04-16T11:15:20Z</time>
      </trkpt>
      <trkpt lat="40.79896" lon="-73.95844">
        <ele>24</ele>
        <time>2012-04-16T11:15:21Z</time>
      </trkpt>
      <trkpt lat="40.79895" lon="-73.95845">
        <ele>24</ele>
        <time>2012-04-16T11:15:22Z</time>
      </trkpt>
      <trkpt lat="40.79893" lon="-73.95845">
        <ele>24</ele>
        <time>2012-04-16T11:15:23Z</time>
      </trkpt>
      <trkpt lat="40.7989" lon="-73.95846">
        <ele>24</ele>
        <time>2012-04-16T11:15:24Z</time>
      </trkpt>
      <trkpt lat="40.79889" lon="-73.95846">
        <ele>24</ele>
        <time>2012-04-16T11:15:25Z</time>
      </trkpt>
      <trkpt lat="40.79887" lon="-73.95846">
        <ele>24</ele>
        <time>2012-04-16T11:15:26Z</time>
      </trkpt>
      <trkpt lat="40.79885" lon="-73.95847">
        <ele>24</ele>
        <time>2012-04-16T11:15:27Z</time>
      </trkpt>
      <trkpt lat="40.79883" lon="-73.95847">
        <ele>24</ele>
        <time>2012-04-16T11:15:28Z</time>
      </trkpt>
      <trkpt lat="40.79881" lon="-73.95847">
        <ele>24</ele>
        <time>2012-04-16T11:15:29Z</time>
      </trkpt>
      <trkpt lat="40.79879" lon="-73.95847">
        <ele>24</ele>
        <time>2012-04-16T11:15:30Z</time>
      </trkpt>
      <trkpt lat="40.79878" lon="-73.95846">
        <ele>24</ele>
        <time>2012-04-16T11:15:31Z</time>
      </trkpt>
      <trkpt lat="40.79876" lon="-73.95846">
        <ele>24</ele>
        <time>2012-04-16T11:15:32Z</time>
      </trkpt>
      <trkpt lat="40.79874" lon="-73.95846">
        <ele>24</ele>
        <time>2012-04-16T11:15:33Z</time>
      </trkpt>
      <trkpt lat="40.79872" lon="-73.95845">
        <ele>24</ele>
        <time>2012-04-16T11:15:34Z</time>
      </trkpt>
      <trkpt lat="40.7987" lon="-73.95844">
        <ele>24</ele>
        <time>2012-04-16T11:15:35Z</time>
      </trkpt>
      <trkpt lat="40.79868" lon="-73.95844">
        <ele>24</ele>
        <time>2012-04-16T11:15:36Z</time>
      </trkpt>
      <trkpt lat="40.79866" lon="-73.95843">
        <ele>24</ele>
        <time>2012-04-16T11:15:37Z</time>
      </trkpt>
      <trkpt lat="40.79865" lon="-73.95843">
        <ele>24</ele>
        <time>2012-04-16T11:15:38Z</time>
      </trkpt>
      <trkpt lat="40.79863" lon="-73.95841">
        <ele>24</ele>
        <time>2012-04-16T11:15:39Z</time>
      </trkpt>
      <trkpt lat="40.79861" lon="-73.9584">
        <ele>24</ele>
        <time>2012-04-16T11:15:40Z</time>
      </trkpt>
      <trkpt lat="40.79858" lon="-73.95838">
        <ele>24</ele>
        <time>2012-04-16T11:15:41Z</time>
      </trkpt>
      <trkpt lat="40.79857" lon="-73.95837">
        <ele>24</ele>
        <time>2012-04-16T11:15:42Z</time>
      </trkpt>
      <trkpt lat="40.79855" lon="-73.95836">
        <ele>24</ele>
        <time>2012-04-16T11:15:43Z</time>
      </trkpt>
      <trkpt lat="40.79853" lon="-73.95834">
        <ele>24</ele>
        <time>2012-04-16T11:15:44Z</time>
      </trkpt>
      <trkpt lat="40.79852" lon="-73.95833">
        <ele>24</ele>
        <time>2012-04-16T11:15:45Z</time>
      </trkpt>
      <trkpt lat="40.7985" lon="-73.95831">
        <ele>24</ele>
        <time>2012-04-16T11:15:46Z</time>
      </trkpt>
      <trkpt lat="40.79849" lon="-73.95829">
        <ele>24</ele>
        <time>2012-04-16T11:15:47Z</time>
      </trkpt>
      <trkpt lat="40.79848" lon="-73.95827">
        <ele>24</ele>
        <time>2012-04-16T11:15:48Z</time>
      </trkpt>
      <trkpt lat="40.79846" lon="-73.95826">
        <ele>24</ele>
        <time>2012-04-16T11:15:49Z</time>
      </trkpt>
      <trkpt lat="40.79845" lon="-73.95824">
        <ele>24</ele>
        <time>2012-04-16T11:15:50Z</time>
      </trkpt>
      <trkpt lat="40.79844" lon="-73.95823">
        <ele>24</ele>
        <time>2012-04-16T11:15:51Z</time>
      </trkpt>
      <trkpt lat="40.79842" lon="-73.95821">
        <ele>24</ele>
        <time>2012-04-16T11:15:52Z</time>
      </trkpt>
      <trkpt lat="40.79842" lon="-73.9582">
        <ele>24</ele>
        <time>2012-04-16T11:15:53Z</time>
      </trkpt>
      <trkpt lat="40.79841" lon="-73.95818">
        <ele>24</ele>
        <time>2012-04-16T11:15:54Z</time>
      </trkpt>
      <trkpt lat="40.7984" lon="-73.95815">
        <ele>24</ele>
        <time>2012-04-16T11:15:55Z</time>
      </trkpt>
      <trkpt lat="40.79839" lon="-73.95814">
        <ele>24</ele>
        <time>2012-04-16T11:15:56Z</time>
      </trkpt>
      <trkpt lat="40.79837" lon="-73.95811">
        <ele>24</ele>
        <time>2012-04-16T11:15:57Z</time>
      </trkpt>
      <trkpt lat="40.79837" lon="-73.9581">
        <ele>24</ele>
        <time>2012-04-16T11:15:58Z</time>
      </trkpt>
      <trkpt lat="40.79836" lon="-73.95808">
        <ele>24</ele>
        <time>2012-04-16T11:15:59Z</time>
      </trkpt>
      <trkpt lat="40.79836" lon="-73.95806">
        <ele>24</ele>
        <time>2012-04-16T11:16:00Z</time>
      </trkpt>
      <trkpt lat="40.79835" lon="-73.95804">
        <ele>24</ele>
        <time>2012-04-16T11:16:01Z</time>
      </trkpt>
      <trkpt lat="40.79834" lon="-73.95802">
        <ele>24</ele>
        <time>2012-04-16T11:16:02Z</time>
      </trkpt>
      <trkpt lat="40.79834" lon="-73.958">
        <ele>24</ele>
        <time>2012-04-16T11:16:03Z</time>
      </trkpt>
      <trkpt lat="40.79834" lon="-73.95798">
        <ele>24</ele>
        <time>2012-04-16T11:16:04Z</time>
      </trkpt>
      <trkpt lat="40.79833" lon="-73.95795">
        <ele>24</ele>
        <time>2012-04-16T11:16:05Z</time>
      </trkpt>
      <trkpt lat="40.79832" lon="-73.95794">
        <ele>24</ele>
        <time>2012-04-16T11:16:06Z</time>
      </trkpt>
      <trkpt lat="40.79832" lon="-73.95792">
        <ele>24</ele>
        <time>2012-04-16T11:16:07Z</time>
      </trkpt>
      <trkpt lat="40.79831" lon="-73.95789">
        <ele>24</ele>
        <time>2012-04-16T11:16:08Z</time>
      </trkpt>
      <trkpt lat="40.79831" lon="-73.95789">
        <ele>24</ele>
        <time>2012-04-16T11:16:09Z</time>
      </trkpt>
      <trkpt lat="40.79831" lon="-73.95786">
        <ele>24</ele>
        <time>2012-04-16T11:16:11Z</time>
      </trkpt>
      <trkpt lat="40.79831" lon="-73.95785">
        <ele>25</ele>
        <time>2012-04-16T11:16:12Z</time>
      </trkpt>
      <trkpt lat="40.79831" lon="-73.95782">
        <ele>25</ele>
        <time>2012-04-16T11:16:14Z</time>
      </trkpt>
      <trkpt lat="40.79831" lon="-73.95781">
        <ele>25</ele>
        <time>2012-04-16T11:16:15Z</time>
      </trkpt>
      <trkpt lat="40.79832" lon="-73.95779">
        <ele>25</ele>
        <time>2012-04-16T11:16:16Z</time>
      </trkpt>
      <trkpt lat="40.79833" lon="-73.95776">
        <ele>25</ele>
        <time>2012-04-16T11:16:17Z</time>
      </trkpt>
      <trkpt lat="40.79833" lon="-73.95775">
        <ele>25</ele>
        <time>2012-04-16T11:16:18Z</time>
      </trkpt>
      <trkpt lat="40.79833" lon="-73.95774">
        <ele>25</ele>
        <time>2012-04-16T11:16:19Z</time>
      </trkpt>
      <trkpt lat="40.79833" lon="-73.95773">
        <ele>25</ele>
        <time>2012-04-16T11:16:20Z</time>
      </trkpt>
      <trkpt lat="40.79833" lon="-73.95771">
        <ele>25</ele>
        <time>2012-04-16T11:16:21Z</time>
      </trkpt>
      <trkpt lat="40.79833" lon="-73.95769">
        <ele>25</ele>
        <time>2012-04-16T11:16:22Z</time>
      </trkpt>
      <trkpt lat="40.79833" lon="-73.95767">
        <ele>25</ele>
        <time>2012-04-16T11:16:23Z</time>
      </trkpt>
      <trkpt lat="40.79833" lon="-73.95765">
        <ele>25</ele>
        <time>2012-04-16T11:16:24Z</time>
      </trkpt>
      <trkpt lat="40.79832" lon="-73.95763">
        <ele>25</ele>
        <time>2012-04-16T11:16:25Z</time>
      </trkpt>
      <trkpt lat="40.79831" lon="-73.9576">
        <ele>25</ele>
        <time>2012-04-16T11:16:26Z</time>
      </trkpt>
      <trkpt lat="40.7983" lon="-73.95759">
        <ele>24</ele>
        <time>2012-04-16T11:16:27Z</time>
      </trkpt>
      <trkpt lat="40.79829" lon="-73.95757">
        <ele>24</ele>
        <time>2012-04-16T11:16:28Z</time>
      </trkpt>
      <trkpt lat="40.79829" lon="-73.95755">
        <ele>24</ele>
        <time>2012-04-16T11:16:29Z</time>
      </trkpt>
      <trkpt lat="40.79828" lon="-73.95753">
        <ele>24</ele>
        <time>2012-04-16T11:16:30Z</time>
      </trkpt>
      <trkpt lat="40.79828" lon="-73.95751">
        <ele>24</ele>
        <time>2012-04-16T11:16:31Z</time>
      </trkpt>
      <trkpt lat="40.79826" lon="-73.95748">
        <ele>24</ele>
        <time>2012-04-16T11:16:33Z</time>
      </trkpt>
      <trkpt lat="40.79826" lon="-73.95746">
        <ele>24</ele>
        <time>2012-04-16T11:16:34Z</time>
      </trkpt>
      <trkpt lat="40.79825" lon="-73.95744">
        <ele>24</ele>
        <time>2012-04-16T11:16:35Z</time>
      </trkpt>
      <trkpt lat="40.79824" lon="-73.95743">
        <ele>24</ele>
        <time>2012-04-16T11:16:36Z</time>
      </trkpt>
      <trkpt lat="40.79823" lon="-73.95741">
        <ele>24</ele>
        <time>2012-04-16T11:16:37Z</time>
      </trkpt>
      <trkpt lat="40.79822" lon="-73.95738">
        <ele>24</ele>
        <time>2012-04-16T11:16:38Z</time>
      </trkpt>
      <trkpt lat="40.79821" lon="-73.95736">
        <ele>24</ele>
        <time>2012-04-16T11:16:39Z</time>
      </trkpt>
      <trkpt lat="40.79819" lon="-73.95734">
        <ele>24</ele>
        <time>2012-04-16T11:16:40Z</time>
      </trkpt>
      <trkpt lat="40.79818" lon="-73.95731">
        <ele>24</ele>
        <time>2012-04-16T11:16:41Z</time>
      </trkpt>
      <trkpt lat="40.79817" lon="-73.9573">
        <ele>25</ele>
        <time>2012-04-16T11:16:42Z</time>
      </trkpt>
      <trkpt lat="40.79816" lon="-73.95728">
        <ele>26</ele>
        <time>2012-04-16T11:16:43Z</time>
      </trkpt>
      <trkpt lat="40.79814" lon="-73.95727">
        <ele>26</ele>
        <time>2012-04-16T11:16:44Z</time>
      </trkpt>
      <trkpt lat="40.79812" lon="-73.95726">
        <ele>27</ele>
        <time>2012-04-16T11:16:45Z</time>
      </trkpt>
      <trkpt lat="40.7981" lon="-73.95724">
        <ele>28</ele>
        <time>2012-04-16T11:16:46Z</time>
      </trkpt>
      <trkpt lat="40.79809" lon="-73.95721">
        <ele>28</ele>
        <time>2012-04-16T11:16:47Z</time>
      </trkpt>
      <trkpt lat="40.79807" lon="-73.9572">
        <ele>29</ele>
        <time>2012-04-16T11:16:48Z</time>
      </trkpt>
      <trkpt lat="40.79806" lon="-73.95719">
        <ele>29</ele>
        <time>2012-04-16T11:16:49Z</time>
      </trkpt>
      <trkpt lat="40.79805" lon="-73.95718">
        <ele>29</ele>
        <time>2012-04-16T11:16:50Z</time>
      </trkpt>
      <trkpt lat="40.79804" lon="-73.95716">
        <ele>30</ele>
        <time>2012-04-16T11:16:51Z</time>
      </trkpt>
      <trkpt lat="40.79802" lon="-73.95715">
        <ele>30</ele>
        <time>2012-04-16T11:16:52Z</time>
      </trkpt>
      <trkpt lat="40.79801" lon="-73.95713">
        <ele>30</ele>
        <time>2012-04-16T11:16:53Z</time>
      </trkpt>
      <trkpt lat="40.798" lon="-73.95712">
        <ele>31</ele>
        <time>2012-04-16T11:16:54Z</time>
      </trkpt>
      <trkpt lat="40.79799" lon="-73.95711">
        <ele>31</ele>
        <time>2012-04-16T11:16:55Z</time>
      </trkpt>
      <trkpt lat="40.79797" lon="-73.9571">
        <ele>31</ele>
        <time>2012-04-16T11:16:56Z</time>
      </trkpt>
      <trkpt lat="40.79796" lon="-73.95709">
        <ele>31</ele>
        <time>2012-04-16T11:16:57Z</time>
      </trkpt>
      <trkpt lat="40.79794" lon="-73.95708">
        <ele>31</ele>
        <time>2012-04-16T11:16:58Z</time>
      </trkpt>
      <trkpt lat="40.79793" lon="-73.95707">
        <ele>32</ele>
        <time>2012-04-16T11:16:59Z</time>
      </trkpt>
      <trkpt lat="40.79792" lon="-73.95705">
        <ele>32</ele>
        <time>2012-04-16T11:17:00Z</time>
      </trkpt>
      <trkpt lat="40.7979" lon="-73.95704">
        <ele>32</ele>
        <time>2012-04-16T11:17:01Z</time>
      </trkpt>
      <trkpt lat="40.79789" lon="-73.95702">
        <ele>32</ele>
        <time>2012-04-16T11:17:02Z</time>
      </trkpt>
      <trkpt lat="40.79787" lon="-73.95702">
        <ele>32</ele>
        <time>2012-04-16T11:17:03Z</time>
      </trkpt>
      <trkpt lat="40.79786" lon="-73.95702">
        <ele>32</ele>
        <time>2012-04-16T11:17:04Z</time>
      </trkpt>
      <trkpt lat="40.79785" lon="-73.95701">
        <ele>32</ele>
        <time>2012-04-16T11:17:05Z</time>
      </trkpt>
      <trkpt lat="40.79784" lon="-73.957">
        <ele>32</ele>
        <time>2012-04-16T11:17:06Z</time>
      </trkpt>
      <trkpt lat="40.79782" lon="-73.957">
        <ele>32</ele>
        <time>2012-04-16T11:17:07Z</time>
      </trkpt>
      <trkpt lat="40.79781" lon="-73.95699">
        <ele>32</ele>
        <time>2012-04-16T11:17:08Z</time>
      </trkpt>
      <trkpt lat="40.79779" lon="-73.95699">
        <ele>32</ele>
        <time>2012-04-16T11:17:09Z</time>
      </trkpt>
      <trkpt lat="40.79778" lon="-73.95698">
        <ele>32</ele>
        <time>2012-04-16T11:17:10Z</time>
      </trkpt>
      <trkpt lat="40.79776" lon="-73.95697">
        <ele>32</ele>
        <time>2012-04-16T11:17:11Z</time>
      </trkpt>
      <trkpt lat="40.79775" lon="-73.95696">
        <ele>32</ele>
        <time>2012-04-16T11:17:12Z</time>
      </trkpt>
      <trkpt lat="40.79773" lon="-73.95695">
        <ele>32</ele>
        <time>2012-04-16T11:17:13Z</time>
      </trkpt>
      <trkpt lat="40.79772" lon="-73.95695">
        <ele>32</ele>
        <time>2012-04-16T11:17:14Z</time>
      </trkpt>
      <trkpt lat="40.7977" lon="-73.95695">
        <ele>32</ele>
        <time>2012-04-16T11:17:15Z</time>
      </trkpt>
      <trkpt lat="40.79769" lon="-73.95695">
        <ele>32</ele>
        <time>2012-04-16T11:17:16Z</time>
      </trkpt>
      <trkpt lat="40.79767" lon="-73.95696">
        <ele>32</ele>
        <time>2012-04-16T11:17:18Z</time>
      </trkpt>
      <trkpt lat="40.79766" lon="-73.95696">
        <ele>32</ele>
        <time>2012-04-16T11:17:19Z</time>
      </trkpt>
      <trkpt lat="40.79764" lon="-73.95696">
        <ele>32</ele>
        <time>2012-04-16T11:17:20Z</time>
      </trkpt>
      <trkpt lat="40.79763" lon="-73.95696">
        <ele>32</ele>
        <time>2012-04-16T11:17:21Z</time>
      </trkpt>
      <trkpt lat="40.79762" lon="-73.95697">
        <ele>32</ele>
        <time>2012-04-16T11:17:22Z</time>
      </trkpt>
      <trkpt lat="40.7976" lon="-73.95697">
        <ele>32</ele>
        <time>2012-04-16T11:17:23Z</time>
      </trkpt>
      <trkpt lat="40.79759" lon="-73.95698">
        <ele>32</ele>
        <time>2012-04-16T11:17:24Z</time>
      </trkpt>
      <trkpt lat="40.79757" lon="-73.95698">
        <ele>32</ele>
        <time>2012-04-16T11:17:25Z</time>
      </trkpt>
      <trkpt lat="40.79756" lon="-73.95698">
        <ele>32</ele>
        <time>2012-04-16T11:17:26Z</time>
      </trkpt>
      <trkpt lat="40.79754" lon="-73.95698">
        <ele>32</ele>
        <time>2012-04-16T11:17:27Z</time>
      </trkpt>
      <trkpt lat="40.79752" lon="-73.95697">
        <ele>32</ele>
        <time>2012-04-16T11:17:28Z</time>
      </trkpt>
      <trkpt lat="40.79751" lon="-73.95697">
        <ele>32</ele>
        <time>2012-04-16T11:17:29Z</time>
      </trkpt>
      <trkpt lat="40.79749" lon="-73.95697">
        <ele>32</ele>
        <time>2012-04-16T11:17:30Z</time>
      </trkpt>
      <trkpt lat="40.79747" lon="-73.95697">
        <ele>32</ele>
        <time>2012-04-16T11:17:31Z</time>
      </trkpt>
      <trkpt lat="40.79746" lon="-73.95697">
        <ele>32</ele>
        <time>2012-04-16T11:17:32Z</time>
      </trkpt>
      <trkpt lat="40.79744" lon="-73.95697">
        <ele>32</ele>
        <time>2012-04-16T11:17:33Z</time>
      </trkpt>
      <trkpt lat="40.79743" lon="-73.95697">
        <ele>32</ele>
        <time>2012-04-16T11:17:34Z</time>
      </trkpt>
      <trkpt lat="40.79741" lon="-73.95697">
        <ele>32</ele>
        <time>2012-04-16T11:17:35Z</time>
      </trkpt>
      <trkpt lat="40.7974" lon="-73.95697">
        <ele>32</ele>
        <time>2012-04-16T11:17:36Z</time>
      </trkpt>
      <trkpt lat="40.79738" lon="-73.95697">
        <ele>32</ele>
        <time>2012-04-16T11:17:37Z</time>
      </trkpt>
      <trkpt lat="40.79737" lon="-73.95697">
        <ele>32</ele>
        <time>2012-04-16T11:17:38Z</time>
      </trkpt>
      <trkpt lat="40.79735" lon="-73.95697">
        <ele>32</ele>
        <time>2012-04-16T11:17:39Z</time>
      </trkpt>
      <trkpt lat="40.79733" lon="-73.95697">
        <ele>32</ele>
        <time>2012-04-16T11:17:40Z</time>
      </trkpt>
      <trkpt lat="40.79732" lon="-73.95696">
        <ele>32</ele>
        <time>2012-04-16T11:17:41Z</time>
      </trkpt>
      <trkpt lat="40.79729" lon="-73.95695">
        <ele>32</ele>
        <time>2012-04-16T11:17:42Z</time>
      </trkpt>
      <trkpt lat="40.79727" lon="-73.95694">
        <ele>32</ele>
        <time>2012-04-16T11:17:43Z</time>
      </trkpt>
      <trkpt lat="40.79724" lon="-73.95693">
        <ele>32</ele>
        <time>2012-04-16T11:17:44Z</time>
      </trkpt>
      <trkpt lat="40.79722" lon="-73.95692">
        <ele>32</ele>
        <time>2012-04-16T11:17:45Z</time>
      </trkpt>
      <trkpt lat="40.7972" lon="-73.95692">
        <ele>32</ele>
        <time>2012-04-16T11:17:46Z</time>
      </trkpt>
      <trkpt lat="40.79717" lon="-73.9569">
        <ele>33</ele>
        <time>2012-04-16T11:17:47Z</time>
      </trkpt>
      <trkpt lat="40.79714" lon="-73.95689">
        <ele>33</ele>
        <time>2012-04-16T11:17:48Z</time>
      </trkpt>
      <trkpt lat="40.79712" lon="-73.95687">
        <ele>33</ele>
        <time>2012-04-16T11:17:49Z</time>
      </trkpt>
      <trkpt lat="40.7971" lon="-73.95686">
        <ele>33</ele>
        <time>2012-04-16T11:17:50Z</time>
      </trkpt>
      <trkpt lat="40.79707" lon="-73.95684">
        <ele>34</ele>
        <time>2012-04-16T11:17:51Z</time>
      </trkpt>
      <trkpt lat="40.79705" lon="-73.95683">
        <ele>34</ele>
        <time>2012-04-16T11:17:52Z</time>
      </trkpt>
      <trkpt lat="40.79703" lon="-73.95682">
        <ele>34</ele>
        <time>2012-04-16T11:17:53Z</time>
      </trkpt>
      <trkpt lat="40.79701" lon="-73.95681">
        <ele>34</ele>
        <time>2012-04-16T11:17:54Z</time>
      </trkpt>
      <trkpt lat="40.79699" lon="-73.9568">
        <ele>34</ele>
        <time>2012-04-16T11:17:55Z</time>
      </trkpt>
      <trkpt lat="40.79696" lon="-73.95679">
        <ele>34</ele>
        <time>2012-04-16T11:17:56Z</time>
      </trkpt>
      <trkpt lat="40.79694" lon="-73.95676">
        <ele>34</ele>
        <time>2012-04-16T11:17:57Z</time>
      </trkpt>
      <trkpt lat="40.79692" lon="-73.95676">
        <ele>34</ele>
        <time>2012-04-16T11:17:58Z</time>
      </trkpt>
      <trkpt lat="40.7969" lon="-73.95673">
        <ele>34</ele>
        <time>2012-04-16T11:17:59Z</time>
      </trkpt>
      <trkpt lat="40.79688" lon="-73.95673">
        <ele>34</ele>
        <time>2012-04-16T11:18:00Z</time>
      </trkpt>
      <trkpt lat="40.79685" lon="-73.95671">
        <ele>34</ele>
        <time>2012-04-16T11:18:01Z</time>
      </trkpt>
      <trkpt lat="40.79683" lon="-73.9567">
        <ele>34</ele>
        <time>2012-04-16T11:18:02Z</time>
      </trkpt>
      <trkpt lat="40.7968" lon="-73.95669">
        <ele>34</ele>
        <time>2012-04-16T11:18:03Z</time>
      </trkpt>
      <trkpt lat="40.79678" lon="-73.95669">
        <ele>34</ele>
        <time>2012-04-16T11:18:04Z</time>
      </trkpt>
      <trkpt lat="40.79676" lon="-73.95668">
        <ele>34</ele>
        <time>2012-04-16T11:18:05Z</time>
      </trkpt>
      <trkpt lat="40.79673" lon="-73.95667">
        <ele>34</ele>
        <time>2012-04-16T11:18:06Z</time>
      </trkpt>
      <trkpt lat="40.7967" lon="-73.95665">
        <ele>34</ele>
        <time>2012-04-16T11:18:07Z</time>
      </trkpt>
      <trkpt lat="40.79667" lon="-73.95665">
        <ele>34</ele>
        <time>2012-04-16T11:18:08Z</time>
      </trkpt>
      <trkpt lat="40.79664" lon="-73.95664">
        <ele>34</ele>
        <time>2012-04-16T11:18:09Z</time>
      </trkpt>
      <trkpt lat="40.79661" lon="-73.95663">
        <ele>34</ele>
        <time>2012-04-16T11:18:10Z</time>
      </trkpt>
      <trkpt lat="40.79658" lon="-73.95663">
        <ele>34</ele>
        <time>2012-04-16T11:18:11Z</time>
      </trkpt>
      <trkpt lat="40.79655" lon="-73.95662">
        <ele>34</ele>
        <time>2012-04-16T11:18:12Z</time>
      </trkpt>
      <trkpt lat="40.79653" lon="-73.95662">
        <ele>34</ele>
        <time>2012-04-16T11:18:13Z</time>
      </trkpt>
      <trkpt lat="40.7965" lon="-73.95663">
        <ele>34</ele>
        <time>2012-04-16T11:18:14Z</time>
      </trkpt>
      <trkpt lat="40.79648" lon="-73.95663">
        <ele>34</ele>
        <time>2012-04-16T11:18:15Z</time>
      </trkpt>
      <trkpt lat="40.79645" lon="-73.95664">
        <ele>34</ele>
        <time>2012-04-16T11:18:16Z</time>
      </trkpt>
      <trkpt lat="40.79643" lon="-73.95665">
        <ele>34</ele>
        <time>2012-04-16T11:18:17Z</time>
      </trkpt>
      <trkpt lat="40.79641" lon="-73.95666">
        <ele>34</ele>
        <time>2012-04-16T11:18:18Z</time>
      </trkpt>
      <trkpt lat="40.79639" lon="-73.95667">
        <ele>34</ele>
        <time>2012-04-16T11:18:19Z</time>
      </trkpt>
      <trkpt lat="40.79637" lon="-73.95668">
        <ele>34</ele>
        <time>2012-04-16T11:18:20Z</time>
      </trkpt>
      <trkpt lat="40.79634" lon="-73.9567">
        <ele>34</ele>
        <time>2012-04-16T11:18:21Z</time>
      </trkpt>
      <trkpt lat="40.79632" lon="-73.95671">
        <ele>34</ele>
        <time>2012-04-16T11:18:22Z</time>
      </trkpt>
      <trkpt lat="40.7963" lon="-73.95672">
        <ele>34</ele>
        <time>2012-04-16T11:18:23Z</time>
      </trkpt>
      <trkpt lat="40.79628" lon="-73.95673">
        <ele>34</ele>
        <time>2012-04-16T11:18:24Z</time>
      </trkpt>
      <trkpt lat="40.79625" lon="-73.95675">
        <ele>34</ele>
        <time>2012-04-16T11:18:25Z</time>
      </trkpt>
      <trkpt lat="40.79623" lon="-73.95676">
        <ele>34</ele>
        <time>2012-04-16T11:18:26Z</time>
      </trkpt>
      <trkpt lat="40.79621" lon="-73.95678">
        <ele>34</ele>
        <time>2012-04-16T11:18:27Z</time>
      </trkpt>
      <trkpt lat="40.79618" lon="-73.9568">
        <ele>34</ele>
        <time>2012-04-16T11:18:28Z</time>
      </trkpt>
      <trkpt lat="40.79616" lon="-73.95682">
        <ele>34</ele>
        <time>2012-04-16T11:18:29Z</time>
      </trkpt>
      <trkpt lat="40.79614" lon="-73.95683">
        <ele>33</ele>
        <time>2012-04-16T11:18:30Z</time>
      </trkpt>
      <trkpt lat="40.79612" lon="-73.95685">
        <ele>32</ele>
        <time>2012-04-16T11:18:31Z</time>
      </trkpt>
      <trkpt lat="40.7961" lon="-73.95686">
        <ele>32</ele>
        <time>2012-04-16T11:18:32Z</time>
      </trkpt>
      <trkpt lat="40.79608" lon="-73.95688">
        <ele>31</ele>
        <time>2012-04-16T11:18:33Z</time>
      </trkpt>
      <trkpt lat="40.79605" lon="-73.95689">
        <ele>31</ele>
        <time>2012-04-16T11:18:34Z</time>
      </trkpt>
      <trkpt lat="40.79603" lon="-73.95691">
        <ele>31</ele>
        <time>2012-04-16T11:18:35Z</time>
      </trkpt>
      <trkpt lat="40.79601" lon="-73.95693">
        <ele>31</ele>
        <time>2012-04-16T11:18:36Z</time>
      </trkpt>
      <trkpt lat="40.79599" lon="-73.95695">
        <ele>31</ele>
        <time>2012-04-16T11:18:37Z</time>
      </trkpt>
      <trkpt lat="40.79596" lon="-73.95697">
        <ele>31</ele>
        <time>2012-04-16T11:18:38Z</time>
      </trkpt>
      <trkpt lat="40.79595" lon="-73.95699">
        <ele>30</ele>
        <time>2012-04-16T11:18:39Z</time>
      </trkpt>
      <trkpt lat="40.79593" lon="-73.95701">
        <ele>30</ele>
        <time>2012-04-16T11:18:40Z</time>
      </trkpt>
      <trkpt lat="40.79591" lon="-73.95703">
        <ele>30</ele>
        <time>2012-04-16T11:18:41Z</time>
      </trkpt>
      <trkpt lat="40.79589" lon="-73.95705">
        <ele>30</ele>
        <time>2012-04-16T11:18:42Z</time>
      </trkpt>
      <trkpt lat="40.79587" lon="-73.95707">
        <ele>29</ele>
        <time>2012-04-16T11:18:43Z</time>
      </trkpt>
      <trkpt lat="40.79586" lon="-73.9571">
        <ele>29</ele>
        <time>2012-04-16T11:18:44Z</time>
      </trkpt>
      <trkpt lat="40.79584" lon="-73.95712">
        <ele>29</ele>
        <time>2012-04-16T11:18:45Z</time>
      </trkpt>
      <trkpt lat="40.79582" lon="-73.95715">
        <ele>28</ele>
        <time>2012-04-16T11:18:46Z</time>
      </trkpt>
      <trkpt lat="40.79581" lon="-73.95716">
        <ele>28</ele>
        <time>2012-04-16T11:18:47Z</time>
      </trkpt>
      <trkpt lat="40.79579" lon="-73.95718">
        <ele>28</ele>
        <time>2012-04-16T11:18:48Z</time>
      </trkpt>
      <trkpt lat="40.79577" lon="-73.95721">
        <ele>28</ele>
        <time>2012-04-16T11:18:49Z</time>
      </trkpt>
      <trkpt lat="40.79575" lon="-73.95723">
        <ele>28</ele>
        <time>2012-04-16T11:18:50Z</time>
      </trkpt>
      <trkpt lat="40.79573" lon="-73.95726">
        <ele>28</ele>
        <time>2012-04-16T11:18:51Z</time>
      </trkpt>
      <trkpt lat="40.79572" lon="-73.95728">
        <ele>28</ele>
        <time>2012-04-16T11:18:52Z</time>
      </trkpt>
      <trkpt lat="40.7957" lon="-73.95731">
        <ele>27</ele>
        <time>2012-04-16T11:18:53Z</time>
      </trkpt>
      <trkpt lat="40.79568" lon="-73.95734">
        <ele>27</ele>
        <time>2012-04-16T11:18:54Z</time>
      </trkpt>
      <trkpt lat="40.79567" lon="-73.95736">
        <ele>27</ele>
        <time>2012-04-16T11:18:55Z</time>
      </trkpt>
      <trkpt lat="40.79565" lon="-73.95739">
        <ele>27</ele>
        <time>2012-04-16T11:18:56Z</time>
      </trkpt>
      <trkpt lat="40.79564" lon="-73.95742">
        <ele>27</ele>
        <time>2012-04-16T11:18:57Z</time>
      </trkpt>
      <trkpt lat="40.79562" lon="-73.95744">
        <ele>27</ele>
        <time>2012-04-16T11:18:58Z</time>
      </trkpt>
      <trkpt lat="40.79561" lon="-73.95747">
        <ele>27</ele>
        <time>2012-04-16T11:18:59Z</time>
      </trkpt>
      <trkpt lat="40.7956" lon="-73.95749">
        <ele>27</ele>
        <time>2012-04-16T11:19:00Z</time>
      </trkpt>
      <trkpt lat="40.79559" lon="-73.95751">
        <ele>26</ele>
        <time>2012-04-16T11:19:01Z</time>
      </trkpt>
      <trkpt lat="40.79558" lon="-73.95754">
        <ele>26</ele>
        <time>2012-04-16T11:19:02Z</time>
      </trkpt>
      <trkpt lat="40.79556" lon="-73.95756">
        <ele>26</ele>
        <time>2012-04-16T11:19:03Z</time>
      </trkpt>
      <trkpt lat="40.79555" lon="-73.95758">
        <ele>26</ele>
        <time>2012-04-16T11:19:04Z</time>
      </trkpt>
      <trkpt lat="40.79554" lon="-73.95761">
        <ele>26</ele>
        <time>2012-04-16T11:19:05Z</time>
      </trkpt>
      <trkpt lat="40.79553" lon="-73.95763">
        <ele>26</ele>
        <time>2012-04-16T11:19:06Z</time>
      </trkpt>
      <trkpt lat="40.79552" lon="-73.95766">
        <ele>26</ele>
        <time>2012-04-16T11:19:07Z</time>
      </trkpt>
      <trkpt lat="40.79551" lon="-73.95769">
        <ele>26</ele>
        <time>2012-04-16T11:19:08Z</time>
      </trkpt>
      <trkpt lat="40.79549" lon="-73.95773">
        <ele>26</ele>
        <time>2012-04-16T11:19:09Z</time>
      </trkpt>
      <trkpt lat="40.79548" lon="-73.95775">
        <ele>26</ele>
        <time>2012-04-16T11:19:10Z</time>
      </trkpt>
      <trkpt lat="40.79547" lon="-73.95778">
        <ele>26</ele>
        <time>2012-04-16T11:19:11Z</time>
      </trkpt>
      <trkpt lat="40.79546" lon="-73.95781">
        <ele>26</ele>
        <time>2012-04-16T11:19:12Z</time>
      </trkpt>
      <trkpt lat="40.79545" lon="-73.95784">
        <ele>26</ele>
        <time>2012-04-16T11:19:13Z</time>
      </trkpt>
      <trkpt lat="40.79544" lon="-73.95786">
        <ele>26</ele>
        <time>2012-04-16T11:19:14Z</time>
      </trkpt>
      <trkpt lat="40.79544" lon="-73.95789">
        <ele>26</ele>
        <time>2012-04-16T11:19:15Z</time>
      </trkpt>
      <trkpt lat="40.79543" lon="-73.95792">
        <ele>26</ele>
        <time>2012-04-16T11:19:16Z</time>
      </trkpt>
      <trkpt lat="40.79542" lon="-73.95795">
        <ele>26</ele>
        <time>2012-04-16T11:19:17Z</time>
      </trkpt>
      <trkpt lat="40.79541" lon="-73.95798">
        <ele>26</ele>
        <time>2012-04-16T11:19:18Z</time>
      </trkpt>
      <trkpt lat="40.79539" lon="-73.95802">
        <ele>26</ele>
        <time>2012-04-16T11:19:19Z</time>
      </trkpt>
      <trkpt lat="40.79538" lon="-73.95805">
        <ele>26</ele>
        <time>2012-04-16T11:19:21Z</time>
      </trkpt>
      <trkpt lat="40.79538" lon="-73.95808">
        <ele>26</ele>
        <time>2012-04-16T11:19:21Z</time>
      </trkpt>
      <trkpt lat="40.79538" lon="-73.95811">
        <ele>26</ele>
        <time>2012-04-16T11:19:22Z</time>
      </trkpt>
      <trkpt lat="40.79537" lon="-73.95815">
        <ele>26</ele>
        <time>2012-04-16T11:19:23Z</time>
      </trkpt>
      <trkpt lat="40.79536" lon="-73.95818">
        <ele>26</ele>
        <time>2012-04-16T11:19:24Z</time>
      </trkpt>
      <trkpt lat="40.79536" lon="-73.95821">
        <ele>26</ele>
        <time>2012-04-16T11:19:25Z</time>
      </trkpt>
      <trkpt lat="40.79535" lon="-73.95824">
        <ele>26</ele>
        <time>2012-04-16T11:19:26Z</time>
      </trkpt>
      <trkpt lat="40.79533" lon="-73.95827">
        <ele>26</ele>
        <time>2012-04-16T11:19:27Z</time>
      </trkpt>
      <trkpt lat="40.79532" lon="-73.9583">
        <ele>26</ele>
        <time>2012-04-16T11:19:28Z</time>
      </trkpt>
      <trkpt lat="40.79531" lon="-73.95833">
        <ele>26</ele>
        <time>2012-04-16T11:19:29Z</time>
      </trkpt>
      <trkpt lat="40.7953" lon="-73.95836">
        <ele>26</ele>
        <time>2012-04-16T11:19:30Z</time>
      </trkpt>
      <trkpt lat="40.79529" lon="-73.9584">
        <ele>26</ele>
        <time>2012-04-16T11:19:31Z</time>
      </trkpt>
      <trkpt lat="40.79528" lon="-73.95844">
        <ele>26</ele>
        <time>2012-04-16T11:19:32Z</time>
      </trkpt>
      <trkpt lat="40.79527" lon="-73.95847">
        <ele>26</ele>
        <time>2012-04-16T11:19:33Z</time>
      </trkpt>
      <trkpt lat="40.79526" lon="-73.95849">
        <ele>26</ele>
        <time>2012-04-16T11:19:34Z</time>
      </trkpt>
      <trkpt lat="40.79525" lon="-73.95853">
        <ele>26</ele>
        <time>2012-04-16T11:19:35Z</time>
      </trkpt>
      <trkpt lat="40.79524" lon="-73.95856">
        <ele>26</ele>
        <time>2012-04-16T11:19:36Z</time>
      </trkpt>
      <trkpt lat="40.79523" lon="-73.95859">
        <ele>26</ele>
        <time>2012-04-16T11:19:37Z</time>
      </trkpt>
      <trkpt lat="40.79521" lon="-73.95862">
        <ele>26</ele>
        <time>2012-04-16T11:19:38Z</time>
      </trkpt>
      <trkpt lat="40.7952" lon="-73.95865">
        <ele>26</ele>
        <time>2012-04-16T11:19:39Z</time>
      </trkpt>
      <trkpt lat="40.79518" lon="-73.95867">
        <ele>26</ele>
        <time>2012-04-16T11:19:40Z</time>
      </trkpt>
      <trkpt lat="40.79517" lon="-73.9587">
        <ele>26</ele>
        <time>2012-04-16T11:19:41Z</time>
      </trkpt>
      <trkpt lat="40.79515" lon="-73.95873">
        <ele>26</ele>
        <time>2012-04-16T11:19:42Z</time>
      </trkpt>
      <trkpt lat="40.79514" lon="-73.95876">
        <ele>26</ele>
        <time>2012-04-16T11:19:43Z</time>
      </trkpt>
      <trkpt lat="40.79512" lon="-73.95879">
        <ele>26</ele>
        <time>2012-04-16T11:19:44Z</time>
      </trkpt>
      <trkpt lat="40.7951" lon="-73.95881">
        <ele>26</ele>
        <time>2012-04-16T11:19:45Z</time>
      </trkpt>
      <trkpt lat="40.79509" lon="-73.95883">
        <ele>25</ele>
        <time>2012-04-16T11:19:46Z</time>
      </trkpt>
      <trkpt lat="40.79507" lon="-73.95885">
        <ele>25</ele>
        <time>2012-04-16T11:19:47Z</time>
      </trkpt>
      <trkpt lat="40.79505" lon="-73.95888">
        <ele>24</ele>
        <time>2012-04-16T11:19:48Z</time>
      </trkpt>
      <trkpt lat="40.79503" lon="-73.9589">
        <ele>24</ele>
        <time>2012-04-16T11:19:49Z</time>
      </trkpt>
      <trkpt lat="40.79501" lon="-73.95892">
        <ele>24</ele>
        <time>2012-04-16T11:19:50Z</time>
      </trkpt>
      <trkpt lat="40.79499" lon="-73.95893">
        <ele>23</ele>
        <time>2012-04-16T11:19:51Z</time>
      </trkpt>
      <trkpt lat="40.79496" lon="-73.95894">
        <ele>23</ele>
        <time>2012-04-16T11:19:52Z</time>
      </trkpt>
      <trkpt lat="40.79495" lon="-73.95896">
        <ele>22</ele>
        <time>2012-04-16T11:19:53Z</time>
      </trkpt>
      <trkpt lat="40.79493" lon="-73.95898">
        <ele>22</ele>
        <time>2012-04-16T11:19:54Z</time>
      </trkpt>
      <trkpt lat="40.79491" lon="-73.95899">
        <ele>22</ele>
        <time>2012-04-16T11:19:55Z</time>
      </trkpt>
      <trkpt lat="40.79489" lon="-73.95901">
        <ele>22</ele>
        <time>2012-04-16T11:19:56Z</time>
      </trkpt>
      <trkpt lat="40.79486" lon="-73.95902">
        <ele>22</ele>
        <time>2012-04-16T11:19:57Z</time>
      </trkpt>
      <trkpt lat="40.79484" lon="-73.95903">
        <ele>22</ele>
        <time>2012-04-16T11:19:58Z</time>
      </trkpt>
      <trkpt lat="40.79482" lon="-73.95905">
        <ele>22</ele>
        <time>2012-04-16T11:19:59Z</time>
      </trkpt>
      <trkpt lat="40.7948" lon="-73.95905">
        <ele>22</ele>
        <time>2012-04-16T11:20:00Z</time>
      </trkpt>
      <trkpt lat="40.79478" lon="-73.95906">
        <ele>22</ele>
        <time>2012-04-16T11:20:01Z</time>
      </trkpt>
      <trkpt lat="40.79475" lon="-73.95907">
        <ele>22</ele>
        <time>2012-04-16T11:20:02Z</time>
      </trkpt>
      <trkpt lat="40.79473" lon="-73.95908">
        <ele>22</ele>
        <time>2012-04-16T11:20:03Z</time>
      </trkpt>
      <trkpt lat="40.79471" lon="-73.95909">
        <ele>22</ele>
        <time>2012-04-16T11:20:04Z</time>
      </trkpt>
      <trkpt lat="40.79469" lon="-73.9591">
        <ele>22</ele>
        <time>2012-04-16T11:20:05Z</time>
      </trkpt>
      <trkpt lat="40.79466" lon="-73.95911">
        <ele>22</ele>
        <time>2012-04-16T11:20:06Z</time>
      </trkpt>
      <trkpt lat="40.79464" lon="-73.95911">
        <ele>22</ele>
        <time>2012-04-16T11:20:07Z</time>
      </trkpt>
      <trkpt lat="40.79462" lon="-73.95912">
        <ele>22</ele>
        <time>2012-04-16T11:20:08Z</time>
      </trkpt>
      <trkpt lat="40.79459" lon="-73.95913">
        <ele>22</ele>
        <time>2012-04-16T11:20:09Z</time>
      </trkpt>
      <trkpt lat="40.79457" lon="-73.95914">
        <ele>22</ele>
        <time>2012-04-16T11:20:10Z</time>
      </trkpt>
      <trkpt lat="40.79455" lon="-73.95915">
        <ele>22</ele>
        <time>2012-04-16T11:20:11Z</time>
      </trkpt>
      <trkpt lat="40.79453" lon="-73.95916">
        <ele>22</ele>
        <time>2012-04-16T11:20:12Z</time>
      </trkpt>
      <trkpt lat="40.79451" lon="-73.95918">
        <ele>22</ele>
        <time>2012-04-16T11:20:13Z</time>
      </trkpt>
      <trkpt lat="40.79449" lon="-73.9592">
        <ele>22</ele>
        <time>2012-04-16T11:20:14Z</time>
      </trkpt>
      <trkpt lat="40.79447" lon="-73.95921">
        <ele>22</ele>
        <time>2012-04-16T11:20:15Z</time>
      </trkpt>
      <trkpt lat="40.79445" lon="-73.95922">
        <ele>21</ele>
        <time>2012-04-16T11:20:16Z</time>
      </trkpt>
      <trkpt lat="40.79443" lon="-73.95923">
        <ele>21</ele>
        <time>2012-04-16T11:20:17Z</time>
      </trkpt>
      <trkpt lat="40.79441" lon="-73.95924">
        <ele>21</ele>
        <time>2012-04-16T11:20:18Z</time>
      </trkpt>
      <trkpt lat="40.79438" lon="-73.95926">
        <ele>20</ele>
        <time>2012-04-16T11:20:19Z</time>
      </trkpt>
      <trkpt lat="40.79436" lon="-73.95927">
        <ele>20</ele>
        <time>2012-04-16T11:20:20Z</time>
      </trkpt>
      <trkpt lat="40.79435" lon="-73.95928">
        <ele>20</ele>
        <time>2012-04-16T11:20:21Z</time>
      </trkpt>
      <trkpt lat="40.79433" lon="-73.9593">
        <ele>20</ele>
        <time>2012-04-16T11:20:22Z</time>
      </trkpt>
      <trkpt lat="40.79431" lon="-73.95932">
        <ele>20</ele>
        <time>2012-04-16T11:20:23Z</time>
      </trkpt>
      <trkpt lat="40.79429" lon="-73.95934">
        <ele>20</ele>
        <time>2012-04-16T11:20:24Z</time>
      </trkpt>
      <trkpt lat="40.79428" lon="-73.95935">
        <ele>20</ele>
        <time>2012-04-16T11:20:25Z</time>
      </trkpt>
      <trkpt lat="40.79426" lon="-73.95937">
        <ele>20</ele>
        <time>2012-04-16T11:20:26Z</time>
      </trkpt>
      <trkpt lat="40.79424" lon="-73.95939">
        <ele>20</ele>
        <time>2012-04-16T11:20:27Z</time>
      </trkpt>
      <trkpt lat="40.79422" lon="-73.95941">
        <ele>20</ele>
        <time>2012-04-16T11:20:28Z</time>
      </trkpt>
      <trkpt lat="40.79421" lon="-73.95943">
        <ele>20</ele>
        <time>2012-04-16T11:20:29Z</time>
      </trkpt>
      <trkpt lat="40.7942" lon="-73.95947">
        <ele>20</ele>
        <time>2012-04-16T11:20:30Z</time>
      </trkpt>
      <trkpt lat="40.79419" lon="-73.95949">
        <ele>20</ele>
        <time>2012-04-16T11:20:31Z</time>
      </trkpt>
      <trkpt lat="40.79417" lon="-73.95951">
        <ele>20</ele>
        <time>2012-04-16T11:20:32Z</time>
      </trkpt>
      <trkpt lat="40.79416" lon="-73.95953">
        <ele>20</ele>
        <time>2012-04-16T11:20:33Z</time>
      </trkpt>
      <trkpt lat="40.79415" lon="-73.95956">
        <ele>20</ele>
        <time>2012-04-16T11:20:34Z</time>
      </trkpt>
      <trkpt lat="40.79414" lon="-73.95959">
        <ele>20</ele>
        <time>2012-04-16T11:20:35Z</time>
      </trkpt>
      <trkpt lat="40.79413" lon="-73.95961">
        <ele>20</ele>
        <time>2012-04-16T11:20:36Z</time>
      </trkpt>
      <trkpt lat="40.79412" lon="-73.95963">
        <ele>20</ele>
        <time>2012-04-16T11:20:37Z</time>
      </trkpt>
      <trkpt lat="40.79411" lon="-73.95966">
        <ele>20</ele>
        <time>2012-04-16T11:20:38Z</time>
      </trkpt>
      <trkpt lat="40.79409" lon="-73.95968">
        <ele>20</ele>
        <time>2012-04-16T11:20:39Z</time>
      </trkpt>
      <trkpt lat="40.79408" lon="-73.95969">
        <ele>20</ele>
        <time>2012-04-16T11:20:40Z</time>
      </trkpt>
      <trkpt lat="40.79406" lon="-73.95969">
        <ele>20</ele>
        <time>2012-04-16T11:20:41Z</time>
      </trkpt>
      <trkpt lat="40.79405" lon="-73.95969">
        <ele>20</ele>
        <time>2012-04-16T11:20:42Z</time>
      </trkpt>
      <trkpt lat="40.79404" lon="-73.95968">
        <ele>20</ele>
        <time>2012-04-16T11:20:43Z</time>
      </trkpt>
      <trkpt lat="40.79402" lon="-73.95967">
        <ele>20</ele>
        <time>2012-04-16T11:20:44Z</time>
      </trkpt>
      <trkpt lat="40.794" lon="-73.95966">
        <ele>20</ele>
        <time>2012-04-16T11:20:45Z</time>
      </trkpt>
      <trkpt lat="40.79398" lon="-73.95965">
        <ele>20</ele>
        <time>2012-04-16T11:20:46Z</time>
      </trkpt>
      <trkpt lat="40.79395" lon="-73.95964">
        <ele>20</ele>
        <time>2012-04-16T11:20:47Z</time>
      </trkpt>
      <trkpt lat="40.79393" lon="-73.95963">
        <ele>20</ele>
        <time>2012-04-16T11:20:48Z</time>
      </trkpt>
      <trkpt lat="40.7939" lon="-73.95963">
        <ele>20</ele>
        <time>2012-04-16T11:20:49Z</time>
      </trkpt>
      <trkpt lat="40.79388" lon="-73.95963">
        <ele>20</ele>
        <time>2012-04-16T11:20:50Z</time>
      </trkpt>
      <trkpt lat="40.79386" lon="-73.95962">
        <ele>20</ele>
        <time>2012-04-16T11:20:51Z</time>
      </trkpt>
      <trkpt lat="40.79383" lon="-73.95959">
        <ele>20</ele>
        <time>2012-04-16T11:20:52Z</time>
      </trkpt>
      <trkpt lat="40.79381" lon="-73.95959">
        <ele>20</ele>
        <time>2012-04-16T11:20:53Z</time>
      </trkpt>
      <trkpt lat="40.79379" lon="-73.95958">
        <ele>20</ele>
        <time>2012-04-16T11:20:54Z</time>
      </trkpt>
      <trkpt lat="40.79378" lon="-73.95957">
        <ele>21</ele>
        <time>2012-04-16T11:20:55Z</time>
      </trkpt>
      <trkpt lat="40.79376" lon="-73.95956">
        <ele>21</ele>
        <time>2012-04-16T11:20:56Z</time>
      </trkpt>
      <trkpt lat="40.79375" lon="-73.95956">
        <ele>22</ele>
        <time>2012-04-16T11:20:57Z</time>
      </trkpt>
      <trkpt lat="40.79372" lon="-73.95956">
        <ele>22</ele>
        <time>2012-04-16T11:20:58Z</time>
      </trkpt>
      <trkpt lat="40.79369" lon="-73.95955">
        <ele>23</ele>
        <time>2012-04-16T11:20:59Z</time>
      </trkpt>
      <trkpt lat="40.79367" lon="-73.95953">
        <ele>23</ele>
        <time>2012-04-16T11:21:00Z</time>
      </trkpt>
      <trkpt lat="40.79364" lon="-73.95952">
        <ele>24</ele>
        <time>2012-04-16T11:21:01Z</time>
      </trkpt>
      <trkpt lat="40.79362" lon="-73.95951">
        <ele>24</ele>
        <time>2012-04-16T11:21:02Z</time>
      </trkpt>
      <trkpt lat="40.79359" lon="-73.9595">
        <ele>25</ele>
        <time>2012-04-16T11:21:03Z</time>
      </trkpt>
      <trkpt lat="40.79357" lon="-73.95949">
        <ele>25</ele>
        <time>2012-04-16T11:21:04Z</time>
      </trkpt>
      <trkpt lat="40.79355" lon="-73.95948">
        <ele>25</ele>
        <time>2012-04-16T11:21:05Z</time>
      </trkpt>
      <trkpt lat="40.79353" lon="-73.95947">
        <ele>26</ele>
        <time>2012-04-16T11:21:06Z</time>
      </trkpt>
      <trkpt lat="40.79351" lon="-73.95947">
        <ele>26</ele>
        <time>2012-04-16T11:21:07Z</time>
      </trkpt>
      <trkpt lat="40.79349" lon="-73.95945">
        <ele>26</ele>
        <time>2012-04-16T11:21:08Z</time>
      </trkpt>
      <trkpt lat="40.79347" lon="-73.95945">
        <ele>26</ele>
        <time>2012-04-16T11:21:09Z</time>
      </trkpt>
      <trkpt lat="40.79345" lon="-73.95944">
        <ele>26</ele>
        <time>2012-04-16T11:21:10Z</time>
      </trkpt>
      <trkpt lat="40.79343" lon="-73.95944">
        <ele>26</ele>
        <time>2012-04-16T11:21:11Z</time>
      </trkpt>
      <trkpt lat="40.79341" lon="-73.95945">
        <ele>26</ele>
        <time>2012-04-16T11:21:12Z</time>
      </trkpt>
      <trkpt lat="40.7934" lon="-73.95947">
        <ele>26</ele>
        <time>2012-04-16T11:21:13Z</time>
      </trkpt>
      <trkpt lat="40.79339" lon="-73.9595">
        <ele>26</ele>
        <time>2012-04-16T11:21:14Z</time>
      </trkpt>
      <trkpt lat="40.79339" lon="-73.95953">
        <ele>26</ele>
        <time>2012-04-16T11:21:15Z</time>
      </trkpt>
      <trkpt lat="40.7934" lon="-73.95956">
        <ele>26</ele>
        <time>2012-04-16T11:21:16Z</time>
      </trkpt>
      <trkpt lat="40.79341" lon="-73.95959">
        <ele>26</ele>
        <time>2012-04-16T11:21:17Z</time>
      </trkpt>
      <trkpt lat="40.79342" lon="-73.95963">
        <ele>26</ele>
        <time>2012-04-16T11:21:18Z</time>
      </trkpt>
      <trkpt lat="40.79342" lon="-73.95966">
        <ele>26</ele>
        <time>2012-04-16T11:21:19Z</time>
      </trkpt>
      <trkpt lat="40.79343" lon="-73.95969">
        <ele>26</ele>
        <time>2012-04-16T11:21:20Z</time>
      </trkpt>
      <trkpt lat="40.79344" lon="-73.95972">
        <ele>26</ele>
        <time>2012-04-16T11:21:21Z</time>
      </trkpt>
      <trkpt lat="40.79345" lon="-73.95975">
        <ele>26</ele>
        <time>2012-04-16T11:21:22Z</time>
      </trkpt>
      <trkpt lat="40.79345" lon="-73.95979">
        <ele>26</ele>
        <time>2012-04-16T11:21:23Z</time>
      </trkpt>
      <trkpt lat="40.79345" lon="-73.95981">
        <ele>26</ele>
        <time>2012-04-16T11:21:24Z</time>
      </trkpt>
      <trkpt lat="40.79346" lon="-73.95983">
        <ele>26</ele>
        <time>2012-04-16T11:21:25Z</time>
      </trkpt>
      <trkpt lat="40.79346" lon="-73.95986">
        <ele>26</ele>
        <time>2012-04-16T11:21:26Z</time>
      </trkpt>
      <trkpt lat="40.79346" lon="-73.95988">
        <ele>26</ele>
        <time>2012-04-16T11:21:27Z</time>
      </trkpt>
      <trkpt lat="40.79346" lon="-73.95992">
        <ele>26</ele>
        <time>2012-04-16T11:21:28Z</time>
      </trkpt>
      <trkpt lat="40.79347" lon="-73.95995">
        <ele>26</ele>
        <time>2012-04-16T11:21:29Z</time>
      </trkpt>
      <trkpt lat="40.79348" lon="-73.95998">
        <ele>26</ele>
        <time>2012-04-16T11:21:30Z</time>
      </trkpt>
      <trkpt lat="40.79348" lon="-73.96001">
        <ele>27</ele>
        <time>2012-04-16T11:21:31Z</time>
      </trkpt>
      <trkpt lat="40.79349" lon="-73.96004">
        <ele>28</ele>
        <time>2012-04-16T11:21:32Z</time>
      </trkpt>
      <trkpt lat="40.79349" lon="-73.96008">
        <ele>29</ele>
        <time>2012-04-16T11:21:33Z</time>
      </trkpt>
      <trkpt lat="40.7935" lon="-73.96011">
        <ele>29</ele>
        <time>2012-04-16T11:21:34Z</time>
      </trkpt>
      <trkpt lat="40.79351" lon="-73.96014">
        <ele>30</ele>
        <time>2012-04-16T11:21:35Z</time>
      </trkpt>
      <trkpt lat="40.79352" lon="-73.96017">
        <ele>30</ele>
        <time>2012-04-16T11:21:36Z</time>
      </trkpt>
      <trkpt lat="40.79352" lon="-73.96021">
        <ele>30</ele>
        <time>2012-04-16T11:21:37Z</time>
      </trkpt>
      <trkpt lat="40.79353" lon="-73.96024">
        <ele>30</ele>
        <time>2012-04-16T11:21:38Z</time>
      </trkpt>
      <trkpt lat="40.79354" lon="-73.96026">
        <ele>30</ele>
        <time>2012-04-16T11:21:39Z</time>
      </trkpt>
      <trkpt lat="40.79355" lon="-73.96028">
        <ele>30</ele>
        <time>2012-04-16T11:21:40Z</time>
      </trkpt>
      <trkpt lat="40.79355" lon="-73.96031">
        <ele>30</ele>
        <time>2012-04-16T11:21:41Z</time>
      </trkpt>
      <trkpt lat="40.79355" lon="-73.96034">
        <ele>30</ele>
        <time>2012-04-16T11:21:42Z</time>
      </trkpt>
      <trkpt lat="40.79356" lon="-73.96037">
        <ele>30</ele>
        <time>2012-04-16T11:21:43Z</time>
      </trkpt>
      <trkpt lat="40.79356" lon="-73.9604">
        <ele>30</ele>
        <time>2012-04-16T11:21:44Z</time>
      </trkpt>
      <trkpt lat="40.79356" lon="-73.96042">
        <ele>30</ele>
        <time>2012-04-16T11:21:45Z</time>
      </trkpt>
      <trkpt lat="40.79356" lon="-73.96044">
        <ele>30</ele>
        <time>2012-04-16T11:21:46Z</time>
      </trkpt>
      <trkpt lat="40.79357" lon="-73.96047">
        <ele>30</ele>
        <time>2012-04-16T11:21:47Z</time>
      </trkpt>
      <trkpt lat="40.79357" lon="-73.96049">
        <ele>30</ele>
        <time>2012-04-16T11:21:48Z</time>
      </trkpt>
      <trkpt lat="40.79357" lon="-73.96053">
        <ele>30</ele>
        <time>2012-04-16T11:21:49Z</time>
      </trkpt>
      <trkpt lat="40.79357" lon="-73.96054">
        <ele>30</ele>
        <time>2012-04-16T11:21:50Z</time>
      </trkpt>
      <trkpt lat="40.79357" lon="-73.96057">
        <ele>30</ele>
        <time>2012-04-16T11:21:51Z</time>
      </trkpt>
      <trkpt lat="40.79356" lon="-73.96059">
        <ele>30</ele>
        <time>2012-04-16T11:21:52Z</time>
      </trkpt>
      <trkpt lat="40.79356" lon="-73.96062">
        <ele>30</ele>
        <time>2012-04-16T11:21:53Z</time>
      </trkpt>
      <trkpt lat="40.79355" lon="-73.96065">
        <ele>30</ele>
        <time>2012-04-16T11:21:54Z</time>
      </trkpt>
      <trkpt lat="40.79354" lon="-73.96067">
        <ele>30</ele>
        <time>2012-04-16T11:21:55Z</time>
      </trkpt>
      <trkpt lat="40.79353" lon="-73.96069">
        <ele>30</ele>
        <time>2012-04-16T11:21:56Z</time>
      </trkpt>
      <trkpt lat="40.79353" lon="-73.96072">
        <ele>30</ele>
        <time>2012-04-16T11:21:57Z</time>
      </trkpt>
      <trkpt lat="40.79351" lon="-73.96074">
        <ele>30</ele>
        <time>2012-04-16T11:21:58Z</time>
      </trkpt>
      <trkpt lat="40.7935" lon="-73.96076">
        <ele>30</ele>
        <time>2012-04-16T11:21:59Z</time>
      </trkpt>
      <trkpt lat="40.79349" lon="-73.96078">
        <ele>30</ele>
        <time>2012-04-16T11:22:00Z</time>
      </trkpt>
      <trkpt lat="40.79348" lon="-73.96082">
        <ele>30</ele>
        <time>2012-04-16T11:22:01Z</time>
      </trkpt>
      <trkpt lat="40.79347" lon="-73.96084">
        <ele>30</ele>
        <time>2012-04-16T11:22:02Z</time>
      </trkpt>
      <trkpt lat="40.79346" lon="-73.96087">
        <ele>30</ele>
        <time>2012-04-16T11:22:03Z</time>
      </trkpt>
      <trkpt lat="40.79345" lon="-73.96089">
        <ele>30</ele>
        <time>2012-04-16T11:22:04Z</time>
      </trkpt>
      <trkpt lat="40.79343" lon="-73.96091">
        <ele>30</ele>
        <time>2012-04-16T11:22:05Z</time>
      </trkpt>
      <trkpt lat="40.79342" lon="-73.96093">
        <ele>30</ele>
        <time>2012-04-16T11:22:06Z</time>
      </trkpt>
      <trkpt lat="40.79341" lon="-73.96096">
        <ele>30</ele>
        <time>2012-04-16T11:22:07Z</time>
      </trkpt>
      <trkpt lat="40.7934" lon="-73.96098">
        <ele>30</ele>
        <time>2012-04-16T11:22:08Z</time>
      </trkpt>
      <trkpt lat="40.79339" lon="-73.96099">
        <ele>30</ele>
        <time>2012-04-16T11:22:09Z</time>
      </trkpt>
      <trkpt lat="40.79338" lon="-73.96101">
        <ele>30</ele>
        <time>2012-04-16T11:22:10Z</time>
      </trkpt>
      <trkpt lat="40.79336" lon="-73.96103">
        <ele>30</ele>
        <time>2012-04-16T11:22:11Z</time>
      </trkpt>
      <trkpt lat="40.79335" lon="-73.96104">
        <ele>30</ele>
        <time>2012-04-16T11:22:12Z</time>
      </trkpt>
      <trkpt lat="40.79333" lon="-73.96105">
        <ele>30</ele>
        <time>2012-04-16T11:22:13Z</time>
      </trkpt>
      <trkpt lat="40.79332" lon="-73.96107">
        <ele>30</ele>
        <time>2012-04-16T11:22:14Z</time>
      </trkpt>
      <trkpt lat="40.7933" lon="-73.96109">
        <ele>30</ele>
        <time>2012-04-16T11:22:15Z</time>
      </trkpt>
      <trkpt lat="40.79329" lon="-73.9611">
        <ele>30</ele>
        <time>2012-04-16T11:22:16Z</time>
      </trkpt>
      <trkpt lat="40.79327" lon="-73.96112">
        <ele>30</ele>
        <time>2012-04-16T11:22:17Z</time>
      </trkpt>
      <trkpt lat="40.79325" lon="-73.96114">
        <ele>30</ele>
        <time>2012-04-16T11:22:18Z</time>
      </trkpt>
      <trkpt lat="40.79324" lon="-73.96116">
        <ele>30</ele>
        <time>2012-04-16T11:22:19Z</time>
      </trkpt>
      <trkpt lat="40.79322" lon="-73.96117">
        <ele>29</ele>
        <time>2012-04-16T11:22:20Z</time>
      </trkpt>
      <trkpt lat="40.7932" lon="-73.9612">
        <ele>29</ele>
        <time>2012-04-16T11:22:21Z</time>
      </trkpt>
      <trkpt lat="40.79318" lon="-73.96121">
        <ele>29</ele>
        <time>2012-04-16T11:22:22Z</time>
      </trkpt>
      <trkpt lat="40.79315" lon="-73.96122">
        <ele>29</ele>
        <time>2012-04-16T11:22:23Z</time>
      </trkpt>
      <trkpt lat="40.79313" lon="-73.96124">
        <ele>29</ele>
        <time>2012-04-16T11:22:24Z</time>
      </trkpt>
      <trkpt lat="40.79311" lon="-73.96125">
        <ele>29</ele>
        <time>2012-04-16T11:22:25Z</time>
      </trkpt>
      <trkpt lat="40.79309" lon="-73.96127">
        <ele>29</ele>
        <time>2012-04-16T11:22:26Z</time>
      </trkpt>
      <trkpt lat="40.79307" lon="-73.96127">
        <ele>29</ele>
        <time>2012-04-16T11:22:27Z</time>
      </trkpt>
      <trkpt lat="40.79305" lon="-73.96129">
        <ele>29</ele>
        <time>2012-04-16T11:22:28Z</time>
      </trkpt>
      <trkpt lat="40.79303" lon="-73.9613">
        <ele>29</ele>
        <time>2012-04-16T11:22:29Z</time>
      </trkpt>
      <trkpt lat="40.79302" lon="-73.9613">
        <ele>29</ele>
        <time>2012-04-16T11:22:30Z</time>
      </trkpt>
      <trkpt lat="40.793" lon="-73.96131">
        <ele>29</ele>
        <time>2012-04-16T11:22:31Z</time>
      </trkpt>
      <trkpt lat="40.79298" lon="-73.96133">
        <ele>29</ele>
        <time>2012-04-16T11:22:32Z</time>
      </trkpt>
      <trkpt lat="40.79296" lon="-73.96133">
        <ele>29</ele>
        <time>2012-04-16T11:22:33Z</time>
      </trkpt>
      <trkpt lat="40.79294" lon="-73.96133">
        <ele>29</ele>
        <time>2012-04-16T11:22:34Z</time>
      </trkpt>
      <trkpt lat="40.79292" lon="-73.96134">
        <ele>29</ele>
        <time>2012-04-16T11:22:35Z</time>
      </trkpt>
      <trkpt lat="40.7929" lon="-73.96134">
        <ele>29</ele>
        <time>2012-04-16T11:22:36Z</time>
      </trkpt>
      <trkpt lat="40.79288" lon="-73.96135">
        <ele>29</ele>
        <time>2012-04-16T11:22:37Z</time>
      </trkpt>
      <trkpt lat="40.79287" lon="-73.96135">
        <ele>29</ele>
        <time>2012-04-16T11:22:38Z</time>
      </trkpt>
      <trkpt lat="40.79285" lon="-73.96135">
        <ele>29</ele>
        <time>2012-04-16T11:22:39Z</time>
      </trkpt>
      <trkpt lat="40.79283" lon="-73.96135">
        <ele>29</ele>
        <time>2012-04-16T11:22:40Z</time>
      </trkpt>
      <trkpt lat="40.7928" lon="-73.96134">
        <ele>29</ele>
        <time>2012-04-16T11:22:41Z</time>
      </trkpt>
      <trkpt lat="40.79278" lon="-73.96134">
        <ele>29</ele>
        <time>2012-04-16T11:22:42Z</time>
      </trkpt>
      <trkpt lat="40.79276" lon="-73.96134">
        <ele>29</ele>
        <time>2012-04-16T11:22:43Z</time>
      </trkpt>
      <trkpt lat="40.79273" lon="-73.96134">
        <ele>29</ele>
        <time>2012-04-16T11:22:44Z</time>
      </trkpt>
      <trkpt lat="40.79271" lon="-73.96133">
        <ele>29</ele>
        <time>2012-04-16T11:22:45Z</time>
      </trkpt>
      <trkpt lat="40.79269" lon="-73.96133">
        <ele>29</ele>
        <time>2012-04-16T11:22:46Z</time>
      </trkpt>
      <trkpt lat="40.79266" lon="-73.96133">
        <ele>29</ele>
        <time>2012-04-16T11:22:47Z</time>
      </trkpt>
      <trkpt lat="40.79264" lon="-73.96133">
        <ele>29</ele>
        <time>2012-04-16T11:22:48Z</time>
      </trkpt>
      <trkpt lat="40.79261" lon="-73.96133">
        <ele>29</ele>
        <time>2012-04-16T11:22:49Z</time>
      </trkpt>
      <trkpt lat="40.79259" lon="-73.96133">
        <ele>29</ele>
        <time>2012-04-16T11:22:50Z</time>
      </trkpt>
      <trkpt lat="40.79257" lon="-73.96133">
        <ele>29</ele>
        <time>2012-04-16T11:22:51Z</time>
      </trkpt>
      <trkpt lat="40.79255" lon="-73.96133">
        <ele>29</ele>
        <time>2012-04-16T11:22:52Z</time>
      </trkpt>
      <trkpt lat="40.79252" lon="-73.96134">
        <ele>29</ele>
        <time>2012-04-16T11:22:53Z</time>
      </trkpt>
      <trkpt lat="40.7925" lon="-73.96134">
        <ele>29</ele>
        <time>2012-04-16T11:22:54Z</time>
      </trkpt>
      <trkpt lat="40.79248" lon="-73.96134">
        <ele>29</ele>
        <time>2012-04-16T11:22:55Z</time>
      </trkpt>
      <trkpt lat="40.79246" lon="-73.96135">
        <ele>29</ele>
        <time>2012-04-16T11:22:56Z</time>
      </trkpt>
      <trkpt lat="40.79243" lon="-73.96135">
        <ele>29</ele>
        <time>2012-04-16T11:22:57Z</time>
      </trkpt>
      <trkpt lat="40.79241" lon="-73.96136">
        <ele>29</ele>
        <time>2012-04-16T11:22:58Z</time>
      </trkpt>
      <trkpt lat="40.79239" lon="-73.96136">
        <ele>29</ele>
        <time>2012-04-16T11:22:59Z</time>
      </trkpt>
      <trkpt lat="40.79236" lon="-73.96137">
        <ele>29</ele>
        <time>2012-04-16T11:23:00Z</time>
      </trkpt>
      <trkpt lat="40.79234" lon="-73.96137">
        <ele>29</ele>
        <time>2012-04-16T11:23:01Z</time>
      </trkpt>
      <trkpt lat="40.79232" lon="-73.96136">
        <ele>29</ele>
        <time>2012-04-16T11:23:02Z</time>
      </trkpt>
      <trkpt lat="40.7923" lon="-73.96136">
        <ele>29</ele>
        <time>2012-04-16T11:23:03Z</time>
      </trkpt>
      <trkpt lat="40.79228" lon="-73.96136">
        <ele>29</ele>
        <time>2012-04-16T11:23:04Z</time>
      </trkpt>
      <trkpt lat="40.79227" lon="-73.96136">
        <ele>29</ele>
        <time>2012-04-16T11:23:05Z</time>
      </trkpt>
      <trkpt lat="40.79224" lon="-73.96136">
        <ele>29</ele>
        <time>2012-04-16T11:23:06Z</time>
      </trkpt>
      <trkpt lat="40.79222" lon="-73.96136">
        <ele>29</ele>
        <time>2012-04-16T11:23:07Z</time>
      </trkpt>
      <trkpt lat="40.7922" lon="-73.96135">
        <ele>29</ele>
        <time>2012-04-16T11:23:08Z</time>
      </trkpt>
      <trkpt lat="40.79218" lon="-73.96135">
        <ele>29</ele>
        <time>2012-04-16T11:23:09Z</time>
      </trkpt>
      <trkpt lat="40.79216" lon="-73.96133">
        <ele>29</ele>
        <time>2012-04-16T11:23:10Z</time>
      </trkpt>
      <trkpt lat="40.79214" lon="-73.96132">
        <ele>29</ele>
        <time>2012-04-16T11:23:11Z</time>
      </trkpt>
      <trkpt lat="40.79212" lon="-73.9613">
        <ele>29</ele>
        <time>2012-04-16T11:23:12Z</time>
      </trkpt>
      <trkpt lat="40.7921" lon="-73.96129">
        <ele>29</ele>
        <time>2012-04-16T11:23:13Z</time>
      </trkpt>
      <trkpt lat="40.79208" lon="-73.96128">
        <ele>29</ele>
        <time>2012-04-16T11:23:14Z</time>
      </trkpt>
      <trkpt lat="40.79206" lon="-73.96127">
        <ele>29</ele>
        <time>2012-04-16T11:23:15Z</time>
      </trkpt>
      <trkpt lat="40.79204" lon="-73.96126">
        <ele>29</ele>
        <time>2012-04-16T11:23:16Z</time>
      </trkpt>
      <trkpt lat="40.79202" lon="-73.96125">
        <ele>30</ele>
        <time>2012-04-16T11:23:17Z</time>
      </trkpt>
      <trkpt lat="40.792" lon="-73.96124">
        <ele>30</ele>
        <time>2012-04-16T11:23:18Z</time>
      </trkpt>
      <trkpt lat="40.79198" lon="-73.96122">
        <ele>30</ele>
        <time>2012-04-16T11:23:19Z</time>
      </trkpt>
      <trkpt lat="40.79196" lon="-73.9612">
        <ele>30</ele>
        <time>2012-04-16T11:23:20Z</time>
      </trkpt>
      <trkpt lat="40.79194" lon="-73.96118">
        <ele>30</ele>
        <time>2012-04-16T11:23:21Z</time>
      </trkpt>
      <trkpt lat="40.79192" lon="-73.96117">
        <ele>30</ele>
        <time>2012-04-16T11:23:22Z</time>
      </trkpt>
      <trkpt lat="40.7919" lon="-73.96116">
        <ele>30</ele>
        <time>2012-04-16T11:23:23Z</time>
      </trkpt>
      <trkpt lat="40.79188" lon="-73.96114">
        <ele>30</ele>
        <time>2012-04-16T11:23:24Z</time>
      </trkpt>
      <trkpt lat="40.79186" lon="-73.96113">
        <ele>30</ele>
        <time>2012-04-16T11:23:25Z</time>
      </trkpt>
      <trkpt lat="40.79184" lon="-73.96112">
        <ele>30</ele>
        <time>2012-04-16T11:23:26Z</time>
      </trkpt>
      <trkpt lat="40.79182" lon="-73.96111">
        <ele>30</ele>
        <time>2012-04-16T11:23:27Z</time>
      </trkpt>
      <trkpt lat="40.79181" lon="-73.96111">
        <ele>30</ele>
        <time>2012-04-16T11:23:28Z</time>
      </trkpt>
      <trkpt lat="40.79179" lon="-73.9611">
        <ele>30</ele>
        <time>2012-04-16T11:23:29Z</time>
      </trkpt>
      <trkpt lat="40.79176" lon="-73.96108">
        <ele>30</ele>
        <time>2012-04-16T11:23:30Z</time>
      </trkpt>
      <trkpt lat="40.79174" lon="-73.96107">
        <ele>30</ele>
        <time>2012-04-16T11:23:31Z</time>
      </trkpt>
      <trkpt lat="40.79173" lon="-73.96106">
        <ele>30</ele>
        <time>2012-04-16T11:23:32Z</time>
      </trkpt>
      <trkpt lat="40.79171" lon="-73.96104">
        <ele>30</ele>
        <time>2012-04-16T11:23:33Z</time>
      </trkpt>
      <trkpt lat="40.79168" lon="-73.96104">
        <ele>30</ele>
        <time>2012-04-16T11:23:34Z</time>
      </trkpt>
      <trkpt lat="40.79167" lon="-73.96102">
        <ele>30</ele>
        <time>2012-04-16T11:23:35Z</time>
      </trkpt>
      <trkpt lat="40.79165" lon="-73.96101">
        <ele>30</ele>
        <time>2012-04-16T11:23:36Z</time>
      </trkpt>
      <trkpt lat="40.79162" lon="-73.961">
        <ele>30</ele>
        <time>2012-04-16T11:23:37Z</time>
      </trkpt>
      <trkpt lat="40.7916" lon="-73.96099">
        <ele>30</ele>
        <time>2012-04-16T11:23:38Z</time>
      </trkpt>
      <trkpt lat="40.79158" lon="-73.96098">
        <ele>30</ele>
        <time>2012-04-16T11:23:39Z</time>
      </trkpt>
      <trkpt lat="40.79156" lon="-73.96097">
        <ele>30</ele>
        <time>2012-04-16T11:23:40Z</time>
      </trkpt>
      <trkpt lat="40.79154" lon="-73.96096">
        <ele>30</ele>
        <time>2012-04-16T11:23:41Z</time>
      </trkpt>
      <trkpt lat="40.79152" lon="-73.96095">
        <ele>30</ele>
        <time>2012-04-16T11:23:42Z</time>
      </trkpt>
      <trkpt lat="40.7915" lon="-73.96094">
        <ele>30</ele>
        <time>2012-04-16T11:23:43Z</time>
      </trkpt>
      <trkpt lat="40.79148" lon="-73.96092">
        <ele>30</ele>
        <time>2012-04-16T11:23:44Z</time>
      </trkpt>
      <trkpt lat="40.79146" lon="-73.96091">
        <ele>30</ele>
        <time>2012-04-16T11:23:45Z</time>
      </trkpt>
      <trkpt lat="40.79144" lon="-73.96091">
        <ele>30</ele>
        <time>2012-04-16T11:23:46Z</time>
      </trkpt>
      <trkpt lat="40.79142" lon="-73.96089">
        <ele>30</ele>
        <time>2012-04-16T11:23:47Z</time>
      </trkpt>
      <trkpt lat="40.7914" lon="-73.96088">
        <ele>30</ele>
        <time>2012-04-16T11:23:48Z</time>
      </trkpt>
      <trkpt lat="40.79138" lon="-73.96088">
        <ele>30</ele>
        <time>2012-04-16T11:23:49Z</time>
      </trkpt>
      <trkpt lat="40.79136" lon="-73.96086">
        <ele>30</ele>
        <time>2012-04-16T11:23:50Z</time>
      </trkpt>
      <trkpt lat="40.79134" lon="-73.96086">
        <ele>30</ele>
        <time>2012-04-16T11:23:51Z</time>
      </trkpt>
      <trkpt lat="40.79131" lon="-73.96086">
        <ele>30</ele>
        <time>2012-04-16T11:23:52Z</time>
      </trkpt>
      <trkpt lat="40.79129" lon="-73.96085">
        <ele>30</ele>
        <time>2012-04-16T11:23:53Z</time>
      </trkpt>
      <trkpt lat="40.79127" lon="-73.96085">
        <ele>30</ele>
        <time>2012-04-16T11:23:54Z</time>
      </trkpt>
      <trkpt lat="40.79125" lon="-73.96085">
        <ele>30</ele>
        <time>2012-04-16T11:23:55Z</time>
      </trkpt>
      <trkpt lat="40.79123" lon="-73.96084">
        <ele>30</ele>
        <time>2012-04-16T11:23:56Z</time>
      </trkpt>
      <trkpt lat="40.79121" lon="-73.96083">
        <ele>30</ele>
        <time>2012-04-16T11:23:57Z</time>
      </trkpt>
      <trkpt lat="40.79119" lon="-73.96081">
        <ele>30</ele>
        <time>2012-04-16T11:23:58Z</time>
      </trkpt>
      <trkpt lat="40.79118" lon="-73.96078">
        <ele>30</ele>
        <time>2012-04-16T11:23:59Z</time>
      </trkpt>
      <trkpt lat="40.79116" lon="-73.96077">
        <ele>30</ele>
        <time>2012-04-16T11:24:00Z</time>
      </trkpt>
      <trkpt lat="40.79114" lon="-73.96075">
        <ele>30</ele>
        <time>2012-04-16T11:24:01Z</time>
      </trkpt>
      <trkpt lat="40.79113" lon="-73.96074">
        <ele>30</ele>
        <time>2012-04-16T11:24:02Z</time>
      </trkpt>
      <trkpt lat="40.79112" lon="-73.96072">
        <ele>30</ele>
        <time>2012-04-16T11:24:03Z</time>
      </trkpt>
      <trkpt lat="40.7911" lon="-73.96069">
        <ele>30</ele>
        <time>2012-04-16T11:24:04Z</time>
      </trkpt>
      <trkpt lat="40.79109" lon="-73.96068">
        <ele>30</ele>
        <time>2012-04-16T11:24:05Z</time>
      </trkpt>
      <trkpt lat="40.79107" lon="-73.96065">
        <ele>30</ele>
        <time>2012-04-16T11:24:06Z</time>
      </trkpt>
      <trkpt lat="40.79106" lon="-73.96062">
        <ele>30</ele>
        <time>2012-04-16T11:24:07Z</time>
      </trkpt>
      <trkpt lat="40.79105" lon="-73.96059">
        <ele>30</ele>
        <time>2012-04-16T11:24:08Z</time>
      </trkpt>
      <trkpt lat="40.79103" lon="-73.96056">
        <ele>30</ele>
        <time>2012-04-16T11:24:09Z</time>
      </trkpt>
      <trkpt lat="40.79101" lon="-73.96054">
        <ele>30</ele>
        <time>2012-04-16T11:24:10Z</time>
      </trkpt>
      <trkpt lat="40.791" lon="-73.96053">
        <ele>30</ele>
        <time>2012-04-16T11:24:11Z</time>
      </trkpt>
      <trkpt lat="40.79099" lon="-73.96049">
        <ele>30</ele>
        <time>2012-04-16T11:24:12Z</time>
      </trkpt>
      <trkpt lat="40.79097" lon="-73.96048">
        <ele>30</ele>
        <time>2012-04-16T11:24:13Z</time>
      </trkpt>
      <trkpt lat="40.79095" lon="-73.96046">
        <ele>30</ele>
        <time>2012-04-16T11:24:14Z</time>
      </trkpt>
      <trkpt lat="40.79094" lon="-73.96042">
        <ele>31</ele>
        <time>2012-04-16T11:24:15Z</time>
      </trkpt>
      <trkpt lat="40.79092" lon="-73.9604">
        <ele>31</ele>
        <time>2012-04-16T11:24:16Z</time>
      </trkpt>
      <trkpt lat="40.7909" lon="-73.96038">
        <ele>31</ele>
        <time>2012-04-16T11:24:17Z</time>
      </trkpt>
      <trkpt lat="40.79089" lon="-73.96037">
        <ele>31</ele>
        <time>2012-04-16T11:24:18Z</time>
      </trkpt>
      <trkpt lat="40.79087" lon="-73.96034">
        <ele>31</ele>
        <time>2012-04-16T11:24:19Z</time>
      </trkpt>
      <trkpt lat="40.79084" lon="-73.96032">
        <ele>31</ele>
        <time>2012-04-16T11:24:20Z</time>
      </trkpt>
      <trkpt lat="40.79083" lon="-73.9603">
        <ele>31</ele>
        <time>2012-04-16T11:24:21Z</time>
      </trkpt>
      <trkpt lat="40.79081" lon="-73.96029">
        <ele>31</ele>
        <time>2012-04-16T11:24:22Z</time>
      </trkpt>
      <trkpt lat="40.7908" lon="-73.96027">
        <ele>32</ele>
        <time>2012-04-16T11:24:23Z</time>
      </trkpt>
      <trkpt lat="40.79078" lon="-73.96026">
        <ele>32</ele>
        <time>2012-04-16T11:24:24Z</time>
      </trkpt>
      <trkpt lat="40.79077" lon="-73.96024">
        <ele>32</ele>
        <time>2012-04-16T11:24:25Z</time>
      </trkpt>
      <trkpt lat="40.79076" lon="-73.96021">
        <ele>32</ele>
        <time>2012-04-16T11:24:27Z</time>
      </trkpt>
      <trkpt lat="40.79074" lon="-73.96018">
        <ele>32</ele>
        <time>2012-04-16T11:24:29Z</time>
      </trkpt>
      <trkpt lat="40.79073" lon="-73.96015">
        <ele>32</ele>
        <time>2012-04-16T11:24:30Z</time>
      </trkpt>
      <trkpt lat="40.79071" lon="-73.96013">
        <ele>32</ele>
        <time>2012-04-16T11:24:31Z</time>
      </trkpt>
      <trkpt lat="40.7907" lon="-73.96011">
        <ele>32</ele>
        <time>2012-04-16T11:24:32Z</time>
      </trkpt>
      <trkpt lat="40.79068" lon="-73.96008">
        <ele>32</ele>
        <time>2012-04-16T11:24:33Z</time>
      </trkpt>
      <trkpt lat="40.79067" lon="-73.96006">
        <ele>32</ele>
        <time>2012-04-16T11:24:34Z</time>
      </trkpt>
      <trkpt lat="40.79065" lon="-73.96004">
        <ele>32</ele>
        <time>2012-04-16T11:24:35Z</time>
      </trkpt>
      <trkpt lat="40.79064" lon="-73.96001">
        <ele>32</ele>
        <time>2012-04-16T11:24:36Z</time>
      </trkpt>
      <trkpt lat="40.79064" lon="-73.95999">
        <ele>32</ele>
        <time>2012-04-16T11:24:37Z</time>
      </trkpt>
      <trkpt lat="40.79063" lon="-73.95997">
        <ele>32</ele>
        <time>2012-04-16T11:24:38Z</time>
      </trkpt>
      <trkpt lat="40.79062" lon="-73.95994">
        <ele>32</ele>
        <time>2012-04-16T11:24:39Z</time>
      </trkpt>
      <trkpt lat="40.79061" lon="-73.95991">
        <ele>32</ele>
        <time>2012-04-16T11:24:40Z</time>
      </trkpt>
      <trkpt lat="40.7906" lon="-73.95988">
        <ele>32</ele>
        <time>2012-04-16T11:24:41Z</time>
      </trkpt>
      <trkpt lat="40.79058" lon="-73.95985">
        <ele>32</ele>
        <time>2012-04-16T11:24:42Z</time>
      </trkpt>
      <trkpt lat="40.79057" lon="-73.95982">
        <ele>32</ele>
        <time>2012-04-16T11:24:43Z</time>
      </trkpt>
      <trkpt lat="40.79057" lon="-73.95979">
        <ele>32</ele>
        <time>2012-04-16T11:24:44Z</time>
      </trkpt>
      <trkpt lat="40.79056" lon="-73.95977">
        <ele>32</ele>
        <time>2012-04-16T11:24:45Z</time>
      </trkpt>
      <trkpt lat="40.79055" lon="-73.95973">
        <ele>32</ele>
        <time>2012-04-16T11:24:46Z</time>
      </trkpt>
      <trkpt lat="40.79055" lon="-73.95972">
        <ele>32</ele>
        <time>2012-04-16T11:24:47Z</time>
      </trkpt>
      <trkpt lat="40.79055" lon="-73.9597">
        <ele>32</ele>
        <time>2012-04-16T11:24:48Z</time>
      </trkpt>
      <trkpt lat="40.79055" lon="-73.95968">
        <ele>32</ele>
        <time>2012-04-16T11:24:49Z</time>
      </trkpt>
      <trkpt lat="40.79055" lon="-73.95966">
        <ele>32</ele>
        <time>2012-04-16T11:24:50Z</time>
      </trkpt>
      <trkpt lat="40.79055" lon="-73.95963">
        <ele>32</ele>
        <time>2012-04-16T11:24:51Z</time>
      </trkpt>
      <trkpt lat="40.79054" lon="-73.9596">
        <ele>32</ele>
        <time>2012-04-16T11:24:52Z</time>
      </trkpt>
      <trkpt lat="40.79053" lon="-73.95958">
        <ele>32</ele>
        <time>2012-04-16T11:24:53Z</time>
      </trkpt>
      <trkpt lat="40.79054" lon="-73.95956">
        <ele>32</ele>
        <time>2012-04-16T11:24:54Z</time>
      </trkpt>
      <trkpt lat="40.79053" lon="-73.95954">
        <ele>32</ele>
        <time>2012-04-16T11:24:55Z</time>
      </trkpt>
      <trkpt lat="40.79053" lon="-73.95952">
        <ele>32</ele>
        <time>2012-04-16T11:24:56Z</time>
      </trkpt>
      <trkpt lat="40.79053" lon="-73.95949">
        <ele>31</ele>
        <time>2012-04-16T11:24:57Z</time>
      </trkpt>
      <trkpt lat="40.79053" lon="-73.95946">
        <ele>31</ele>
        <time>2012-04-16T11:24:58Z</time>
      </trkpt>
      <trkpt lat="40.79053" lon="-73.95943">
        <ele>31</ele>
        <time>2012-04-16T11:24:59Z</time>
      </trkpt>
      <trkpt lat="40.79053" lon="-73.9594">
        <ele>31</ele>
        <time>2012-04-16T11:25:00Z</time>
      </trkpt>
      <trkpt lat="40.79054" lon="-73.95938">
        <ele>31</ele>
        <time>2012-04-16T11:25:01Z</time>
      </trkpt>
      <trkpt lat="40.79054" lon="-73.95937">
        <ele>31</ele>
        <time>2012-04-16T11:25:02Z</time>
      </trkpt>
      <trkpt lat="40.79054" lon="-73.95934">
        <ele>31</ele>
        <time>2012-04-16T11:25:03Z</time>
      </trkpt>
      <trkpt lat="40.79054" lon="-73.9593">
        <ele>31</ele>
        <time>2012-04-16T11:25:04Z</time>
      </trkpt>
      <trkpt lat="40.79054" lon="-73.95927">
        <ele>31</ele>
        <time>2012-04-16T11:25:05Z</time>
      </trkpt>
      <trkpt lat="40.79053" lon="-73.95924">
        <ele>31</ele>
        <time>2012-04-16T11:25:06Z</time>
      </trkpt>
      <trkpt lat="40.79053" lon="-73.95921">
        <ele>31</ele>
        <time>2012-04-16T11:25:07Z</time>
      </trkpt>
      <trkpt lat="40.79053" lon="-73.95919">
        <ele>31</ele>
        <time>2012-04-16T11:25:08Z</time>
      </trkpt>
      <trkpt lat="40.79052" lon="-73.95916">
        <ele>31</ele>
        <time>2012-04-16T11:25:09Z</time>
      </trkpt>
      <trkpt lat="40.79052" lon="-73.95913">
        <ele>31</ele>
        <time>2012-04-16T11:25:10Z</time>
      </trkpt>
      <trkpt lat="40.79053" lon="-73.95911">
        <ele>31</ele>
        <time>2012-04-16T11:25:11Z</time>
      </trkpt>
      <trkpt lat="40.79053" lon="-73.95908">
        <ele>31</ele>
        <time>2012-04-16T11:25:12Z</time>
      </trkpt>
      <trkpt lat="40.79053" lon="-73.95906">
        <ele>31</ele>
        <time>2012-04-16T11:25:13Z</time>
      </trkpt>
      <trkpt lat="40.79053" lon="-73.95904">
        <ele>31</ele>
        <time>2012-04-16T11:25:14Z</time>
      </trkpt>
      <trkpt lat="40.79053" lon="-73.95901">
        <ele>31</ele>
        <time>2012-04-16T11:25:15Z</time>
      </trkpt>
      <trkpt lat="40.79054" lon="-73.95898">
        <ele>31</ele>
        <time>2012-04-16T11:25:16Z</time>
      </trkpt>
      <trkpt lat="40.79054" lon="-73.95895">
        <ele>31</ele>
        <time>2012-04-16T11:25:17Z</time>
      </trkpt>
      <trkpt lat="40.79053" lon="-73.95893">
        <ele>31</ele>
        <time>2012-04-16T11:25:18Z</time>
      </trkpt>
      <trkpt lat="40.79053" lon="-73.95891">
        <ele>31</ele>
        <time>2012-04-16T11:25:19Z</time>
      </trkpt>
      <trkpt lat="40.79052" lon="-73.95887">
        <ele>31</ele>
        <time>2012-04-16T11:25:20Z</time>
      </trkpt>
      <trkpt lat="40.79052" lon="-73.95884">
        <ele>31</ele>
        <time>2012-04-16T11:25:21Z</time>
      </trkpt>
      <trkpt lat="40.79052" lon="-73.9588">
        <ele>31</ele>
        <time>2012-04-16T11:25:22Z</time>
      </trkpt>
      <trkpt lat="40.79052" lon="-73.95877">
        <ele>31</ele>
        <time>2012-04-16T11:25:23Z</time>
      </trkpt>
      <trkpt lat="40.79051" lon="-73.95874">
        <ele>31</ele>
        <time>2012-04-16T11:25:24Z</time>
      </trkpt>
      <trkpt lat="40.79051" lon="-73.95871">
        <ele>31</ele>
        <time>2012-04-16T11:25:25Z</time>
      </trkpt>
      <trkpt lat="40.7905" lon="-73.95868">
        <ele>31</ele>
        <time>2012-04-16T11:25:26Z</time>
      </trkpt>
      <trkpt lat="40.7905" lon="-73.95865">
        <ele>31</ele>
        <time>2012-04-16T11:25:27Z</time>
      </trkpt>
      <trkpt lat="40.7905" lon="-73.95862">
        <ele>31</ele>
        <time>2012-04-16T11:25:28Z</time>
      </trkpt>
      <trkpt lat="40.79049" lon="-73.95859">
        <ele>31</ele>
        <time>2012-04-16T11:25:29Z</time>
      </trkpt>
      <trkpt lat="40.79049" lon="-73.95855">
        <ele>30</ele>
        <time>2012-04-16T11:25:30Z</time>
      </trkpt>
      <trkpt lat="40.79048" lon="-73.95852">
        <ele>30</ele>
        <time>2012-04-16T11:25:31Z</time>
      </trkpt>
      <trkpt lat="40.79048" lon="-73.95849">
        <ele>30</ele>
        <time>2012-04-16T11:25:32Z</time>
      </trkpt>
      <trkpt lat="40.79047" lon="-73.95847">
        <ele>30</ele>
        <time>2012-04-16T11:25:33Z</time>
      </trkpt>
      <trkpt lat="40.79047" lon="-73.95844">
        <ele>30</ele>
        <time>2012-04-16T11:25:34Z</time>
      </trkpt>
      <trkpt lat="40.79046" lon="-73.95841">
        <ele>29</ele>
        <time>2012-04-16T11:25:35Z</time>
      </trkpt>
      <trkpt lat="40.79046" lon="-73.95838">
        <ele>29</ele>
        <time>2012-04-16T11:25:36Z</time>
      </trkpt>
      <trkpt lat="40.79045" lon="-73.95836">
        <ele>28</ele>
        <time>2012-04-16T11:25:37Z</time>
      </trkpt>
      <trkpt lat="40.79044" lon="-73.95834">
        <ele>28</ele>
        <time>2012-04-16T11:25:38Z</time>
      </trkpt>
      <trkpt lat="40.79044" lon="-73.95831">
        <ele>28</ele>
        <time>2012-04-16T11:25:39Z</time>
      </trkpt>
      <trkpt lat="40.79044" lon="-73.95829">
        <ele>28</ele>
        <time>2012-04-16T11:25:40Z</time>
      </trkpt>
      <trkpt lat="40.79044" lon="-73.95826">
        <ele>28</ele>
        <time>2012-04-16T11:25:41Z</time>
      </trkpt>
      <trkpt lat="40.79043" lon="-73.95824">
        <ele>27</ele>
        <time>2012-04-16T11:25:42Z</time>
      </trkpt>
      <trkpt lat="40.79042" lon="-73.95821">
        <ele>27</ele>
        <time>2012-04-16T11:25:43Z</time>
      </trkpt>
      <trkpt lat="40.79042" lon="-73.95819">
        <ele>26</ele>
        <time>2012-04-16T11:25:44Z</time>
      </trkpt>
      <trkpt lat="40.79041" lon="-73.95817">
        <ele>25</ele>
        <time>2012-04-16T11:25:45Z</time>
      </trkpt>
      <trkpt lat="40.7904" lon="-73.95815">
        <ele>25</ele>
        <time>2012-04-16T11:25:46Z</time>
      </trkpt>
      <trkpt lat="40.79039" lon="-73.95812">
        <ele>25</ele>
        <time>2012-04-16T11:25:47Z</time>
      </trkpt>
      <trkpt lat="40.79039" lon="-73.95809">
        <ele>25</ele>
        <time>2012-04-16T11:25:48Z</time>
      </trkpt>
      <trkpt lat="40.79037" lon="-73.95806">
        <ele>25</ele>
        <time>2012-04-16T11:25:49Z</time>
      </trkpt>
      <trkpt lat="40.79036" lon="-73.95802">
        <ele>25</ele>
        <time>2012-04-16T11:25:50Z</time>
      </trkpt>
      <trkpt lat="40.79035" lon="-73.958">
        <ele>25</ele>
        <time>2012-04-16T11:25:51Z</time>
      </trkpt>
      <trkpt lat="40.79034" lon="-73.95797">
        <ele>25</ele>
        <time>2012-04-16T11:25:52Z</time>
      </trkpt>
      <trkpt lat="40.79033" lon="-73.95794">
        <ele>25</ele>
        <time>2012-04-16T11:25:53Z</time>
      </trkpt>
      <trkpt lat="40.79031" lon="-73.95792">
        <ele>25</ele>
        <time>2012-04-16T11:25:54Z</time>
      </trkpt>
      <trkpt lat="40.7903" lon="-73.95789">
        <ele>26</ele>
        <time>2012-04-16T11:25:55Z</time>
      </trkpt>
      <trkpt lat="40.79029" lon="-73.95787">
        <ele>26</ele>
        <time>2012-04-16T11:25:56Z</time>
      </trkpt>
      <trkpt lat="40.79028" lon="-73.95786">
        <ele>27</ele>
        <time>2012-04-16T11:25:57Z</time>
      </trkpt>
      <trkpt lat="40.79026" lon="-73.95784">
        <ele>27</ele>
        <time>2012-04-16T11:25:58Z</time>
      </trkpt>
      <trkpt lat="40.79025" lon="-73.95782">
        <ele>27</ele>
        <time>2012-04-16T11:25:59Z</time>
      </trkpt>
      <trkpt lat="40.79023" lon="-73.9578">
        <ele>27</ele>
        <time>2012-04-16T11:26:00Z</time>
      </trkpt>
      <trkpt lat="40.79021" lon="-73.95778">
        <ele>27</ele>
        <time>2012-04-16T11:26:01Z</time>
      </trkpt>
      <trkpt lat="40.79019" lon="-73.95776">
        <ele>27</ele>
        <time>2012-04-16T11:26:02Z</time>
      </trkpt>
      <trkpt lat="40.79017" lon="-73.95773">
        <ele>27</ele>
        <time>2012-04-16T11:26:03Z</time>
      </trkpt>
      <trkpt lat="40.79016" lon="-73.95772">
        <ele>27</ele>
        <time>2012-04-16T11:26:04Z</time>
      </trkpt>
      <trkpt lat="40.79014" lon="-73.9577">
        <ele>27</ele>
        <time>2012-04-16T11:26:05Z</time>
      </trkpt>
      <trkpt lat="40.79012" lon="-73.95768">
        <ele>28</ele>
        <time>2012-04-16T11:26:06Z</time>
      </trkpt>
      <trkpt lat="40.79011" lon="-73.95766">
        <ele>28</ele>
        <time>2012-04-16T11:26:07Z</time>
      </trkpt>
      <trkpt lat="40.79009" lon="-73.95763">
        <ele>28</ele>
        <time>2012-04-16T11:26:08Z</time>
      </trkpt>
      <trkpt lat="40.79007" lon="-73.95762">
        <ele>29</ele>
        <time>2012-04-16T11:26:09Z</time>
      </trkpt>
      <trkpt lat="40.79005" lon="-73.9576">
        <ele>29</ele>
        <time>2012-04-16T11:26:10Z</time>
      </trkpt>
      <trkpt lat="40.79003" lon="-73.95759">
        <ele>29</ele>
        <time>2012-04-16T11:26:11Z</time>
      </trkpt>
      <trkpt lat="40.79001" lon="-73.95757">
        <ele>29</ele>
        <time>2012-04-16T11:26:12Z</time>
      </trkpt>
      <trkpt lat="40.78999" lon="-73.95755">
        <ele>29</ele>
        <time>2012-04-16T11:26:13Z</time>
      </trkpt>
      <trkpt lat="40.78996" lon="-73.95753">
        <ele>29</ele>
        <time>2012-04-16T11:26:14Z</time>
      </trkpt>
      <trkpt lat="40.78994" lon="-73.95752">
        <ele>29</ele>
        <time>2012-04-16T11:26:15Z</time>
      </trkpt>
      <trkpt lat="40.78992" lon="-73.95752">
        <ele>29</ele>
        <time>2012-04-16T11:26:16Z</time>
      </trkpt>
      <trkpt lat="40.7899" lon="-73.95751">
        <ele>29</ele>
        <time>2012-04-16T11:26:17Z</time>
      </trkpt>
      <trkpt lat="40.78988" lon="-73.9575">
        <ele>29</ele>
        <time>2012-04-16T11:26:18Z</time>
      </trkpt>
      <trkpt lat="40.78986" lon="-73.9575">
        <ele>29</ele>
        <time>2012-04-16T11:26:19Z</time>
      </trkpt>
      <trkpt lat="40.78984" lon="-73.9575">
        <ele>29</ele>
        <time>2012-04-16T11:26:20Z</time>
      </trkpt>
      <trkpt lat="40.78981" lon="-73.95749">
        <ele>29</ele>
        <time>2012-04-16T11:26:21Z</time>
      </trkpt>
      <trkpt lat="40.78979" lon="-73.95748">
        <ele>29</ele>
        <time>2012-04-16T11:26:22Z</time>
      </trkpt>
      <trkpt lat="40.78977" lon="-73.95748">
        <ele>29</ele>
        <time>2012-04-16T11:26:23Z</time>
      </trkpt>
      <trkpt lat="40.78975" lon="-73.95749">
        <ele>29</ele>
        <time>2012-04-16T11:26:25Z</time>
      </trkpt>
      <trkpt lat="40.78973" lon="-73.95749">
        <ele>29</ele>
        <time>2012-04-16T11:26:25Z</time>
      </trkpt>
      <trkpt lat="40.78971" lon="-73.95749">
        <ele>29</ele>
        <time>2012-04-16T11:26:26Z</time>
      </trkpt>
      <trkpt lat="40.78969" lon="-73.9575">
        <ele>29</ele>
        <time>2012-04-16T11:26:27Z</time>
      </trkpt>
      <trkpt lat="40.78967" lon="-73.9575">
        <ele>29</ele>
        <time>2012-04-16T11:26:28Z</time>
      </trkpt>
      <trkpt lat="40.78965" lon="-73.9575">
        <ele>29</ele>
        <time>2012-04-16T11:26:29Z</time>
      </trkpt>
      <trkpt lat="40.78963" lon="-73.95751">
        <ele>29</ele>
        <time>2012-04-16T11:26:30Z</time>
      </trkpt>
      <trkpt lat="40.78961" lon="-73.95752">
        <ele>29</ele>
        <time>2012-04-16T11:26:31Z</time>
      </trkpt>
      <trkpt lat="40.78958" lon="-73.95752">
        <ele>29</ele>
        <time>2012-04-16T11:26:32Z</time>
      </trkpt>
      <trkpt lat="40.78957" lon="-73.95753">
        <ele>29</ele>
        <time>2012-04-16T11:26:33Z</time>
      </trkpt>
      <trkpt lat="40.78954" lon="-73.95754">
        <ele>29</ele>
        <time>2012-04-16T11:26:34Z</time>
      </trkpt>
      <trkpt lat="40.78952" lon="-73.95756">
        <ele>29</ele>
        <time>2012-04-16T11:26:35Z</time>
      </trkpt>
      <trkpt lat="40.78951" lon="-73.95757">
        <ele>29</ele>
        <time>2012-04-16T11:26:36Z</time>
      </trkpt>
      <trkpt lat="40.78949" lon="-73.95759">
        <ele>29</ele>
        <time>2012-04-16T11:26:37Z</time>
      </trkpt>
      <trkpt lat="40.78948" lon="-73.95761">
        <ele>29</ele>
        <time>2012-04-16T11:26:38Z</time>
      </trkpt>
      <trkpt lat="40.78947" lon="-73.95764">
        <ele>29</ele>
        <time>2012-04-16T11:26:39Z</time>
      </trkpt>
      <trkpt lat="40.78947" lon="-73.95767">
        <ele>29</ele>
        <time>2012-04-16T11:26:40Z</time>
      </trkpt>
      <trkpt lat="40.78947" lon="-73.9577">
        <ele>29</ele>
        <time>2012-04-16T11:26:41Z</time>
      </trkpt>
      <trkpt lat="40.78948" lon="-73.95773">
        <ele>29</ele>
        <time>2012-04-16T11:26:42Z</time>
      </trkpt>
      <trkpt lat="40.78948" lon="-73.95776">
        <ele>29</ele>
        <time>2012-04-16T11:26:43Z</time>
      </trkpt>
      <trkpt lat="40.78949" lon="-73.95779">
        <ele>29</ele>
        <time>2012-04-16T11:26:44Z</time>
      </trkpt>
      <trkpt lat="40.78949" lon="-73.95782">
        <ele>29</ele>
        <time>2012-04-16T11:26:45Z</time>
      </trkpt>
      <trkpt lat="40.78949" lon="-73.95786">
        <ele>29</ele>
        <time>2012-04-16T11:26:46Z</time>
      </trkpt>
      <trkpt lat="40.78949" lon="-73.95789">
        <ele>29</ele>
        <time>2012-04-16T11:26:47Z</time>
      </trkpt>
      <trkpt lat="40.78949" lon="-73.95792">
        <ele>29</ele>
        <time>2012-04-16T11:26:48Z</time>
      </trkpt>
      <trkpt lat="40.78949" lon="-73.95795">
        <ele>29</ele>
        <time>2012-04-16T11:26:49Z</time>
      </trkpt>
      <trkpt lat="40.78949" lon="-73.95799">
        <ele>29</ele>
        <time>2012-04-16T11:26:50Z</time>
      </trkpt>
      <trkpt lat="40.78949" lon="-73.95802">
        <ele>29</ele>
        <time>2012-04-16T11:26:51Z</time>
      </trkpt>
      <trkpt lat="40.78949" lon="-73.95805">
        <ele>29</ele>
        <time>2012-04-16T11:26:52Z</time>
      </trkpt>
      <trkpt lat="40.78948" lon="-73.95807">
        <ele>29</ele>
        <time>2012-04-16T11:26:53Z</time>
      </trkpt>
      <trkpt lat="40.78948" lon="-73.9581">
        <ele>30</ele>
        <time>2012-04-16T11:26:54Z</time>
      </trkpt>
      <trkpt lat="40.78947" lon="-73.95812">
        <ele>30</ele>
        <time>2012-04-16T11:26:55Z</time>
      </trkpt>
      <trkpt lat="40.78946" lon="-73.95815">
        <ele>30</ele>
        <time>2012-04-16T11:26:56Z</time>
      </trkpt>
      <trkpt lat="40.78946" lon="-73.95818">
        <ele>30</ele>
        <time>2012-04-16T11:26:57Z</time>
      </trkpt>
      <trkpt lat="40.78945" lon="-73.9582">
        <ele>30</ele>
        <time>2012-04-16T11:26:58Z</time>
      </trkpt>
      <trkpt lat="40.78945" lon="-73.95822">
        <ele>31</ele>
        <time>2012-04-16T11:26:59Z</time>
      </trkpt>
      <trkpt lat="40.78944" lon="-73.95825">
        <ele>31</ele>
        <time>2012-04-16T11:27:00Z</time>
      </trkpt>
      <trkpt lat="40.78944" lon="-73.95827">
        <ele>31</ele>
        <time>2012-04-16T11:27:01Z</time>
      </trkpt>
      <trkpt lat="40.78943" lon="-73.95831">
        <ele>31</ele>
        <time>2012-04-16T11:27:02Z</time>
      </trkpt>
      <trkpt lat="40.78942" lon="-73.95834">
        <ele>31</ele>
        <time>2012-04-16T11:27:03Z</time>
      </trkpt>
      <trkpt lat="40.78942" lon="-73.95837">
        <ele>31</ele>
        <time>2012-04-16T11:27:04Z</time>
      </trkpt>
      <trkpt lat="40.78941" lon="-73.95839">
        <ele>31</ele>
        <time>2012-04-16T11:27:05Z</time>
      </trkpt>
      <trkpt lat="40.7894" lon="-73.95842">
        <ele>31</ele>
        <time>2012-04-16T11:27:06Z</time>
      </trkpt>
      <trkpt lat="40.78939" lon="-73.95844">
        <ele>31</ele>
        <time>2012-04-16T11:27:07Z</time>
      </trkpt>
      <trkpt lat="40.78937" lon="-73.95845">
        <ele>31</ele>
        <time>2012-04-16T11:27:08Z</time>
      </trkpt>
      <trkpt lat="40.78936" lon="-73.95847">
        <ele>31</ele>
        <time>2012-04-16T11:27:09Z</time>
      </trkpt>
      <trkpt lat="40.78934" lon="-73.95847">
        <ele>31</ele>
        <time>2012-04-16T11:27:10Z</time>
      </trkpt>
      <trkpt lat="40.78933" lon="-73.95848">
        <ele>31</ele>
        <time>2012-04-16T11:27:11Z</time>
      </trkpt>
      <trkpt lat="40.78931" lon="-73.95848">
        <ele>31</ele>
        <time>2012-04-16T11:27:12Z</time>
      </trkpt>
      <trkpt lat="40.78929" lon="-73.95849">
        <ele>31</ele>
        <time>2012-04-16T11:27:13Z</time>
      </trkpt>
      <trkpt lat="40.78928" lon="-73.9585">
        <ele>31</ele>
        <time>2012-04-16T11:27:14Z</time>
      </trkpt>
      <trkpt lat="40.78926" lon="-73.95851">
        <ele>31</ele>
        <time>2012-04-16T11:27:15Z</time>
      </trkpt>
      <trkpt lat="40.78924" lon="-73.95852">
        <ele>32</ele>
        <time>2012-04-16T11:27:17Z</time>
      </trkpt>
      <trkpt lat="40.78923" lon="-73.95853">
        <ele>32</ele>
        <time>2012-04-16T11:27:18Z</time>
      </trkpt>
      <trkpt lat="40.78921" lon="-73.95853">
        <ele>34</ele>
        <time>2012-04-16T11:27:20Z</time>
      </trkpt>
      <trkpt lat="40.7892" lon="-73.95853">
        <ele>34</ele>
        <time>2012-04-16T11:27:21Z</time>
      </trkpt>
      <trkpt lat="40.78919" lon="-73.95853">
        <ele>35</ele>
        <time>2012-04-16T11:27:22Z</time>
      </trkpt>
      <trkpt lat="40.78917" lon="-73.95854">
        <ele>35</ele>
        <time>2012-04-16T11:27:23Z</time>
      </trkpt>
      <trkpt lat="40.78916" lon="-73.95854">
        <ele>35</ele>
        <time>2012-04-16T11:27:24Z</time>
      </trkpt>
      <trkpt lat="40.78914" lon="-73.95855">
        <ele>35</ele>
        <time>2012-04-16T11:27:25Z</time>
      </trkpt>
      <trkpt lat="40.78912" lon="-73.95855">
        <ele>36</ele>
        <time>2012-04-16T11:27:26Z</time>
      </trkpt>
      <trkpt lat="40.78911" lon="-73.95856">
        <ele>36</ele>
        <time>2012-04-16T11:27:27Z</time>
      </trkpt>
      <trkpt lat="40.7891" lon="-73.95857">
        <ele>36</ele>
        <time>2012-04-16T11:27:28Z</time>
      </trkpt>
      <trkpt lat="40.78908" lon="-73.95858">
        <ele>36</ele>
        <time>2012-04-16T11:27:29Z</time>
      </trkpt>
      <trkpt lat="40.78907" lon="-73.95858">
        <ele>37</ele>
        <time>2012-04-16T11:27:30Z</time>
      </trkpt>
      <trkpt lat="40.78905" lon="-73.95859">
        <ele>37</ele>
        <time>2012-04-16T11:27:31Z</time>
      </trkpt>
      <trkpt lat="40.78904" lon="-73.9586">
        <ele>37</ele>
        <time>2012-04-16T11:27:32Z</time>
      </trkpt>
      <trkpt lat="40.78902" lon="-73.9586">
        <ele>37</ele>
        <time>2012-04-16T11:27:33Z</time>
      </trkpt>
      <trkpt lat="40.78901" lon="-73.95862">
        <ele>38</ele>
        <time>2012-04-16T11:27:35Z</time>
      </trkpt>
      <trkpt lat="40.789" lon="-73.95863">
        <ele>38</ele>
        <time>2012-04-16T11:27:36Z</time>
      </trkpt>
      <trkpt lat="40.78898" lon="-73.95864">
        <ele>39</ele>
        <time>2012-04-16T11:27:38Z</time>
      </trkpt>
      <trkpt lat="40.78896" lon="-73.95866">
        <ele>39</ele>
        <time>2012-04-16T11:27:40Z</time>
      </trkpt>
      <trkpt lat="40.78894" lon="-73.95866">
        <ele>39</ele>
        <time>2012-04-16T11:27:41Z</time>
      </trkpt>
      <trkpt lat="40.78892" lon="-73.95866">
        <ele>39</ele>
        <time>2012-04-16T11:27:42Z</time>
      </trkpt>
      <trkpt lat="40.78891" lon="-73.95867">
        <ele>39</ele>
        <time>2012-04-16T11:27:43Z</time>
      </trkpt>
      <trkpt lat="40.7889" lon="-73.95868">
        <ele>39</ele>
        <time>2012-04-16T11:27:44Z</time>
      </trkpt>
      <trkpt lat="40.78888" lon="-73.95869">
        <ele>39</ele>
        <time>2012-04-16T11:27:45Z</time>
      </trkpt>
      <trkpt lat="40.78887" lon="-73.95869">
        <ele>40</ele>
        <time>2012-04-16T11:27:46Z</time>
      </trkpt>
      <trkpt lat="40.78885" lon="-73.9587">
        <ele>40</ele>
        <time>2012-04-16T11:27:48Z</time>
      </trkpt>
      <trkpt lat="40.78883" lon="-73.95872">
        <ele>40</ele>
        <time>2012-04-16T11:27:50Z</time>
      </trkpt>
      <trkpt lat="40.78883" lon="-73.95873">
        <ele>40</ele>
        <time>2012-04-16T11:27:56Z</time>
      </trkpt>
      <trkpt lat="40.78883" lon="-73.95875">
        <ele>39</ele>
        <time>2012-04-16T11:27:58Z</time>
      </trkpt>
      <trkpt lat="40.78881" lon="-73.95876">
        <ele>37</ele>
        <time>2012-04-16T11:28:00Z</time>
      </trkpt>
      <trkpt lat="40.78879" lon="-73.95876">
        <ele>37</ele>
        <time>2012-04-16T11:28:02Z</time>
      </trkpt>
      <trkpt lat="40.7888" lon="-73.95878">
        <ele>36</ele>
        <time>2012-04-16T11:28:06Z</time>
      </trkpt>
      <trkpt lat="40.7888" lon="-73.95879">
        <ele>36</ele>
        <time>2012-04-16T11:28:15Z</time>
      </trkpt>
      <trkpt lat="40.78881" lon="-73.95882">
        <ele>36</ele>
        <time>2012-04-16T11:28:22Z</time>
      </trkpt>
      <trkpt lat="40.7888" lon="-73.95884">
        <ele>36</ele>
        <time>2012-04-16T11:28:24Z</time>
      </trkpt>
      <trkpt lat="40.78879" lon="-73.95886">
        <ele>36</ele>
        <time>2012-04-16T11:28:25Z</time>
      </trkpt>
      <trkpt lat="40.78879" lon="-73.95889">
        <ele>36</ele>
        <time>2012-04-16T11:28:26Z</time>
      </trkpt>
      <trkpt lat="40.78879" lon="-73.95891">
        <ele>36</ele>
        <time>2012-04-16T11:28:27Z</time>
      </trkpt>
      <trkpt lat="40.78878" lon="-73.95893">
        <ele>36</ele>
        <time>2012-04-16T11:28:28Z</time>
      </trkpt>
      <trkpt lat="40.78878" lon="-73.95895">
        <ele>36</ele>
        <time>2012-04-16T11:28:30Z</time>
      </trkpt>
      <trkpt lat="40.78877" lon="-73.95897">
        <ele>36</ele>
        <time>2012-04-16T11:28:32Z</time>
      </trkpt>
      <trkpt lat="40.78876" lon="-73.95899">
        <ele>36</ele>
        <time>2012-04-16T11:28:34Z</time>
      </trkpt>
      <trkpt lat="40.78876" lon="-73.95901">
        <ele>36</ele>
        <time>2012-04-16T11:28:36Z</time>
      </trkpt>
      <trkpt lat="40.78875" lon="-73.95903">
        <ele>36</ele>
        <time>2012-04-16T11:28:38Z</time>
      </trkpt>
      <trkpt lat="40.78875" lon="-73.95905">
        <ele>36</ele>
        <time>2012-04-16T11:28:40Z</time>
      </trkpt>
      <trkpt lat="40.78875" lon="-73.95907">
        <ele>36</ele>
        <time>2012-04-16T11:28:42Z</time>
      </trkpt>
      <trkpt lat="40.78875" lon="-73.95909">
        <ele>36</ele>
        <time>2012-04-16T11:28:44Z</time>
      </trkpt>
      <trkpt lat="40.78874" lon="-73.95911">
        <ele>36</ele>
        <time>2012-04-16T11:28:46Z</time>
      </trkpt>
      <trkpt lat="40.78873" lon="-73.95913">
        <ele>36</ele>
        <time>2012-04-16T11:28:47Z</time>
      </trkpt>
      <trkpt lat="40.78873" lon="-73.95914">
        <ele>36</ele>
        <time>2012-04-16T11:28:48Z</time>
      </trkpt>
      <trkpt lat="40.78872" lon="-73.95917">
        <ele>36</ele>
        <time>2012-04-16T11:28:49Z</time>
      </trkpt>
      <trkpt lat="40.78872" lon="-73.95919">
        <ele>36</ele>
        <time>2012-04-16T11:28:50Z</time>
      </trkpt>
      <trkpt lat="40.78872" lon="-73.95921">
        <ele>36</ele>
        <time>2012-04-16T11:28:51Z</time>
      </trkpt>
      <trkpt lat="40.78871" lon="-73.95924">
        <ele>36</ele>
        <time>2012-04-16T11:28:52Z</time>
      </trkpt>
      <trkpt lat="40.7887" lon="-73.95927">
        <ele>36</ele>
        <time>2012-04-16T11:28:53Z</time>
      </trkpt>
      <trkpt lat="40.7887" lon="-73.95929">
        <ele>36</ele>
        <time>2012-04-16T11:28:54Z</time>
      </trkpt>
      <trkpt lat="40.7887" lon="-73.95932">
        <ele>36</ele>
        <time>2012-04-16T11:28:55Z</time>
      </trkpt>
      <trkpt lat="40.7887" lon="-73.95934">
        <ele>36</ele>
        <time>2012-04-16T11:28:56Z</time>
      </trkpt>
      <trkpt lat="40.78869" lon="-73.95937">
        <ele>36</ele>
        <time>2012-04-16T11:28:57Z</time>
      </trkpt>
      <trkpt lat="40.78869" lon="-73.9594">
        <ele>36</ele>
        <time>2012-04-16T11:28:58Z</time>
      </trkpt>
      <trkpt lat="40.78868" lon="-73.95943">
        <ele>36</ele>
        <time>2012-04-16T11:28:59Z</time>
      </trkpt>
      <trkpt lat="40.78868" lon="-73.95946">
        <ele>36</ele>
        <time>2012-04-16T11:29:00Z</time>
      </trkpt>
      <trkpt lat="40.78868" lon="-73.95949">
        <ele>36</ele>
        <time>2012-04-16T11:29:01Z</time>
      </trkpt>
      <trkpt lat="40.78868" lon="-73.95952">
        <ele>36</ele>
        <time>2012-04-16T11:29:02Z</time>
      </trkpt>
      <trkpt lat="40.78868" lon="-73.95954">
        <ele>36</ele>
        <time>2012-04-16T11:29:03Z</time>
      </trkpt>
      <trkpt lat="40.78868" lon="-73.95957">
        <ele>36</ele>
        <time>2012-04-16T11:29:04Z</time>
      </trkpt>
      <trkpt lat="40.78868" lon="-73.95961">
        <ele>36</ele>
        <time>2012-04-16T11:29:05Z</time>
      </trkpt>
      <trkpt lat="40.78868" lon="-73.95964">
        <ele>36</ele>
        <time>2012-04-16T11:29:06Z</time>
      </trkpt>
      <trkpt lat="40.78868" lon="-73.95967">
        <ele>36</ele>
        <time>2012-04-16T11:29:07Z</time>
      </trkpt>
      <trkpt lat="40.78868" lon="-73.9597">
        <ele>37</ele>
        <time>2012-04-16T11:29:08Z</time>
      </trkpt>
      <trkpt lat="40.78868" lon="-73.95974">
        <ele>37</ele>
        <time>2012-04-16T11:29:09Z</time>
      </trkpt>
      <trkpt lat="40.78869" lon="-73.95977">
        <ele>37</ele>
        <time>2012-04-16T11:29:10Z</time>
      </trkpt>
      <trkpt lat="40.78868" lon="-73.95979">
        <ele>37</ele>
        <time>2012-04-16T11:29:11Z</time>
      </trkpt>
      <trkpt lat="40.78868" lon="-73.95982">
        <ele>37</ele>
        <time>2012-04-16T11:29:12Z</time>
      </trkpt>
      <trkpt lat="40.78868" lon="-73.95986">
        <ele>37</ele>
        <time>2012-04-16T11:29:13Z</time>
      </trkpt>
      <trkpt lat="40.78869" lon="-73.95989">
        <ele>37</ele>
        <time>2012-04-16T11:29:14Z</time>
      </trkpt>
      <trkpt lat="40.78869" lon="-73.95992">
        <ele>38</ele>
        <time>2012-04-16T11:29:15Z</time>
      </trkpt>
      <trkpt lat="40.7887" lon="-73.95996">
        <ele>38</ele>
        <time>2012-04-16T11:29:16Z</time>
      </trkpt>
      <trkpt lat="40.7887" lon="-73.95999">
        <ele>38</ele>
        <time>2012-04-16T11:29:17Z</time>
      </trkpt>
      <trkpt lat="40.78871" lon="-73.96002">
        <ele>38</ele>
        <time>2012-04-16T11:29:18Z</time>
      </trkpt>
      <trkpt lat="40.78871" lon="-73.96005">
        <ele>38</ele>
        <time>2012-04-16T11:29:19Z</time>
      </trkpt>
      <trkpt lat="40.78872" lon="-73.96008">
        <ele>38</ele>
        <time>2012-04-16T11:29:20Z</time>
      </trkpt>
      <trkpt lat="40.78873" lon="-73.96011">
        <ele>38</ele>
        <time>2012-04-16T11:29:21Z</time>
      </trkpt>
      <trkpt lat="40.78873" lon="-73.96014">
        <ele>38</ele>
        <time>2012-04-16T11:29:22Z</time>
      </trkpt>
      <trkpt lat="40.78874" lon="-73.96017">
        <ele>38</ele>
        <time>2012-04-16T11:29:23Z</time>
      </trkpt>
      <trkpt lat="40.78875" lon="-73.96021">
        <ele>38</ele>
        <time>2012-04-16T11:29:24Z</time>
      </trkpt>
      <trkpt lat="40.78875" lon="-73.96024">
        <ele>38</ele>
        <time>2012-04-16T11:29:25Z</time>
      </trkpt>
      <trkpt lat="40.78876" lon="-73.96027">
        <ele>38</ele>
        <time>2012-04-16T11:29:26Z</time>
      </trkpt>
      <trkpt lat="40.78877" lon="-73.96029">
        <ele>38</ele>
        <time>2012-04-16T11:29:27Z</time>
      </trkpt>
      <trkpt lat="40.78878" lon="-73.96032">
        <ele>38</ele>
        <time>2012-04-16T11:29:28Z</time>
      </trkpt>
      <trkpt lat="40.78879" lon="-73.96034">
        <ele>38</ele>
        <time>2012-04-16T11:29:29Z</time>
      </trkpt>
      <trkpt lat="40.7888" lon="-73.96037">
        <ele>38</ele>
        <time>2012-04-16T11:29:30Z</time>
      </trkpt>
      <trkpt lat="40.78881" lon="-73.9604">
        <ele>38</ele>
        <time>2012-04-16T11:29:31Z</time>
      </trkpt>
      <trkpt lat="40.78882" lon="-73.96043">
        <ele>38</ele>
        <time>2012-04-16T11:29:32Z</time>
      </trkpt>
      <trkpt lat="40.78883" lon="-73.96045">
        <ele>38</ele>
        <time>2012-04-16T11:29:33Z</time>
      </trkpt>
      <trkpt lat="40.78884" lon="-73.96048">
        <ele>38</ele>
        <time>2012-04-16T11:29:34Z</time>
      </trkpt>
      <trkpt lat="40.78885" lon="-73.9605">
        <ele>38</ele>
        <time>2012-04-16T11:29:35Z</time>
      </trkpt>
      <trkpt lat="40.78886" lon="-73.96053">
        <ele>38</ele>
        <time>2012-04-16T11:29:36Z</time>
      </trkpt>
      <trkpt lat="40.78888" lon="-73.96056">
        <ele>38</ele>
        <time>2012-04-16T11:29:37Z</time>
      </trkpt>
      <trkpt lat="40.78889" lon="-73.96059">
        <ele>38</ele>
        <time>2012-04-16T11:29:38Z</time>
      </trkpt>
      <trkpt lat="40.7889" lon="-73.96061">
        <ele>38</ele>
        <time>2012-04-16T11:29:39Z</time>
      </trkpt>
      <trkpt lat="40.78891" lon="-73.96065">
        <ele>38</ele>
        <time>2012-04-16T11:29:40Z</time>
      </trkpt>
      <trkpt lat="40.78892" lon="-73.96067">
        <ele>38</ele>
        <time>2012-04-16T11:29:41Z</time>
      </trkpt>
      <trkpt lat="40.78893" lon="-73.96069">
        <ele>38</ele>
        <time>2012-04-16T11:29:42Z</time>
      </trkpt>
      <trkpt lat="40.78894" lon="-73.96072">
        <ele>38</ele>
        <time>2012-04-16T11:29:43Z</time>
      </trkpt>
      <trkpt lat="40.78895" lon="-73.96075">
        <ele>38</ele>
        <time>2012-04-16T11:29:44Z</time>
      </trkpt>
      <trkpt lat="40.78896" lon="-73.96077">
        <ele>38</ele>
        <time>2012-04-16T11:29:45Z</time>
      </trkpt>
      <trkpt lat="40.78897" lon="-73.9608">
        <ele>38</ele>
        <time>2012-04-16T11:29:46Z</time>
      </trkpt>
      <trkpt lat="40.78897" lon="-73.96084">
        <ele>38</ele>
        <time>2012-04-16T11:29:47Z</time>
      </trkpt>
      <trkpt lat="40.78896" lon="-73.96087">
        <ele>38</ele>
        <time>2012-04-16T11:29:48Z</time>
      </trkpt>
      <trkpt lat="40.78896" lon="-73.9609">
        <ele>38</ele>
        <time>2012-04-16T11:29:49Z</time>
      </trkpt>
      <trkpt lat="40.78896" lon="-73.96093">
        <ele>39</ele>
        <time>2012-04-16T11:29:50Z</time>
      </trkpt>
      <trkpt lat="40.78895" lon="-73.96096">
        <ele>39</ele>
        <time>2012-04-16T11:29:51Z</time>
      </trkpt>
      <trkpt lat="40.78896" lon="-73.96098">
        <ele>39</ele>
        <time>2012-04-16T11:29:52Z</time>
      </trkpt>
      <trkpt lat="40.78896" lon="-73.96101">
        <ele>39</ele>
        <time>2012-04-16T11:29:53Z</time>
      </trkpt>
      <trkpt lat="40.78895" lon="-73.96104">
        <ele>39</ele>
        <time>2012-04-16T11:29:54Z</time>
      </trkpt>
      <trkpt lat="40.78895" lon="-73.96107">
        <ele>39</ele>
        <time>2012-04-16T11:29:55Z</time>
      </trkpt>
      <trkpt lat="40.78895" lon="-73.9611">
        <ele>39</ele>
        <time>2012-04-16T11:29:56Z</time>
      </trkpt>
      <trkpt lat="40.78895" lon="-73.96113">
        <ele>39</ele>
        <time>2012-04-16T11:29:57Z</time>
      </trkpt>
      <trkpt lat="40.78895" lon="-73.96116">
        <ele>39</ele>
        <time>2012-04-16T11:29:58Z</time>
      </trkpt>
      <trkpt lat="40.78895" lon="-73.96118">
        <ele>39</ele>
        <time>2012-04-16T11:29:59Z</time>
      </trkpt>
      <trkpt lat="40.78895" lon="-73.96121">
        <ele>39</ele>
        <time>2012-04-16T11:30:00Z</time>
      </trkpt>
      <trkpt lat="40.78895" lon="-73.96124">
        <ele>39</ele>
        <time>2012-04-16T11:30:01Z</time>
      </trkpt>
      <trkpt lat="40.78896" lon="-73.96126">
        <ele>39</ele>
        <time>2012-04-16T11:30:02Z</time>
      </trkpt>
      <trkpt lat="40.78896" lon="-73.96129">
        <ele>39</ele>
        <time>2012-04-16T11:30:03Z</time>
      </trkpt>
      <trkpt lat="40.78896" lon="-73.96132">
        <ele>39</ele>
        <time>2012-04-16T11:30:04Z</time>
      </trkpt>
      <trkpt lat="40.78896" lon="-73.96135">
        <ele>39</ele>
        <time>2012-04-16T11:30:05Z</time>
      </trkpt>
      <trkpt lat="40.78896" lon="-73.96138">
        <ele>39</ele>
        <time>2012-04-16T11:30:06Z</time>
      </trkpt>
      <trkpt lat="40.78896" lon="-73.9614">
        <ele>39</ele>
        <time>2012-04-16T11:30:07Z</time>
      </trkpt>
      <trkpt lat="40.78896" lon="-73.96143">
        <ele>39</ele>
        <time>2012-04-16T11:30:08Z</time>
      </trkpt>
      <trkpt lat="40.78895" lon="-73.96146">
        <ele>39</ele>
        <time>2012-04-16T11:30:09Z</time>
      </trkpt>
      <trkpt lat="40.78895" lon="-73.96149">
        <ele>39</ele>
        <time>2012-04-16T11:30:10Z</time>
      </trkpt>
      <trkpt lat="40.78894" lon="-73.96152">
        <ele>40</ele>
        <time>2012-04-16T11:30:11Z</time>
      </trkpt>
      <trkpt lat="40.78893" lon="-73.96156">
        <ele>41</ele>
        <time>2012-04-16T11:30:12Z</time>
      </trkpt>
      <trkpt lat="40.78891" lon="-73.96158">
        <ele>41</ele>
        <time>2012-04-16T11:30:13Z</time>
      </trkpt>
      <trkpt lat="40.7889" lon="-73.96161">
        <ele>41</ele>
        <time>2012-04-16T11:30:14Z</time>
      </trkpt>
      <trkpt lat="40.78888" lon="-73.96162">
        <ele>41</ele>
        <time>2012-04-16T11:30:15Z</time>
      </trkpt>
      <trkpt lat="40.78887" lon="-73.96164">
        <ele>41</ele>
        <time>2012-04-16T11:30:16Z</time>
      </trkpt>
      <trkpt lat="40.78886" lon="-73.96166">
        <ele>41</ele>
        <time>2012-04-16T11:30:17Z</time>
      </trkpt>
      <trkpt lat="40.78885" lon="-73.96169">
        <ele>41</ele>
        <time>2012-04-16T11:30:18Z</time>
      </trkpt>
      <trkpt lat="40.78884" lon="-73.96172">
        <ele>41</ele>
        <time>2012-04-16T11:30:19Z</time>
      </trkpt>
      <trkpt lat="40.78882" lon="-73.96174">
        <ele>41</ele>
        <time>2012-04-16T11:30:20Z</time>
      </trkpt>
      <trkpt lat="40.7888" lon="-73.96176">
        <ele>41</ele>
        <time>2012-04-16T11:30:21Z</time>
      </trkpt>
      <trkpt lat="40.78879" lon="-73.96178">
        <ele>41</ele>
        <time>2012-04-16T11:30:22Z</time>
      </trkpt>
      <trkpt lat="40.78877" lon="-73.9618">
        <ele>41</ele>
        <time>2012-04-16T11:30:23Z</time>
      </trkpt>
      <trkpt lat="40.78876" lon="-73.96182">
        <ele>41</ele>
        <time>2012-04-16T11:30:24Z</time>
      </trkpt>
      <trkpt lat="40.78874" lon="-73.96185">
        <ele>41</ele>
        <time>2012-04-16T11:30:25Z</time>
      </trkpt>
      <trkpt lat="40.78872" lon="-73.96187">
        <ele>41</ele>
        <time>2012-04-16T11:30:26Z</time>
      </trkpt>
      <trkpt lat="40.7887" lon="-73.96188">
        <ele>41</ele>
        <time>2012-04-16T11:30:27Z</time>
      </trkpt>
      <trkpt lat="40.78868" lon="-73.96191">
        <ele>41</ele>
        <time>2012-04-16T11:30:28Z</time>
      </trkpt>
      <trkpt lat="40.78867" lon="-73.96193">
        <ele>41</ele>
        <time>2012-04-16T11:30:29Z</time>
      </trkpt>
      <trkpt lat="40.78865" lon="-73.96195">
        <ele>41</ele>
        <time>2012-04-16T11:30:30Z</time>
      </trkpt>
      <trkpt lat="40.78863" lon="-73.96197">
        <ele>41</ele>
        <time>2012-04-16T11:30:31Z</time>
      </trkpt>
      <trkpt lat="40.78861" lon="-73.96199">
        <ele>41</ele>
        <time>2012-04-16T11:30:32Z</time>
      </trkpt>
      <trkpt lat="40.78859" lon="-73.96201">
        <ele>41</ele>
        <time>2012-04-16T11:30:33Z</time>
      </trkpt>
      <trkpt lat="40.78857" lon="-73.96201">
        <ele>41</ele>
        <time>2012-04-16T11:30:34Z</time>
      </trkpt>
      <trkpt lat="40.78856" lon="-73.96203">
        <ele>41</ele>
        <time>2012-04-16T11:30:35Z</time>
      </trkpt>
      <trkpt lat="40.78854" lon="-73.96205">
        <ele>41</ele>
        <time>2012-04-16T11:30:36Z</time>
      </trkpt>
      <trkpt lat="40.78853" lon="-73.96207">
        <ele>41</ele>
        <time>2012-04-16T11:30:37Z</time>
      </trkpt>
      <trkpt lat="40.78852" lon="-73.96208">
        <ele>41</ele>
        <time>2012-04-16T11:30:38Z</time>
      </trkpt>
      <trkpt lat="40.7885" lon="-73.9621">
        <ele>41</ele>
        <time>2012-04-16T11:30:39Z</time>
      </trkpt>
      <trkpt lat="40.78848" lon="-73.96212">
        <ele>41</ele>
        <time>2012-04-16T11:30:40Z</time>
      </trkpt>
      <trkpt lat="40.78847" lon="-73.96214">
        <ele>41</ele>
        <time>2012-04-16T11:30:41Z</time>
      </trkpt>
      <trkpt lat="40.78845" lon="-73.96217">
        <ele>41</ele>
        <time>2012-04-16T11:30:42Z</time>
      </trkpt>
      <trkpt lat="40.78843" lon="-73.96218">
        <ele>41</ele>
        <time>2012-04-16T11:30:43Z</time>
      </trkpt>
      <trkpt lat="40.78841" lon="-73.9622">
        <ele>41</ele>
        <time>2012-04-16T11:30:44Z</time>
      </trkpt>
      <trkpt lat="40.78839" lon="-73.96222">
        <ele>41</ele>
        <time>2012-04-16T11:30:45Z</time>
      </trkpt>
      <trkpt lat="40.78838" lon="-73.96225">
        <ele>41</ele>
        <time>2012-04-16T11:30:46Z</time>
      </trkpt>
      <trkpt lat="40.78838" lon="-73.96227">
        <ele>41</ele>
        <time>2012-04-16T11:30:47Z</time>
      </trkpt>
      <trkpt lat="40.78836" lon="-73.9623">
        <ele>41</ele>
        <time>2012-04-16T11:30:48Z</time>
      </trkpt>
      <trkpt lat="40.78835" lon="-73.96232">
        <ele>41</ele>
        <time>2012-04-16T11:30:49Z</time>
      </trkpt>
      <trkpt lat="40.78834" lon="-73.96235">
        <ele>41</ele>
        <time>2012-04-16T11:30:50Z</time>
      </trkpt>
      <trkpt lat="40.78833" lon="-73.96237">
        <ele>41</ele>
        <time>2012-04-16T11:30:51Z</time>
      </trkpt>
      <trkpt lat="40.78832" lon="-73.9624">
        <ele>41</ele>
        <time>2012-04-16T11:30:52Z</time>
      </trkpt>
      <trkpt lat="40.78831" lon="-73.96243">
        <ele>41</ele>
        <time>2012-04-16T11:30:53Z</time>
      </trkpt>
      <trkpt lat="40.78831" lon="-73.96246">
        <ele>41</ele>
        <time>2012-04-16T11:30:54Z</time>
      </trkpt>
      <trkpt lat="40.7883" lon="-73.96249">
        <ele>41</ele>
        <time>2012-04-16T11:30:55Z</time>
      </trkpt>
      <trkpt lat="40.7883" lon="-73.96252">
        <ele>41</ele>
        <time>2012-04-16T11:30:56Z</time>
      </trkpt>
      <trkpt lat="40.7883" lon="-73.96255">
        <ele>41</ele>
        <time>2012-04-16T11:30:57Z</time>
      </trkpt>
      <trkpt lat="40.78829" lon="-73.96258">
        <ele>41</ele>
        <time>2012-04-16T11:30:58Z</time>
      </trkpt>
      <trkpt lat="40.78829" lon="-73.96261">
        <ele>41</ele>
        <time>2012-04-16T11:30:59Z</time>
      </trkpt>
      <trkpt lat="40.78828" lon="-73.96265">
        <ele>41</ele>
        <time>2012-04-16T11:31:00Z</time>
      </trkpt>
      <trkpt lat="40.78828" lon="-73.96267">
        <ele>41</ele>
        <time>2012-04-16T11:31:01Z</time>
      </trkpt>
      <trkpt lat="40.78828" lon="-73.9627">
        <ele>41</ele>
        <time>2012-04-16T11:31:02Z</time>
      </trkpt>
      <trkpt lat="40.78828" lon="-73.96274">
        <ele>41</ele>
        <time>2012-04-16T11:31:03Z</time>
      </trkpt>
      <trkpt lat="40.78828" lon="-73.96277">
        <ele>41</ele>
        <time>2012-04-16T11:31:04Z</time>
      </trkpt>
      <trkpt lat="40.78829" lon="-73.96281">
        <ele>41</ele>
        <time>2012-04-16T11:31:05Z</time>
      </trkpt>
      <trkpt lat="40.78829" lon="-73.96284">
        <ele>41</ele>
        <time>2012-04-16T11:31:06Z</time>
      </trkpt>
      <trkpt lat="40.7883" lon="-73.96288">
        <ele>41</ele>
        <time>2012-04-16T11:31:07Z</time>
      </trkpt>
      <trkpt lat="40.7883" lon="-73.96291">
        <ele>41</ele>
        <time>2012-04-16T11:31:08Z</time>
      </trkpt>
      <trkpt lat="40.7883" lon="-73.96294">
        <ele>41</ele>
        <time>2012-04-16T11:31:09Z</time>
      </trkpt>
      <trkpt lat="40.78831" lon="-73.96297">
        <ele>41</ele>
        <time>2012-04-16T11:31:10Z</time>
      </trkpt>
      <trkpt lat="40.78831" lon="-73.96301">
        <ele>41</ele>
        <time>2012-04-16T11:31:11Z</time>
      </trkpt>
      <trkpt lat="40.78831" lon="-73.96304">
        <ele>41</ele>
        <time>2012-04-16T11:31:12Z</time>
      </trkpt>
      <trkpt lat="40.78831" lon="-73.96307">
        <ele>41</ele>
        <time>2012-04-16T11:31:13Z</time>
      </trkpt>
      <trkpt lat="40.78831" lon="-73.9631">
        <ele>41</ele>
        <time>2012-04-16T11:31:14Z</time>
      </trkpt>
      <trkpt lat="40.78831" lon="-73.96314">
        <ele>41</ele>
        <time>2012-04-16T11:31:15Z</time>
      </trkpt>
      <trkpt lat="40.78831" lon="-73.96317">
        <ele>41</ele>
        <time>2012-04-16T11:31:16Z</time>
      </trkpt>
      <trkpt lat="40.78831" lon="-73.9632">
        <ele>41</ele>
        <time>2012-04-16T11:31:17Z</time>
      </trkpt>
      <trkpt lat="40.78831" lon="-73.96323">
        <ele>41</ele>
        <time>2012-04-16T11:31:18Z</time>
      </trkpt>
      <trkpt lat="40.78831" lon="-73.96326">
        <ele>41</ele>
        <time>2012-04-16T11:31:19Z</time>
      </trkpt>
      <trkpt lat="40.78831" lon="-73.96328">
        <ele>41</ele>
        <time>2012-04-16T11:31:20Z</time>
      </trkpt>
      <trkpt lat="40.78831" lon="-73.96331">
        <ele>41</ele>
        <time>2012-04-16T11:31:21Z</time>
      </trkpt>
      <trkpt lat="40.78831" lon="-73.96334">
        <ele>41</ele>
        <time>2012-04-16T11:31:22Z</time>
      </trkpt>
      <trkpt lat="40.78831" lon="-73.96336">
        <ele>41</ele>
        <time>2012-04-16T11:31:23Z</time>
      </trkpt>
      <trkpt lat="40.78831" lon="-73.96339">
        <ele>41</ele>
        <time>2012-04-16T11:31:24Z</time>
      </trkpt>
      <trkpt lat="40.7883" lon="-73.96342">
        <ele>41</ele>
        <time>2012-04-16T11:31:25Z</time>
      </trkpt>
      <trkpt lat="40.7883" lon="-73.96346">
        <ele>41</ele>
        <time>2012-04-16T11:31:26Z</time>
      </trkpt>
      <trkpt lat="40.7883" lon="-73.96348">
        <ele>41</ele>
        <time>2012-04-16T11:31:27Z</time>
      </trkpt>
      <trkpt lat="40.78829" lon="-73.96351">
        <ele>41</ele>
        <time>2012-04-16T11:31:28Z</time>
      </trkpt>
      <trkpt lat="40.78829" lon="-73.96354">
        <ele>41</ele>
        <time>2012-04-16T11:31:29Z</time>
      </trkpt>
      <trkpt lat="40.78829" lon="-73.96356">
        <ele>41</ele>
        <time>2012-04-16T11:31:30Z</time>
      </trkpt>
      <trkpt lat="40.78829" lon="-73.96359">
        <ele>41</ele>
        <time>2012-04-16T11:31:31Z</time>
      </trkpt>
      <trkpt lat="40.78828" lon="-73.96362">
        <ele>41</ele>
        <time>2012-04-16T11:31:32Z</time>
      </trkpt>
      <trkpt lat="40.78828" lon="-73.96365">
        <ele>41</ele>
        <time>2012-04-16T11:31:33Z</time>
      </trkpt>
      <trkpt lat="40.78828" lon="-73.96368">
        <ele>41</ele>
        <time>2012-04-16T11:31:34Z</time>
      </trkpt>
      <trkpt lat="40.78828" lon="-73.9637">
        <ele>41</ele>
        <time>2012-04-16T11:31:35Z</time>
      </trkpt>
      <trkpt lat="40.78827" lon="-73.96374">
        <ele>41</ele>
        <time>2012-04-16T11:31:36Z</time>
      </trkpt>
      <trkpt lat="40.78827" lon="-73.96377">
        <ele>41</ele>
        <time>2012-04-16T11:31:37Z</time>
      </trkpt>
      <trkpt lat="40.78827" lon="-73.9638">
        <ele>41</ele>
        <time>2012-04-16T11:31:38Z</time>
      </trkpt>
      <trkpt lat="40.78827" lon="-73.96383">
        <ele>41</ele>
        <time>2012-04-16T11:31:39Z</time>
      </trkpt>
      <trkpt lat="40.78826" lon="-73.96386">
        <ele>41</ele>
        <time>2012-04-16T11:31:40Z</time>
      </trkpt>
      <trkpt lat="40.78827" lon="-73.9639">
        <ele>41</ele>
        <time>2012-04-16T11:31:41Z</time>
      </trkpt>
      <trkpt lat="40.78827" lon="-73.96393">
        <ele>41</ele>
        <time>2012-04-16T11:31:42Z</time>
      </trkpt>
      <trkpt lat="40.78827" lon="-73.96396">
        <ele>41</ele>
        <time>2012-04-16T11:31:43Z</time>
      </trkpt>
      <trkpt lat="40.78827" lon="-73.96398">
        <ele>41</ele>
        <time>2012-04-16T11:31:44Z</time>
      </trkpt>
      <trkpt lat="40.78827" lon="-73.96402">
        <ele>41</ele>
        <time>2012-04-16T11:31:45Z</time>
      </trkpt>
      <trkpt lat="40.78827" lon="-73.96405">
        <ele>41</ele>
        <time>2012-04-16T11:31:46Z</time>
      </trkpt>
      <trkpt lat="40.78827" lon="-73.96409">
        <ele>41</ele>
        <time>2012-04-16T11:31:47Z</time>
      </trkpt>
      <trkpt lat="40.78827" lon="-73.96412">
        <ele>41</ele>
        <time>2012-04-16T11:31:48Z</time>
      </trkpt>
      <trkpt lat="40.78828" lon="-73.96415">
        <ele>41</ele>
        <time>2012-04-16T11:31:49Z</time>
      </trkpt>
      <trkpt lat="40.78828" lon="-73.96418">
        <ele>41</ele>
        <time>2012-04-16T11:31:50Z</time>
      </trkpt>
      <trkpt lat="40.78828" lon="-73.96422">
        <ele>41</ele>
        <time>2012-04-16T11:31:51Z</time>
      </trkpt>
      <trkpt lat="40.78829" lon="-73.96425">
        <ele>41</ele>
        <time>2012-04-16T11:31:52Z</time>
      </trkpt>
      <trkpt lat="40.78829" lon="-73.96429">
        <ele>41</ele>
        <time>2012-04-16T11:31:53Z</time>
      </trkpt>
      <trkpt lat="40.78829" lon="-73.96432">
        <ele>41</ele>
        <time>2012-04-16T11:31:54Z</time>
      </trkpt>
      <trkpt lat="40.7883" lon="-73.96435">
        <ele>41</ele>
        <time>2012-04-16T11:31:55Z</time>
      </trkpt>
      <trkpt lat="40.7883" lon="-73.96438">
        <ele>41</ele>
        <time>2012-04-16T11:31:56Z</time>
      </trkpt>
      <trkpt lat="40.7883" lon="-73.96441">
        <ele>41</ele>
        <time>2012-04-16T11:31:57Z</time>
      </trkpt>
      <trkpt lat="40.7883" lon="-73.96445">
        <ele>41</ele>
        <time>2012-04-16T11:31:58Z</time>
      </trkpt>
      <trkpt lat="40.7883" lon="-73.96449">
        <ele>41</ele>
        <time>2012-04-16T11:31:59Z</time>
      </trkpt>
      <trkpt lat="40.78831" lon="-73.96452">
        <ele>41</ele>
        <time>2012-04-16T11:32:00Z</time>
      </trkpt>
      <trkpt lat="40.78831" lon="-73.96454">
        <ele>41</ele>
        <time>2012-04-16T11:32:01Z</time>
      </trkpt>
      <trkpt lat="40.78831" lon="-73.96458">
        <ele>41</ele>
        <time>2012-04-16T11:32:02Z</time>
      </trkpt>
      <trkpt lat="40.78832" lon="-73.96461">
        <ele>41</ele>
        <time>2012-04-16T11:32:03Z</time>
      </trkpt>
      <trkpt lat="40.78832" lon="-73.96464">
        <ele>41</ele>
        <time>2012-04-16T11:32:04Z</time>
      </trkpt>
      <trkpt lat="40.78832" lon="-73.96467">
        <ele>41</ele>
        <time>2012-04-16T11:32:05Z</time>
      </trkpt>
      <trkpt lat="40.78832" lon="-73.9647">
        <ele>41</ele>
        <time>2012-04-16T11:32:06Z</time>
      </trkpt>
      <trkpt lat="40.78832" lon="-73.96473">
        <ele>41</ele>
        <time>2012-04-16T11:32:07Z</time>
      </trkpt>
      <trkpt lat="40.78832" lon="-73.96476">
        <ele>41</ele>
        <time>2012-04-16T11:32:08Z</time>
      </trkpt>
      <trkpt lat="40.78832" lon="-73.96479">
        <ele>41</ele>
        <time>2012-04-16T11:32:09Z</time>
      </trkpt>
      <trkpt lat="40.78833" lon="-73.96481">
        <ele>41</ele>
        <time>2012-04-16T11:32:10Z</time>
      </trkpt>
      <trkpt lat="40.78833" lon="-73.96484">
        <ele>41</ele>
        <time>2012-04-16T11:32:11Z</time>
      </trkpt>
      <trkpt lat="40.78833" lon="-73.96486">
        <ele>41</ele>
        <time>2012-04-16T11:32:12Z</time>
      </trkpt>
      <trkpt lat="40.78833" lon="-73.9649">
        <ele>41</ele>
        <time>2012-04-16T11:32:13Z</time>
      </trkpt>
      <trkpt lat="40.78833" lon="-73.96494">
        <ele>41</ele>
        <time>2012-04-16T11:32:14Z</time>
      </trkpt>
      <trkpt lat="40.78833" lon="-73.96497">
        <ele>41</ele>
        <time>2012-04-16T11:32:15Z</time>
      </trkpt>
      <trkpt lat="40.78833" lon="-73.965">
        <ele>41</ele>
        <time>2012-04-16T11:32:16Z</time>
      </trkpt>
      <trkpt lat="40.78833" lon="-73.96503">
        <ele>41</ele>
        <time>2012-04-16T11:32:17Z</time>
      </trkpt>
      <trkpt lat="40.78832" lon="-73.96507">
        <ele>41</ele>
        <time>2012-04-16T11:32:18Z</time>
      </trkpt>
      <trkpt lat="40.78831" lon="-73.96509">
        <ele>41</ele>
        <time>2012-04-16T11:32:19Z</time>
      </trkpt>
      <trkpt lat="40.78831" lon="-73.96511">
        <ele>41</ele>
        <time>2012-04-16T11:32:20Z</time>
      </trkpt>
      <trkpt lat="40.7883" lon="-73.96513">
        <ele>41</ele>
        <time>2012-04-16T11:32:21Z</time>
      </trkpt>
      <trkpt lat="40.78829" lon="-73.96516">
        <ele>41</ele>
        <time>2012-04-16T11:32:22Z</time>
      </trkpt>
      <trkpt lat="40.78828" lon="-73.96519">
        <ele>41</ele>
        <time>2012-04-16T11:32:23Z</time>
      </trkpt>
      <trkpt lat="40.78828" lon="-73.96522">
        <ele>41</ele>
        <time>2012-04-16T11:32:24Z</time>
      </trkpt>
      <trkpt lat="40.78828" lon="-73.96525">
        <ele>41</ele>
        <time>2012-04-16T11:32:25Z</time>
      </trkpt>
      <trkpt lat="40.78827" lon="-73.96528">
        <ele>41</ele>
        <time>2012-04-16T11:32:26Z</time>
      </trkpt>
      <trkpt lat="40.78826" lon="-73.96531">
        <ele>41</ele>
        <time>2012-04-16T11:32:27Z</time>
      </trkpt>
      <trkpt lat="40.78825" lon="-73.96534">
        <ele>41</ele>
        <time>2012-04-16T11:32:28Z</time>
      </trkpt>
      <trkpt lat="40.78823" lon="-73.96537">
        <ele>41</ele>
        <time>2012-04-16T11:32:29Z</time>
      </trkpt>
      <trkpt lat="40.78823" lon="-73.9654">
        <ele>41</ele>
        <time>2012-04-16T11:32:30Z</time>
      </trkpt>
      <trkpt lat="40.78822" lon="-73.96543">
        <ele>41</ele>
        <time>2012-04-16T11:32:31Z</time>
      </trkpt>
      <trkpt lat="40.78821" lon="-73.96546">
        <ele>41</ele>
        <time>2012-04-16T11:32:32Z</time>
      </trkpt>
      <trkpt lat="40.7882" lon="-73.96548">
        <ele>41</ele>
        <time>2012-04-16T11:32:33Z</time>
      </trkpt>
      <trkpt lat="40.78818" lon="-73.96551">
        <ele>41</ele>
        <time>2012-04-16T11:32:34Z</time>
      </trkpt>
      <trkpt lat="40.78817" lon="-73.96553">
        <ele>41</ele>
        <time>2012-04-16T11:32:35Z</time>
      </trkpt>
      <trkpt lat="40.78815" lon="-73.96555">
        <ele>41</ele>
        <time>2012-04-16T11:32:36Z</time>
      </trkpt>
      <trkpt lat="40.78814" lon="-73.96558">
        <ele>41</ele>
        <time>2012-04-16T11:32:37Z</time>
      </trkpt>
      <trkpt lat="40.78812" lon="-73.96561">
        <ele>41</ele>
        <time>2012-04-16T11:32:38Z</time>
      </trkpt>
      <trkpt lat="40.78811" lon="-73.96563">
        <ele>41</ele>
        <time>2012-04-16T11:32:39Z</time>
      </trkpt>
      <trkpt lat="40.7881" lon="-73.96565">
        <ele>41</ele>
        <time>2012-04-16T11:32:40Z</time>
      </trkpt>
      <trkpt lat="40.78809" lon="-73.96568">
        <ele>41</ele>
        <time>2012-04-16T11:32:41Z</time>
      </trkpt>
      <trkpt lat="40.78807" lon="-73.96571">
        <ele>41</ele>
        <time>2012-04-16T11:32:42Z</time>
      </trkpt>
      <trkpt lat="40.78806" lon="-73.96573">
        <ele>41</ele>
        <time>2012-04-16T11:32:43Z</time>
      </trkpt>
      <trkpt lat="40.78804" lon="-73.96575">
        <ele>41</ele>
        <time>2012-04-16T11:32:44Z</time>
      </trkpt>
      <trkpt lat="40.78802" lon="-73.96577">
        <ele>41</ele>
        <time>2012-04-16T11:32:45Z</time>
      </trkpt>
      <trkpt lat="40.78801" lon="-73.96579">
        <ele>41</ele>
        <time>2012-04-16T11:32:46Z</time>
      </trkpt>
      <trkpt lat="40.78799" lon="-73.96581">
        <ele>41</ele>
        <time>2012-04-16T11:32:47Z</time>
      </trkpt>
      <trkpt lat="40.78796" lon="-73.96583">
        <ele>41</ele>
        <time>2012-04-16T11:32:48Z</time>
      </trkpt>
      <trkpt lat="40.78793" lon="-73.96584">
        <ele>41</ele>
        <time>2012-04-16T11:32:49Z</time>
      </trkpt>
      <trkpt lat="40.78791" lon="-73.96586">
        <ele>41</ele>
        <time>2012-04-16T11:32:50Z</time>
      </trkpt>
      <trkpt lat="40.78789" lon="-73.96588">
        <ele>41</ele>
        <time>2012-04-16T11:32:51Z</time>
      </trkpt>
      <trkpt lat="40.78788" lon="-73.9659">
        <ele>41</ele>
        <time>2012-04-16T11:32:52Z</time>
      </trkpt>
      <trkpt lat="40.78786" lon="-73.96593">
        <ele>41</ele>
        <time>2012-04-16T11:32:53Z</time>
      </trkpt>
      <trkpt lat="40.78785" lon="-73.96595">
        <ele>41</ele>
        <time>2012-04-16T11:32:54Z</time>
      </trkpt>
      <trkpt lat="40.78783" lon="-73.96597">
        <ele>41</ele>
        <time>2012-04-16T11:32:55Z</time>
      </trkpt>
      <trkpt lat="40.78781" lon="-73.966">
        <ele>41</ele>
        <time>2012-04-16T11:32:56Z</time>
      </trkpt>
      <trkpt lat="40.78779" lon="-73.966">
        <ele>41</ele>
        <time>2012-04-16T11:32:57Z</time>
      </trkpt>
      <trkpt lat="40.78777" lon="-73.96602">
        <ele>41</ele>
        <time>2012-04-16T11:32:58Z</time>
      </trkpt>
      <trkpt lat="40.78775" lon="-73.96603">
        <ele>41</ele>
        <time>2012-04-16T11:32:59Z</time>
      </trkpt>
      <trkpt lat="40.78773" lon="-73.96605">
        <ele>41</ele>
        <time>2012-04-16T11:33:00Z</time>
      </trkpt>
      <trkpt lat="40.78772" lon="-73.96606">
        <ele>41</ele>
        <time>2012-04-16T11:33:01Z</time>
      </trkpt>
      <trkpt lat="40.7877" lon="-73.96608">
        <ele>41</ele>
        <time>2012-04-16T11:33:02Z</time>
      </trkpt>
      <trkpt lat="40.78769" lon="-73.96609">
        <ele>41</ele>
        <time>2012-04-16T11:33:03Z</time>
      </trkpt>
      <trkpt lat="40.78767" lon="-73.96609">
        <ele>41</ele>
        <time>2012-04-16T11:33:04Z</time>
      </trkpt>
      <trkpt lat="40.78764" lon="-73.96611">
        <ele>41</ele>
        <time>2012-04-16T11:33:05Z</time>
      </trkpt>
      <trkpt lat="40.78762" lon="-73.96612">
        <ele>41</ele>
        <time>2012-04-16T11:33:06Z</time>
      </trkpt>
      <trkpt lat="40.78761" lon="-73.96613">
        <ele>41</ele>
        <time>2012-04-16T11:33:07Z</time>
      </trkpt>
      <trkpt lat="40.78758" lon="-73.96614">
        <ele>41</ele>
        <time>2012-04-16T11:33:08Z</time>
      </trkpt>
      <trkpt lat="40.78756" lon="-73.96616">
        <ele>41</ele>
        <time>2012-04-16T11:33:09Z</time>
      </trkpt>
      <trkpt lat="40.78754" lon="-73.96616">
        <ele>41</ele>
        <time>2012-04-16T11:33:10Z</time>
      </trkpt>
      <trkpt lat="40.78752" lon="-73.96617">
        <ele>41</ele>
        <time>2012-04-16T11:33:11Z</time>
      </trkpt>
      <trkpt lat="40.7875" lon="-73.96619">
        <ele>41</ele>
        <time>2012-04-16T11:33:12Z</time>
      </trkpt>
      <trkpt lat="40.78748" lon="-73.96619">
        <ele>41</ele>
        <time>2012-04-16T11:33:13Z</time>
      </trkpt>
      <trkpt lat="40.78745" lon="-73.9662">
        <ele>41</ele>
        <time>2012-04-16T11:33:14Z</time>
      </trkpt>
      <trkpt lat="40.78743" lon="-73.96621">
        <ele>41</ele>
        <time>2012-04-16T11:33:15Z</time>
      </trkpt>
      <trkpt lat="40.78741" lon="-73.96621">
        <ele>41</ele>
        <time>2012-04-16T11:33:16Z</time>
      </trkpt>
      <trkpt lat="40.78739" lon="-73.96621">
        <ele>41</ele>
        <time>2012-04-16T11:33:17Z</time>
      </trkpt>
      <trkpt lat="40.78737" lon="-73.96622">
        <ele>41</ele>
        <time>2012-04-16T11:33:18Z</time>
      </trkpt>
      <trkpt lat="40.78735" lon="-73.96622">
        <ele>41</ele>
        <time>2012-04-16T11:33:19Z</time>
      </trkpt>
      <trkpt lat="40.78733" lon="-73.96622">
        <ele>41</ele>
        <time>2012-04-16T11:33:20Z</time>
      </trkpt>
      <trkpt lat="40.7873" lon="-73.96622">
        <ele>41</ele>
        <time>2012-04-16T11:33:21Z</time>
      </trkpt>
      <trkpt lat="40.78728" lon="-73.96623">
        <ele>41</ele>
        <time>2012-04-16T11:33:22Z</time>
      </trkpt>
      <trkpt lat="40.78725" lon="-73.96624">
        <ele>41</ele>
        <time>2012-04-16T11:33:23Z</time>
      </trkpt>
      <trkpt lat="40.78723" lon="-73.96626">
        <ele>41</ele>
        <time>2012-04-16T11:33:24Z</time>
      </trkpt>
      <trkpt lat="40.78721" lon="-73.96626">
        <ele>41</ele>
        <time>2012-04-16T11:33:25Z</time>
      </trkpt>
      <trkpt lat="40.78718" lon="-73.96627">
        <ele>41</ele>
        <time>2012-04-16T11:33:26Z</time>
      </trkpt>
      <trkpt lat="40.78716" lon="-73.96628">
        <ele>41</ele>
        <time>2012-04-16T11:33:27Z</time>
      </trkpt>
      <trkpt lat="40.78714" lon="-73.96628">
        <ele>41</ele>
        <time>2012-04-16T11:33:28Z</time>
      </trkpt>
      <trkpt lat="40.78711" lon="-73.96629">
        <ele>41</ele>
        <time>2012-04-16T11:33:29Z</time>
      </trkpt>
      <trkpt lat="40.78709" lon="-73.96629">
        <ele>41</ele>
        <time>2012-04-16T11:33:30Z</time>
      </trkpt>
      <trkpt lat="40.78707" lon="-73.96629">
        <ele>41</ele>
        <time>2012-04-16T11:33:31Z</time>
      </trkpt>
      <trkpt lat="40.78705" lon="-73.96629">
        <ele>41</ele>
        <time>2012-04-16T11:33:32Z</time>
      </trkpt>
      <trkpt lat="40.78702" lon="-73.96629">
        <ele>41</ele>
        <time>2012-04-16T11:33:33Z</time>
      </trkpt>
      <trkpt lat="40.787" lon="-73.96629">
        <ele>41</ele>
        <time>2012-04-16T11:33:34Z</time>
      </trkpt>
      <trkpt lat="40.78698" lon="-73.96629">
        <ele>41</ele>
        <time>2012-04-16T11:33:35Z</time>
      </trkpt>
      <trkpt lat="40.78695" lon="-73.96629">
        <ele>41</ele>
        <time>2012-04-16T11:33:36Z</time>
      </trkpt>
      <trkpt lat="40.78693" lon="-73.96629">
        <ele>41</ele>
        <time>2012-04-16T11:33:37Z</time>
      </trkpt>
      <trkpt lat="40.7869" lon="-73.96631">
        <ele>41</ele>
        <time>2012-04-16T11:33:38Z</time>
      </trkpt>
      <trkpt lat="40.78687" lon="-73.96631">
        <ele>41</ele>
        <time>2012-04-16T11:33:39Z</time>
      </trkpt>
      <trkpt lat="40.78685" lon="-73.96632">
        <ele>41</ele>
        <time>2012-04-16T11:33:40Z</time>
      </trkpt>
      <trkpt lat="40.78683" lon="-73.96633">
        <ele>41</ele>
        <time>2012-04-16T11:33:41Z</time>
      </trkpt>
      <trkpt lat="40.7868" lon="-73.96634">
        <ele>41</ele>
        <time>2012-04-16T11:33:42Z</time>
      </trkpt>
      <trkpt lat="40.78678" lon="-73.96635">
        <ele>41</ele>
        <time>2012-04-16T11:33:43Z</time>
      </trkpt>
      <trkpt lat="40.78675" lon="-73.96636">
        <ele>41</ele>
        <time>2012-04-16T11:33:44Z</time>
      </trkpt>
      <trkpt lat="40.78673" lon="-73.96636">
        <ele>41</ele>
        <time>2012-04-16T11:33:45Z</time>
      </trkpt>
      <trkpt lat="40.78671" lon="-73.96637">
        <ele>41</ele>
        <time>2012-04-16T11:33:46Z</time>
      </trkpt>
      <trkpt lat="40.78669" lon="-73.96638">
        <ele>41</ele>
        <time>2012-04-16T11:33:47Z</time>
      </trkpt>
      <trkpt lat="40.78666" lon="-73.96638">
        <ele>41</ele>
        <time>2012-04-16T11:33:48Z</time>
      </trkpt>
      <trkpt lat="40.78664" lon="-73.96638">
        <ele>41</ele>
        <time>2012-04-16T11:33:49Z</time>
      </trkpt>
      <trkpt lat="40.78661" lon="-73.96639">
        <ele>41</ele>
        <time>2012-04-16T11:33:50Z</time>
      </trkpt>
      <trkpt lat="40.78659" lon="-73.9664">
        <ele>41</ele>
        <time>2012-04-16T11:33:51Z</time>
      </trkpt>
      <trkpt lat="40.78656" lon="-73.96641">
        <ele>41</ele>
        <time>2012-04-16T11:33:52Z</time>
      </trkpt>
      <trkpt lat="40.78654" lon="-73.96642">
        <ele>41</ele>
        <time>2012-04-16T11:33:53Z</time>
      </trkpt>
      <trkpt lat="40.78652" lon="-73.96642">
        <ele>41</ele>
        <time>2012-04-16T11:33:54Z</time>
      </trkpt>
      <trkpt lat="40.7865" lon="-73.96643">
        <ele>41</ele>
        <time>2012-04-16T11:33:55Z</time>
      </trkpt>
      <trkpt lat="40.78647" lon="-73.96644">
        <ele>41</ele>
        <time>2012-04-16T11:33:56Z</time>
      </trkpt>
      <trkpt lat="40.78645" lon="-73.96644">
        <ele>41</ele>
        <time>2012-04-16T11:33:57Z</time>
      </trkpt>
      <trkpt lat="40.78643" lon="-73.96645">
        <ele>41</ele>
        <time>2012-04-16T11:33:58Z</time>
      </trkpt>
      <trkpt lat="40.7864" lon="-73.96645">
        <ele>41</ele>
        <time>2012-04-16T11:33:59Z</time>
      </trkpt>
      <trkpt lat="40.78638" lon="-73.96645">
        <ele>41</ele>
        <time>2012-04-16T11:34:00Z</time>
      </trkpt>
      <trkpt lat="40.78635" lon="-73.96646">
        <ele>41</ele>
        <time>2012-04-16T11:34:01Z</time>
      </trkpt>
      <trkpt lat="40.78632" lon="-73.96646">
        <ele>41</ele>
        <time>2012-04-16T11:34:02Z</time>
      </trkpt>
      <trkpt lat="40.7863" lon="-73.96647">
        <ele>41</ele>
        <time>2012-04-16T11:34:03Z</time>
      </trkpt>
      <trkpt lat="40.78627" lon="-73.96647">
        <ele>41</ele>
        <time>2012-04-16T11:34:04Z</time>
      </trkpt>
      <trkpt lat="40.78625" lon="-73.96648">
        <ele>41</ele>
        <time>2012-04-16T11:34:05Z</time>
      </trkpt>
      <trkpt lat="40.78623" lon="-73.96647">
        <ele>41</ele>
        <time>2012-04-16T11:34:06Z</time>
      </trkpt>
      <trkpt lat="40.7862" lon="-73.96648">
        <ele>41</ele>
        <time>2012-04-16T11:34:07Z</time>
      </trkpt>
      <trkpt lat="40.78618" lon="-73.96648">
        <ele>41</ele>
        <time>2012-04-16T11:34:08Z</time>
      </trkpt>
      <trkpt lat="40.78616" lon="-73.96648">
        <ele>41</ele>
        <time>2012-04-16T11:34:09Z</time>
      </trkpt>
      <trkpt lat="40.78614" lon="-73.96648">
        <ele>41</ele>
        <time>2012-04-16T11:34:10Z</time>
      </trkpt>
      <trkpt lat="40.78612" lon="-73.96649">
        <ele>41</ele>
        <time>2012-04-16T11:34:11Z</time>
      </trkpt>
      <trkpt lat="40.78611" lon="-73.9665">
        <ele>41</ele>
        <time>2012-04-16T11:34:12Z</time>
      </trkpt>
      <trkpt lat="40.78609" lon="-73.96651">
        <ele>41</ele>
        <time>2012-04-16T11:34:13Z</time>
      </trkpt>
      <trkpt lat="40.78608" lon="-73.96651">
        <ele>41</ele>
        <time>2012-04-16T11:34:14Z</time>
      </trkpt>
      <trkpt lat="40.78607" lon="-73.96652">
        <ele>41</ele>
        <time>2012-04-16T11:34:16Z</time>
      </trkpt>
      <trkpt lat="40.78605" lon="-73.96653">
        <ele>41</ele>
        <time>2012-04-16T11:34:18Z</time>
      </trkpt>
      <trkpt lat="40.78602" lon="-73.96652">
        <ele>41</ele>
        <time>2012-04-16T11:34:20Z</time>
      </trkpt>
      <trkpt lat="40.786" lon="-73.96653">
        <ele>41</ele>
        <time>2012-04-16T11:34:22Z</time>
      </trkpt>
      <trkpt lat="40.78599" lon="-73.96653">
        <ele>41</ele>
        <time>2012-04-16T11:34:23Z</time>
      </trkpt>
      <trkpt lat="40.78598" lon="-73.96653">
        <ele>41</ele>
        <time>2012-04-16T11:34:24Z</time>
      </trkpt>
      <trkpt lat="40.78596" lon="-73.96653">
        <ele>41</ele>
        <time>2012-04-16T11:34:25Z</time>
      </trkpt>
      <trkpt lat="40.78595" lon="-73.96653">
        <ele>41</ele>
        <time>2012-04-16T11:34:26Z</time>
      </trkpt>
      <trkpt lat="40.78594" lon="-73.96653">
        <ele>41</ele>
        <time>2012-04-16T11:34:27Z</time>
      </trkpt>
      <trkpt lat="40.78592" lon="-73.96654">
        <ele>41</ele>
        <time>2012-04-16T11:34:28Z</time>
      </trkpt>
      <trkpt lat="40.7859" lon="-73.96654">
        <ele>41</ele>
        <time>2012-04-16T11:34:29Z</time>
      </trkpt>
      <trkpt lat="40.78589" lon="-73.96654">
        <ele>41</ele>
        <time>2012-04-16T11:34:30Z</time>
      </trkpt>
      <trkpt lat="40.78587" lon="-73.96655">
        <ele>41</ele>
        <time>2012-04-16T11:34:31Z</time>
      </trkpt>
      <trkpt lat="40.78585" lon="-73.96655">
        <ele>41</ele>
        <time>2012-04-16T11:34:32Z</time>
      </trkpt>
      <trkpt lat="40.78584" lon="-73.96655">
        <ele>41</ele>
        <time>2012-04-16T11:34:33Z</time>
      </trkpt>
      <trkpt lat="40.78582" lon="-73.96655">
        <ele>41</ele>
        <time>2012-04-16T11:34:34Z</time>
      </trkpt>
      <trkpt lat="40.78581" lon="-73.96655">
        <ele>41</ele>
        <time>2012-04-16T11:34:35Z</time>
      </trkpt>
      <trkpt lat="40.78579" lon="-73.96655">
        <ele>41</ele>
        <time>2012-04-16T11:34:36Z</time>
      </trkpt>
      <trkpt lat="40.78578" lon="-73.96655">
        <ele>41</ele>
        <time>2012-04-16T11:34:37Z</time>
      </trkpt>
      <trkpt lat="40.78576" lon="-73.96655">
        <ele>41</ele>
        <time>2012-04-16T11:34:38Z</time>
      </trkpt>
      <trkpt lat="40.78575" lon="-73.96656">
        <ele>41</ele>
        <time>2012-04-16T11:34:39Z</time>
      </trkpt>
      <trkpt lat="40.78573" lon="-73.96657">
        <ele>41</ele>
        <time>2012-04-16T11:34:40Z</time>
      </trkpt>
      <trkpt lat="40.78571" lon="-73.96658">
        <ele>41</ele>
        <time>2012-04-16T11:34:41Z</time>
      </trkpt>
      <trkpt lat="40.7857" lon="-73.96658">
        <ele>41</ele>
        <time>2012-04-16T11:34:42Z</time>
      </trkpt>
      <trkpt lat="40.78569" lon="-73.96658">
        <ele>41</ele>
        <time>2012-04-16T11:34:43Z</time>
      </trkpt>
      <trkpt lat="40.78567" lon="-73.96658">
        <ele>41</ele>
        <time>2012-04-16T11:34:44Z</time>
      </trkpt>
      <trkpt lat="40.78565" lon="-73.96658">
        <ele>41</ele>
        <time>2012-04-16T11:34:45Z</time>
      </trkpt>
      <trkpt lat="40.78564" lon="-73.96659">
        <ele>41</ele>
        <time>2012-04-16T11:34:46Z</time>
      </trkpt>
      <trkpt lat="40.78562" lon="-73.96659">
        <ele>41</ele>
        <time>2012-04-16T11:34:47Z</time>
      </trkpt>
      <trkpt lat="40.7856" lon="-73.96659">
        <ele>41</ele>
        <time>2012-04-16T11:34:48Z</time>
      </trkpt>
      <trkpt lat="40.78558" lon="-73.9666">
        <ele>41</ele>
        <time>2012-04-16T11:34:49Z</time>
      </trkpt>
      <trkpt lat="40.78555" lon="-73.96661">
        <ele>41</ele>
        <time>2012-04-16T11:34:50Z</time>
      </trkpt>
      <trkpt lat="40.78553" lon="-73.96663">
        <ele>41</ele>
        <time>2012-04-16T11:34:51Z</time>
      </trkpt>
      <trkpt lat="40.78552" lon="-73.96664">
        <ele>41</ele>
        <time>2012-04-16T11:34:52Z</time>
      </trkpt>
      <trkpt lat="40.7855" lon="-73.96664">
        <ele>41</ele>
        <time>2012-04-16T11:34:53Z</time>
      </trkpt>
      <trkpt lat="40.78549" lon="-73.96664">
        <ele>41</ele>
        <time>2012-04-16T11:34:55Z</time>
      </trkpt>
      <trkpt lat="40.78548" lon="-73.96664">
        <ele>41</ele>
        <time>2012-04-16T11:34:57Z</time>
      </trkpt>
      <trkpt lat="40.78546" lon="-73.96664">
        <ele>41</ele>
        <time>2012-04-16T11:34:58Z</time>
      </trkpt>
      <trkpt lat="40.78545" lon="-73.96665">
        <ele>41</ele>
        <time>2012-04-16T11:34:59Z</time>
      </trkpt>
      <trkpt lat="40.78543" lon="-73.96666">
        <ele>41</ele>
        <time>2012-04-16T11:35:00Z</time>
      </trkpt>
      <trkpt lat="40.78542" lon="-73.96667">
        <ele>41</ele>
        <time>2012-04-16T11:35:01Z</time>
      </trkpt>
      <trkpt lat="40.7854" lon="-73.96667">
        <ele>41</ele>
        <time>2012-04-16T11:35:03Z</time>
      </trkpt>
      <trkpt lat="40.78538" lon="-73.96667">
        <ele>41</ele>
        <time>2012-04-16T11:35:04Z</time>
      </trkpt>
      <trkpt lat="40.78536" lon="-73.96667">
        <ele>41</ele>
        <time>2012-04-16T11:35:05Z</time>
      </trkpt>
      <trkpt lat="40.78534" lon="-73.96667">
        <ele>41</ele>
        <time>2012-04-16T11:35:06Z</time>
      </trkpt>
      <trkpt lat="40.78532" lon="-73.96667">
        <ele>41</ele>
        <time>2012-04-16T11:35:07Z</time>
      </trkpt>
      <trkpt lat="40.78531" lon="-73.96668">
        <ele>41</ele>
        <time>2012-04-16T11:35:08Z</time>
      </trkpt>
      <trkpt lat="40.7853" lon="-73.96669">
        <ele>41</ele>
        <time>2012-04-16T11:35:09Z</time>
      </trkpt>
      <trkpt lat="40.78528" lon="-73.96669">
        <ele>41</ele>
        <time>2012-04-16T11:35:10Z</time>
      </trkpt>
      <trkpt lat="40.78526" lon="-73.96669">
        <ele>41</ele>
        <time>2012-04-16T11:35:11Z</time>
      </trkpt>
      <trkpt lat="40.78524" lon="-73.9667">
        <ele>41</ele>
        <time>2012-04-16T11:35:12Z</time>
      </trkpt>
      <trkpt lat="40.78522" lon="-73.96671">
        <ele>41</ele>
        <time>2012-04-16T11:35:14Z</time>
      </trkpt>
      <trkpt lat="40.78521" lon="-73.96671">
        <ele>41</ele>
        <time>2012-04-16T11:35:15Z</time>
      </trkpt>
      <trkpt lat="40.78519" lon="-73.96673">
        <ele>41</ele>
        <time>2012-04-16T11:35:16Z</time>
      </trkpt>
      <trkpt lat="40.78518" lon="-73.96675">
        <ele>41</ele>
        <time>2012-04-16T11:35:17Z</time>
      </trkpt>
      <trkpt lat="40.78516" lon="-73.96676">
        <ele>41</ele>
        <time>2012-04-16T11:35:18Z</time>
      </trkpt>
      <trkpt lat="40.78513" lon="-73.96677">
        <ele>41</ele>
        <time>2012-04-16T11:35:20Z</time>
      </trkpt>
      <trkpt lat="40.78512" lon="-73.96677">
        <ele>41</ele>
        <time>2012-04-16T11:35:21Z</time>
      </trkpt>
      <trkpt lat="40.78511" lon="-73.96677">
        <ele>41</ele>
        <time>2012-04-16T11:35:22Z</time>
      </trkpt>
      <trkpt lat="40.78509" lon="-73.96677">
        <ele>41</ele>
        <time>2012-04-16T11:35:23Z</time>
      </trkpt>
      <trkpt lat="40.78508" lon="-73.96677">
        <ele>41</ele>
        <time>2012-04-16T11:35:24Z</time>
      </trkpt>
      <trkpt lat="40.78506" lon="-73.96677">
        <ele>41</ele>
        <time>2012-04-16T11:35:25Z</time>
      </trkpt>
      <trkpt lat="40.78504" lon="-73.96677">
        <ele>41</ele>
        <time>2012-04-16T11:35:26Z</time>
      </trkpt>
      <trkpt lat="40.78503" lon="-73.96677">
        <ele>41</ele>
        <time>2012-04-16T11:35:27Z</time>
      </trkpt>
      <trkpt lat="40.78501" lon="-73.96677">
        <ele>41</ele>
        <time>2012-04-16T11:35:28Z</time>
      </trkpt>
      <trkpt lat="40.785" lon="-73.96677">
        <ele>41</ele>
        <time>2012-04-16T11:35:29Z</time>
      </trkpt>
      <trkpt lat="40.78498" lon="-73.96678">
        <ele>41</ele>
        <time>2012-04-16T11:35:30Z</time>
      </trkpt>
      <trkpt lat="40.78497" lon="-73.96678">
        <ele>41</ele>
        <time>2012-04-16T11:35:31Z</time>
      </trkpt>
      <trkpt lat="40.78495" lon="-73.9668">
        <ele>41</ele>
        <time>2012-04-16T11:35:32Z</time>
      </trkpt>
      <trkpt lat="40.78493" lon="-73.9668">
        <ele>41</ele>
        <time>2012-04-16T11:35:33Z</time>
      </trkpt>
      <trkpt lat="40.78492" lon="-73.96681">
        <ele>41</ele>
        <time>2012-04-16T11:35:34Z</time>
      </trkpt>
      <trkpt lat="40.7849" lon="-73.96682">
        <ele>41</ele>
        <time>2012-04-16T11:35:35Z</time>
      </trkpt>
      <trkpt lat="40.78489" lon="-73.96683">
        <ele>41</ele>
        <time>2012-04-16T11:35:36Z</time>
      </trkpt>
      <trkpt lat="40.78487" lon="-73.96684">
        <ele>41</ele>
        <time>2012-04-16T11:35:37Z</time>
      </trkpt>
      <trkpt lat="40.78486" lon="-73.96684">
        <ele>41</ele>
        <time>2012-04-16T11:35:38Z</time>
      </trkpt>
      <trkpt lat="40.78484" lon="-73.96684">
        <ele>41</ele>
        <time>2012-04-16T11:35:39Z</time>
      </trkpt>
      <trkpt lat="40.78482" lon="-73.96684">
        <ele>41</ele>
        <time>2012-04-16T11:35:40Z</time>
      </trkpt>
      <trkpt lat="40.78481" lon="-73.96684">
        <ele>41</ele>
        <time>2012-04-16T11:35:41Z</time>
      </trkpt>
      <trkpt lat="40.78479" lon="-73.96685">
        <ele>41</ele>
        <time>2012-04-16T11:35:42Z</time>
      </trkpt>
      <trkpt lat="40.78477" lon="-73.96685">
        <ele>41</ele>
        <time>2012-04-16T11:35:43Z</time>
      </trkpt>
      <trkpt lat="40.78475" lon="-73.96687">
        <ele>41</ele>
        <time>2012-04-16T11:35:44Z</time>
      </trkpt>
      <trkpt lat="40.78474" lon="-73.96687">
        <ele>41</ele>
        <time>2012-04-16T11:35:45Z</time>
      </trkpt>
      <trkpt lat="40.78472" lon="-73.96687">
        <ele>41</ele>
        <time>2012-04-16T11:35:46Z</time>
      </trkpt>
      <trkpt lat="40.78471" lon="-73.96687">
        <ele>41</ele>
        <time>2012-04-16T11:35:47Z</time>
      </trkpt>
      <trkpt lat="40.78469" lon="-73.96687">
        <ele>41</ele>
        <time>2012-04-16T11:35:48Z</time>
      </trkpt>
      <trkpt lat="40.78468" lon="-73.96688">
        <ele>41</ele>
        <time>2012-04-16T11:35:49Z</time>
      </trkpt>
      <trkpt lat="40.78466" lon="-73.96689">
        <ele>41</ele>
        <time>2012-04-16T11:35:50Z</time>
      </trkpt>
      <trkpt lat="40.78465" lon="-73.9669">
        <ele>41</ele>
        <time>2012-04-16T11:35:51Z</time>
      </trkpt>
      <trkpt lat="40.78463" lon="-73.96691">
        <ele>41</ele>
        <time>2012-04-16T11:35:52Z</time>
      </trkpt>
      <trkpt lat="40.78462" lon="-73.96693">
        <ele>41</ele>
        <time>2012-04-16T11:35:53Z</time>
      </trkpt>
      <trkpt lat="40.7846" lon="-73.96693">
        <ele>41</ele>
        <time>2012-04-16T11:35:54Z</time>
      </trkpt>
      <trkpt lat="40.78459" lon="-73.96694">
        <ele>41</ele>
        <time>2012-04-16T11:35:55Z</time>
      </trkpt>
      <trkpt lat="40.78457" lon="-73.96695">
        <ele>41</ele>
        <time>2012-04-16T11:35:56Z</time>
      </trkpt>
      <trkpt lat="40.78456" lon="-73.96696">
        <ele>41</ele>
        <time>2012-04-16T11:35:57Z</time>
      </trkpt>
      <trkpt lat="40.78455" lon="-73.96697">
        <ele>41</ele>
        <time>2012-04-16T11:35:58Z</time>
      </trkpt>
      <trkpt lat="40.78453" lon="-73.96698">
        <ele>41</ele>
        <time>2012-04-16T11:35:59Z</time>
      </trkpt>
      <trkpt lat="40.78452" lon="-73.967">
        <ele>41</ele>
        <time>2012-04-16T11:36:00Z</time>
      </trkpt>
      <trkpt lat="40.7845" lon="-73.96701">
        <ele>41</ele>
        <time>2012-04-16T11:36:01Z</time>
      </trkpt>
      <trkpt lat="40.78448" lon="-73.96703">
        <ele>41</ele>
        <time>2012-04-16T11:36:03Z</time>
      </trkpt>
      <trkpt lat="40.78446" lon="-73.96705">
        <ele>41</ele>
        <time>2012-04-16T11:36:05Z</time>
      </trkpt>
      <trkpt lat="40.78445" lon="-73.96707">
        <ele>41</ele>
        <time>2012-04-16T11:36:07Z</time>
      </trkpt>
      <trkpt lat="40.78444" lon="-73.96708">
        <ele>41</ele>
        <time>2012-04-16T11:36:08Z</time>
      </trkpt>
      <trkpt lat="40.78442" lon="-73.96709">
        <ele>41</ele>
        <time>2012-04-16T11:36:09Z</time>
      </trkpt>
      <trkpt lat="40.78441" lon="-73.96709">
        <ele>41</ele>
        <time>2012-04-16T11:36:10Z</time>
      </trkpt>
      <trkpt lat="40.78439" lon="-73.96711">
        <ele>41</ele>
        <time>2012-04-16T11:36:11Z</time>
      </trkpt>
      <trkpt lat="40.78438" lon="-73.96712">
        <ele>41</ele>
        <time>2012-04-16T11:36:12Z</time>
      </trkpt>
      <trkpt lat="40.78437" lon="-73.96713">
        <ele>41</ele>
        <time>2012-04-16T11:36:13Z</time>
      </trkpt>
      <trkpt lat="40.78436" lon="-73.96715">
        <ele>41</ele>
        <time>2012-04-16T11:36:14Z</time>
      </trkpt>
      <trkpt lat="40.78434" lon="-73.96716">
        <ele>41</ele>
        <time>2012-04-16T11:36:15Z</time>
      </trkpt>
      <trkpt lat="40.78432" lon="-73.96717">
        <ele>41</ele>
        <time>2012-04-16T11:36:17Z</time>
      </trkpt>
      <trkpt lat="40.78431" lon="-73.96718">
        <ele>41</ele>
        <time>2012-04-16T11:36:18Z</time>
      </trkpt>
      <trkpt lat="40.78429" lon="-73.96719">
        <ele>41</ele>
        <time>2012-04-16T11:36:19Z</time>
      </trkpt>
      <trkpt lat="40.78428" lon="-73.96719">
        <ele>41</ele>
        <time>2012-04-16T11:36:20Z</time>
      </trkpt>
      <trkpt lat="40.78426" lon="-73.96719">
        <ele>41</ele>
        <time>2012-04-16T11:36:21Z</time>
      </trkpt>
      <trkpt lat="40.78425" lon="-73.9672">
        <ele>41</ele>
        <time>2012-04-16T11:36:22Z</time>
      </trkpt>
      <trkpt lat="40.78423" lon="-73.96722">
        <ele>41</ele>
        <time>2012-04-16T11:36:23Z</time>
      </trkpt>
      <trkpt lat="40.78422" lon="-73.96722">
        <ele>41</ele>
        <time>2012-04-16T11:36:24Z</time>
      </trkpt>
      <trkpt lat="40.7842" lon="-73.96723">
        <ele>41</ele>
        <time>2012-04-16T11:36:25Z</time>
      </trkpt>
      <trkpt lat="40.78419" lon="-73.96724">
        <ele>41</ele>
        <time>2012-04-16T11:36:26Z</time>
      </trkpt>
      <trkpt lat="40.78417" lon="-73.96724">
        <ele>41</ele>
        <time>2012-04-16T11:36:27Z</time>
      </trkpt>
      <trkpt lat="40.78415" lon="-73.96724">
        <ele>41</ele>
        <time>2012-04-16T11:36:28Z</time>
      </trkpt>
      <trkpt lat="40.78413" lon="-73.96724">
        <ele>41</ele>
        <time>2012-04-16T11:36:30Z</time>
      </trkpt>
      <trkpt lat="40.78411" lon="-73.96722">
        <ele>41</ele>
        <time>2012-04-16T11:36:32Z</time>
      </trkpt>
      <trkpt lat="40.78409" lon="-73.96722">
        <ele>41</ele>
        <time>2012-04-16T11:36:33Z</time>
      </trkpt>
      <trkpt lat="40.78407" lon="-73.96722">
        <ele>41</ele>
        <time>2012-04-16T11:36:34Z</time>
      </trkpt>
      <trkpt lat="40.78406" lon="-73.96722">
        <ele>41</ele>
        <time>2012-04-16T11:36:35Z</time>
      </trkpt>
      <trkpt lat="40.78404" lon="-73.96722">
        <ele>41</ele>
        <time>2012-04-16T11:36:36Z</time>
      </trkpt>
      <trkpt lat="40.78402" lon="-73.96722">
        <ele>41</ele>
        <time>2012-04-16T11:36:37Z</time>
      </trkpt>
      <trkpt lat="40.78401" lon="-73.96723">
        <ele>41</ele>
        <time>2012-04-16T11:36:38Z</time>
      </trkpt>
      <trkpt lat="40.784" lon="-73.96725">
        <ele>41</ele>
        <time>2012-04-16T11:36:39Z</time>
      </trkpt>
      <trkpt lat="40.78398" lon="-73.96725">
        <ele>41</ele>
        <time>2012-04-16T11:36:40Z</time>
      </trkpt>
      <trkpt lat="40.78397" lon="-73.96727">
        <ele>41</ele>
        <time>2012-04-16T11:36:41Z</time>
      </trkpt>
      <trkpt lat="40.78395" lon="-73.96728">
        <ele>41</ele>
        <time>2012-04-16T11:36:42Z</time>
      </trkpt>
      <trkpt lat="40.78394" lon="-73.96729">
        <ele>41</ele>
        <time>2012-04-16T11:36:43Z</time>
      </trkpt>
      <trkpt lat="40.78392" lon="-73.96731">
        <ele>41</ele>
        <time>2012-04-16T11:36:44Z</time>
      </trkpt>
      <trkpt lat="40.78391" lon="-73.96732">
        <ele>41</ele>
        <time>2012-04-16T11:36:45Z</time>
      </trkpt>
      <trkpt lat="40.7839" lon="-73.96733">
        <ele>41</ele>
        <time>2012-04-16T11:36:46Z</time>
      </trkpt>
      <trkpt lat="40.78388" lon="-73.96734">
        <ele>41</ele>
        <time>2012-04-16T11:36:47Z</time>
      </trkpt>
      <trkpt lat="40.78387" lon="-73.96734">
        <ele>41</ele>
        <time>2012-04-16T11:36:48Z</time>
      </trkpt>
      <trkpt lat="40.78385" lon="-73.96735">
        <ele>41</ele>
        <time>2012-04-16T11:36:50Z</time>
      </trkpt>
      <trkpt lat="40.78384" lon="-73.96737">
        <ele>41</ele>
        <time>2012-04-16T11:36:51Z</time>
      </trkpt>
      <trkpt lat="40.78382" lon="-73.96738">
        <ele>41</ele>
        <time>2012-04-16T11:36:52Z</time>
      </trkpt>
      <trkpt lat="40.78381" lon="-73.9674">
        <ele>41</ele>
        <time>2012-04-16T11:36:53Z</time>
      </trkpt>
      <trkpt lat="40.7838" lon="-73.96742">
        <ele>41</ele>
        <time>2012-04-16T11:36:54Z</time>
      </trkpt>
      <trkpt lat="40.78379" lon="-73.96744">
        <ele>41</ele>
        <time>2012-04-16T11:36:55Z</time>
      </trkpt>
      <trkpt lat="40.78378" lon="-73.96745">
        <ele>41</ele>
        <time>2012-04-16T11:36:56Z</time>
      </trkpt>
      <trkpt lat="40.78376" lon="-73.96746">
        <ele>41</ele>
        <time>2012-04-16T11:36:57Z</time>
      </trkpt>
      <trkpt lat="40.78375" lon="-73.96747">
        <ele>41</ele>
        <time>2012-04-16T11:36:58Z</time>
      </trkpt>
      <trkpt lat="40.78374" lon="-73.96748">
        <ele>41</ele>
        <time>2012-04-16T11:36:59Z</time>
      </trkpt>
      <trkpt lat="40.78372" lon="-73.96749">
        <ele>41</ele>
        <time>2012-04-16T11:37:00Z</time>
      </trkpt>
      <trkpt lat="40.78371" lon="-73.9675">
        <ele>41</ele>
        <time>2012-04-16T11:37:01Z</time>
      </trkpt>
      <trkpt lat="40.78369" lon="-73.9675">
        <ele>41</ele>
        <time>2012-04-16T11:37:02Z</time>
      </trkpt>
      <trkpt lat="40.78367" lon="-73.96751">
        <ele>41</ele>
        <time>2012-04-16T11:37:03Z</time>
      </trkpt>
      <trkpt lat="40.78365" lon="-73.96752">
        <ele>41</ele>
        <time>2012-04-16T11:37:04Z</time>
      </trkpt>
      <trkpt lat="40.78364" lon="-73.96752">
        <ele>41</ele>
        <time>2012-04-16T11:37:05Z</time>
      </trkpt>
      <trkpt lat="40.78362" lon="-73.96754">
        <ele>41</ele>
        <time>2012-04-16T11:37:06Z</time>
      </trkpt>
      <trkpt lat="40.7836" lon="-73.96754">
        <ele>41</ele>
        <time>2012-04-16T11:37:07Z</time>
      </trkpt>
      <trkpt lat="40.78359" lon="-73.96756">
        <ele>41</ele>
        <time>2012-04-16T11:37:08Z</time>
      </trkpt>
      <trkpt lat="40.78357" lon="-73.96757">
        <ele>41</ele>
        <time>2012-04-16T11:37:09Z</time>
      </trkpt>
      <trkpt lat="40.78356" lon="-73.96758">
        <ele>41</ele>
        <time>2012-04-16T11:37:10Z</time>
      </trkpt>
      <trkpt lat="40.78355" lon="-73.96758">
        <ele>41</ele>
        <time>2012-04-16T11:37:11Z</time>
      </trkpt>
      <trkpt lat="40.78353" lon="-73.96759">
        <ele>41</ele>
        <time>2012-04-16T11:37:12Z</time>
      </trkpt>
      <trkpt lat="40.78351" lon="-73.96759">
        <ele>41</ele>
        <time>2012-04-16T11:37:13Z</time>
      </trkpt>
      <trkpt lat="40.78349" lon="-73.96759">
        <ele>41</ele>
        <time>2012-04-16T11:37:14Z</time>
      </trkpt>
      <trkpt lat="40.78347" lon="-73.96759">
        <ele>42</ele>
        <time>2012-04-16T11:37:15Z</time>
      </trkpt>
      <trkpt lat="40.78345" lon="-73.96759">
        <ele>42</ele>
        <time>2012-04-16T11:37:16Z</time>
      </trkpt>
      <trkpt lat="40.78343" lon="-73.96761">
        <ele>42</ele>
        <time>2012-04-16T11:37:18Z</time>
      </trkpt>
      <trkpt lat="40.7834" lon="-73.96761">
        <ele>42</ele>
        <time>2012-04-16T11:37:20Z</time>
      </trkpt>
      <trkpt lat="40.78338" lon="-73.96761">
        <ele>42</ele>
        <time>2012-04-16T11:37:21Z</time>
      </trkpt>
      <trkpt lat="40.78337" lon="-73.96761">
        <ele>42</ele>
        <time>2012-04-16T11:37:22Z</time>
      </trkpt>
      <trkpt lat="40.78336" lon="-73.96761">
        <ele>42</ele>
        <time>2012-04-16T11:37:23Z</time>
      </trkpt>
      <trkpt lat="40.78334" lon="-73.96761">
        <ele>42</ele>
        <time>2012-04-16T11:37:24Z</time>
      </trkpt>
      <trkpt lat="40.78332" lon="-73.96761">
        <ele>42</ele>
        <time>2012-04-16T11:37:25Z</time>
      </trkpt>
      <trkpt lat="40.78331" lon="-73.96761">
        <ele>42</ele>
        <time>2012-04-16T11:37:26Z</time>
      </trkpt>
      <trkpt lat="40.78329" lon="-73.9676">
        <ele>42</ele>
        <time>2012-04-16T11:37:27Z</time>
      </trkpt>
      <trkpt lat="40.78328" lon="-73.9676">
        <ele>42</ele>
        <time>2012-04-16T11:37:28Z</time>
      </trkpt>
      <trkpt lat="40.78326" lon="-73.96759">
        <ele>42</ele>
        <time>2012-04-16T11:37:29Z</time>
      </trkpt>
      <trkpt lat="40.78325" lon="-73.96759">
        <ele>42</ele>
        <time>2012-04-16T11:37:30Z</time>
      </trkpt>
      <trkpt lat="40.78324" lon="-73.96759">
        <ele>42</ele>
        <time>2012-04-16T11:37:31Z</time>
      </trkpt>
      <trkpt lat="40.78323" lon="-73.96759">
        <ele>42</ele>
        <time>2012-04-16T11:37:32Z</time>
      </trkpt>
      <trkpt lat="40.78321" lon="-73.96759">
        <ele>42</ele>
        <time>2012-04-16T11:37:33Z</time>
      </trkpt>
      <trkpt lat="40.7832" lon="-73.9676">
        <ele>42</ele>
        <time>2012-04-16T11:37:34Z</time>
      </trkpt>
      <trkpt lat="40.78318" lon="-73.9676">
        <ele>42</ele>
        <time>2012-04-16T11:37:35Z</time>
      </trkpt>
      <trkpt lat="40.78317" lon="-73.9676">
        <ele>42</ele>
        <time>2012-04-16T11:37:36Z</time>
      </trkpt>
      <trkpt lat="40.78316" lon="-73.96759">
        <ele>42</ele>
        <time>2012-04-16T11:37:37Z</time>
      </trkpt>
      <trkpt lat="40.78315" lon="-73.96759">
        <ele>42</ele>
        <time>2012-04-16T11:37:38Z</time>
      </trkpt>
      <trkpt lat="40.78313" lon="-73.9676">
        <ele>42</ele>
        <time>2012-04-16T11:37:40Z</time>
      </trkpt>
      <trkpt lat="40.78312" lon="-73.96762">
        <ele>42</ele>
        <time>2012-04-16T11:37:41Z</time>
      </trkpt>
      <trkpt lat="40.78312" lon="-73.96764">
        <ele>42</ele>
        <time>2012-04-16T11:37:43Z</time>
      </trkpt>
      <trkpt lat="40.78314" lon="-73.96764">
        <ele>42</ele>
        <time>2012-04-16T11:37:45Z</time>
      </trkpt>
      <trkpt lat="40.78315" lon="-73.96767">
        <ele>42</ele>
        <time>2012-04-16T11:37:48Z</time>
      </trkpt>
      <trkpt lat="40.78315" lon="-73.96768">
        <ele>42</ele>
        <time>2012-04-16T11:37:49Z</time>
      </trkpt>
      <trkpt lat="40.78315" lon="-73.9677">
        <ele>42</ele>
        <time>2012-04-16T11:37:52Z</time>
      </trkpt>
      <trkpt lat="40.78317" lon="-73.9677">
        <ele>42</ele>
        <time>2012-04-16T11:38:00Z</time>
      </trkpt>
      <trkpt lat="40.78318" lon="-73.96772">
        <ele>42</ele>
        <time>2012-04-16T11:38:02Z</time>
      </trkpt>
      <trkpt lat="40.78319" lon="-73.96774">
        <ele>42</ele>
        <time>2012-04-16T11:38:03Z</time>
      </trkpt>
      <trkpt lat="40.7832" lon="-73.96775">
        <ele>42</ele>
        <time>2012-04-16T11:38:04Z</time>
      </trkpt>
      <trkpt lat="40.7832" lon="-73.96777">
        <ele>42</ele>
        <time>2012-04-16T11:38:05Z</time>
      </trkpt>
      <trkpt lat="40.78321" lon="-73.96779">
        <ele>42</ele>
        <time>2012-04-16T11:38:07Z</time>
      </trkpt>
      <trkpt lat="40.78321" lon="-73.96777">
        <ele>42</ele>
        <time>2012-04-16T11:38:11Z</time>
      </trkpt>
      <trkpt lat="40.7832" lon="-73.96774">
        <ele>42</ele>
        <time>2012-04-16T11:38:13Z</time>
      </trkpt>
      <trkpt lat="40.7832" lon="-73.96773">
        <ele>42</ele>
        <time>2012-04-16T11:38:15Z</time>
      </trkpt>
      <trkpt lat="40.7832" lon="-73.96771">
        <ele>42</ele>
        <time>2012-04-16T11:38:20Z</time>
      </trkpt>
      <trkpt lat="40.78318" lon="-73.9677">
        <ele>42</ele>
        <time>2012-04-16T11:38:22Z</time>
      </trkpt>
      <trkpt lat="40.78317" lon="-73.96768">
        <ele>41</ele>
        <time>2012-04-16T11:38:24Z</time>
      </trkpt>
      <trkpt lat="40.78315" lon="-73.96767">
        <ele>41</ele>
        <time>2012-04-16T11:38:25Z</time>
      </trkpt>
      <trkpt lat="40.78314" lon="-73.96765">
        <ele>41</ele>
        <time>2012-04-16T11:38:26Z</time>
      </trkpt>
      <trkpt lat="40.78313" lon="-73.96764">
        <ele>40</ele>
        <time>2012-04-16T11:38:27Z</time>
      </trkpt>
      <trkpt lat="40.78312" lon="-73.96763">
        <ele>40</ele>
        <time>2012-04-16T11:38:28Z</time>
      </trkpt>
      <trkpt lat="40.7831" lon="-73.96762">
        <ele>40</ele>
        <time>2012-04-16T11:38:29Z</time>
      </trkpt>
      <trkpt lat="40.78308" lon="-73.9676">
        <ele>40</ele>
        <time>2012-04-16T11:38:31Z</time>
      </trkpt>
      <trkpt lat="40.78307" lon="-73.96758">
        <ele>40</ele>
        <time>2012-04-16T11:38:32Z</time>
      </trkpt>
      <trkpt lat="40.78305" lon="-73.96757">
        <ele>40</ele>
        <time>2012-04-16T11:38:33Z</time>
      </trkpt>
      <trkpt lat="40.78304" lon="-73.96757">
        <ele>40</ele>
        <time>2012-04-16T11:38:34Z</time>
      </trkpt>
      <trkpt lat="40.78302" lon="-73.96757">
        <ele>40</ele>
        <time>2012-04-16T11:38:35Z</time>
      </trkpt>
      <trkpt lat="40.783" lon="-73.96757">
        <ele>40</ele>
        <time>2012-04-16T11:38:36Z</time>
      </trkpt>
      <trkpt lat="40.78299" lon="-73.96758">
        <ele>40</ele>
        <time>2012-04-16T11:38:37Z</time>
      </trkpt>
      <trkpt lat="40.78298" lon="-73.96758">
        <ele>40</ele>
        <time>2012-04-16T11:38:38Z</time>
      </trkpt>
      <trkpt lat="40.78297" lon="-73.96758">
        <ele>40</ele>
        <time>2012-04-16T11:38:39Z</time>
      </trkpt>
      <trkpt lat="40.78294" lon="-73.96759">
        <ele>40</ele>
        <time>2012-04-16T11:38:41Z</time>
      </trkpt>
      <trkpt lat="40.78292" lon="-73.9676">
        <ele>40</ele>
        <time>2012-04-16T11:38:43Z</time>
      </trkpt>
      <trkpt lat="40.78291" lon="-73.96761">
        <ele>39</ele>
        <time>2012-04-16T11:38:44Z</time>
      </trkpt>
      <trkpt lat="40.78289" lon="-73.96761">
        <ele>39</ele>
        <time>2012-04-16T11:38:46Z</time>
      </trkpt>
      <trkpt lat="40.78287" lon="-73.96764">
        <ele>39</ele>
        <time>2012-04-16T11:38:48Z</time>
      </trkpt>
      <trkpt lat="40.78285" lon="-73.96764">
        <ele>39</ele>
        <time>2012-04-16T11:38:49Z</time>
      </trkpt>
      <trkpt lat="40.78284" lon="-73.96765">
        <ele>39</ele>
        <time>2012-04-16T11:38:50Z</time>
      </trkpt>
      <trkpt lat="40.78283" lon="-73.96765">
        <ele>39</ele>
        <time>2012-04-16T11:38:51Z</time>
      </trkpt>
      <trkpt lat="40.78281" lon="-73.96765">
        <ele>39</ele>
        <time>2012-04-16T11:38:52Z</time>
      </trkpt>
      <trkpt lat="40.7828" lon="-73.96767">
        <ele>39</ele>
        <time>2012-04-16T11:38:53Z</time>
      </trkpt>
      <trkpt lat="40.78279" lon="-73.96767">
        <ele>39</ele>
        <time>2012-04-16T11:38:54Z</time>
      </trkpt>
      <trkpt lat="40.78277" lon="-73.96767">
        <ele>39</ele>
        <time>2012-04-16T11:38:55Z</time>
      </trkpt>
      <trkpt lat="40.78275" lon="-73.96768">
        <ele>39</ele>
        <time>2012-04-16T11:38:56Z</time>
      </trkpt>
      <trkpt lat="40.78273" lon="-73.96769">
        <ele>39</ele>
        <time>2012-04-16T11:38:57Z</time>
      </trkpt>
      <trkpt lat="40.78272" lon="-73.9677">
        <ele>39</ele>
        <time>2012-04-16T11:38:58Z</time>
      </trkpt>
      <trkpt lat="40.7827" lon="-73.9677">
        <ele>39</ele>
        <time>2012-04-16T11:38:59Z</time>
      </trkpt>
      <trkpt lat="40.78268" lon="-73.96773">
        <ele>38</ele>
        <time>2012-04-16T11:39:01Z</time>
      </trkpt>
      <trkpt lat="40.78266" lon="-73.96774">
        <ele>37</ele>
        <time>2012-04-16T11:39:02Z</time>
      </trkpt>
      <trkpt lat="40.78264" lon="-73.96774">
        <ele>37</ele>
        <time>2012-04-16T11:39:03Z</time>
      </trkpt>
      <trkpt lat="40.78263" lon="-73.96775">
        <ele>37</ele>
        <time>2012-04-16T11:39:04Z</time>
      </trkpt>
      <trkpt lat="40.78261" lon="-73.96775">
        <ele>37</ele>
        <time>2012-04-16T11:39:05Z</time>
      </trkpt>
      <trkpt lat="40.78259" lon="-73.96776">
        <ele>37</ele>
        <time>2012-04-16T11:39:06Z</time>
      </trkpt>
      <trkpt lat="40.78257" lon="-73.96777">
        <ele>37</ele>
        <time>2012-04-16T11:39:07Z</time>
      </trkpt>
      <trkpt lat="40.78256" lon="-73.96777">
        <ele>37</ele>
        <time>2012-04-16T11:39:08Z</time>
      </trkpt>
      <trkpt lat="40.78254" lon="-73.96778">
        <ele>37</ele>
        <time>2012-04-16T11:39:09Z</time>
      </trkpt>
      <trkpt lat="40.78252" lon="-73.96779">
        <ele>37</ele>
        <time>2012-04-16T11:39:10Z</time>
      </trkpt>
      <trkpt lat="40.78251" lon="-73.9678">
        <ele>37</ele>
        <time>2012-04-16T11:39:11Z</time>
      </trkpt>
      <trkpt lat="40.78249" lon="-73.9678">
        <ele>37</ele>
        <time>2012-04-16T11:39:12Z</time>
      </trkpt>
      <trkpt lat="40.78248" lon="-73.96781">
        <ele>37</ele>
        <time>2012-04-16T11:39:13Z</time>
      </trkpt>
      <trkpt lat="40.78247" lon="-73.96782">
        <ele>37</ele>
        <time>2012-04-16T11:39:14Z</time>
      </trkpt>
      <trkpt lat="40.78246" lon="-73.96783">
        <ele>37</ele>
        <time>2012-04-16T11:39:15Z</time>
      </trkpt>
      <trkpt lat="40.78244" lon="-73.96784">
        <ele>37</ele>
        <time>2012-04-16T11:39:17Z</time>
      </trkpt>
      <trkpt lat="40.78242" lon="-73.96786">
        <ele>36</ele>
        <time>2012-04-16T11:39:19Z</time>
      </trkpt>
      <trkpt lat="40.78241" lon="-73.96786">
        <ele>36</ele>
        <time>2012-04-16T11:39:20Z</time>
      </trkpt>
      <trkpt lat="40.78239" lon="-73.96787">
        <ele>36</ele>
        <time>2012-04-16T11:39:21Z</time>
      </trkpt>
      <trkpt lat="40.78237" lon="-73.9679">
        <ele>36</ele>
        <time>2012-04-16T11:39:23Z</time>
      </trkpt>
      <trkpt lat="40.78235" lon="-73.9679">
        <ele>36</ele>
        <time>2012-04-16T11:39:24Z</time>
      </trkpt>
      <trkpt lat="40.78234" lon="-73.96791">
        <ele>36</ele>
        <time>2012-04-16T11:39:25Z</time>
      </trkpt>
      <trkpt lat="40.78233" lon="-73.96791">
        <ele>36</ele>
        <time>2012-04-16T11:39:26Z</time>
      </trkpt>
      <trkpt lat="40.78231" lon="-73.96792">
        <ele>36</ele>
        <time>2012-04-16T11:39:27Z</time>
      </trkpt>
      <trkpt lat="40.7823" lon="-73.96793">
        <ele>36</ele>
        <time>2012-04-16T11:39:28Z</time>
      </trkpt>
      <trkpt lat="40.78229" lon="-73.96796">
        <ele>35</ele>
        <time>2012-04-16T11:39:30Z</time>
      </trkpt>
      <trkpt lat="40.78227" lon="-73.96798">
        <ele>35</ele>
        <time>2012-04-16T11:39:31Z</time>
      </trkpt>
      <trkpt lat="40.78225" lon="-73.96799">
        <ele>35</ele>
        <time>2012-04-16T11:39:32Z</time>
      </trkpt>
      <trkpt lat="40.78223" lon="-73.96799">
        <ele>35</ele>
        <time>2012-04-16T11:39:33Z</time>
      </trkpt>
      <trkpt lat="40.78221" lon="-73.96801">
        <ele>35</ele>
        <time>2012-04-16T11:39:34Z</time>
      </trkpt>
      <trkpt lat="40.7822" lon="-73.96803">
        <ele>35</ele>
        <time>2012-04-16T11:39:35Z</time>
      </trkpt>
      <trkpt lat="40.78219" lon="-73.96804">
        <ele>35</ele>
        <time>2012-04-16T11:39:36Z</time>
      </trkpt>
      <trkpt lat="40.78218" lon="-73.96806">
        <ele>35</ele>
        <time>2012-04-16T11:39:37Z</time>
      </trkpt>
      <trkpt lat="40.78218" lon="-73.96806">
        <ele>35</ele>
        <time>2012-04-16T11:39:38Z</time>
      </trkpt>
      <trkpt lat="40.78216" lon="-73.96809">
        <ele>35</ele>
        <time>2012-04-16T11:39:40Z</time>
      </trkpt>
      <trkpt lat="40.78214" lon="-73.96811">
        <ele>35</ele>
        <time>2012-04-16T11:39:42Z</time>
      </trkpt>
      <trkpt lat="40.78212" lon="-73.96813">
        <ele>35</ele>
        <time>2012-04-16T11:39:44Z</time>
      </trkpt>
      <trkpt lat="40.78212" lon="-73.96815">
        <ele>35</ele>
        <time>2012-04-16T11:39:45Z</time>
      </trkpt>
      <trkpt lat="40.78211" lon="-73.96817">
        <ele>35</ele>
        <time>2012-04-16T11:39:46Z</time>
      </trkpt>
      <trkpt lat="40.7821" lon="-73.96819">
        <ele>35</ele>
        <time>2012-04-16T11:39:47Z</time>
      </trkpt>
      <trkpt lat="40.78209" lon="-73.96822">
        <ele>35</ele>
        <time>2012-04-16T11:39:49Z</time>
      </trkpt>
      <trkpt lat="40.78208" lon="-73.96823">
        <ele>35</ele>
        <time>2012-04-16T11:39:50Z</time>
      </trkpt>
      <trkpt lat="40.78207" lon="-73.96825">
        <ele>35</ele>
        <time>2012-04-16T11:39:51Z</time>
      </trkpt>
      <trkpt lat="40.78205" lon="-73.96828">
        <ele>35</ele>
        <time>2012-04-16T11:39:52Z</time>
      </trkpt>
      <trkpt lat="40.78204" lon="-73.9683">
        <ele>35</ele>
        <time>2012-04-16T11:39:53Z</time>
      </trkpt>
      <trkpt lat="40.78203" lon="-73.96832">
        <ele>34</ele>
        <time>2012-04-16T11:39:54Z</time>
      </trkpt>
      <trkpt lat="40.78202" lon="-73.96835">
        <ele>34</ele>
        <time>2012-04-16T11:39:55Z</time>
      </trkpt>
      <trkpt lat="40.782" lon="-73.96838">
        <ele>34</ele>
        <time>2012-04-16T11:39:56Z</time>
      </trkpt>
      <trkpt lat="40.78198" lon="-73.96841">
        <ele>34</ele>
        <time>2012-04-16T11:39:57Z</time>
      </trkpt>
      <trkpt lat="40.78196" lon="-73.96844">
        <ele>34</ele>
        <time>2012-04-16T11:39:58Z</time>
      </trkpt>
      <trkpt lat="40.78195" lon="-73.96846">
        <ele>34</ele>
        <time>2012-04-16T11:39:59Z</time>
      </trkpt>
      <trkpt lat="40.78194" lon="-73.96849">
        <ele>34</ele>
        <time>2012-04-16T11:40:00Z</time>
      </trkpt>
      <trkpt lat="40.78192" lon="-73.96851">
        <ele>34</ele>
        <time>2012-04-16T11:40:01Z</time>
      </trkpt>
      <trkpt lat="40.78191" lon="-73.96854">
        <ele>34</ele>
        <time>2012-04-16T11:40:02Z</time>
      </trkpt>
      <trkpt lat="40.7819" lon="-73.96857">
        <ele>34</ele>
        <time>2012-04-16T11:40:03Z</time>
      </trkpt>
      <trkpt lat="40.78189" lon="-73.9686">
        <ele>34</ele>
        <time>2012-04-16T11:40:04Z</time>
      </trkpt>
      <trkpt lat="40.78188" lon="-73.96863">
        <ele>34</ele>
        <time>2012-04-16T11:40:05Z</time>
      </trkpt>
      <trkpt lat="40.78187" lon="-73.96866">
        <ele>34</ele>
        <time>2012-04-16T11:40:06Z</time>
      </trkpt>
      <trkpt lat="40.78186" lon="-73.96869">
        <ele>34</ele>
        <time>2012-04-16T11:40:07Z</time>
      </trkpt>
      <trkpt lat="40.78184" lon="-73.96871">
        <ele>34</ele>
        <time>2012-04-16T11:40:08Z</time>
      </trkpt>
      <trkpt lat="40.78183" lon="-73.96873">
        <ele>34</ele>
        <time>2012-04-16T11:40:09Z</time>
      </trkpt>
      <trkpt lat="40.78182" lon="-73.96876">
        <ele>34</ele>
        <time>2012-04-16T11:40:10Z</time>
      </trkpt>
      <trkpt lat="40.78181" lon="-73.96879">
        <ele>34</ele>
        <time>2012-04-16T11:40:11Z</time>
      </trkpt>
      <trkpt lat="40.7818" lon="-73.96881">
        <ele>34</ele>
        <time>2012-04-16T11:40:12Z</time>
      </trkpt>
      <trkpt lat="40.78178" lon="-73.96884">
        <ele>34</ele>
        <time>2012-04-16T11:40:13Z</time>
      </trkpt>
      <trkpt lat="40.78177" lon="-73.96886">
        <ele>34</ele>
        <time>2012-04-16T11:40:14Z</time>
      </trkpt>
      <trkpt lat="40.78175" lon="-73.96889">
        <ele>34</ele>
        <time>2012-04-16T11:40:15Z</time>
      </trkpt>
      <trkpt lat="40.78174" lon="-73.96892">
        <ele>34</ele>
        <time>2012-04-16T11:40:16Z</time>
      </trkpt>
      <trkpt lat="40.78172" lon="-73.96893">
        <ele>34</ele>
        <time>2012-04-16T11:40:17Z</time>
      </trkpt>
      <trkpt lat="40.7817" lon="-73.96895">
        <ele>34</ele>
        <time>2012-04-16T11:40:18Z</time>
      </trkpt>
      <trkpt lat="40.78167" lon="-73.96896">
        <ele>34</ele>
        <time>2012-04-16T11:40:19Z</time>
      </trkpt>
      <trkpt lat="40.78165" lon="-73.96897">
        <ele>34</ele>
        <time>2012-04-16T11:40:20Z</time>
      </trkpt>
      <trkpt lat="40.78162" lon="-73.96898">
        <ele>34</ele>
        <time>2012-04-16T11:40:21Z</time>
      </trkpt>
      <trkpt lat="40.78159" lon="-73.96898">
        <ele>34</ele>
        <time>2012-04-16T11:40:22Z</time>
      </trkpt>
      <trkpt lat="40.78157" lon="-73.96899">
        <ele>34</ele>
        <time>2012-04-16T11:40:23Z</time>
      </trkpt>
      <trkpt lat="40.78155" lon="-73.96899">
        <ele>34</ele>
        <time>2012-04-16T11:40:24Z</time>
      </trkpt>
      <trkpt lat="40.78152" lon="-73.96899">
        <ele>34</ele>
        <time>2012-04-16T11:40:25Z</time>
      </trkpt>
      <trkpt lat="40.7815" lon="-73.96899">
        <ele>34</ele>
        <time>2012-04-16T11:40:26Z</time>
      </trkpt>
      <trkpt lat="40.78148" lon="-73.96899">
        <ele>34</ele>
        <time>2012-04-16T11:40:27Z</time>
      </trkpt>
      <trkpt lat="40.78145" lon="-73.96899">
        <ele>34</ele>
        <time>2012-04-16T11:40:28Z</time>
      </trkpt>
      <trkpt lat="40.78143" lon="-73.96899">
        <ele>34</ele>
        <time>2012-04-16T11:40:29Z</time>
      </trkpt>
      <trkpt lat="40.78141" lon="-73.96898">
        <ele>34</ele>
        <time>2012-04-16T11:40:30Z</time>
      </trkpt>
      <trkpt lat="40.78139" lon="-73.96899">
        <ele>34</ele>
        <time>2012-04-16T11:40:31Z</time>
      </trkpt>
      <trkpt lat="40.78136" lon="-73.96899">
        <ele>34</ele>
        <time>2012-04-16T11:40:32Z</time>
      </trkpt>
      <trkpt lat="40.78134" lon="-73.96898">
        <ele>34</ele>
        <time>2012-04-16T11:40:33Z</time>
      </trkpt>
      <trkpt lat="40.78132" lon="-73.96896">
        <ele>34</ele>
        <time>2012-04-16T11:40:34Z</time>
      </trkpt>
      <trkpt lat="40.7813" lon="-73.96895">
        <ele>34</ele>
        <time>2012-04-16T11:40:35Z</time>
      </trkpt>
      <trkpt lat="40.78128" lon="-73.96893">
        <ele>34</ele>
        <time>2012-04-16T11:40:36Z</time>
      </trkpt>
      <trkpt lat="40.78125" lon="-73.96893">
        <ele>34</ele>
        <time>2012-04-16T11:40:37Z</time>
      </trkpt>
      <trkpt lat="40.78123" lon="-73.96892">
        <ele>34</ele>
        <time>2012-04-16T11:40:38Z</time>
      </trkpt>
      <trkpt lat="40.7812" lon="-73.96891">
        <ele>34</ele>
        <time>2012-04-16T11:40:39Z</time>
      </trkpt>
      <trkpt lat="40.78118" lon="-73.96889">
        <ele>34</ele>
        <time>2012-04-16T11:40:40Z</time>
      </trkpt>
      <trkpt lat="40.78116" lon="-73.96887">
        <ele>34</ele>
        <time>2012-04-16T11:40:41Z</time>
      </trkpt>
      <trkpt lat="40.78113" lon="-73.96886">
        <ele>34</ele>
        <time>2012-04-16T11:40:42Z</time>
      </trkpt>
      <trkpt lat="40.78111" lon="-73.96886">
        <ele>34</ele>
        <time>2012-04-16T11:40:43Z</time>
      </trkpt>
      <trkpt lat="40.78108" lon="-73.96885">
        <ele>34</ele>
        <time>2012-04-16T11:40:44Z</time>
      </trkpt>
      <trkpt lat="40.78106" lon="-73.96886">
        <ele>34</ele>
        <time>2012-04-16T11:40:45Z</time>
      </trkpt>
      <trkpt lat="40.78104" lon="-73.96885">
        <ele>34</ele>
        <time>2012-04-16T11:40:46Z</time>
      </trkpt>
      <trkpt lat="40.78102" lon="-73.96884">
        <ele>34</ele>
        <time>2012-04-16T11:40:47Z</time>
      </trkpt>
      <trkpt lat="40.781" lon="-73.96885">
        <ele>34</ele>
        <time>2012-04-16T11:40:48Z</time>
      </trkpt>
      <trkpt lat="40.78098" lon="-73.96884">
        <ele>34</ele>
        <time>2012-04-16T11:40:49Z</time>
      </trkpt>
      <trkpt lat="40.78096" lon="-73.96885">
        <ele>34</ele>
        <time>2012-04-16T11:40:50Z</time>
      </trkpt>
      <trkpt lat="40.78093" lon="-73.96885">
        <ele>34</ele>
        <time>2012-04-16T11:40:51Z</time>
      </trkpt>
      <trkpt lat="40.78091" lon="-73.96885">
        <ele>34</ele>
        <time>2012-04-16T11:40:52Z</time>
      </trkpt>
      <trkpt lat="40.78088" lon="-73.96885">
        <ele>34</ele>
        <time>2012-04-16T11:40:53Z</time>
      </trkpt>
      <trkpt lat="40.78086" lon="-73.96886">
        <ele>34</ele>
        <time>2012-04-16T11:40:54Z</time>
      </trkpt>
      <trkpt lat="40.78085" lon="-73.96886">
        <ele>34</ele>
        <time>2012-04-16T11:40:55Z</time>
      </trkpt>
      <trkpt lat="40.78083" lon="-73.96886">
        <ele>34</ele>
        <time>2012-04-16T11:40:56Z</time>
      </trkpt>
      <trkpt lat="40.7808" lon="-73.96887">
        <ele>34</ele>
        <time>2012-04-16T11:40:57Z</time>
      </trkpt>
      <trkpt lat="40.78078" lon="-73.96889">
        <ele>34</ele>
        <time>2012-04-16T11:40:58Z</time>
      </trkpt>
      <trkpt lat="40.78077" lon="-73.96889">
        <ele>34</ele>
        <time>2012-04-16T11:40:59Z</time>
      </trkpt>
      <trkpt lat="40.78075" lon="-73.96891">
        <ele>34</ele>
        <time>2012-04-16T11:41:00Z</time>
      </trkpt>
      <trkpt lat="40.78074" lon="-73.96893">
        <ele>34</ele>
        <time>2012-04-16T11:41:01Z</time>
      </trkpt>
      <trkpt lat="40.78073" lon="-73.96894">
        <ele>34</ele>
        <time>2012-04-16T11:41:02Z</time>
      </trkpt>
      <trkpt lat="40.78072" lon="-73.96896">
        <ele>34</ele>
        <time>2012-04-16T11:41:03Z</time>
      </trkpt>
      <trkpt lat="40.7807" lon="-73.96897">
        <ele>34</ele>
        <time>2012-04-16T11:41:04Z</time>
      </trkpt>
      <trkpt lat="40.78068" lon="-73.96899">
        <ele>34</ele>
        <time>2012-04-16T11:41:05Z</time>
      </trkpt>
      <trkpt lat="40.78067" lon="-73.969">
        <ele>34</ele>
        <time>2012-04-16T11:41:06Z</time>
      </trkpt>
      <trkpt lat="40.78065" lon="-73.96902">
        <ele>34</ele>
        <time>2012-04-16T11:41:07Z</time>
      </trkpt>
      <trkpt lat="40.78064" lon="-73.96904">
        <ele>34</ele>
        <time>2012-04-16T11:41:08Z</time>
      </trkpt>
      <trkpt lat="40.78062" lon="-73.96906">
        <ele>34</ele>
        <time>2012-04-16T11:41:09Z</time>
      </trkpt>
      <trkpt lat="40.78061" lon="-73.96907">
        <ele>34</ele>
        <time>2012-04-16T11:41:10Z</time>
      </trkpt>
      <trkpt lat="40.78059" lon="-73.96909">
        <ele>34</ele>
        <time>2012-04-16T11:41:11Z</time>
      </trkpt>
      <trkpt lat="40.78058" lon="-73.96912">
        <ele>34</ele>
        <time>2012-04-16T11:41:12Z</time>
      </trkpt>
      <trkpt lat="40.78056" lon="-73.96913">
        <ele>34</ele>
        <time>2012-04-16T11:41:13Z</time>
      </trkpt>
      <trkpt lat="40.78056" lon="-73.96916">
        <ele>34</ele>
        <time>2012-04-16T11:41:14Z</time>
      </trkpt>
      <trkpt lat="40.78054" lon="-73.96917">
        <ele>34</ele>
        <time>2012-04-16T11:41:15Z</time>
      </trkpt>
      <trkpt lat="40.78052" lon="-73.96918">
        <ele>34</ele>
        <time>2012-04-16T11:41:16Z</time>
      </trkpt>
      <trkpt lat="40.7805" lon="-73.9692">
        <ele>34</ele>
        <time>2012-04-16T11:41:17Z</time>
      </trkpt>
      <trkpt lat="40.78048" lon="-73.96922">
        <ele>34</ele>
        <time>2012-04-16T11:41:18Z</time>
      </trkpt>
      <trkpt lat="40.78047" lon="-73.96923">
        <ele>34</ele>
        <time>2012-04-16T11:41:19Z</time>
      </trkpt>
      <trkpt lat="40.78045" lon="-73.96924">
        <ele>35</ele>
        <time>2012-04-16T11:41:20Z</time>
      </trkpt>
      <trkpt lat="40.78043" lon="-73.96925">
        <ele>35</ele>
        <time>2012-04-16T11:41:21Z</time>
      </trkpt>
      <trkpt lat="40.78041" lon="-73.96925">
        <ele>35</ele>
        <time>2012-04-16T11:41:22Z</time>
      </trkpt>
      <trkpt lat="40.78039" lon="-73.96926">
        <ele>35</ele>
        <time>2012-04-16T11:41:23Z</time>
      </trkpt>
      <trkpt lat="40.78037" lon="-73.96928">
        <ele>35</ele>
        <time>2012-04-16T11:41:24Z</time>
      </trkpt>
      <trkpt lat="40.78036" lon="-73.96929">
        <ele>36</ele>
        <time>2012-04-16T11:41:25Z</time>
      </trkpt>
      <trkpt lat="40.78034" lon="-73.9693">
        <ele>36</ele>
        <time>2012-04-16T11:41:26Z</time>
      </trkpt>
      <trkpt lat="40.78033" lon="-73.96931">
        <ele>36</ele>
        <time>2012-04-16T11:41:27Z</time>
      </trkpt>
      <trkpt lat="40.78031" lon="-73.96932">
        <ele>36</ele>
        <time>2012-04-16T11:41:28Z</time>
      </trkpt>
      <trkpt lat="40.78029" lon="-73.96933">
        <ele>37</ele>
        <time>2012-04-16T11:41:29Z</time>
      </trkpt>
      <trkpt lat="40.78027" lon="-73.96934">
        <ele>37</ele>
        <time>2012-04-16T11:41:30Z</time>
      </trkpt>
      <trkpt lat="40.78024" lon="-73.96935">
        <ele>37</ele>
        <time>2012-04-16T11:41:31Z</time>
      </trkpt>
      <trkpt lat="40.78022" lon="-73.96935">
        <ele>37</ele>
        <time>2012-04-16T11:41:32Z</time>
      </trkpt>
      <trkpt lat="40.7802" lon="-73.96936">
        <ele>37</ele>
        <time>2012-04-16T11:41:33Z</time>
      </trkpt>
      <trkpt lat="40.78017" lon="-73.96937">
        <ele>37</ele>
        <time>2012-04-16T11:41:34Z</time>
      </trkpt>
      <trkpt lat="40.78016" lon="-73.96937">
        <ele>37</ele>
        <time>2012-04-16T11:41:35Z</time>
      </trkpt>
      <trkpt lat="40.78014" lon="-73.96938">
        <ele>37</ele>
        <time>2012-04-16T11:41:36Z</time>
      </trkpt>
      <trkpt lat="40.78013" lon="-73.96938">
        <ele>37</ele>
        <time>2012-04-16T11:41:37Z</time>
      </trkpt>
      <trkpt lat="40.78011" lon="-73.96938">
        <ele>37</ele>
        <time>2012-04-16T11:41:38Z</time>
      </trkpt>
      <trkpt lat="40.78009" lon="-73.96939">
        <ele>37</ele>
        <time>2012-04-16T11:41:39Z</time>
      </trkpt>
      <trkpt lat="40.78008" lon="-73.96939">
        <ele>37</ele>
        <time>2012-04-16T11:41:40Z</time>
      </trkpt>
      <trkpt lat="40.78006" lon="-73.9694">
        <ele>37</ele>
        <time>2012-04-16T11:41:41Z</time>
      </trkpt>
      <trkpt lat="40.78004" lon="-73.9694">
        <ele>37</ele>
        <time>2012-04-16T11:41:42Z</time>
      </trkpt>
      <trkpt lat="40.78002" lon="-73.9694">
        <ele>37</ele>
        <time>2012-04-16T11:41:43Z</time>
      </trkpt>
      <trkpt lat="40.78001" lon="-73.96941">
        <ele>37</ele>
        <time>2012-04-16T11:41:44Z</time>
      </trkpt>
      <trkpt lat="40.77998" lon="-73.96941">
        <ele>37</ele>
        <time>2012-04-16T11:41:45Z</time>
      </trkpt>
      <trkpt lat="40.77997" lon="-73.96941">
        <ele>37</ele>
        <time>2012-04-16T11:41:46Z</time>
      </trkpt>
      <trkpt lat="40.77995" lon="-73.96941">
        <ele>37</ele>
        <time>2012-04-16T11:41:47Z</time>
      </trkpt>
      <trkpt lat="40.77993" lon="-73.96942">
        <ele>37</ele>
        <time>2012-04-16T11:41:48Z</time>
      </trkpt>
      <trkpt lat="40.77991" lon="-73.96943">
        <ele>37</ele>
        <time>2012-04-16T11:41:49Z</time>
      </trkpt>
      <trkpt lat="40.7799" lon="-73.96942">
        <ele>37</ele>
        <time>2012-04-16T11:41:50Z</time>
      </trkpt>
      <trkpt lat="40.77986" lon="-73.96944">
        <ele>38</ele>
        <time>2012-04-16T11:41:52Z</time>
      </trkpt>
      <trkpt lat="40.77984" lon="-73.96944">
        <ele>38</ele>
        <time>2012-04-16T11:41:53Z</time>
      </trkpt>
      <trkpt lat="40.77983" lon="-73.96945">
        <ele>38</ele>
        <time>2012-04-16T11:41:54Z</time>
      </trkpt>
      <trkpt lat="40.77982" lon="-73.96947">
        <ele>38</ele>
        <time>2012-04-16T11:41:56Z</time>
      </trkpt>
      <trkpt lat="40.7798" lon="-73.96946">
        <ele>38</ele>
        <time>2012-04-16T11:41:58Z</time>
      </trkpt>
      <trkpt lat="40.77978" lon="-73.96944">
        <ele>38</ele>
        <time>2012-04-16T11:41:59Z</time>
      </trkpt>
      <trkpt lat="40.77977" lon="-73.96943">
        <ele>38</ele>
        <time>2012-04-16T11:42:00Z</time>
      </trkpt>
      <trkpt lat="40.77976" lon="-73.96941">
        <ele>38</ele>
        <time>2012-04-16T11:42:01Z</time>
      </trkpt>
      <trkpt lat="40.77974" lon="-73.9694">
        <ele>38</ele>
        <time>2012-04-16T11:42:02Z</time>
      </trkpt>
      <trkpt lat="40.77973" lon="-73.96938">
        <ele>38</ele>
        <time>2012-04-16T11:42:03Z</time>
      </trkpt>
      <trkpt lat="40.77972" lon="-73.96938">
        <ele>38</ele>
        <time>2012-04-16T11:42:04Z</time>
      </trkpt>
      <trkpt lat="40.77971" lon="-73.96935">
        <ele>38</ele>
        <time>2012-04-16T11:42:05Z</time>
      </trkpt>
      <trkpt lat="40.7797" lon="-73.96934">
        <ele>38</ele>
        <time>2012-04-16T11:42:06Z</time>
      </trkpt>
      <trkpt lat="40.77969" lon="-73.96932">
        <ele>38</ele>
        <time>2012-04-16T11:42:07Z</time>
      </trkpt>
      <trkpt lat="40.77967" lon="-73.9693">
        <ele>38</ele>
        <time>2012-04-16T11:42:08Z</time>
      </trkpt>
      <trkpt lat="40.77966" lon="-73.96928">
        <ele>38</ele>
        <time>2012-04-16T11:42:09Z</time>
      </trkpt>
      <trkpt lat="40.77965" lon="-73.96925">
        <ele>38</ele>
        <time>2012-04-16T11:42:10Z</time>
      </trkpt>
      <trkpt lat="40.77964" lon="-73.96924">
        <ele>38</ele>
        <time>2012-04-16T11:42:11Z</time>
      </trkpt>
      <trkpt lat="40.77963" lon="-73.96922">
        <ele>38</ele>
        <time>2012-04-16T11:42:12Z</time>
      </trkpt>
      <trkpt lat="40.77962" lon="-73.96921">
        <ele>38</ele>
        <time>2012-04-16T11:42:13Z</time>
      </trkpt>
      <trkpt lat="40.77961" lon="-73.96918">
        <ele>38</ele>
        <time>2012-04-16T11:42:15Z</time>
      </trkpt>
      <trkpt lat="40.7796" lon="-73.96916">
        <ele>38</ele>
        <time>2012-04-16T11:42:16Z</time>
      </trkpt>
      <trkpt lat="40.77959" lon="-73.96915">
        <ele>38</ele>
        <time>2012-04-16T11:42:17Z</time>
      </trkpt>
      <trkpt lat="40.77958" lon="-73.96913">
        <ele>38</ele>
        <time>2012-04-16T11:42:18Z</time>
      </trkpt>
      <trkpt lat="40.77958" lon="-73.96912">
        <ele>38</ele>
        <time>2012-04-16T11:42:19Z</time>
      </trkpt>
      <trkpt lat="40.77956" lon="-73.96909">
        <ele>38</ele>
        <time>2012-04-16T11:42:20Z</time>
      </trkpt>
      <trkpt lat="40.77955" lon="-73.9691">
        <ele>39</ele>
        <time>2012-04-16T11:42:23Z</time>
      </trkpt>
      <trkpt lat="40.77953" lon="-73.9691">
        <ele>40</ele>
        <time>2012-04-16T11:42:24Z</time>
      </trkpt>
      <trkpt lat="40.77952" lon="-73.96912">
        <ele>42</ele>
        <time>2012-04-16T11:42:26Z</time>
      </trkpt>
      <trkpt lat="40.77951" lon="-73.96912">
        <ele>43</ele>
        <time>2012-04-16T11:42:27Z</time>
      </trkpt>
      <trkpt lat="40.7795" lon="-73.96914">
        <ele>43</ele>
        <time>2012-04-16T11:42:29Z</time>
      </trkpt>
      <trkpt lat="40.77948" lon="-73.96914">
        <ele>43</ele>
        <time>2012-04-16T11:42:32Z</time>
      </trkpt>
      <trkpt lat="40.77947" lon="-73.96913">
        <ele>44</ele>
        <time>2012-04-16T11:42:39Z</time>
      </trkpt>
      <trkpt lat="40.77948" lon="-73.96911">
        <ele>44</ele>
        <time>2012-04-16T11:42:48Z</time>
      </trkpt>
      <trkpt lat="40.77948" lon="-73.96909">
        <ele>44</ele>
        <time>2012-04-16T11:42:50Z</time>
      </trkpt>
      <trkpt lat="40.77948" lon="-73.96906">
        <ele>44</ele>
        <time>2012-04-16T11:42:52Z</time>
      </trkpt>
      <trkpt lat="40.77949" lon="-73.96904">
        <ele>44</ele>
        <time>2012-04-16T11:42:54Z</time>
      </trkpt>
      <trkpt lat="40.77949" lon="-73.96902">
        <ele>44</ele>
        <time>2012-04-16T11:42:55Z</time>
      </trkpt>
      <trkpt lat="40.7795" lon="-73.969">
        <ele>44</ele>
        <time>2012-04-16T11:42:57Z</time>
      </trkpt>
      <trkpt lat="40.7795" lon="-73.96899">
        <ele>44</ele>
        <time>2012-04-16T11:42:59Z</time>
      </trkpt>
      <trkpt lat="40.77948" lon="-73.96899">
        <ele>44</ele>
        <time>2012-04-16T11:43:04Z</time>
      </trkpt>
      <trkpt lat="40.77948" lon="-73.96901">
        <ele>44</ele>
        <time>2012-04-16T11:43:10Z</time>
      </trkpt>
      <trkpt lat="40.77947" lon="-73.96901">
        <ele>44</ele>
        <time>2012-04-16T11:43:20Z</time>
      </trkpt>
      <trkpt lat="40.77946" lon="-73.96902">
        <ele>44</ele>
        <time>2012-04-16T11:43:22Z</time>
      </trkpt>
      <trkpt lat="40.77945" lon="-73.96903">
        <ele>44</ele>
        <time>2012-04-16T11:43:24Z</time>
      </trkpt>
      <trkpt lat="40.77945" lon="-73.96902">
        <ele>44</ele>
        <time>2012-04-16T11:43:27Z</time>
      </trkpt>
      <trkpt lat="40.77946" lon="-73.969">
        <ele>44</ele>
        <time>2012-04-16T11:43:29Z</time>
      </trkpt>
      <trkpt lat="40.77947" lon="-73.969">
        <ele>44</ele>
        <time>2012-04-16T11:43:31Z</time>
      </trkpt>
      <trkpt lat="40.77948" lon="-73.96899">
        <ele>44</ele>
        <time>2012-04-16T11:43:42Z</time>
      </trkpt>
      <trkpt lat="40.77948" lon="-73.96901">
        <ele>45</ele>
        <time>2012-04-16T11:44:01Z</time>
      </trkpt>
      <trkpt lat="40.77946" lon="-73.96902">
        <ele>45</ele>
        <time>2012-04-16T11:44:03Z</time>
      </trkpt>
      <trkpt lat="40.77944" lon="-73.96902">
        <ele>45</ele>
        <time>2012-04-16T11:44:05Z</time>
      </trkpt>
      <trkpt lat="40.77942" lon="-73.96903">
        <ele>45</ele>
        <time>2012-04-16T11:44:07Z</time>
      </trkpt>
      <trkpt lat="40.7794" lon="-73.96904">
        <ele>45</ele>
        <time>2012-04-16T11:44:09Z</time>
      </trkpt>
      <trkpt lat="40.77939" lon="-73.96904">
        <ele>45</ele>
        <time>2012-04-16T11:44:10Z</time>
      </trkpt>
      <trkpt lat="40.77938" lon="-73.96904">
        <ele>45</ele>
        <time>2012-04-16T11:44:11Z</time>
      </trkpt>
      <trkpt lat="40.77935" lon="-73.96905">
        <ele>45</ele>
        <time>2012-04-16T11:44:13Z</time>
      </trkpt>
      <trkpt lat="40.77934" lon="-73.96906">
        <ele>45</ele>
        <time>2012-04-16T11:44:14Z</time>
      </trkpt>
      <trkpt lat="40.77933" lon="-73.96906">
        <ele>45</ele>
        <time>2012-04-16T11:44:15Z</time>
      </trkpt>
      <trkpt lat="40.77932" lon="-73.96907">
        <ele>45</ele>
        <time>2012-04-16T11:44:17Z</time>
      </trkpt>
      <trkpt lat="40.77931" lon="-73.96907">
        <ele>45</ele>
        <time>2012-04-16T11:44:19Z</time>
      </trkpt>
      <trkpt lat="40.7793" lon="-73.96906">
        <ele>45</ele>
        <time>2012-04-16T11:44:21Z</time>
      </trkpt>
      <trkpt lat="40.77928" lon="-73.96906">
        <ele>45</ele>
        <time>2012-04-16T11:44:25Z</time>
      </trkpt>
      <trkpt lat="40.77927" lon="-73.96907">
        <ele>45</ele>
        <time>2012-04-16T11:44:31Z</time>
      </trkpt>
      <trkpt lat="40.77925" lon="-73.96909">
        <ele>45</ele>
        <time>2012-04-16T11:44:36Z</time>
      </trkpt>
      <trkpt lat="40.77924" lon="-73.9691">
        <ele>45</ele>
        <time>2012-04-16T11:44:37Z</time>
      </trkpt>
      <trkpt lat="40.77923" lon="-73.96911">
        <ele>45</ele>
        <time>2012-04-16T11:44:38Z</time>
      </trkpt>
      <trkpt lat="40.77921" lon="-73.96912">
        <ele>45</ele>
        <time>2012-04-16T11:44:39Z</time>
      </trkpt>
      <trkpt lat="40.77919" lon="-73.96912">
        <ele>44</ele>
        <time>2012-04-16T11:44:41Z</time>
      </trkpt>
      <trkpt lat="40.77918" lon="-73.96912">
        <ele>44</ele>
        <time>2012-04-16T11:44:42Z</time>
      </trkpt>
      <trkpt lat="40.77917" lon="-73.96913">
        <ele>44</ele>
        <time>2012-04-16T11:44:43Z</time>
      </trkpt>
      <trkpt lat="40.77916" lon="-73.96914">
        <ele>44</ele>
        <time>2012-04-16T11:44:44Z</time>
      </trkpt>
      <trkpt lat="40.77914" lon="-73.96915">
        <ele>43</ele>
        <time>2012-04-16T11:44:45Z</time>
      </trkpt>
      <trkpt lat="40.77913" lon="-73.96917">
        <ele>43</ele>
        <time>2012-04-16T11:44:47Z</time>
      </trkpt>
      <trkpt lat="40.77912" lon="-73.9692">
        <ele>43</ele>
        <time>2012-04-16T11:44:49Z</time>
      </trkpt>
      <trkpt lat="40.77911" lon="-73.96922">
        <ele>43</ele>
        <time>2012-04-16T11:44:50Z</time>
      </trkpt>
      <trkpt lat="40.77911" lon="-73.96923">
        <ele>43</ele>
        <time>2012-04-16T11:44:51Z</time>
      </trkpt>
      <trkpt lat="40.7791" lon="-73.96924">
        <ele>43</ele>
        <time>2012-04-16T11:44:52Z</time>
      </trkpt>
      <trkpt lat="40.77909" lon="-73.96926">
        <ele>43</ele>
        <time>2012-04-16T11:44:53Z</time>
      </trkpt>
      <trkpt lat="40.77908" lon="-73.96928">
        <ele>43</ele>
        <time>2012-04-16T11:44:54Z</time>
      </trkpt>
      <trkpt lat="40.77907" lon="-73.96928">
        <ele>43</ele>
        <time>2012-04-16T11:44:55Z</time>
      </trkpt>
      <trkpt lat="40.77906" lon="-73.9693">
        <ele>42</ele>
        <time>2012-04-16T11:44:57Z</time>
      </trkpt>
      <trkpt lat="40.77904" lon="-73.96931">
        <ele>42</ele>
        <time>2012-04-16T11:44:59Z</time>
      </trkpt>
      <trkpt lat="40.77903" lon="-73.96932">
        <ele>41</ele>
        <time>2012-04-16T11:45:00Z</time>
      </trkpt>
      <trkpt lat="40.77901" lon="-73.96933">
        <ele>41</ele>
        <time>2012-04-16T11:45:01Z</time>
      </trkpt>
      <trkpt lat="40.779" lon="-73.96935">
        <ele>41</ele>
        <time>2012-04-16T11:45:02Z</time>
      </trkpt>
      <trkpt lat="40.77899" lon="-73.96936">
        <ele>41</ele>
        <time>2012-04-16T11:45:03Z</time>
      </trkpt>
      <trkpt lat="40.77898" lon="-73.96938">
        <ele>41</ele>
        <time>2012-04-16T11:45:04Z</time>
      </trkpt>
      <trkpt lat="40.77897" lon="-73.96941">
        <ele>41</ele>
        <time>2012-04-16T11:45:05Z</time>
      </trkpt>
      <trkpt lat="40.77897" lon="-73.96942">
        <ele>41</ele>
        <time>2012-04-16T11:45:06Z</time>
      </trkpt>
      <trkpt lat="40.77895" lon="-73.96944">
        <ele>41</ele>
        <time>2012-04-16T11:45:08Z</time>
      </trkpt>
      <trkpt lat="40.77893" lon="-73.96945">
        <ele>41</ele>
        <time>2012-04-16T11:45:09Z</time>
      </trkpt>
      <trkpt lat="40.77893" lon="-73.96947">
        <ele>41</ele>
        <time>2012-04-16T11:45:11Z</time>
      </trkpt>
      <trkpt lat="40.77892" lon="-73.96949">
        <ele>40</ele>
        <time>2012-04-16T11:45:13Z</time>
      </trkpt>
      <trkpt lat="40.7789" lon="-73.96951">
        <ele>38</ele>
        <time>2012-04-16T11:45:15Z</time>
      </trkpt>
      <trkpt lat="40.7789" lon="-73.96952">
        <ele>38</ele>
        <time>2012-04-16T11:45:16Z</time>
      </trkpt>
      <trkpt lat="40.77889" lon="-73.96954">
        <ele>38</ele>
        <time>2012-04-16T11:45:18Z</time>
      </trkpt>
      <trkpt lat="40.77888" lon="-73.96955">
        <ele>38</ele>
        <time>2012-04-16T11:45:19Z</time>
      </trkpt>
      <trkpt lat="40.77887" lon="-73.96956">
        <ele>38</ele>
        <time>2012-04-16T11:45:20Z</time>
      </trkpt>
      <trkpt lat="40.77885" lon="-73.96957">
        <ele>38</ele>
        <time>2012-04-16T11:45:23Z</time>
      </trkpt>
      <trkpt lat="40.77884" lon="-73.96959">
        <ele>38</ele>
        <time>2012-04-16T11:45:23Z</time>
      </trkpt>
      <trkpt lat="40.77883" lon="-73.9696">
        <ele>38</ele>
        <time>2012-04-16T11:45:24Z</time>
      </trkpt>
      <trkpt lat="40.77882" lon="-73.96962">
        <ele>38</ele>
        <time>2012-04-16T11:45:25Z</time>
      </trkpt>
      <trkpt lat="40.77881" lon="-73.96963">
        <ele>38</ele>
        <time>2012-04-16T11:45:26Z</time>
      </trkpt>
      <trkpt lat="40.77879" lon="-73.96966">
        <ele>37</ele>
        <time>2012-04-16T11:45:28Z</time>
      </trkpt>
      <trkpt lat="40.77877" lon="-73.96968">
        <ele>36</ele>
        <time>2012-04-16T11:45:29Z</time>
      </trkpt>
      <trkpt lat="40.77877" lon="-73.9697">
        <ele>36</ele>
        <time>2012-04-16T11:45:30Z</time>
      </trkpt>
      <trkpt lat="40.77877" lon="-73.96973">
        <ele>36</ele>
        <time>2012-04-16T11:45:31Z</time>
      </trkpt>
      <trkpt lat="40.77877" lon="-73.96975">
        <ele>36</ele>
        <time>2012-04-16T11:45:32Z</time>
      </trkpt>
      <trkpt lat="40.77878" lon="-73.96977">
        <ele>36</ele>
        <time>2012-04-16T11:45:33Z</time>
      </trkpt>
      <trkpt lat="40.77879" lon="-73.9698">
        <ele>36</ele>
        <time>2012-04-16T11:45:34Z</time>
      </trkpt>
      <trkpt lat="40.7788" lon="-73.96981">
        <ele>36</ele>
        <time>2012-04-16T11:45:35Z</time>
      </trkpt>
      <trkpt lat="40.7788" lon="-73.96983">
        <ele>36</ele>
        <time>2012-04-16T11:45:36Z</time>
      </trkpt>
      <trkpt lat="40.77881" lon="-73.96985">
        <ele>36</ele>
        <time>2012-04-16T11:45:37Z</time>
      </trkpt>
      <trkpt lat="40.77883" lon="-73.96987">
        <ele>36</ele>
        <time>2012-04-16T11:45:39Z</time>
      </trkpt>
      <trkpt lat="40.77883" lon="-73.96989">
        <ele>36</ele>
        <time>2012-04-16T11:45:42Z</time>
      </trkpt>
      <trkpt lat="40.77885" lon="-73.96989">
        <ele>36</ele>
        <time>2012-04-16T11:45:44Z</time>
      </trkpt>
      <trkpt lat="40.77887" lon="-73.96992">
        <ele>36</ele>
        <time>2012-04-16T11:45:45Z</time>
      </trkpt>
      <trkpt lat="40.77889" lon="-73.96993">
        <ele>36</ele>
        <time>2012-04-16T11:45:46Z</time>
      </trkpt>
      <trkpt lat="40.7789" lon="-73.96994">
        <ele>36</ele>
        <time>2012-04-16T11:45:47Z</time>
      </trkpt>
      <trkpt lat="40.7789" lon="-73.96996">
        <ele>36</ele>
        <time>2012-04-16T11:45:48Z</time>
      </trkpt>
      <trkpt lat="40.7789" lon="-73.96998">
        <ele>36</ele>
        <time>2012-04-16T11:45:49Z</time>
      </trkpt>
      <trkpt lat="40.7789" lon="-73.96999">
        <ele>36</ele>
        <time>2012-04-16T11:45:50Z</time>
      </trkpt>
      <trkpt lat="40.7789" lon="-73.97001">
        <ele>36</ele>
        <time>2012-04-16T11:45:51Z</time>
      </trkpt>
      <trkpt lat="40.77887" lon="-73.97004">
        <ele>36</ele>
        <time>2012-04-16T11:45:53Z</time>
      </trkpt>
      <trkpt lat="40.77886" lon="-73.97005">
        <ele>36</ele>
        <time>2012-04-16T11:45:54Z</time>
      </trkpt>
      <trkpt lat="40.77885" lon="-73.97006">
        <ele>36</ele>
        <time>2012-04-16T11:45:55Z</time>
      </trkpt>
      <trkpt lat="40.77884" lon="-73.97007">
        <ele>36</ele>
        <time>2012-04-16T11:45:56Z</time>
      </trkpt>
      <trkpt lat="40.77882" lon="-73.97008">
        <ele>36</ele>
        <time>2012-04-16T11:45:58Z</time>
      </trkpt>
      <trkpt lat="40.77881" lon="-73.97009">
        <ele>36</ele>
        <time>2012-04-16T11:45:59Z</time>
      </trkpt>
      <trkpt lat="40.77879" lon="-73.9701">
        <ele>36</ele>
        <time>2012-04-16T11:46:01Z</time>
      </trkpt>
      <trkpt lat="40.77877" lon="-73.97012">
        <ele>36</ele>
        <time>2012-04-16T11:46:04Z</time>
      </trkpt>
      <trkpt lat="40.77876" lon="-73.97013">
        <ele>36</ele>
        <time>2012-04-16T11:46:06Z</time>
      </trkpt>
      <trkpt lat="40.77874" lon="-73.97014">
        <ele>36</ele>
        <time>2012-04-16T11:46:08Z</time>
      </trkpt>
      <trkpt lat="40.77872" lon="-73.97015">
        <ele>36</ele>
        <time>2012-04-16T11:46:09Z</time>
      </trkpt>
      <trkpt lat="40.77871" lon="-73.97015">
        <ele>35</ele>
        <time>2012-04-16T11:46:11Z</time>
      </trkpt>
      <trkpt lat="40.77869" lon="-73.97016">
        <ele>35</ele>
        <time>2012-04-16T11:46:12Z</time>
      </trkpt>
      <trkpt lat="40.77867" lon="-73.97015">
        <ele>34</ele>
        <time>2012-04-16T11:46:14Z</time>
      </trkpt>
      <trkpt lat="40.77866" lon="-73.97016">
        <ele>34</ele>
        <time>2012-04-16T11:46:15Z</time>
      </trkpt>
      <trkpt lat="40.77864" lon="-73.97015">
        <ele>33</ele>
        <time>2012-04-16T11:46:16Z</time>
      </trkpt>
      <trkpt lat="40.77863" lon="-73.97016">
        <ele>33</ele>
        <time>2012-04-16T11:46:18Z</time>
      </trkpt>
      <trkpt lat="40.77861" lon="-73.97017">
        <ele>33</ele>
        <time>2012-04-16T11:46:19Z</time>
      </trkpt>
      <trkpt lat="40.77858" lon="-73.97018">
        <ele>33</ele>
        <time>2012-04-16T11:46:20Z</time>
      </trkpt>
      <trkpt lat="40.77856" lon="-73.97018">
        <ele>33</ele>
        <time>2012-04-16T11:46:21Z</time>
      </trkpt>
      <trkpt lat="40.77853" lon="-73.97019">
        <ele>33</ele>
        <time>2012-04-16T11:46:22Z</time>
      </trkpt>
      <trkpt lat="40.77851" lon="-73.9702">
        <ele>33</ele>
        <time>2012-04-16T11:46:23Z</time>
      </trkpt>
      <trkpt lat="40.77849" lon="-73.97021">
        <ele>33</ele>
        <time>2012-04-16T11:46:24Z</time>
      </trkpt>
      <trkpt lat="40.77847" lon="-73.97022">
        <ele>33</ele>
        <time>2012-04-16T11:46:25Z</time>
      </trkpt>
      <trkpt lat="40.77845" lon="-73.97024">
        <ele>33</ele>
        <time>2012-04-16T11:46:26Z</time>
      </trkpt>
      <trkpt lat="40.77844" lon="-73.97025">
        <ele>33</ele>
        <time>2012-04-16T11:46:27Z</time>
      </trkpt>
      <trkpt lat="40.77842" lon="-73.97026">
        <ele>33</ele>
        <time>2012-04-16T11:46:28Z</time>
      </trkpt>
      <trkpt lat="40.7784" lon="-73.97028">
        <ele>33</ele>
        <time>2012-04-16T11:46:29Z</time>
      </trkpt>
      <trkpt lat="40.77838" lon="-73.97028">
        <ele>33</ele>
        <time>2012-04-16T11:46:30Z</time>
      </trkpt>
      <trkpt lat="40.77836" lon="-73.97029">
        <ele>33</ele>
        <time>2012-04-16T11:46:31Z</time>
      </trkpt>
      <trkpt lat="40.77834" lon="-73.97031">
        <ele>33</ele>
        <time>2012-04-16T11:46:32Z</time>
      </trkpt>
      <trkpt lat="40.77832" lon="-73.97031">
        <ele>33</ele>
        <time>2012-04-16T11:46:33Z</time>
      </trkpt>
      <trkpt lat="40.7783" lon="-73.97031">
        <ele>33</ele>
        <time>2012-04-16T11:46:34Z</time>
      </trkpt>
      <trkpt lat="40.77828" lon="-73.9703">
        <ele>33</ele>
        <time>2012-04-16T11:46:35Z</time>
      </trkpt>
      <trkpt lat="40.77826" lon="-73.97028">
        <ele>33</ele>
        <time>2012-04-16T11:46:36Z</time>
      </trkpt>
      <trkpt lat="40.77824" lon="-73.97026">
        <ele>33</ele>
        <time>2012-04-16T11:46:37Z</time>
      </trkpt>
      <trkpt lat="40.77821" lon="-73.97025">
        <ele>33</ele>
        <time>2012-04-16T11:46:38Z</time>
      </trkpt>
      <trkpt lat="40.7782" lon="-73.97025">
        <ele>33</ele>
        <time>2012-04-16T11:46:39Z</time>
      </trkpt>
      <trkpt lat="40.77819" lon="-73.97024">
        <ele>33</ele>
        <time>2012-04-16T11:46:40Z</time>
      </trkpt>
      <trkpt lat="40.77817" lon="-73.97023">
        <ele>33</ele>
        <time>2012-04-16T11:46:41Z</time>
      </trkpt>
      <trkpt lat="40.77816" lon="-73.97021">
        <ele>33</ele>
        <time>2012-04-16T11:46:42Z</time>
      </trkpt>
      <trkpt lat="40.77814" lon="-73.97021">
        <ele>33</ele>
        <time>2012-04-16T11:46:43Z</time>
      </trkpt>
      <trkpt lat="40.77813" lon="-73.9702">
        <ele>33</ele>
        <time>2012-04-16T11:46:44Z</time>
      </trkpt>
      <trkpt lat="40.77811" lon="-73.97019">
        <ele>33</ele>
        <time>2012-04-16T11:46:45Z</time>
      </trkpt>
      <trkpt lat="40.77809" lon="-73.97018">
        <ele>33</ele>
        <time>2012-04-16T11:46:46Z</time>
      </trkpt>
      <trkpt lat="40.77807" lon="-73.97018">
        <ele>33</ele>
        <time>2012-04-16T11:46:47Z</time>
      </trkpt>
      <trkpt lat="40.77805" lon="-73.97018">
        <ele>33</ele>
        <time>2012-04-16T11:46:48Z</time>
      </trkpt>
      <trkpt lat="40.77803" lon="-73.97018">
        <ele>33</ele>
        <time>2012-04-16T11:46:49Z</time>
      </trkpt>
      <trkpt lat="40.77801" lon="-73.97017">
        <ele>33</ele>
        <time>2012-04-16T11:46:50Z</time>
      </trkpt>
      <trkpt lat="40.77799" lon="-73.97017">
        <ele>33</ele>
        <time>2012-04-16T11:46:51Z</time>
      </trkpt>
      <trkpt lat="40.77797" lon="-73.97018">
        <ele>33</ele>
        <time>2012-04-16T11:46:52Z</time>
      </trkpt>
      <trkpt lat="40.77795" lon="-73.97018">
        <ele>33</ele>
        <time>2012-04-16T11:46:53Z</time>
      </trkpt>
      <trkpt lat="40.77793" lon="-73.97018">
        <ele>33</ele>
        <time>2012-04-16T11:46:54Z</time>
      </trkpt>
      <trkpt lat="40.77791" lon="-73.97018">
        <ele>33</ele>
        <time>2012-04-16T11:46:55Z</time>
      </trkpt>
      <trkpt lat="40.77789" lon="-73.97018">
        <ele>33</ele>
        <time>2012-04-16T11:46:56Z</time>
      </trkpt>
      <trkpt lat="40.77787" lon="-73.97018">
        <ele>33</ele>
        <time>2012-04-16T11:46:57Z</time>
      </trkpt>
      <trkpt lat="40.77785" lon="-73.97018">
        <ele>33</ele>
        <time>2012-04-16T11:46:58Z</time>
      </trkpt>
      <trkpt lat="40.77783" lon="-73.97018">
        <ele>33</ele>
        <time>2012-04-16T11:46:59Z</time>
      </trkpt>
      <trkpt lat="40.77781" lon="-73.97015">
        <ele>33</ele>
        <time>2012-04-16T11:47:00Z</time>
      </trkpt>
      <trkpt lat="40.7778" lon="-73.97012">
        <ele>33</ele>
        <time>2012-04-16T11:47:02Z</time>
      </trkpt>
      <trkpt lat="40.77779" lon="-73.9701">
        <ele>33</ele>
        <time>2012-04-16T11:47:03Z</time>
      </trkpt>
      <trkpt lat="40.77779" lon="-73.97008">
        <ele>33</ele>
        <time>2012-04-16T11:47:04Z</time>
      </trkpt>
      <trkpt lat="40.77779" lon="-73.97005">
        <ele>33</ele>
        <time>2012-04-16T11:47:05Z</time>
      </trkpt>
      <trkpt lat="40.77779" lon="-73.97003">
        <ele>33</ele>
        <time>2012-04-16T11:47:06Z</time>
      </trkpt>
      <trkpt lat="40.77779" lon="-73.97">
        <ele>33</ele>
        <time>2012-04-16T11:47:07Z</time>
      </trkpt>
      <trkpt lat="40.77779" lon="-73.96998">
        <ele>33</ele>
        <time>2012-04-16T11:47:08Z</time>
      </trkpt>
      <trkpt lat="40.77779" lon="-73.96996">
        <ele>33</ele>
        <time>2012-04-16T11:47:09Z</time>
      </trkpt>
      <trkpt lat="40.77779" lon="-73.96992">
        <ele>33</ele>
        <time>2012-04-16T11:47:10Z</time>
      </trkpt>
      <trkpt lat="40.77779" lon="-73.96989">
        <ele>33</ele>
        <time>2012-04-16T11:47:11Z</time>
      </trkpt>
      <trkpt lat="40.77779" lon="-73.96986">
        <ele>33</ele>
        <time>2012-04-16T11:47:12Z</time>
      </trkpt>
      <trkpt lat="40.77778" lon="-73.96984">
        <ele>33</ele>
        <time>2012-04-16T11:47:13Z</time>
      </trkpt>
      <trkpt lat="40.77777" lon="-73.96981">
        <ele>33</ele>
        <time>2012-04-16T11:47:14Z</time>
      </trkpt>
      <trkpt lat="40.77776" lon="-73.96978">
        <ele>33</ele>
        <time>2012-04-16T11:47:15Z</time>
      </trkpt>
      <trkpt lat="40.77776" lon="-73.96975">
        <ele>33</ele>
        <time>2012-04-16T11:47:16Z</time>
      </trkpt>
      <trkpt lat="40.77776" lon="-73.96972">
        <ele>33</ele>
        <time>2012-04-16T11:47:17Z</time>
      </trkpt>
      <trkpt lat="40.77776" lon="-73.96969">
        <ele>33</ele>
        <time>2012-04-16T11:47:18Z</time>
      </trkpt>
      <trkpt lat="40.77776" lon="-73.96967">
        <ele>33</ele>
        <time>2012-04-16T11:47:19Z</time>
      </trkpt>
      <trkpt lat="40.77776" lon="-73.96965">
        <ele>33</ele>
        <time>2012-04-16T11:47:20Z</time>
      </trkpt>
      <trkpt lat="40.77775" lon="-73.96964">
        <ele>33</ele>
        <time>2012-04-16T11:47:21Z</time>
      </trkpt>
      <trkpt lat="40.77774" lon="-73.96961">
        <ele>33</ele>
        <time>2012-04-16T11:47:22Z</time>
      </trkpt>
      <trkpt lat="40.77772" lon="-73.96957">
        <ele>33</ele>
        <time>2012-04-16T11:47:24Z</time>
      </trkpt>
      <trkpt lat="40.7777" lon="-73.96956">
        <ele>33</ele>
        <time>2012-04-16T11:47:25Z</time>
      </trkpt>
      <trkpt lat="40.77769" lon="-73.96954">
        <ele>33</ele>
        <time>2012-04-16T11:47:26Z</time>
      </trkpt>
      <trkpt lat="40.77768" lon="-73.96952">
        <ele>33</ele>
        <time>2012-04-16T11:47:27Z</time>
      </trkpt>
      <trkpt lat="40.77766" lon="-73.9695">
        <ele>33</ele>
        <time>2012-04-16T11:47:28Z</time>
      </trkpt>
      <trkpt lat="40.77764" lon="-73.96948">
        <ele>33</ele>
        <time>2012-04-16T11:47:29Z</time>
      </trkpt>
      <trkpt lat="40.77763" lon="-73.96946">
        <ele>33</ele>
        <time>2012-04-16T11:47:30Z</time>
      </trkpt>
      <trkpt lat="40.7776" lon="-73.96944">
        <ele>33</ele>
        <time>2012-04-16T11:47:31Z</time>
      </trkpt>
      <trkpt lat="40.77759" lon="-73.96941">
        <ele>33</ele>
        <time>2012-04-16T11:47:32Z</time>
      </trkpt>
      <trkpt lat="40.77758" lon="-73.96939">
        <ele>34</ele>
        <time>2012-04-16T11:47:33Z</time>
      </trkpt>
      <trkpt lat="40.77756" lon="-73.96937">
        <ele>34</ele>
        <time>2012-04-16T11:47:34Z</time>
      </trkpt>
      <trkpt lat="40.77755" lon="-73.96934">
        <ele>34</ele>
        <time>2012-04-16T11:47:35Z</time>
      </trkpt>
      <trkpt lat="40.77754" lon="-73.96931">
        <ele>34</ele>
        <time>2012-04-16T11:47:36Z</time>
      </trkpt>
      <trkpt lat="40.77753" lon="-73.96928">
        <ele>34</ele>
        <time>2012-04-16T11:47:37Z</time>
      </trkpt>
      <trkpt lat="40.77752" lon="-73.96925">
        <ele>34</ele>
        <time>2012-04-16T11:47:38Z</time>
      </trkpt>
      <trkpt lat="40.7775" lon="-73.96923">
        <ele>34</ele>
        <time>2012-04-16T11:47:39Z</time>
      </trkpt>
      <trkpt lat="40.77749" lon="-73.96922">
        <ele>34</ele>
        <time>2012-04-16T11:47:40Z</time>
      </trkpt>
      <trkpt lat="40.77747" lon="-73.96919">
        <ele>34</ele>
        <time>2012-04-16T11:47:41Z</time>
      </trkpt>
      <trkpt lat="40.77745" lon="-73.96918">
        <ele>34</ele>
        <time>2012-04-16T11:47:42Z</time>
      </trkpt>
      <trkpt lat="40.77742" lon="-73.96918">
        <ele>34</ele>
        <time>2012-04-16T11:47:43Z</time>
      </trkpt>
      <trkpt lat="40.7774" lon="-73.96917">
        <ele>34</ele>
        <time>2012-04-16T11:47:44Z</time>
      </trkpt>
      <trkpt lat="40.77739" lon="-73.96917">
        <ele>34</ele>
        <time>2012-04-16T11:47:45Z</time>
      </trkpt>
      <trkpt lat="40.77737" lon="-73.96916">
        <ele>34</ele>
        <time>2012-04-16T11:47:46Z</time>
      </trkpt>
      <trkpt lat="40.77736" lon="-73.96915">
        <ele>34</ele>
        <time>2012-04-16T11:47:47Z</time>
      </trkpt>
      <trkpt lat="40.77734" lon="-73.96915">
        <ele>34</ele>
        <time>2012-04-16T11:47:48Z</time>
      </trkpt>
      <trkpt lat="40.77733" lon="-73.96915">
        <ele>34</ele>
        <time>2012-04-16T11:47:49Z</time>
      </trkpt>
      <trkpt lat="40.77732" lon="-73.96915">
        <ele>34</ele>
        <time>2012-04-16T11:47:50Z</time>
      </trkpt>
      <trkpt lat="40.77731" lon="-73.96915">
        <ele>34</ele>
        <time>2012-04-16T11:47:55Z</time>
      </trkpt>
      <trkpt lat="40.77731" lon="-73.96917">
        <ele>34</ele>
        <time>2012-04-16T11:47:59Z</time>
      </trkpt>
      <trkpt lat="40.77732" lon="-73.96918">
        <ele>34</ele>
        <time>2012-04-16T11:48:05Z</time>
      </trkpt>
      <trkpt lat="40.7773" lon="-73.96918">
        <ele>34</ele>
        <time>2012-04-16T11:48:10Z</time>
      </trkpt>
      <trkpt lat="40.77729" lon="-73.96917">
        <ele>36</ele>
        <time>2012-04-16T11:48:12Z</time>
      </trkpt>
      <trkpt lat="40.77727" lon="-73.96915">
        <ele>38</ele>
        <time>2012-04-16T11:48:14Z</time>
      </trkpt>
      <trkpt lat="40.77726" lon="-73.96915">
        <ele>39</ele>
        <time>2012-04-16T11:48:15Z</time>
      </trkpt>
      <trkpt lat="40.77724" lon="-73.96915">
        <ele>40</ele>
        <time>2012-04-16T11:48:16Z</time>
      </trkpt>
      <trkpt lat="40.77726" lon="-73.96915">
        <ele>41</ele>
        <time>2012-04-16T11:48:19Z</time>
      </trkpt>
      <trkpt lat="40.77728" lon="-73.96915">
        <ele>41</ele>
        <time>2012-04-16T11:48:22Z</time>
      </trkpt>
      <trkpt lat="40.77729" lon="-73.96915">
        <ele>41</ele>
        <time>2012-04-16T11:48:25Z</time>
      </trkpt>
      <trkpt lat="40.77728" lon="-73.96917">
        <ele>41</ele>
        <time>2012-04-16T11:48:28Z</time>
      </trkpt>
      <trkpt lat="40.77731" lon="-73.96918">
        <ele>41</ele>
        <time>2012-04-16T11:48:31Z</time>
      </trkpt>
      <trkpt lat="40.77733" lon="-73.96918">
        <ele>41</ele>
        <time>2012-04-16T11:48:32Z</time>
      </trkpt>
      <trkpt lat="40.77735" lon="-73.96919">
        <ele>41</ele>
        <time>2012-04-16T11:48:33Z</time>
      </trkpt>
      <trkpt lat="40.77737" lon="-73.9692">
        <ele>41</ele>
        <time>2012-04-16T11:48:34Z</time>
      </trkpt>
      <trkpt lat="40.77738" lon="-73.9692">
        <ele>41</ele>
        <time>2012-04-16T11:48:35Z</time>
      </trkpt>
      <trkpt lat="40.77737" lon="-73.9692">
        <ele>41</ele>
        <time>2012-04-16T11:48:36Z</time>
      </trkpt>
      <trkpt lat="40.77735" lon="-73.96919">
        <ele>41</ele>
        <time>2012-04-16T11:48:37Z</time>
      </trkpt>
      <trkpt lat="40.77733" lon="-73.96919">
        <ele>41</ele>
        <time>2012-04-16T11:48:38Z</time>
      </trkpt>
      <trkpt lat="40.77731" lon="-73.96919">
        <ele>40</ele>
        <time>2012-04-16T11:48:39Z</time>
      </trkpt>
      <trkpt lat="40.7773" lon="-73.9692">
        <ele>40</ele>
        <time>2012-04-16T11:48:40Z</time>
      </trkpt>
      <trkpt lat="40.77729" lon="-73.96921">
        <ele>40</ele>
        <time>2012-04-16T11:48:41Z</time>
      </trkpt>
      <trkpt lat="40.77728" lon="-73.96922">
        <ele>40</ele>
        <time>2012-04-16T11:48:42Z</time>
      </trkpt>
      <trkpt lat="40.77725" lon="-73.96923">
        <ele>39</ele>
        <time>2012-04-16T11:48:44Z</time>
      </trkpt>
      <trkpt lat="40.77724" lon="-73.96925">
        <ele>39</ele>
        <time>2012-04-16T11:48:46Z</time>
      </trkpt>
      <trkpt lat="40.77722" lon="-73.96927">
        <ele>38</ele>
        <time>2012-04-16T11:48:47Z</time>
      </trkpt>
      <trkpt lat="40.77721" lon="-73.96928">
        <ele>38</ele>
        <time>2012-04-16T11:48:48Z</time>
      </trkpt>
      <trkpt lat="40.77722" lon="-73.9693">
        <ele>37</ele>
        <time>2012-04-16T11:48:49Z</time>
      </trkpt>
      <trkpt lat="40.77721" lon="-73.96932">
        <ele>37</ele>
        <time>2012-04-16T11:48:51Z</time>
      </trkpt>
      <trkpt lat="40.77719" lon="-73.96933">
        <ele>37</ele>
        <time>2012-04-16T11:48:52Z</time>
      </trkpt>
      <trkpt lat="40.77718" lon="-73.96933">
        <ele>37</ele>
        <time>2012-04-16T11:48:53Z</time>
      </trkpt>
      <trkpt lat="40.77717" lon="-73.96933">
        <ele>37</ele>
        <time>2012-04-16T11:48:54Z</time>
      </trkpt>
      <trkpt lat="40.77715" lon="-73.96931">
        <ele>37</ele>
        <time>2012-04-16T11:48:56Z</time>
      </trkpt>
      <trkpt lat="40.77714" lon="-73.96929">
        <ele>36</ele>
        <time>2012-04-16T11:48:57Z</time>
      </trkpt>
      <trkpt lat="40.77711" lon="-73.96928">
        <ele>35</ele>
        <time>2012-04-16T11:48:59Z</time>
      </trkpt>
      <trkpt lat="40.7771" lon="-73.96925">
        <ele>35</ele>
        <time>2012-04-16T11:49:00Z</time>
      </trkpt>
      <trkpt lat="40.77709" lon="-73.96924">
        <ele>35</ele>
        <time>2012-04-16T11:49:01Z</time>
      </trkpt>
      <trkpt lat="40.77708" lon="-73.96922">
        <ele>35</ele>
        <time>2012-04-16T11:49:03Z</time>
      </trkpt>
      <trkpt lat="40.77707" lon="-73.96919">
        <ele>35</ele>
        <time>2012-04-16T11:49:05Z</time>
      </trkpt>
      <trkpt lat="40.77705" lon="-73.96918">
        <ele>35</ele>
        <time>2012-04-16T11:49:06Z</time>
      </trkpt>
      <trkpt lat="40.77704" lon="-73.96916">
        <ele>35</ele>
        <time>2012-04-16T11:49:07Z</time>
      </trkpt>
      <trkpt lat="40.77703" lon="-73.96915">
        <ele>35</ele>
        <time>2012-04-16T11:49:08Z</time>
      </trkpt>
      <trkpt lat="40.77702" lon="-73.96913">
        <ele>35</ele>
        <time>2012-04-16T11:49:09Z</time>
      </trkpt>
      <trkpt lat="40.77701" lon="-73.96912">
        <ele>35</ele>
        <time>2012-04-16T11:49:10Z</time>
      </trkpt>
      <trkpt lat="40.77699" lon="-73.96909">
        <ele>35</ele>
        <time>2012-04-16T11:49:11Z</time>
      </trkpt>
      <trkpt lat="40.77698" lon="-73.96906">
        <ele>35</ele>
        <time>2012-04-16T11:49:12Z</time>
      </trkpt>
      <trkpt lat="40.77696" lon="-73.96904">
        <ele>35</ele>
        <time>2012-04-16T11:49:13Z</time>
      </trkpt>
      <trkpt lat="40.77694" lon="-73.96902">
        <ele>35</ele>
        <time>2012-04-16T11:49:14Z</time>
      </trkpt>
      <trkpt lat="40.77692" lon="-73.96899">
        <ele>35</ele>
        <time>2012-04-16T11:49:15Z</time>
      </trkpt>
      <trkpt lat="40.7769" lon="-73.96895">
        <ele>35</ele>
        <time>2012-04-16T11:49:16Z</time>
      </trkpt>
      <trkpt lat="40.77689" lon="-73.96892">
        <ele>35</ele>
        <time>2012-04-16T11:49:17Z</time>
      </trkpt>
      <trkpt lat="40.77687" lon="-73.96889">
        <ele>35</ele>
        <time>2012-04-16T11:49:18Z</time>
      </trkpt>
      <trkpt lat="40.77686" lon="-73.96888">
        <ele>35</ele>
        <time>2012-04-16T11:49:19Z</time>
      </trkpt>
      <trkpt lat="40.77684" lon="-73.96887">
        <ele>35</ele>
        <time>2012-04-16T11:49:20Z</time>
      </trkpt>
      <trkpt lat="40.77683" lon="-73.96886">
        <ele>35</ele>
        <time>2012-04-16T11:49:21Z</time>
      </trkpt>
      <trkpt lat="40.77681" lon="-73.96883">
        <ele>35</ele>
        <time>2012-04-16T11:49:22Z</time>
      </trkpt>
      <trkpt lat="40.77678" lon="-73.9688">
        <ele>35</ele>
        <time>2012-04-16T11:49:23Z</time>
      </trkpt>
      <trkpt lat="40.77676" lon="-73.9688">
        <ele>35</ele>
        <time>2012-04-16T11:49:24Z</time>
      </trkpt>
      <trkpt lat="40.77674" lon="-73.96878">
        <ele>35</ele>
        <time>2012-04-16T11:49:25Z</time>
      </trkpt>
      <trkpt lat="40.77673" lon="-73.96877">
        <ele>35</ele>
        <time>2012-04-16T11:49:26Z</time>
      </trkpt>
      <trkpt lat="40.77671" lon="-73.96877">
        <ele>35</ele>
        <time>2012-04-16T11:49:27Z</time>
      </trkpt>
      <trkpt lat="40.7767" lon="-73.96875">
        <ele>35</ele>
        <time>2012-04-16T11:49:28Z</time>
      </trkpt>
      <trkpt lat="40.77667" lon="-73.96874">
        <ele>35</ele>
        <time>2012-04-16T11:49:29Z</time>
      </trkpt>
      <trkpt lat="40.77666" lon="-73.96874">
        <ele>35</ele>
        <time>2012-04-16T11:49:30Z</time>
      </trkpt>
      <trkpt lat="40.77665" lon="-73.96873">
        <ele>35</ele>
        <time>2012-04-16T11:49:31Z</time>
      </trkpt>
      <trkpt lat="40.77663" lon="-73.96875">
        <ele>34</ele>
        <time>2012-04-16T11:49:32Z</time>
      </trkpt>
      <trkpt lat="40.77661" lon="-73.96876">
        <ele>34</ele>
        <time>2012-04-16T11:49:33Z</time>
      </trkpt>
      <trkpt lat="40.77659" lon="-73.96877">
        <ele>34</ele>
        <time>2012-04-16T11:49:34Z</time>
      </trkpt>
      <trkpt lat="40.77656" lon="-73.96877">
        <ele>34</ele>
        <time>2012-04-16T11:49:35Z</time>
      </trkpt>
      <trkpt lat="40.77654" lon="-73.96879">
        <ele>34</ele>
        <time>2012-04-16T11:49:36Z</time>
      </trkpt>
      <trkpt lat="40.77652" lon="-73.9688">
        <ele>34</ele>
        <time>2012-04-16T11:49:37Z</time>
      </trkpt>
      <trkpt lat="40.77651" lon="-73.9688">
        <ele>34</ele>
        <time>2012-04-16T11:49:38Z</time>
      </trkpt>
      <trkpt lat="40.77649" lon="-73.9688">
        <ele>34</ele>
        <time>2012-04-16T11:49:39Z</time>
      </trkpt>
      <trkpt lat="40.77647" lon="-73.9688">
        <ele>34</ele>
        <time>2012-04-16T11:49:40Z</time>
      </trkpt>
      <trkpt lat="40.77645" lon="-73.9688">
        <ele>34</ele>
        <time>2012-04-16T11:49:41Z</time>
      </trkpt>
      <trkpt lat="40.77644" lon="-73.9688">
        <ele>34</ele>
        <time>2012-04-16T11:49:42Z</time>
      </trkpt>
      <trkpt lat="40.77642" lon="-73.9688">
        <ele>34</ele>
        <time>2012-04-16T11:49:43Z</time>
      </trkpt>
      <trkpt lat="40.77639" lon="-73.9688">
        <ele>34</ele>
        <time>2012-04-16T11:49:44Z</time>
      </trkpt>
      <trkpt lat="40.77637" lon="-73.9688">
        <ele>34</ele>
        <time>2012-04-16T11:49:45Z</time>
      </trkpt>
      <trkpt lat="40.77635" lon="-73.96881">
        <ele>34</ele>
        <time>2012-04-16T11:49:46Z</time>
      </trkpt>
      <trkpt lat="40.77634" lon="-73.96883">
        <ele>34</ele>
        <time>2012-04-16T11:49:47Z</time>
      </trkpt>
      <trkpt lat="40.77632" lon="-73.96883">
        <ele>34</ele>
        <time>2012-04-16T11:49:48Z</time>
      </trkpt>
      <trkpt lat="40.7763" lon="-73.96883">
        <ele>34</ele>
        <time>2012-04-16T11:49:49Z</time>
      </trkpt>
      <trkpt lat="40.77628" lon="-73.96883">
        <ele>34</ele>
        <time>2012-04-16T11:49:50Z</time>
      </trkpt>
      <trkpt lat="40.77627" lon="-73.96883">
        <ele>34</ele>
        <time>2012-04-16T11:49:51Z</time>
      </trkpt>
      <trkpt lat="40.77626" lon="-73.96883">
        <ele>34</ele>
        <time>2012-04-16T11:49:52Z</time>
      </trkpt>
      <trkpt lat="40.77624" lon="-73.96883">
        <ele>34</ele>
        <time>2012-04-16T11:49:54Z</time>
      </trkpt>
      <trkpt lat="40.77622" lon="-73.96881">
        <ele>34</ele>
        <time>2012-04-16T11:49:56Z</time>
      </trkpt>
      <trkpt lat="40.77621" lon="-73.9688">
        <ele>34</ele>
        <time>2012-04-16T11:49:57Z</time>
      </trkpt>
      <trkpt lat="40.77619" lon="-73.96883">
        <ele>34</ele>
        <time>2012-04-16T11:49:59Z</time>
      </trkpt>
      <trkpt lat="40.77617" lon="-73.96884">
        <ele>34</ele>
        <time>2012-04-16T11:50:01Z</time>
      </trkpt>
      <trkpt lat="40.77616" lon="-73.96886">
        <ele>34</ele>
        <time>2012-04-16T11:50:02Z</time>
      </trkpt>
      <trkpt lat="40.77615" lon="-73.96887">
        <ele>34</ele>
        <time>2012-04-16T11:50:03Z</time>
      </trkpt>
      <trkpt lat="40.77614" lon="-73.9689">
        <ele>35</ele>
        <time>2012-04-16T11:50:04Z</time>
      </trkpt>
      <trkpt lat="40.77613" lon="-73.96893">
        <ele>35</ele>
        <time>2012-04-16T11:50:05Z</time>
      </trkpt>
      <trkpt lat="40.77613" lon="-73.96895">
        <ele>35</ele>
        <time>2012-04-16T11:50:06Z</time>
      </trkpt>
      <trkpt lat="40.77613" lon="-73.96898">
        <ele>35</ele>
        <time>2012-04-16T11:50:07Z</time>
      </trkpt>
      <trkpt lat="40.77612" lon="-73.969">
        <ele>35</ele>
        <time>2012-04-16T11:50:08Z</time>
      </trkpt>
      <trkpt lat="40.7761" lon="-73.96902">
        <ele>35</ele>
        <time>2012-04-16T11:50:09Z</time>
      </trkpt>
      <trkpt lat="40.77608" lon="-73.96903">
        <ele>35</ele>
        <time>2012-04-16T11:50:10Z</time>
      </trkpt>
      <trkpt lat="40.77607" lon="-73.96904">
        <ele>35</ele>
        <time>2012-04-16T11:50:11Z</time>
      </trkpt>
      <trkpt lat="40.77605" lon="-73.96904">
        <ele>35</ele>
        <time>2012-04-16T11:50:12Z</time>
      </trkpt>
      <trkpt lat="40.77603" lon="-73.96904">
        <ele>35</ele>
        <time>2012-04-16T11:50:13Z</time>
      </trkpt>
      <trkpt lat="40.77602" lon="-73.96904">
        <ele>35</ele>
        <time>2012-04-16T11:50:14Z</time>
      </trkpt>
      <trkpt lat="40.776" lon="-73.96906">
        <ele>35</ele>
        <time>2012-04-16T11:50:15Z</time>
      </trkpt>
      <trkpt lat="40.77599" lon="-73.96907">
        <ele>35</ele>
        <time>2012-04-16T11:50:16Z</time>
      </trkpt>
      <trkpt lat="40.77599" lon="-73.96909">
        <ele>35</ele>
        <time>2012-04-16T11:50:17Z</time>
      </trkpt>
      <trkpt lat="40.77599" lon="-73.96912">
        <ele>35</ele>
        <time>2012-04-16T11:50:18Z</time>
      </trkpt>
      <trkpt lat="40.776" lon="-73.96915">
        <ele>35</ele>
        <time>2012-04-16T11:50:19Z</time>
      </trkpt>
      <trkpt lat="40.77602" lon="-73.96917">
        <ele>35</ele>
        <time>2012-04-16T11:50:20Z</time>
      </trkpt>
      <trkpt lat="40.77603" lon="-73.96919">
        <ele>34</ele>
        <time>2012-04-16T11:50:21Z</time>
      </trkpt>
      <trkpt lat="40.77603" lon="-73.96922">
        <ele>34</ele>
        <time>2012-04-16T11:50:22Z</time>
      </trkpt>
      <trkpt lat="40.77604" lon="-73.96924">
        <ele>33</ele>
        <time>2012-04-16T11:50:23Z</time>
      </trkpt>
      <trkpt lat="40.77605" lon="-73.96926">
        <ele>32</ele>
        <time>2012-04-16T11:50:24Z</time>
      </trkpt>
      <trkpt lat="40.77605" lon="-73.96929">
        <ele>32</ele>
        <time>2012-04-16T11:50:25Z</time>
      </trkpt>
      <trkpt lat="40.77606" lon="-73.96931">
        <ele>32</ele>
        <time>2012-04-16T11:50:26Z</time>
      </trkpt>
      <trkpt lat="40.77605" lon="-73.96934">
        <ele>31</ele>
        <time>2012-04-16T11:50:27Z</time>
      </trkpt>
      <trkpt lat="40.77605" lon="-73.96936">
        <ele>31</ele>
        <time>2012-04-16T11:50:28Z</time>
      </trkpt>
      <trkpt lat="40.77605" lon="-73.96938">
        <ele>31</ele>
        <time>2012-04-16T11:50:29Z</time>
      </trkpt>
      <trkpt lat="40.77604" lon="-73.96941">
        <ele>31</ele>
        <time>2012-04-16T11:50:30Z</time>
      </trkpt>
      <trkpt lat="40.77603" lon="-73.96943">
        <ele>31</ele>
        <time>2012-04-16T11:50:31Z</time>
      </trkpt>
      <trkpt lat="40.77602" lon="-73.96944">
        <ele>30</ele>
        <time>2012-04-16T11:50:32Z</time>
      </trkpt>
      <trkpt lat="40.77601" lon="-73.96947">
        <ele>30</ele>
        <time>2012-04-16T11:50:33Z</time>
      </trkpt>
      <trkpt lat="40.776" lon="-73.96949">
        <ele>30</ele>
        <time>2012-04-16T11:50:34Z</time>
      </trkpt>
      <trkpt lat="40.77599" lon="-73.96951">
        <ele>30</ele>
        <time>2012-04-16T11:50:35Z</time>
      </trkpt>
      <trkpt lat="40.77598" lon="-73.96952">
        <ele>30</ele>
        <time>2012-04-16T11:50:36Z</time>
      </trkpt>
      <trkpt lat="40.77596" lon="-73.96954">
        <ele>30</ele>
        <time>2012-04-16T11:50:37Z</time>
      </trkpt>
      <trkpt lat="40.77594" lon="-73.96954">
        <ele>30</ele>
        <time>2012-04-16T11:50:38Z</time>
      </trkpt>
      <trkpt lat="40.77593" lon="-73.96957">
        <ele>30</ele>
        <time>2012-04-16T11:50:39Z</time>
      </trkpt>
      <trkpt lat="40.77591" lon="-73.96958">
        <ele>30</ele>
        <time>2012-04-16T11:50:40Z</time>
      </trkpt>
      <trkpt lat="40.77589" lon="-73.9696">
        <ele>30</ele>
        <time>2012-04-16T11:50:41Z</time>
      </trkpt>
      <trkpt lat="40.77588" lon="-73.96961">
        <ele>30</ele>
        <time>2012-04-16T11:50:42Z</time>
      </trkpt>
      <trkpt lat="40.77586" lon="-73.96963">
        <ele>30</ele>
        <time>2012-04-16T11:50:43Z</time>
      </trkpt>
      <trkpt lat="40.77584" lon="-73.96965">
        <ele>30</ele>
        <time>2012-04-16T11:50:44Z</time>
      </trkpt>
      <trkpt lat="40.77583" lon="-73.96967">
        <ele>30</ele>
        <time>2012-04-16T11:50:45Z</time>
      </trkpt>
      <trkpt lat="40.77581" lon="-73.96968">
        <ele>30</ele>
        <time>2012-04-16T11:50:46Z</time>
      </trkpt>
      <trkpt lat="40.77579" lon="-73.9697">
        <ele>30</ele>
        <time>2012-04-16T11:50:47Z</time>
      </trkpt>
      <trkpt lat="40.77577" lon="-73.96971">
        <ele>30</ele>
        <time>2012-04-16T11:50:48Z</time>
      </trkpt>
      <trkpt lat="40.77576" lon="-73.96973">
        <ele>30</ele>
        <time>2012-04-16T11:50:49Z</time>
      </trkpt>
      <trkpt lat="40.77574" lon="-73.96973">
        <ele>30</ele>
        <time>2012-04-16T11:50:50Z</time>
      </trkpt>
      <trkpt lat="40.77572" lon="-73.96974">
        <ele>30</ele>
        <time>2012-04-16T11:50:51Z</time>
      </trkpt>
      <trkpt lat="40.7757" lon="-73.96975">
        <ele>30</ele>
        <time>2012-04-16T11:50:52Z</time>
      </trkpt>
      <trkpt lat="40.77568" lon="-73.96976">
        <ele>30</ele>
        <time>2012-04-16T11:50:53Z</time>
      </trkpt>
      <trkpt lat="40.77566" lon="-73.96976">
        <ele>30</ele>
        <time>2012-04-16T11:50:54Z</time>
      </trkpt>
      <trkpt lat="40.77564" lon="-73.96976">
        <ele>30</ele>
        <time>2012-04-16T11:50:55Z</time>
      </trkpt>
      <trkpt lat="40.77562" lon="-73.96978">
        <ele>30</ele>
        <time>2012-04-16T11:50:56Z</time>
      </trkpt>
      <trkpt lat="40.77561" lon="-73.96979">
        <ele>29</ele>
        <time>2012-04-16T11:50:57Z</time>
      </trkpt>
      <trkpt lat="40.77559" lon="-73.96978">
        <ele>29</ele>
        <time>2012-04-16T11:50:58Z</time>
      </trkpt>
      <trkpt lat="40.77557" lon="-73.96979">
        <ele>29</ele>
        <time>2012-04-16T11:50:59Z</time>
      </trkpt>
      <trkpt lat="40.77555" lon="-73.96979">
        <ele>29</ele>
        <time>2012-04-16T11:51:00Z</time>
      </trkpt>
      <trkpt lat="40.77553" lon="-73.9698">
        <ele>29</ele>
        <time>2012-04-16T11:51:01Z</time>
      </trkpt>
      <trkpt lat="40.77551" lon="-73.9698">
        <ele>29</ele>
        <time>2012-04-16T11:51:02Z</time>
      </trkpt>
      <trkpt lat="40.77549" lon="-73.9698">
        <ele>29</ele>
        <time>2012-04-16T11:51:03Z</time>
      </trkpt>
      <trkpt lat="40.77547" lon="-73.96981">
        <ele>29</ele>
        <time>2012-04-16T11:51:04Z</time>
      </trkpt>
      <trkpt lat="40.77545" lon="-73.96981">
        <ele>29</ele>
        <time>2012-04-16T11:51:05Z</time>
      </trkpt>
      <trkpt lat="40.77543" lon="-73.96982">
        <ele>29</ele>
        <time>2012-04-16T11:51:06Z</time>
      </trkpt>
      <trkpt lat="40.77542" lon="-73.96983">
        <ele>29</ele>
        <time>2012-04-16T11:51:07Z</time>
      </trkpt>
      <trkpt lat="40.77541" lon="-73.96985">
        <ele>29</ele>
        <time>2012-04-16T11:51:08Z</time>
      </trkpt>
      <trkpt lat="40.77539" lon="-73.96986">
        <ele>29</ele>
        <time>2012-04-16T11:51:09Z</time>
      </trkpt>
      <trkpt lat="40.77538" lon="-73.96988">
        <ele>29</ele>
        <time>2012-04-16T11:51:10Z</time>
      </trkpt>
      <trkpt lat="40.77537" lon="-73.9699">
        <ele>29</ele>
        <time>2012-04-16T11:51:11Z</time>
      </trkpt>
      <trkpt lat="40.77536" lon="-73.96992">
        <ele>29</ele>
        <time>2012-04-16T11:51:12Z</time>
      </trkpt>
      <trkpt lat="40.77535" lon="-73.96992">
        <ele>29</ele>
        <time>2012-04-16T11:51:13Z</time>
      </trkpt>
      <trkpt lat="40.77533" lon="-73.96996">
        <ele>29</ele>
        <time>2012-04-16T11:51:15Z</time>
      </trkpt>
      <trkpt lat="40.77532" lon="-73.96996">
        <ele>29</ele>
        <time>2012-04-16T11:51:16Z</time>
      </trkpt>
      <trkpt lat="40.77531" lon="-73.96998">
        <ele>29</ele>
        <time>2012-04-16T11:51:17Z</time>
      </trkpt>
      <trkpt lat="40.7753" lon="-73.97">
        <ele>29</ele>
        <time>2012-04-16T11:51:18Z</time>
      </trkpt>
      <trkpt lat="40.77528" lon="-73.97002">
        <ele>29</ele>
        <time>2012-04-16T11:51:19Z</time>
      </trkpt>
      <trkpt lat="40.77527" lon="-73.97003">
        <ele>29</ele>
        <time>2012-04-16T11:51:20Z</time>
      </trkpt>
      <trkpt lat="40.77526" lon="-73.97005">
        <ele>29</ele>
        <time>2012-04-16T11:51:21Z</time>
      </trkpt>
      <trkpt lat="40.77525" lon="-73.97006">
        <ele>29</ele>
        <time>2012-04-16T11:51:22Z</time>
      </trkpt>
      <trkpt lat="40.77523" lon="-73.97007">
        <ele>29</ele>
        <time>2012-04-16T11:51:23Z</time>
      </trkpt>
      <trkpt lat="40.77521" lon="-73.97008">
        <ele>29</ele>
        <time>2012-04-16T11:51:24Z</time>
      </trkpt>
      <trkpt lat="40.77519" lon="-73.97009">
        <ele>29</ele>
        <time>2012-04-16T11:51:25Z</time>
      </trkpt>
      <trkpt lat="40.77518" lon="-73.97009">
        <ele>29</ele>
        <time>2012-04-16T11:51:26Z</time>
      </trkpt>
      <trkpt lat="40.77516" lon="-73.97009">
        <ele>29</ele>
        <time>2012-04-16T11:51:27Z</time>
      </trkpt>
      <trkpt lat="40.77515" lon="-73.97011">
        <ele>29</ele>
        <time>2012-04-16T11:51:28Z</time>
      </trkpt>
      <trkpt lat="40.77514" lon="-73.97012">
        <ele>29</ele>
        <time>2012-04-16T11:51:29Z</time>
      </trkpt>
      <trkpt lat="40.77512" lon="-73.97014">
        <ele>29</ele>
        <time>2012-04-16T11:51:30Z</time>
      </trkpt>
      <trkpt lat="40.77511" lon="-73.97015">
        <ele>29</ele>
        <time>2012-04-16T11:51:31Z</time>
      </trkpt>
      <trkpt lat="40.7751" lon="-73.97015">
        <ele>29</ele>
        <time>2012-04-16T11:51:33Z</time>
      </trkpt>
      <trkpt lat="40.77508" lon="-73.97016">
        <ele>29</ele>
        <time>2012-04-16T11:51:35Z</time>
      </trkpt>
      <trkpt lat="40.77507" lon="-73.97018">
        <ele>28</ele>
        <time>2012-04-16T11:51:38Z</time>
      </trkpt>
      <trkpt lat="40.77506" lon="-73.97021">
        <ele>27</ele>
        <time>2012-04-16T11:51:41Z</time>
      </trkpt>
      <trkpt lat="40.77504" lon="-73.97023">
        <ele>27</ele>
        <time>2012-04-16T11:51:43Z</time>
      </trkpt>
      <trkpt lat="40.77504" lon="-73.97025">
        <ele>27</ele>
        <time>2012-04-16T11:51:44Z</time>
      </trkpt>
      <trkpt lat="40.77502" lon="-73.97026">
        <ele>27</ele>
        <time>2012-04-16T11:51:46Z</time>
      </trkpt>
      <trkpt lat="40.77501" lon="-73.97028">
        <ele>27</ele>
        <time>2012-04-16T11:51:48Z</time>
      </trkpt>
      <trkpt lat="40.77501" lon="-73.9703">
        <ele>27</ele>
        <time>2012-04-16T11:51:49Z</time>
      </trkpt>
      <trkpt lat="40.775" lon="-73.97031">
        <ele>26</ele>
        <time>2012-04-16T11:51:51Z</time>
      </trkpt>
      <trkpt lat="40.77499" lon="-73.97032">
        <ele>26</ele>
        <time>2012-04-16T11:51:55Z</time>
      </trkpt>
      <trkpt lat="40.77498" lon="-73.97032">
        <ele>26</ele>
        <time>2012-04-16T11:51:59Z</time>
      </trkpt>
      <trkpt lat="40.77496" lon="-73.97032">
        <ele>26</ele>
        <time>2012-04-16T11:52:08Z</time>
      </trkpt>
      <trkpt lat="40.77497" lon="-73.97034">
        <ele>26</ele>
        <time>2012-04-16T11:52:17Z</time>
      </trkpt>
      <trkpt lat="40.77497" lon="-73.97037">
        <ele>26</ele>
        <time>2012-04-16T11:52:19Z</time>
      </trkpt>
      <trkpt lat="40.77496" lon="-73.97038">
        <ele>26</ele>
        <time>2012-04-16T11:52:20Z</time>
      </trkpt>
      <trkpt lat="40.77496" lon="-73.97041">
        <ele>26</ele>
        <time>2012-04-16T11:52:22Z</time>
      </trkpt>
      <trkpt lat="40.77496" lon="-73.97043">
        <ele>26</ele>
        <time>2012-04-16T11:52:24Z</time>
      </trkpt>
      <trkpt lat="40.77497" lon="-73.97043">
        <ele>25</ele>
        <time>2012-04-16T11:52:38Z</time>
      </trkpt>
      <trkpt lat="40.77497" lon="-73.97041">
        <ele>24</ele>
        <time>2012-04-16T11:52:40Z</time>
      </trkpt>
      <trkpt lat="40.77498" lon="-73.97039">
        <ele>24</ele>
        <time>2012-04-16T11:52:42Z</time>
      </trkpt>
      <trkpt lat="40.77498" lon="-73.97037">
        <ele>24</ele>
        <time>2012-04-16T11:52:44Z</time>
      </trkpt>
      <trkpt lat="40.77498" lon="-73.97035">
        <ele>23</ele>
        <time>2012-04-16T11:52:48Z</time>
      </trkpt>
      <trkpt lat="40.77497" lon="-73.97035">
        <ele>23</ele>
        <time>2012-04-16T11:52:51Z</time>
      </trkpt>
      <trkpt lat="40.77497" lon="-73.97037">
        <ele>23</ele>
        <time>2012-04-16T11:52:56Z</time>
      </trkpt>
      <trkpt lat="40.77499" lon="-73.97037">
        <ele>23</ele>
        <time>2012-04-16T11:52:58Z</time>
      </trkpt>
      <trkpt lat="40.775" lon="-73.97035">
        <ele>23</ele>
        <time>2012-04-16T11:53:00Z</time>
      </trkpt>
      <trkpt lat="40.77501" lon="-73.97034">
        <ele>23</ele>
        <time>2012-04-16T11:53:02Z</time>
      </trkpt>
      <trkpt lat="40.77502" lon="-73.97031">
        <ele>23</ele>
        <time>2012-04-16T11:53:04Z</time>
      </trkpt>
      <trkpt lat="40.77503" lon="-73.97028">
        <ele>23</ele>
        <time>2012-04-16T11:53:06Z</time>
      </trkpt>
      <trkpt lat="40.77504" lon="-73.97028">
        <ele>23</ele>
        <time>2012-04-16T11:53:08Z</time>
      </trkpt>
      <trkpt lat="40.77506" lon="-73.97026">
        <ele>23</ele>
        <time>2012-04-16T11:53:10Z</time>
      </trkpt>
      <trkpt lat="40.77507" lon="-73.97026">
        <ele>23</ele>
        <time>2012-04-16T11:53:11Z</time>
      </trkpt>
      <trkpt lat="40.77509" lon="-73.97025">
        <ele>23</ele>
        <time>2012-04-16T11:53:12Z</time>
      </trkpt>
      <trkpt lat="40.7751" lon="-73.97025">
        <ele>23</ele>
        <time>2012-04-16T11:53:13Z</time>
      </trkpt>
      <trkpt lat="40.77511" lon="-73.97021">
        <ele>23</ele>
        <time>2012-04-16T11:53:15Z</time>
      </trkpt>
      <trkpt lat="40.77514" lon="-73.9702">
        <ele>23</ele>
        <time>2012-04-16T11:53:17Z</time>
      </trkpt>
      <trkpt lat="40.77515" lon="-73.97018">
        <ele>23</ele>
        <time>2012-04-16T11:53:19Z</time>
      </trkpt>
      <trkpt lat="40.77517" lon="-73.97018">
        <ele>22</ele>
        <time>2012-04-16T11:53:20Z</time>
      </trkpt>
      <trkpt lat="40.77518" lon="-73.97018">
        <ele>22</ele>
        <time>2012-04-16T11:53:21Z</time>
      </trkpt>
      <trkpt lat="40.7752" lon="-73.97018">
        <ele>22</ele>
        <time>2012-04-16T11:53:22Z</time>
      </trkpt>
      <trkpt lat="40.77521" lon="-73.97017">
        <ele>21</ele>
        <time>2012-04-16T11:53:23Z</time>
      </trkpt>
      <trkpt lat="40.77522" lon="-73.97016">
        <ele>21</ele>
        <time>2012-04-16T11:53:24Z</time>
      </trkpt>
      <trkpt lat="40.77523" lon="-73.97015">
        <ele>21</ele>
        <time>2012-04-16T11:53:25Z</time>
      </trkpt>
      <trkpt lat="40.77524" lon="-73.97013">
        <ele>21</ele>
        <time>2012-04-16T11:53:26Z</time>
      </trkpt>
      <trkpt lat="40.77526" lon="-73.97012">
        <ele>21</ele>
        <time>2012-04-16T11:53:27Z</time>
      </trkpt>
      <trkpt lat="40.77528" lon="-73.97009">
        <ele>21</ele>
        <time>2012-04-16T11:53:29Z</time>
      </trkpt>
      <trkpt lat="40.77529" lon="-73.97008">
        <ele>21</ele>
        <time>2012-04-16T11:53:30Z</time>
      </trkpt>
      <trkpt lat="40.7753" lon="-73.97007">
        <ele>21</ele>
        <time>2012-04-16T11:53:31Z</time>
      </trkpt>
      <trkpt lat="40.77531" lon="-73.97005">
        <ele>21</ele>
        <time>2012-04-16T11:53:32Z</time>
      </trkpt>
      <trkpt lat="40.77533" lon="-73.97005">
        <ele>21</ele>
        <time>2012-04-16T11:53:33Z</time>
      </trkpt>
      <trkpt lat="40.77534" lon="-73.97004">
        <ele>21</ele>
        <time>2012-04-16T11:53:34Z</time>
      </trkpt>
      <trkpt lat="40.77535" lon="-73.97003">
        <ele>21</ele>
        <time>2012-04-16T11:53:35Z</time>
      </trkpt>
      <trkpt lat="40.77536" lon="-73.97002">
        <ele>21</ele>
        <time>2012-04-16T11:53:36Z</time>
      </trkpt>
      <trkpt lat="40.77538" lon="-73.96999">
        <ele>21</ele>
        <time>2012-04-16T11:53:38Z</time>
      </trkpt>
      <trkpt lat="40.77539" lon="-73.96996">
        <ele>21</ele>
        <time>2012-04-16T11:53:40Z</time>
      </trkpt>
      <trkpt lat="40.77541" lon="-73.96994">
        <ele>21</ele>
        <time>2012-04-16T11:53:42Z</time>
      </trkpt>
      <trkpt lat="40.77542" lon="-73.96992">
        <ele>21</ele>
        <time>2012-04-16T11:53:44Z</time>
      </trkpt>
      <trkpt lat="40.77544" lon="-73.96989">
        <ele>21</ele>
        <time>2012-04-16T11:53:46Z</time>
      </trkpt>
      <trkpt lat="40.77546" lon="-73.96987">
        <ele>21</ele>
        <time>2012-04-16T11:53:48Z</time>
      </trkpt>
      <trkpt lat="40.77548" lon="-73.96986">
        <ele>21</ele>
        <time>2012-04-16T11:53:50Z</time>
      </trkpt>
      <trkpt lat="40.77549" lon="-73.96985">
        <ele>21</ele>
        <time>2012-04-16T11:53:51Z</time>
      </trkpt>
      <trkpt lat="40.7755" lon="-73.96985">
        <ele>21</ele>
        <time>2012-04-16T11:53:52Z</time>
      </trkpt>
      <trkpt lat="40.77552" lon="-73.96984">
        <ele>21</ele>
        <time>2012-04-16T11:53:53Z</time>
      </trkpt>
      <trkpt lat="40.77554" lon="-73.96983">
        <ele>21</ele>
        <time>2012-04-16T11:53:55Z</time>
      </trkpt>
      <trkpt lat="40.77556" lon="-73.96983">
        <ele>21</ele>
        <time>2012-04-16T11:53:57Z</time>
      </trkpt>
      <trkpt lat="40.77558" lon="-73.96983">
        <ele>21</ele>
        <time>2012-04-16T11:53:59Z</time>
      </trkpt>
      <trkpt lat="40.77559" lon="-73.96984">
        <ele>21</ele>
        <time>2012-04-16T11:54:00Z</time>
      </trkpt>
      <trkpt lat="40.77561" lon="-73.96984">
        <ele>21</ele>
        <time>2012-04-16T11:54:02Z</time>
      </trkpt>
      <trkpt lat="40.77562" lon="-73.96983">
        <ele>21</ele>
        <time>2012-04-16T11:54:03Z</time>
      </trkpt>
      <trkpt lat="40.77564" lon="-73.96983">
        <ele>21</ele>
        <time>2012-04-16T11:54:04Z</time>
      </trkpt>
      <trkpt lat="40.77565" lon="-73.96983">
        <ele>21</ele>
        <time>2012-04-16T11:54:05Z</time>
      </trkpt>
      <trkpt lat="40.77567" lon="-73.96983">
        <ele>21</ele>
        <time>2012-04-16T11:54:06Z</time>
      </trkpt>
      <trkpt lat="40.77568" lon="-73.96981">
        <ele>21</ele>
        <time>2012-04-16T11:54:07Z</time>
      </trkpt>
      <trkpt lat="40.77569" lon="-73.9698">
        <ele>21</ele>
        <time>2012-04-16T11:54:09Z</time>
      </trkpt>
      <trkpt lat="40.77571" lon="-73.9698">
        <ele>21</ele>
        <time>2012-04-16T11:54:11Z</time>
      </trkpt>
      <trkpt lat="40.77572" lon="-73.96979">
        <ele>21</ele>
        <time>2012-04-16T11:54:12Z</time>
      </trkpt>
      <trkpt lat="40.77573" lon="-73.96978">
        <ele>21</ele>
        <time>2012-04-16T11:54:13Z</time>
      </trkpt>
      <trkpt lat="40.77575" lon="-73.96977">
        <ele>21</ele>
        <time>2012-04-16T11:54:14Z</time>
      </trkpt>
      <trkpt lat="40.77577" lon="-73.96976">
        <ele>21</ele>
        <time>2012-04-16T11:54:16Z</time>
      </trkpt>
      <trkpt lat="40.77578" lon="-73.96975">
        <ele>21</ele>
        <time>2012-04-16T11:54:17Z</time>
      </trkpt>
      <trkpt lat="40.7758" lon="-73.96974">
        <ele>21</ele>
        <time>2012-04-16T11:54:18Z</time>
      </trkpt>
      <trkpt lat="40.77581" lon="-73.96973">
        <ele>21</ele>
        <time>2012-04-16T11:54:19Z</time>
      </trkpt>
      <trkpt lat="40.77583" lon="-73.96973">
        <ele>21</ele>
        <time>2012-04-16T11:54:20Z</time>
      </trkpt>
      <trkpt lat="40.77585" lon="-73.9697">
        <ele>21</ele>
        <time>2012-04-16T11:54:22Z</time>
      </trkpt>
      <trkpt lat="40.77586" lon="-73.96969">
        <ele>21</ele>
        <time>2012-04-16T11:54:23Z</time>
      </trkpt>
      <trkpt lat="40.77587" lon="-73.96968">
        <ele>21</ele>
        <time>2012-04-16T11:54:24Z</time>
      </trkpt>
      <trkpt lat="40.77589" lon="-73.96967">
        <ele>21</ele>
        <time>2012-04-16T11:54:25Z</time>
      </trkpt>
      <trkpt lat="40.77591" lon="-73.96965">
        <ele>21</ele>
        <time>2012-04-16T11:54:27Z</time>
      </trkpt>
      <trkpt lat="40.77592" lon="-73.96964">
        <ele>21</ele>
        <time>2012-04-16T11:54:28Z</time>
      </trkpt>
      <trkpt lat="40.77594" lon="-73.96962">
        <ele>21</ele>
        <time>2012-04-16T11:54:30Z</time>
      </trkpt>
      <trkpt lat="40.77596" lon="-73.9696">
        <ele>22</ele>
        <time>2012-04-16T11:54:31Z</time>
      </trkpt>
      <trkpt lat="40.77597" lon="-73.9696">
        <ele>22</ele>
        <time>2012-04-16T11:54:32Z</time>
      </trkpt>
      <trkpt lat="40.77599" lon="-73.96959">
        <ele>23</ele>
        <time>2012-04-16T11:54:33Z</time>
      </trkpt>
      <trkpt lat="40.77601" lon="-73.96957">
        <ele>24</ele>
        <time>2012-04-16T11:54:35Z</time>
      </trkpt>
      <trkpt lat="40.77602" lon="-73.96955">
        <ele>24</ele>
        <time>2012-04-16T11:54:36Z</time>
      </trkpt>
      <trkpt lat="40.77603" lon="-73.96954">
        <ele>24</ele>
        <time>2012-04-16T11:54:37Z</time>
      </trkpt>
      <trkpt lat="40.77604" lon="-73.96952">
        <ele>25</ele>
        <time>2012-04-16T11:54:38Z</time>
      </trkpt>
      <trkpt lat="40.77604" lon="-73.96951">
        <ele>25</ele>
        <time>2012-04-16T11:54:39Z</time>
      </trkpt>
      <trkpt lat="40.77604" lon="-73.96949">
        <ele>25</ele>
        <time>2012-04-16T11:54:40Z</time>
      </trkpt>
      <trkpt lat="40.77605" lon="-73.96947">
        <ele>25</ele>
        <time>2012-04-16T11:54:41Z</time>
      </trkpt>
      <trkpt lat="40.77605" lon="-73.96945">
        <ele>25</ele>
        <time>2012-04-16T11:54:42Z</time>
      </trkpt>
      <trkpt lat="40.77605" lon="-73.96944">
        <ele>26</ele>
        <time>2012-04-16T11:54:43Z</time>
      </trkpt>
      <trkpt lat="40.77606" lon="-73.96941">
        <ele>26</ele>
        <time>2012-04-16T11:54:44Z</time>
      </trkpt>
      <trkpt lat="40.77606" lon="-73.9694">
        <ele>27</ele>
        <time>2012-04-16T11:54:45Z</time>
      </trkpt>
      <trkpt lat="40.77607" lon="-73.96938">
        <ele>27</ele>
        <time>2012-04-16T11:54:46Z</time>
      </trkpt>
      <trkpt lat="40.77607" lon="-73.96935">
        <ele>27</ele>
        <time>2012-04-16T11:54:47Z</time>
      </trkpt>
      <trkpt lat="40.77607" lon="-73.96933">
        <ele>27</ele>
        <time>2012-04-16T11:54:48Z</time>
      </trkpt>
      <trkpt lat="40.77607" lon="-73.9693">
        <ele>27</ele>
        <time>2012-04-16T11:54:49Z</time>
      </trkpt>
      <trkpt lat="40.77608" lon="-73.96928">
        <ele>27</ele>
        <time>2012-04-16T11:54:50Z</time>
      </trkpt>
      <trkpt lat="40.7761" lon="-73.96927">
        <ele>28</ele>
        <time>2012-04-16T11:54:52Z</time>
      </trkpt>
      <trkpt lat="40.77612" lon="-73.96927">
        <ele>28</ele>
        <time>2012-04-16T11:54:53Z</time>
      </trkpt>
      <trkpt lat="40.77613" lon="-73.96928">
        <ele>29</ele>
        <time>2012-04-16T11:54:54Z</time>
      </trkpt>
      <trkpt lat="40.77615" lon="-73.96928">
        <ele>29</ele>
        <time>2012-04-16T11:54:55Z</time>
      </trkpt>
      <trkpt lat="40.77616" lon="-73.96929">
        <ele>29</ele>
        <time>2012-04-16T11:54:56Z</time>
      </trkpt>
      <trkpt lat="40.77617" lon="-73.96931">
        <ele>29</ele>
        <time>2012-04-16T11:54:57Z</time>
      </trkpt>
      <trkpt lat="40.77619" lon="-73.96932">
        <ele>29</ele>
        <time>2012-04-16T11:54:58Z</time>
      </trkpt>
      <trkpt lat="40.7762" lon="-73.96935">
        <ele>29</ele>
        <time>2012-04-16T11:54:59Z</time>
      </trkpt>
      <trkpt lat="40.77621" lon="-73.96937">
        <ele>29</ele>
        <time>2012-04-16T11:55:00Z</time>
      </trkpt>
      <trkpt lat="40.77623" lon="-73.96938">
        <ele>30</ele>
        <time>2012-04-16T11:55:01Z</time>
      </trkpt>
      <trkpt lat="40.77623" lon="-73.96941">
        <ele>30</ele>
        <time>2012-04-16T11:55:02Z</time>
      </trkpt>
      <trkpt lat="40.77624" lon="-73.96942">
        <ele>30</ele>
        <time>2012-04-16T11:55:03Z</time>
      </trkpt>
      <trkpt lat="40.77625" lon="-73.96944">
        <ele>30</ele>
        <time>2012-04-16T11:55:04Z</time>
      </trkpt>
      <trkpt lat="40.77625" lon="-73.96947">
        <ele>30</ele>
        <time>2012-04-16T11:55:05Z</time>
      </trkpt>
      <trkpt lat="40.77626" lon="-73.96949">
        <ele>30</ele>
        <time>2012-04-16T11:55:06Z</time>
      </trkpt>
      <trkpt lat="40.77626" lon="-73.96951">
        <ele>30</ele>
        <time>2012-04-16T11:55:07Z</time>
      </trkpt>
      <trkpt lat="40.77627" lon="-73.96954">
        <ele>30</ele>
        <time>2012-04-16T11:55:08Z</time>
      </trkpt>
      <trkpt lat="40.77628" lon="-73.96956">
        <ele>30</ele>
        <time>2012-04-16T11:55:09Z</time>
      </trkpt>
      <trkpt lat="40.77629" lon="-73.96958">
        <ele>31</ele>
        <time>2012-04-16T11:55:10Z</time>
      </trkpt>
      <trkpt lat="40.7763" lon="-73.9696">
        <ele>31</ele>
        <time>2012-04-16T11:55:11Z</time>
      </trkpt>
      <trkpt lat="40.77631" lon="-73.96963">
        <ele>31</ele>
        <time>2012-04-16T11:55:12Z</time>
      </trkpt>
      <trkpt lat="40.77631" lon="-73.96965">
        <ele>31</ele>
        <time>2012-04-16T11:55:13Z</time>
      </trkpt>
      <trkpt lat="40.77633" lon="-73.96967">
        <ele>32</ele>
        <time>2012-04-16T11:55:14Z</time>
      </trkpt>
      <trkpt lat="40.77634" lon="-73.9697">
        <ele>32</ele>
        <time>2012-04-16T11:55:15Z</time>
      </trkpt>
      <trkpt lat="40.77635" lon="-73.96973">
        <ele>32</ele>
        <time>2012-04-16T11:55:16Z</time>
      </trkpt>
      <trkpt lat="40.77636" lon="-73.96976">
        <ele>32</ele>
        <time>2012-04-16T11:55:17Z</time>
      </trkpt>
      <trkpt lat="40.77638" lon="-73.9698">
        <ele>32</ele>
        <time>2012-04-16T11:55:18Z</time>
      </trkpt>
      <trkpt lat="40.77639" lon="-73.96983">
        <ele>32</ele>
        <time>2012-04-16T11:55:19Z</time>
      </trkpt>
      <trkpt lat="40.77639" lon="-73.96986">
        <ele>32</ele>
        <time>2012-04-16T11:55:20Z</time>
      </trkpt>
      <trkpt lat="40.77638" lon="-73.96989">
        <ele>32</ele>
        <time>2012-04-16T11:55:21Z</time>
      </trkpt>
      <trkpt lat="40.77637" lon="-73.96992">
        <ele>32</ele>
        <time>2012-04-16T11:55:22Z</time>
      </trkpt>
      <trkpt lat="40.77637" lon="-73.96995">
        <ele>32</ele>
        <time>2012-04-16T11:55:23Z</time>
      </trkpt>
      <trkpt lat="40.77635" lon="-73.96998">
        <ele>32</ele>
        <time>2012-04-16T11:55:24Z</time>
      </trkpt>
      <trkpt lat="40.77634" lon="-73.96999">
        <ele>32</ele>
        <time>2012-04-16T11:55:25Z</time>
      </trkpt>
      <trkpt lat="40.77633" lon="-73.97001">
        <ele>32</ele>
        <time>2012-04-16T11:55:26Z</time>
      </trkpt>
      <trkpt lat="40.77632" lon="-73.97002">
        <ele>32</ele>
        <time>2012-04-16T11:55:27Z</time>
      </trkpt>
      <trkpt lat="40.77631" lon="-73.97004">
        <ele>32</ele>
        <time>2012-04-16T11:55:28Z</time>
      </trkpt>
      <trkpt lat="40.77629" lon="-73.97004">
        <ele>32</ele>
        <time>2012-04-16T11:55:29Z</time>
      </trkpt>
      <trkpt lat="40.77626" lon="-73.97005">
        <ele>32</ele>
        <time>2012-04-16T11:55:30Z</time>
      </trkpt>
      <trkpt lat="40.77624" lon="-73.97006">
        <ele>32</ele>
        <time>2012-04-16T11:55:31Z</time>
      </trkpt>
      <trkpt lat="40.77622" lon="-73.97008">
        <ele>32</ele>
        <time>2012-04-16T11:55:32Z</time>
      </trkpt>
      <trkpt lat="40.7762" lon="-73.9701">
        <ele>32</ele>
        <time>2012-04-16T11:55:33Z</time>
      </trkpt>
      <trkpt lat="40.77618" lon="-73.97012">
        <ele>32</ele>
        <time>2012-04-16T11:55:34Z</time>
      </trkpt>
      <trkpt lat="40.77617" lon="-73.97015">
        <ele>32</ele>
        <time>2012-04-16T11:55:35Z</time>
      </trkpt>
      <trkpt lat="40.77616" lon="-73.97018">
        <ele>32</ele>
        <time>2012-04-16T11:55:36Z</time>
      </trkpt>
      <trkpt lat="40.77614" lon="-73.97021">
        <ele>32</ele>
        <time>2012-04-16T11:55:37Z</time>
      </trkpt>
      <trkpt lat="40.77613" lon="-73.97023">
        <ele>32</ele>
        <time>2012-04-16T11:55:38Z</time>
      </trkpt>
      <trkpt lat="40.77613" lon="-73.97025">
        <ele>32</ele>
        <time>2012-04-16T11:55:39Z</time>
      </trkpt>
      <trkpt lat="40.77612" lon="-73.97028">
        <ele>32</ele>
        <time>2012-04-16T11:55:40Z</time>
      </trkpt>
      <trkpt lat="40.7761" lon="-73.97031">
        <ele>32</ele>
        <time>2012-04-16T11:55:41Z</time>
      </trkpt>
      <trkpt lat="40.77609" lon="-73.97034">
        <ele>32</ele>
        <time>2012-04-16T11:55:42Z</time>
      </trkpt>
      <trkpt lat="40.77608" lon="-73.97038">
        <ele>32</ele>
        <time>2012-04-16T11:55:43Z</time>
      </trkpt>
      <trkpt lat="40.77607" lon="-73.97041">
        <ele>32</ele>
        <time>2012-04-16T11:55:44Z</time>
      </trkpt>
      <trkpt lat="40.77606" lon="-73.97042">
        <ele>32</ele>
        <time>2012-04-16T11:55:45Z</time>
      </trkpt>
      <trkpt lat="40.77604" lon="-73.97044">
        <ele>32</ele>
        <time>2012-04-16T11:55:46Z</time>
      </trkpt>
      <trkpt lat="40.77603" lon="-73.97046">
        <ele>32</ele>
        <time>2012-04-16T11:55:47Z</time>
      </trkpt>
      <trkpt lat="40.77602" lon="-73.97047">
        <ele>32</ele>
        <time>2012-04-16T11:55:48Z</time>
      </trkpt>
      <trkpt lat="40.77599" lon="-73.9705">
        <ele>32</ele>
        <time>2012-04-16T11:55:50Z</time>
      </trkpt>
      <trkpt lat="40.77598" lon="-73.97052">
        <ele>31</ele>
        <time>2012-04-16T11:55:51Z</time>
      </trkpt>
      <trkpt lat="40.77596" lon="-73.97054">
        <ele>31</ele>
        <time>2012-04-16T11:55:52Z</time>
      </trkpt>
      <trkpt lat="40.77594" lon="-73.97055">
        <ele>31</ele>
        <time>2012-04-16T11:55:53Z</time>
      </trkpt>
      <trkpt lat="40.77592" lon="-73.97056">
        <ele>30</ele>
        <time>2012-04-16T11:55:54Z</time>
      </trkpt>
      <trkpt lat="40.7759" lon="-73.97057">
        <ele>30</ele>
        <time>2012-04-16T11:55:55Z</time>
      </trkpt>
      <trkpt lat="40.77589" lon="-73.9706">
        <ele>29</ele>
        <time>2012-04-16T11:55:56Z</time>
      </trkpt>
      <trkpt lat="40.77588" lon="-73.97062">
        <ele>29</ele>
        <time>2012-04-16T11:55:57Z</time>
      </trkpt>
      <trkpt lat="40.77586" lon="-73.97064">
        <ele>29</ele>
        <time>2012-04-16T11:55:58Z</time>
      </trkpt>
      <trkpt lat="40.77585" lon="-73.97067">
        <ele>28</ele>
        <time>2012-04-16T11:55:59Z</time>
      </trkpt>
      <trkpt lat="40.77584" lon="-73.9707">
        <ele>28</ele>
        <time>2012-04-16T11:56:00Z</time>
      </trkpt>
      <trkpt lat="40.77583" lon="-73.97073">
        <ele>28</ele>
        <time>2012-04-16T11:56:01Z</time>
      </trkpt>
      <trkpt lat="40.77583" lon="-73.97076">
        <ele>27</ele>
        <time>2012-04-16T11:56:02Z</time>
      </trkpt>
      <trkpt lat="40.77582" lon="-73.97079">
        <ele>27</ele>
        <time>2012-04-16T11:56:03Z</time>
      </trkpt>
      <trkpt lat="40.77581" lon="-73.97083">
        <ele>26</ele>
        <time>2012-04-16T11:56:04Z</time>
      </trkpt>
      <trkpt lat="40.77581" lon="-73.97086">
        <ele>26</ele>
        <time>2012-04-16T11:56:05Z</time>
      </trkpt>
      <trkpt lat="40.77581" lon="-73.97088">
        <ele>25</ele>
        <time>2012-04-16T11:56:06Z</time>
      </trkpt>
      <trkpt lat="40.77581" lon="-73.97089">
        <ele>25</ele>
        <time>2012-04-16T11:56:07Z</time>
      </trkpt>
      <trkpt lat="40.77581" lon="-73.97091">
        <ele>25</ele>
        <time>2012-04-16T11:56:08Z</time>
      </trkpt>
      <trkpt lat="40.77581" lon="-73.97092">
        <ele>25</ele>
        <time>2012-04-16T11:56:09Z</time>
      </trkpt>
      <trkpt lat="40.7758" lon="-73.97094">
        <ele>24</ele>
        <time>2012-04-16T11:56:12Z</time>
      </trkpt>
      <trkpt lat="40.77581" lon="-73.97095">
        <ele>24</ele>
        <time>2012-04-16T11:56:16Z</time>
      </trkpt>
      <trkpt lat="40.77582" lon="-73.97095">
        <ele>24</ele>
        <time>2012-04-16T11:56:19Z</time>
      </trkpt>
      <trkpt lat="40.77583" lon="-73.97097">
        <ele>24</ele>
        <time>2012-04-16T11:56:22Z</time>
      </trkpt>
      <trkpt lat="40.77584" lon="-73.97099">
        <ele>25</ele>
        <time>2012-04-16T11:56:23Z</time>
      </trkpt>
      <trkpt lat="40.77586" lon="-73.97101">
        <ele>25</ele>
        <time>2012-04-16T11:56:24Z</time>
      </trkpt>
      <trkpt lat="40.77587" lon="-73.97104">
        <ele>26</ele>
        <time>2012-04-16T11:56:26Z</time>
      </trkpt>
      <trkpt lat="40.77588" lon="-73.97106">
        <ele>26</ele>
        <time>2012-04-16T11:56:28Z</time>
      </trkpt>
      <trkpt lat="40.77589" lon="-73.97107">
        <ele>26</ele>
        <time>2012-04-16T11:56:29Z</time>
      </trkpt>
      <trkpt lat="40.77591" lon="-73.97108">
        <ele>26</ele>
        <time>2012-04-16T11:56:30Z</time>
      </trkpt>
      <trkpt lat="40.77592" lon="-73.9711">
        <ele>26</ele>
        <time>2012-04-16T11:56:31Z</time>
      </trkpt>
      <trkpt lat="40.77593" lon="-73.97112">
        <ele>26</ele>
        <time>2012-04-16T11:56:32Z</time>
      </trkpt>
      <trkpt lat="40.77594" lon="-73.97115">
        <ele>26</ele>
        <time>2012-04-16T11:56:33Z</time>
      </trkpt>
      <trkpt lat="40.77595" lon="-73.97117">
        <ele>26</ele>
        <time>2012-04-16T11:56:34Z</time>
      </trkpt>
      <trkpt lat="40.77595" lon="-73.97119">
        <ele>26</ele>
        <time>2012-04-16T11:56:35Z</time>
      </trkpt>
      <trkpt lat="40.77595" lon="-73.97121">
        <ele>26</ele>
        <time>2012-04-16T11:56:36Z</time>
      </trkpt>
      <trkpt lat="40.77596" lon="-73.97123">
        <ele>26</ele>
        <time>2012-04-16T11:56:37Z</time>
      </trkpt>
      <trkpt lat="40.77596" lon="-73.97125">
        <ele>26</ele>
        <time>2012-04-16T11:56:38Z</time>
      </trkpt>
      <trkpt lat="40.77597" lon="-73.97128">
        <ele>26</ele>
        <time>2012-04-16T11:56:39Z</time>
      </trkpt>
      <trkpt lat="40.77597" lon="-73.9713">
        <ele>26</ele>
        <time>2012-04-16T11:56:40Z</time>
      </trkpt>
      <trkpt lat="40.77597" lon="-73.97132">
        <ele>26</ele>
        <time>2012-04-16T11:56:41Z</time>
      </trkpt>
      <trkpt lat="40.77597" lon="-73.97135">
        <ele>26</ele>
        <time>2012-04-16T11:56:42Z</time>
      </trkpt>
      <trkpt lat="40.77597" lon="-73.97138">
        <ele>26</ele>
        <time>2012-04-16T11:56:43Z</time>
      </trkpt>
      <trkpt lat="40.77597" lon="-73.97141">
        <ele>26</ele>
        <time>2012-04-16T11:56:44Z</time>
      </trkpt>
      <trkpt lat="40.77597" lon="-73.97145">
        <ele>26</ele>
        <time>2012-04-16T11:56:45Z</time>
      </trkpt>
      <trkpt lat="40.77597" lon="-73.97148">
        <ele>26</ele>
        <time>2012-04-16T11:56:46Z</time>
      </trkpt>
      <trkpt lat="40.77597" lon="-73.97152">
        <ele>25</ele>
        <time>2012-04-16T11:56:47Z</time>
      </trkpt>
      <trkpt lat="40.77597" lon="-73.97156">
        <ele>24</ele>
        <time>2012-04-16T11:56:48Z</time>
      </trkpt>
      <trkpt lat="40.77597" lon="-73.97159">
        <ele>23</ele>
        <time>2012-04-16T11:56:49Z</time>
      </trkpt>
      <trkpt lat="40.77597" lon="-73.97162">
        <ele>23</ele>
        <time>2012-04-16T11:56:50Z</time>
      </trkpt>
      <trkpt lat="40.77597" lon="-73.97166">
        <ele>22</ele>
        <time>2012-04-16T11:56:51Z</time>
      </trkpt>
      <trkpt lat="40.77598" lon="-73.97169">
        <ele>21</ele>
        <time>2012-04-16T11:56:52Z</time>
      </trkpt>
      <trkpt lat="40.77599" lon="-73.97172">
        <ele>21</ele>
        <time>2012-04-16T11:56:53Z</time>
      </trkpt>
      <trkpt lat="40.776" lon="-73.97174">
        <ele>20</ele>
        <time>2012-04-16T11:56:54Z</time>
      </trkpt>
      <trkpt lat="40.77602" lon="-73.97176">
        <ele>20</ele>
        <time>2012-04-16T11:56:55Z</time>
      </trkpt>
      <trkpt lat="40.77603" lon="-73.97178">
        <ele>20</ele>
        <time>2012-04-16T11:56:56Z</time>
      </trkpt>
      <trkpt lat="40.77604" lon="-73.9718">
        <ele>20</ele>
        <time>2012-04-16T11:56:57Z</time>
      </trkpt>
      <trkpt lat="40.77605" lon="-73.97182">
        <ele>20</ele>
        <time>2012-04-16T11:56:58Z</time>
      </trkpt>
      <trkpt lat="40.77605" lon="-73.97184">
        <ele>20</ele>
        <time>2012-04-16T11:56:59Z</time>
      </trkpt>
      <trkpt lat="40.77605" lon="-73.97187">
        <ele>20</ele>
        <time>2012-04-16T11:57:00Z</time>
      </trkpt>
      <trkpt lat="40.77605" lon="-73.97189">
        <ele>20</ele>
        <time>2012-04-16T11:57:01Z</time>
      </trkpt>
      <trkpt lat="40.77604" lon="-73.97189">
        <ele>20</ele>
        <time>2012-04-16T11:57:02Z</time>
      </trkpt>
      <trkpt lat="40.77602" lon="-73.97191">
        <ele>20</ele>
        <time>2012-04-16T11:57:03Z</time>
      </trkpt>
      <trkpt lat="40.776" lon="-73.97191">
        <ele>20</ele>
        <time>2012-04-16T11:57:04Z</time>
      </trkpt>
      <trkpt lat="40.77598" lon="-73.97191">
        <ele>20</ele>
        <time>2012-04-16T11:57:05Z</time>
      </trkpt>
      <trkpt lat="40.77596" lon="-73.97191">
        <ele>20</ele>
        <time>2012-04-16T11:57:06Z</time>
      </trkpt>
      <trkpt lat="40.77594" lon="-73.97191">
        <ele>20</ele>
        <time>2012-04-16T11:57:07Z</time>
      </trkpt>
      <trkpt lat="40.77592" lon="-73.97189">
        <ele>20</ele>
        <time>2012-04-16T11:57:08Z</time>
      </trkpt>
      <trkpt lat="40.7759" lon="-73.97187">
        <ele>20</ele>
        <time>2012-04-16T11:57:09Z</time>
      </trkpt>
      <trkpt lat="40.77588" lon="-73.97185">
        <ele>20</ele>
        <time>2012-04-16T11:57:10Z</time>
      </trkpt>
      <trkpt lat="40.77586" lon="-73.97183">
        <ele>20</ele>
        <time>2012-04-16T11:57:11Z</time>
      </trkpt>
      <trkpt lat="40.77584" lon="-73.97182">
        <ele>20</ele>
        <time>2012-04-16T11:57:12Z</time>
      </trkpt>
      <trkpt lat="40.77583" lon="-73.9718">
        <ele>20</ele>
        <time>2012-04-16T11:57:13Z</time>
      </trkpt>
      <trkpt lat="40.77581" lon="-73.97178">
        <ele>20</ele>
        <time>2012-04-16T11:57:14Z</time>
      </trkpt>
      <trkpt lat="40.77579" lon="-73.97176">
        <ele>20</ele>
        <time>2012-04-16T11:57:15Z</time>
      </trkpt>
      <trkpt lat="40.77577" lon="-73.97175">
        <ele>20</ele>
        <time>2012-04-16T11:57:16Z</time>
      </trkpt>
      <trkpt lat="40.77575" lon="-73.97173">
        <ele>20</ele>
        <time>2012-04-16T11:57:17Z</time>
      </trkpt>
      <trkpt lat="40.77573" lon="-73.97171">
        <ele>20</ele>
        <time>2012-04-16T11:57:18Z</time>
      </trkpt>
      <trkpt lat="40.77571" lon="-73.97169">
        <ele>20</ele>
        <time>2012-04-16T11:57:19Z</time>
      </trkpt>
      <trkpt lat="40.7757" lon="-73.97166">
        <ele>20</ele>
        <time>2012-04-16T11:57:20Z</time>
      </trkpt>
      <trkpt lat="40.77568" lon="-73.97164">
        <ele>20</ele>
        <time>2012-04-16T11:57:21Z</time>
      </trkpt>
      <trkpt lat="40.77566" lon="-73.97163">
        <ele>20</ele>
        <time>2012-04-16T11:57:22Z</time>
      </trkpt>
      <trkpt lat="40.77564" lon="-73.97161">
        <ele>20</ele>
        <time>2012-04-16T11:57:23Z</time>
      </trkpt>
      <trkpt lat="40.77562" lon="-73.9716">
        <ele>20</ele>
        <time>2012-04-16T11:57:24Z</time>
      </trkpt>
      <trkpt lat="40.7756" lon="-73.97159">
        <ele>20</ele>
        <time>2012-04-16T11:57:25Z</time>
      </trkpt>
      <trkpt lat="40.77558" lon="-73.97157">
        <ele>20</ele>
        <time>2012-04-16T11:57:26Z</time>
      </trkpt>
      <trkpt lat="40.77556" lon="-73.97156">
        <ele>20</ele>
        <time>2012-04-16T11:57:27Z</time>
      </trkpt>
      <trkpt lat="40.77554" lon="-73.97153">
        <ele>20</ele>
        <time>2012-04-16T11:57:28Z</time>
      </trkpt>
      <trkpt lat="40.77553" lon="-73.97152">
        <ele>20</ele>
        <time>2012-04-16T11:57:29Z</time>
      </trkpt>
      <trkpt lat="40.77551" lon="-73.9715">
        <ele>20</ele>
        <time>2012-04-16T11:57:30Z</time>
      </trkpt>
      <trkpt lat="40.77549" lon="-73.97149">
        <ele>20</ele>
        <time>2012-04-16T11:57:31Z</time>
      </trkpt>
      <trkpt lat="40.77548" lon="-73.97147">
        <ele>20</ele>
        <time>2012-04-16T11:57:32Z</time>
      </trkpt>
      <trkpt lat="40.77546" lon="-73.97146">
        <ele>20</ele>
        <time>2012-04-16T11:57:33Z</time>
      </trkpt>
      <trkpt lat="40.77544" lon="-73.97144">
        <ele>20</ele>
        <time>2012-04-16T11:57:34Z</time>
      </trkpt>
      <trkpt lat="40.77542" lon="-73.97141">
        <ele>20</ele>
        <time>2012-04-16T11:57:35Z</time>
      </trkpt>
      <trkpt lat="40.7754" lon="-73.97139">
        <ele>20</ele>
        <time>2012-04-16T11:57:36Z</time>
      </trkpt>
      <trkpt lat="40.77538" lon="-73.97137">
        <ele>20</ele>
        <time>2012-04-16T11:57:37Z</time>
      </trkpt>
      <trkpt lat="40.77536" lon="-73.97134">
        <ele>20</ele>
        <time>2012-04-16T11:57:38Z</time>
      </trkpt>
      <trkpt lat="40.77534" lon="-73.97131">
        <ele>20</ele>
        <time>2012-04-16T11:57:39Z</time>
      </trkpt>
      <trkpt lat="40.77533" lon="-73.97129">
        <ele>20</ele>
        <time>2012-04-16T11:57:40Z</time>
      </trkpt>
      <trkpt lat="40.77531" lon="-73.97128">
        <ele>20</ele>
        <time>2012-04-16T11:57:41Z</time>
      </trkpt>
      <trkpt lat="40.7753" lon="-73.97126">
        <ele>21</ele>
        <time>2012-04-16T11:57:42Z</time>
      </trkpt>
      <trkpt lat="40.77528" lon="-73.97124">
        <ele>21</ele>
        <time>2012-04-16T11:57:43Z</time>
      </trkpt>
      <trkpt lat="40.77526" lon="-73.97121">
        <ele>21</ele>
        <time>2012-04-16T11:57:44Z</time>
      </trkpt>
      <trkpt lat="40.77525" lon="-73.97119">
        <ele>21</ele>
        <time>2012-04-16T11:57:45Z</time>
      </trkpt>
      <trkpt lat="40.77523" lon="-73.97118">
        <ele>21</ele>
        <time>2012-04-16T11:57:46Z</time>
      </trkpt>
      <trkpt lat="40.77521" lon="-73.97115">
        <ele>21</ele>
        <time>2012-04-16T11:57:47Z</time>
      </trkpt>
      <trkpt lat="40.77519" lon="-73.97115">
        <ele>21</ele>
        <time>2012-04-16T11:57:48Z</time>
      </trkpt>
      <trkpt lat="40.77517" lon="-73.97113">
        <ele>21</ele>
        <time>2012-04-16T11:57:49Z</time>
      </trkpt>
      <trkpt lat="40.77515" lon="-73.97112">
        <ele>21</ele>
        <time>2012-04-16T11:57:50Z</time>
      </trkpt>
      <trkpt lat="40.77512" lon="-73.97111">
        <ele>21</ele>
        <time>2012-04-16T11:57:51Z</time>
      </trkpt>
      <trkpt lat="40.7751" lon="-73.97111">
        <ele>21</ele>
        <time>2012-04-16T11:57:52Z</time>
      </trkpt>
      <trkpt lat="40.77507" lon="-73.9711">
        <ele>21</ele>
        <time>2012-04-16T11:57:53Z</time>
      </trkpt>
      <trkpt lat="40.77504" lon="-73.9711">
        <ele>21</ele>
        <time>2012-04-16T11:57:54Z</time>
      </trkpt>
      <trkpt lat="40.77502" lon="-73.9711">
        <ele>21</ele>
        <time>2012-04-16T11:57:55Z</time>
      </trkpt>
      <trkpt lat="40.77499" lon="-73.97111">
        <ele>21</ele>
        <time>2012-04-16T11:57:56Z</time>
      </trkpt>
      <trkpt lat="40.77497" lon="-73.97112">
        <ele>21</ele>
        <time>2012-04-16T11:57:57Z</time>
      </trkpt>
      <trkpt lat="40.77494" lon="-73.97112">
        <ele>21</ele>
        <time>2012-04-16T11:57:58Z</time>
      </trkpt>
      <trkpt lat="40.77493" lon="-73.97112">
        <ele>21</ele>
        <time>2012-04-16T11:57:59Z</time>
      </trkpt>
      <trkpt lat="40.77491" lon="-73.97112">
        <ele>21</ele>
        <time>2012-04-16T11:58:00Z</time>
      </trkpt>
      <trkpt lat="40.77488" lon="-73.97113">
        <ele>21</ele>
        <time>2012-04-16T11:58:01Z</time>
      </trkpt>
      <trkpt lat="40.77486" lon="-73.97115">
        <ele>21</ele>
        <time>2012-04-16T11:58:02Z</time>
      </trkpt>
      <trkpt lat="40.77484" lon="-73.97115">
        <ele>21</ele>
        <time>2012-04-16T11:58:03Z</time>
      </trkpt>
      <trkpt lat="40.77481" lon="-73.97116">
        <ele>21</ele>
        <time>2012-04-16T11:58:04Z</time>
      </trkpt>
      <trkpt lat="40.77479" lon="-73.97117">
        <ele>21</ele>
        <time>2012-04-16T11:58:05Z</time>
      </trkpt>
      <trkpt lat="40.77477" lon="-73.97117">
        <ele>21</ele>
        <time>2012-04-16T11:58:06Z</time>
      </trkpt>
      <trkpt lat="40.77474" lon="-73.97116">
        <ele>21</ele>
        <time>2012-04-16T11:58:07Z</time>
      </trkpt>
      <trkpt lat="40.77472" lon="-73.97115">
        <ele>21</ele>
        <time>2012-04-16T11:58:08Z</time>
      </trkpt>
      <trkpt lat="40.7747" lon="-73.97115">
        <ele>21</ele>
        <time>2012-04-16T11:58:09Z</time>
      </trkpt>
      <trkpt lat="40.77468" lon="-73.97116">
        <ele>21</ele>
        <time>2012-04-16T11:58:10Z</time>
      </trkpt>
      <trkpt lat="40.77467" lon="-73.97117">
        <ele>21</ele>
        <time>2012-04-16T11:58:11Z</time>
      </trkpt>
      <trkpt lat="40.77466" lon="-73.97118">
        <ele>21</ele>
        <time>2012-04-16T11:58:12Z</time>
      </trkpt>
      <trkpt lat="40.77465" lon="-73.97118">
        <ele>21</ele>
        <time>2012-04-16T11:58:13Z</time>
      </trkpt>
      <trkpt lat="40.77463" lon="-73.97118">
        <ele>21</ele>
        <time>2012-04-16T11:58:14Z</time>
      </trkpt>
      <trkpt lat="40.7746" lon="-73.97118">
        <ele>21</ele>
        <time>2012-04-16T11:58:15Z</time>
      </trkpt>
      <trkpt lat="40.77459" lon="-73.97117">
        <ele>21</ele>
        <time>2012-04-16T11:58:16Z</time>
      </trkpt>
      <trkpt lat="40.77456" lon="-73.97116">
        <ele>21</ele>
        <time>2012-04-16T11:58:17Z</time>
      </trkpt>
      <trkpt lat="40.77454" lon="-73.97115">
        <ele>21</ele>
        <time>2012-04-16T11:58:18Z</time>
      </trkpt>
      <trkpt lat="40.77452" lon="-73.97115">
        <ele>21</ele>
        <time>2012-04-16T11:58:19Z</time>
      </trkpt>
      <trkpt lat="40.7745" lon="-73.97114">
        <ele>21</ele>
        <time>2012-04-16T11:58:20Z</time>
      </trkpt>
      <trkpt lat="40.77448" lon="-73.97112">
        <ele>21</ele>
        <time>2012-04-16T11:58:21Z</time>
      </trkpt>
      <trkpt lat="40.77446" lon="-73.9711">
        <ele>21</ele>
        <time>2012-04-16T11:58:22Z</time>
      </trkpt>
      <trkpt lat="40.77443" lon="-73.97108">
        <ele>21</ele>
        <time>2012-04-16T11:58:23Z</time>
      </trkpt>
      <trkpt lat="40.77441" lon="-73.97106">
        <ele>21</ele>
        <time>2012-04-16T11:58:24Z</time>
      </trkpt>
      <trkpt lat="40.77438" lon="-73.97105">
        <ele>21</ele>
        <time>2012-04-16T11:58:25Z</time>
      </trkpt>
      <trkpt lat="40.77436" lon="-73.97103">
        <ele>21</ele>
        <time>2012-04-16T11:58:26Z</time>
      </trkpt>
      <trkpt lat="40.77434" lon="-73.97102">
        <ele>21</ele>
        <time>2012-04-16T11:58:27Z</time>
      </trkpt>
      <trkpt lat="40.77432" lon="-73.971">
        <ele>21</ele>
        <time>2012-04-16T11:58:28Z</time>
      </trkpt>
      <trkpt lat="40.77429" lon="-73.971">
        <ele>21</ele>
        <time>2012-04-16T11:58:29Z</time>
      </trkpt>
      <trkpt lat="40.77427" lon="-73.971">
        <ele>21</ele>
        <time>2012-04-16T11:58:30Z</time>
      </trkpt>
      <trkpt lat="40.77425" lon="-73.971">
        <ele>21</ele>
        <time>2012-04-16T11:58:31Z</time>
      </trkpt>
      <trkpt lat="40.77423" lon="-73.971">
        <ele>21</ele>
        <time>2012-04-16T11:58:32Z</time>
      </trkpt>
      <trkpt lat="40.77421" lon="-73.971">
        <ele>21</ele>
        <time>2012-04-16T11:58:33Z</time>
      </trkpt>
      <trkpt lat="40.77419" lon="-73.97099">
        <ele>21</ele>
        <time>2012-04-16T11:58:34Z</time>
      </trkpt>
      <trkpt lat="40.77417" lon="-73.97099">
        <ele>21</ele>
        <time>2012-04-16T11:58:35Z</time>
      </trkpt>
      <trkpt lat="40.77415" lon="-73.97099">
        <ele>21</ele>
        <time>2012-04-16T11:58:36Z</time>
      </trkpt>
      <trkpt lat="40.77413" lon="-73.97098">
        <ele>21</ele>
        <time>2012-04-16T11:58:37Z</time>
      </trkpt>
      <trkpt lat="40.77411" lon="-73.97099">
        <ele>21</ele>
        <time>2012-04-16T11:58:38Z</time>
      </trkpt>
      <trkpt lat="40.77409" lon="-73.97099">
        <ele>21</ele>
        <time>2012-04-16T11:58:39Z</time>
      </trkpt>
      <trkpt lat="40.77407" lon="-73.97098">
        <ele>21</ele>
        <time>2012-04-16T11:58:40Z</time>
      </trkpt>
      <trkpt lat="40.77405" lon="-73.97097">
        <ele>21</ele>
        <time>2012-04-16T11:58:41Z</time>
      </trkpt>
      <trkpt lat="40.77403" lon="-73.97097">
        <ele>21</ele>
        <time>2012-04-16T11:58:42Z</time>
      </trkpt>
      <trkpt lat="40.77402" lon="-73.97097">
        <ele>21</ele>
        <time>2012-04-16T11:58:43Z</time>
      </trkpt>
      <trkpt lat="40.774" lon="-73.97098">
        <ele>21</ele>
        <time>2012-04-16T11:58:45Z</time>
      </trkpt>
      <trkpt lat="40.77398" lon="-73.97098">
        <ele>21</ele>
        <time>2012-04-16T11:58:46Z</time>
      </trkpt>
      <trkpt lat="40.77396" lon="-73.97097">
        <ele>21</ele>
        <time>2012-04-16T11:58:47Z</time>
      </trkpt>
      <trkpt lat="40.77393" lon="-73.97097">
        <ele>21</ele>
        <time>2012-04-16T11:58:48Z</time>
      </trkpt>
      <trkpt lat="40.77391" lon="-73.97098">
        <ele>21</ele>
        <time>2012-04-16T11:58:49Z</time>
      </trkpt>
      <trkpt lat="40.7739" lon="-73.97099">
        <ele>21</ele>
        <time>2012-04-16T11:58:50Z</time>
      </trkpt>
      <trkpt lat="40.77388" lon="-73.97099">
        <ele>21</ele>
        <time>2012-04-16T11:58:51Z</time>
      </trkpt>
      <trkpt lat="40.77387" lon="-73.97099">
        <ele>21</ele>
        <time>2012-04-16T11:58:52Z</time>
      </trkpt>
      <trkpt lat="40.77386" lon="-73.971">
        <ele>21</ele>
        <time>2012-04-16T11:58:54Z</time>
      </trkpt>
      <trkpt lat="40.77384" lon="-73.971">
        <ele>21</ele>
        <time>2012-04-16T11:58:56Z</time>
      </trkpt>
      <trkpt lat="40.77348" lon="-73.97106">
        <ele>21</ele>
        <time>2012-04-16T11:59:07Z</time>
      </trkpt>
      <trkpt lat="40.77346" lon="-73.97112">
        <ele>21</ele>
        <time>2012-04-16T11:59:08Z</time>
      </trkpt>
      <trkpt lat="40.77348" lon="-73.97115">
        <ele>21</ele>
        <time>2012-04-16T11:59:09Z</time>
      </trkpt>
      <trkpt lat="40.77349" lon="-73.97117">
        <ele>21</ele>
        <time>2012-04-16T11:59:10Z</time>
      </trkpt>
      <trkpt lat="40.77349" lon="-73.97118">
        <ele>22</ele>
        <time>2012-04-16T11:59:11Z</time>
      </trkpt>
      <trkpt lat="40.77348" lon="-73.97119">
        <ele>24</ele>
        <time>2012-04-16T11:59:13Z</time>
      </trkpt>
      <trkpt lat="40.77346" lon="-73.97119">
        <ele>25</ele>
        <time>2012-04-16T11:59:14Z</time>
      </trkpt>
      <trkpt lat="40.77345" lon="-73.97119">
        <ele>25</ele>
        <time>2012-04-16T11:59:15Z</time>
      </trkpt>
      <trkpt lat="40.77343" lon="-73.9712">
        <ele>26</ele>
        <time>2012-04-16T11:59:16Z</time>
      </trkpt>
      <trkpt lat="40.77341" lon="-73.9712">
        <ele>26</ele>
        <time>2012-04-16T11:59:17Z</time>
      </trkpt>
      <trkpt lat="40.77338" lon="-73.97119">
        <ele>26</ele>
        <time>2012-04-16T11:59:18Z</time>
      </trkpt>
      <trkpt lat="40.77337" lon="-73.97118">
        <ele>26</ele>
        <time>2012-04-16T11:59:19Z</time>
      </trkpt>
      <trkpt lat="40.77335" lon="-73.97119">
        <ele>26</ele>
        <time>2012-04-16T11:59:21Z</time>
      </trkpt>
      <trkpt lat="40.77334" lon="-73.9712">
        <ele>26</ele>
        <time>2012-04-16T11:59:23Z</time>
      </trkpt>
      <trkpt lat="40.77331" lon="-73.97119">
        <ele>26</ele>
        <time>2012-04-16T11:59:25Z</time>
      </trkpt>
      <trkpt lat="40.77329" lon="-73.97119">
        <ele>26</ele>
        <time>2012-04-16T11:59:26Z</time>
      </trkpt>
      <trkpt lat="40.77328" lon="-73.97119">
        <ele>26</ele>
        <time>2012-04-16T11:59:27Z</time>
      </trkpt>
      <trkpt lat="40.77326" lon="-73.97121">
        <ele>26</ele>
        <time>2012-04-16T11:59:28Z</time>
      </trkpt>
      <trkpt lat="40.77324" lon="-73.97121">
        <ele>26</ele>
        <time>2012-04-16T11:59:29Z</time>
      </trkpt>
      <trkpt lat="40.77322" lon="-73.97121">
        <ele>26</ele>
        <time>2012-04-16T11:59:30Z</time>
      </trkpt>
      <trkpt lat="40.7732" lon="-73.97121">
        <ele>26</ele>
        <time>2012-04-16T11:59:31Z</time>
      </trkpt>
      <trkpt lat="40.77318" lon="-73.97123">
        <ele>26</ele>
        <time>2012-04-16T11:59:32Z</time>
      </trkpt>
      <trkpt lat="40.77316" lon="-73.97124">
        <ele>26</ele>
        <time>2012-04-16T11:59:33Z</time>
      </trkpt>
      <trkpt lat="40.77314" lon="-73.97124">
        <ele>26</ele>
        <time>2012-04-16T11:59:34Z</time>
      </trkpt>
      <trkpt lat="40.77312" lon="-73.97125">
        <ele>26</ele>
        <time>2012-04-16T11:59:35Z</time>
      </trkpt>
      <trkpt lat="40.7731" lon="-73.97126">
        <ele>26</ele>
        <time>2012-04-16T11:59:36Z</time>
      </trkpt>
      <trkpt lat="40.77309" lon="-73.97126">
        <ele>26</ele>
        <time>2012-04-16T11:59:37Z</time>
      </trkpt>
      <trkpt lat="40.77306" lon="-73.97126">
        <ele>26</ele>
        <time>2012-04-16T11:59:38Z</time>
      </trkpt>
      <trkpt lat="40.77304" lon="-73.97127">
        <ele>26</ele>
        <time>2012-04-16T11:59:39Z</time>
      </trkpt>
      <trkpt lat="40.77303" lon="-73.97128">
        <ele>26</ele>
        <time>2012-04-16T11:59:40Z</time>
      </trkpt>
      <trkpt lat="40.77301" lon="-73.97128">
        <ele>26</ele>
        <time>2012-04-16T11:59:41Z</time>
      </trkpt>
      <trkpt lat="40.77299" lon="-73.97128">
        <ele>27</ele>
        <time>2012-04-16T11:59:42Z</time>
      </trkpt>
      <trkpt lat="40.77297" lon="-73.97129">
        <ele>27</ele>
        <time>2012-04-16T11:59:43Z</time>
      </trkpt>
      <trkpt lat="40.77295" lon="-73.97129">
        <ele>27</ele>
        <time>2012-04-16T11:59:44Z</time>
      </trkpt>
      <trkpt lat="40.77293" lon="-73.97131">
        <ele>28</ele>
        <time>2012-04-16T11:59:45Z</time>
      </trkpt>
      <trkpt lat="40.77291" lon="-73.97131">
        <ele>28</ele>
        <time>2012-04-16T11:59:46Z</time>
      </trkpt>
      <trkpt lat="40.7729" lon="-73.97132">
        <ele>28</ele>
        <time>2012-04-16T11:59:47Z</time>
      </trkpt>
      <trkpt lat="40.77288" lon="-73.97134">
        <ele>28</ele>
        <time>2012-04-16T11:59:48Z</time>
      </trkpt>
      <trkpt lat="40.77287" lon="-73.97134">
        <ele>28</ele>
        <time>2012-04-16T11:59:49Z</time>
      </trkpt>
      <trkpt lat="40.77285" lon="-73.97135">
        <ele>28</ele>
        <time>2012-04-16T11:59:50Z</time>
      </trkpt>
      <trkpt lat="40.77283" lon="-73.97136">
        <ele>28</ele>
        <time>2012-04-16T11:59:51Z</time>
      </trkpt>
      <trkpt lat="40.77281" lon="-73.97137">
        <ele>28</ele>
        <time>2012-04-16T11:59:52Z</time>
      </trkpt>
      <trkpt lat="40.7728" lon="-73.97137">
        <ele>28</ele>
        <time>2012-04-16T11:59:53Z</time>
      </trkpt>
      <trkpt lat="40.77279" lon="-73.97138">
        <ele>28</ele>
        <time>2012-04-16T11:59:54Z</time>
      </trkpt>
      <trkpt lat="40.77277" lon="-73.97138">
        <ele>28</ele>
        <time>2012-04-16T11:59:55Z</time>
      </trkpt>
      <trkpt lat="40.77275" lon="-73.97139">
        <ele>28</ele>
        <time>2012-04-16T11:59:56Z</time>
      </trkpt>
      <trkpt lat="40.77273" lon="-73.97141">
        <ele>28</ele>
        <time>2012-04-16T11:59:57Z</time>
      </trkpt>
      <trkpt lat="40.77271" lon="-73.97141">
        <ele>28</ele>
        <time>2012-04-16T11:59:58Z</time>
      </trkpt>
      <trkpt lat="40.7727" lon="-73.97142">
        <ele>28</ele>
        <time>2012-04-16T11:59:59Z</time>
      </trkpt>
      <trkpt lat="40.77268" lon="-73.97143">
        <ele>28</ele>
        <time>2012-04-16T12:00:00Z</time>
      </trkpt>
      <trkpt lat="40.77266" lon="-73.97144">
        <ele>28</ele>
        <time>2012-04-16T12:00:01Z</time>
      </trkpt>
      <trkpt lat="40.77264" lon="-73.97144">
        <ele>28</ele>
        <time>2012-04-16T12:00:02Z</time>
      </trkpt>
      <trkpt lat="40.77261" lon="-73.97144">
        <ele>28</ele>
        <time>2012-04-16T12:00:03Z</time>
      </trkpt>
      <trkpt lat="40.77259" lon="-73.97144">
        <ele>28</ele>
        <time>2012-04-16T12:00:04Z</time>
      </trkpt>
      <trkpt lat="40.77257" lon="-73.97146">
        <ele>29</ele>
        <time>2012-04-16T12:00:05Z</time>
      </trkpt>
      <trkpt lat="40.77256" lon="-73.97147">
        <ele>29</ele>
        <time>2012-04-16T12:00:06Z</time>
      </trkpt>
      <trkpt lat="40.77254" lon="-73.97147">
        <ele>29</ele>
        <time>2012-04-16T12:00:07Z</time>
      </trkpt>
      <trkpt lat="40.77251" lon="-73.97148">
        <ele>29</ele>
        <time>2012-04-16T12:00:08Z</time>
      </trkpt>
      <trkpt lat="40.7725" lon="-73.97149">
        <ele>30</ele>
        <time>2012-04-16T12:00:09Z</time>
      </trkpt>
      <trkpt lat="40.77247" lon="-73.9715">
        <ele>30</ele>
        <time>2012-04-16T12:00:10Z</time>
      </trkpt>
      <trkpt lat="40.77245" lon="-73.9715">
        <ele>30</ele>
        <time>2012-04-16T12:00:11Z</time>
      </trkpt>
      <trkpt lat="40.77243" lon="-73.97151">
        <ele>30</ele>
        <time>2012-04-16T12:00:12Z</time>
      </trkpt>
      <trkpt lat="40.77241" lon="-73.97151">
        <ele>30</ele>
        <time>2012-04-16T12:00:13Z</time>
      </trkpt>
      <trkpt lat="40.77239" lon="-73.97152">
        <ele>30</ele>
        <time>2012-04-16T12:00:14Z</time>
      </trkpt>
      <trkpt lat="40.77237" lon="-73.97153">
        <ele>30</ele>
        <time>2012-04-16T12:00:15Z</time>
      </trkpt>
      <trkpt lat="40.77235" lon="-73.97153">
        <ele>30</ele>
        <time>2012-04-16T12:00:16Z</time>
      </trkpt>
      <trkpt lat="40.77234" lon="-73.97153">
        <ele>30</ele>
        <time>2012-04-16T12:00:17Z</time>
      </trkpt>
      <trkpt lat="40.77232" lon="-73.97154">
        <ele>30</ele>
        <time>2012-04-16T12:00:18Z</time>
      </trkpt>
      <trkpt lat="40.7723" lon="-73.97155">
        <ele>30</ele>
        <time>2012-04-16T12:00:19Z</time>
      </trkpt>
      <trkpt lat="40.77228" lon="-73.97156">
        <ele>30</ele>
        <time>2012-04-16T12:00:20Z</time>
      </trkpt>
      <trkpt lat="40.77225" lon="-73.97157">
        <ele>30</ele>
        <time>2012-04-16T12:00:21Z</time>
      </trkpt>
      <trkpt lat="40.77223" lon="-73.97158">
        <ele>31</ele>
        <time>2012-04-16T12:00:22Z</time>
      </trkpt>
      <trkpt lat="40.77221" lon="-73.97159">
        <ele>31</ele>
        <time>2012-04-16T12:00:23Z</time>
      </trkpt>
      <trkpt lat="40.7722" lon="-73.9716">
        <ele>31</ele>
        <time>2012-04-16T12:00:24Z</time>
      </trkpt>
      <trkpt lat="40.77217" lon="-73.9716">
        <ele>31</ele>
        <time>2012-04-16T12:00:25Z</time>
      </trkpt>
      <trkpt lat="40.77215" lon="-73.97161">
        <ele>32</ele>
        <time>2012-04-16T12:00:26Z</time>
      </trkpt>
      <trkpt lat="40.77213" lon="-73.97162">
        <ele>32</ele>
        <time>2012-04-16T12:00:27Z</time>
      </trkpt>
      <trkpt lat="40.7721" lon="-73.97163">
        <ele>32</ele>
        <time>2012-04-16T12:00:28Z</time>
      </trkpt>
      <trkpt lat="40.77208" lon="-73.97164">
        <ele>32</ele>
        <time>2012-04-16T12:00:29Z</time>
      </trkpt>
      <trkpt lat="40.77205" lon="-73.97165">
        <ele>32</ele>
        <time>2012-04-16T12:00:30Z</time>
      </trkpt>
      <trkpt lat="40.77203" lon="-73.97166">
        <ele>32</ele>
        <time>2012-04-16T12:00:31Z</time>
      </trkpt>
      <trkpt lat="40.77201" lon="-73.97166">
        <ele>32</ele>
        <time>2012-04-16T12:00:32Z</time>
      </trkpt>
      <trkpt lat="40.77199" lon="-73.97167">
        <ele>32</ele>
        <time>2012-04-16T12:00:33Z</time>
      </trkpt>
      <trkpt lat="40.77197" lon="-73.97168">
        <ele>32</ele>
        <time>2012-04-16T12:00:34Z</time>
      </trkpt>
      <trkpt lat="40.77195" lon="-73.97169">
        <ele>32</ele>
        <time>2012-04-16T12:00:35Z</time>
      </trkpt>
      <trkpt lat="40.77193" lon="-73.97169">
        <ele>32</ele>
        <time>2012-04-16T12:00:36Z</time>
      </trkpt>
      <trkpt lat="40.77191" lon="-73.9717">
        <ele>32</ele>
        <time>2012-04-16T12:00:37Z</time>
      </trkpt>
      <trkpt lat="40.77188" lon="-73.97171">
        <ele>32</ele>
        <time>2012-04-16T12:00:38Z</time>
      </trkpt>
      <trkpt lat="40.77186" lon="-73.97172">
        <ele>32</ele>
        <time>2012-04-16T12:00:39Z</time>
      </trkpt>
      <trkpt lat="40.77183" lon="-73.97173">
        <ele>32</ele>
        <time>2012-04-16T12:00:40Z</time>
      </trkpt>
      <trkpt lat="40.77181" lon="-73.97173">
        <ele>32</ele>
        <time>2012-04-16T12:00:41Z</time>
      </trkpt>
      <trkpt lat="40.77179" lon="-73.97174">
        <ele>32</ele>
        <time>2012-04-16T12:00:42Z</time>
      </trkpt>
      <trkpt lat="40.77177" lon="-73.97176">
        <ele>32</ele>
        <time>2012-04-16T12:00:43Z</time>
      </trkpt>
      <trkpt lat="40.77174" lon="-73.97176">
        <ele>32</ele>
        <time>2012-04-16T12:00:44Z</time>
      </trkpt>
      <trkpt lat="40.77172" lon="-73.97177">
        <ele>32</ele>
        <time>2012-04-16T12:00:45Z</time>
      </trkpt>
      <trkpt lat="40.7717" lon="-73.97179">
        <ele>32</ele>
        <time>2012-04-16T12:00:46Z</time>
      </trkpt>
      <trkpt lat="40.77167" lon="-73.9718">
        <ele>32</ele>
        <time>2012-04-16T12:00:47Z</time>
      </trkpt>
      <trkpt lat="40.77165" lon="-73.97181">
        <ele>32</ele>
        <time>2012-04-16T12:00:48Z</time>
      </trkpt>
      <trkpt lat="40.77162" lon="-73.97182">
        <ele>32</ele>
        <time>2012-04-16T12:00:49Z</time>
      </trkpt>
      <trkpt lat="40.77159" lon="-73.97183">
        <ele>32</ele>
        <time>2012-04-16T12:00:50Z</time>
      </trkpt>
      <trkpt lat="40.77156" lon="-73.97185">
        <ele>32</ele>
        <time>2012-04-16T12:00:51Z</time>
      </trkpt>
      <trkpt lat="40.77154" lon="-73.97186">
        <ele>32</ele>
        <time>2012-04-16T12:00:52Z</time>
      </trkpt>
      <trkpt lat="40.77151" lon="-73.97187">
        <ele>32</ele>
        <time>2012-04-16T12:00:53Z</time>
      </trkpt>
      <trkpt lat="40.77149" lon="-73.97189">
        <ele>32</ele>
        <time>2012-04-16T12:00:54Z</time>
      </trkpt>
      <trkpt lat="40.77148" lon="-73.9719">
        <ele>32</ele>
        <time>2012-04-16T12:00:55Z</time>
      </trkpt>
      <trkpt lat="40.77145" lon="-73.97191">
        <ele>32</ele>
        <time>2012-04-16T12:00:56Z</time>
      </trkpt>
      <trkpt lat="40.77143" lon="-73.97192">
        <ele>32</ele>
        <time>2012-04-16T12:00:57Z</time>
      </trkpt>
      <trkpt lat="40.77142" lon="-73.97192">
        <ele>32</ele>
        <time>2012-04-16T12:00:58Z</time>
      </trkpt>
      <trkpt lat="40.7714" lon="-73.97192">
        <ele>32</ele>
        <time>2012-04-16T12:00:59Z</time>
      </trkpt>
      <trkpt lat="40.77137" lon="-73.97193">
        <ele>32</ele>
        <time>2012-04-16T12:01:00Z</time>
      </trkpt>
      <trkpt lat="40.77135" lon="-73.97195">
        <ele>32</ele>
        <time>2012-04-16T12:01:01Z</time>
      </trkpt>
      <trkpt lat="40.77133" lon="-73.97195">
        <ele>32</ele>
        <time>2012-04-16T12:01:02Z</time>
      </trkpt>
      <trkpt lat="40.77131" lon="-73.97195">
        <ele>32</ele>
        <time>2012-04-16T12:01:03Z</time>
      </trkpt>
      <trkpt lat="40.77129" lon="-73.97195">
        <ele>32</ele>
        <time>2012-04-16T12:01:04Z</time>
      </trkpt>
      <trkpt lat="40.77126" lon="-73.97195">
        <ele>32</ele>
        <time>2012-04-16T12:01:05Z</time>
      </trkpt>
      <trkpt lat="40.77125" lon="-73.97197">
        <ele>32</ele>
        <time>2012-04-16T12:01:06Z</time>
      </trkpt>
      <trkpt lat="40.77123" lon="-73.97197">
        <ele>32</ele>
        <time>2012-04-16T12:01:07Z</time>
      </trkpt>
      <trkpt lat="40.77121" lon="-73.97198">
        <ele>32</ele>
        <time>2012-04-16T12:01:08Z</time>
      </trkpt>
      <trkpt lat="40.77119" lon="-73.97198">
        <ele>32</ele>
        <time>2012-04-16T12:01:09Z</time>
      </trkpt>
      <trkpt lat="40.77116" lon="-73.97198">
        <ele>32</ele>
        <time>2012-04-16T12:01:10Z</time>
      </trkpt>
      <trkpt lat="40.77113" lon="-73.97199">
        <ele>32</ele>
        <time>2012-04-16T12:01:11Z</time>
      </trkpt>
      <trkpt lat="40.77111" lon="-73.97201">
        <ele>32</ele>
        <time>2012-04-16T12:01:12Z</time>
      </trkpt>
      <trkpt lat="40.77109" lon="-73.97202">
        <ele>32</ele>
        <time>2012-04-16T12:01:13Z</time>
      </trkpt>
      <trkpt lat="40.77107" lon="-73.97203">
        <ele>32</ele>
        <time>2012-04-16T12:01:14Z</time>
      </trkpt>
      <trkpt lat="40.77105" lon="-73.97204">
        <ele>32</ele>
        <time>2012-04-16T12:01:15Z</time>
      </trkpt>
      <trkpt lat="40.77103" lon="-73.97205">
        <ele>32</ele>
        <time>2012-04-16T12:01:16Z</time>
      </trkpt>
      <trkpt lat="40.771" lon="-73.97206">
        <ele>32</ele>
        <time>2012-04-16T12:01:17Z</time>
      </trkpt>
      <trkpt lat="40.77098" lon="-73.97208">
        <ele>32</ele>
        <time>2012-04-16T12:01:18Z</time>
      </trkpt>
      <trkpt lat="40.77096" lon="-73.97209">
        <ele>32</ele>
        <time>2012-04-16T12:01:19Z</time>
      </trkpt>
      <trkpt lat="40.77094" lon="-73.97211">
        <ele>32</ele>
        <time>2012-04-16T12:01:20Z</time>
      </trkpt>
      <trkpt lat="40.77092" lon="-73.97212">
        <ele>32</ele>
        <time>2012-04-16T12:01:21Z</time>
      </trkpt>
      <trkpt lat="40.77089" lon="-73.97213">
        <ele>32</ele>
        <time>2012-04-16T12:01:22Z</time>
      </trkpt>
      <trkpt lat="40.77087" lon="-73.97214">
        <ele>32</ele>
        <time>2012-04-16T12:01:23Z</time>
      </trkpt>
      <trkpt lat="40.77084" lon="-73.97215">
        <ele>32</ele>
        <time>2012-04-16T12:01:24Z</time>
      </trkpt>
      <trkpt lat="40.77082" lon="-73.97215">
        <ele>32</ele>
        <time>2012-04-16T12:01:25Z</time>
      </trkpt>
      <trkpt lat="40.77079" lon="-73.97216">
        <ele>32</ele>
        <time>2012-04-16T12:01:26Z</time>
      </trkpt>
      <trkpt lat="40.77077" lon="-73.97217">
        <ele>32</ele>
        <time>2012-04-16T12:01:27Z</time>
      </trkpt>
      <trkpt lat="40.77075" lon="-73.97218">
        <ele>32</ele>
        <time>2012-04-16T12:01:28Z</time>
      </trkpt>
      <trkpt lat="40.77072" lon="-73.97218">
        <ele>32</ele>
        <time>2012-04-16T12:01:29Z</time>
      </trkpt>
      <trkpt lat="40.77069" lon="-73.97218">
        <ele>32</ele>
        <time>2012-04-16T12:01:30Z</time>
      </trkpt>
      <trkpt lat="40.77067" lon="-73.97218">
        <ele>32</ele>
        <time>2012-04-16T12:01:31Z</time>
      </trkpt>
      <trkpt lat="40.77065" lon="-73.9722">
        <ele>32</ele>
        <time>2012-04-16T12:01:32Z</time>
      </trkpt>
      <trkpt lat="40.77063" lon="-73.97221">
        <ele>32</ele>
        <time>2012-04-16T12:01:33Z</time>
      </trkpt>
      <trkpt lat="40.77061" lon="-73.97222">
        <ele>32</ele>
        <time>2012-04-16T12:01:34Z</time>
      </trkpt>
      <trkpt lat="40.77059" lon="-73.97223">
        <ele>32</ele>
        <time>2012-04-16T12:01:35Z</time>
      </trkpt>
      <trkpt lat="40.77057" lon="-73.97224">
        <ele>32</ele>
        <time>2012-04-16T12:01:36Z</time>
      </trkpt>
      <trkpt lat="40.77055" lon="-73.97224">
        <ele>32</ele>
        <time>2012-04-16T12:01:37Z</time>
      </trkpt>
      <trkpt lat="40.77053" lon="-73.97226">
        <ele>32</ele>
        <time>2012-04-16T12:01:38Z</time>
      </trkpt>
      <trkpt lat="40.77051" lon="-73.97227">
        <ele>32</ele>
        <time>2012-04-16T12:01:39Z</time>
      </trkpt>
      <trkpt lat="40.77049" lon="-73.97228">
        <ele>32</ele>
        <time>2012-04-16T12:01:40Z</time>
      </trkpt>
      <trkpt lat="40.77046" lon="-73.97229">
        <ele>32</ele>
        <time>2012-04-16T12:01:41Z</time>
      </trkpt>
      <trkpt lat="40.77043" lon="-73.97231">
        <ele>32</ele>
        <time>2012-04-16T12:01:42Z</time>
      </trkpt>
      <trkpt lat="40.7704" lon="-73.97231">
        <ele>32</ele>
        <time>2012-04-16T12:01:43Z</time>
      </trkpt>
      <trkpt lat="40.77038" lon="-73.97231">
        <ele>32</ele>
        <time>2012-04-16T12:01:44Z</time>
      </trkpt>
      <trkpt lat="40.77036" lon="-73.97233">
        <ele>32</ele>
        <time>2012-04-16T12:01:45Z</time>
      </trkpt>
      <trkpt lat="40.77033" lon="-73.97233">
        <ele>32</ele>
        <time>2012-04-16T12:01:46Z</time>
      </trkpt>
      <trkpt lat="40.7703" lon="-73.97234">
        <ele>32</ele>
        <time>2012-04-16T12:01:47Z</time>
      </trkpt>
      <trkpt lat="40.77028" lon="-73.97235">
        <ele>32</ele>
        <time>2012-04-16T12:01:48Z</time>
      </trkpt>
      <trkpt lat="40.77026" lon="-73.97237">
        <ele>32</ele>
        <time>2012-04-16T12:01:49Z</time>
      </trkpt>
      <trkpt lat="40.77024" lon="-73.97237">
        <ele>32</ele>
        <time>2012-04-16T12:01:50Z</time>
      </trkpt>
      <trkpt lat="40.77022" lon="-73.97238">
        <ele>32</ele>
        <time>2012-04-16T12:01:51Z</time>
      </trkpt>
      <trkpt lat="40.7702" lon="-73.9724">
        <ele>32</ele>
        <time>2012-04-16T12:01:52Z</time>
      </trkpt>
      <trkpt lat="40.77017" lon="-73.9724">
        <ele>32</ele>
        <time>2012-04-16T12:01:53Z</time>
      </trkpt>
      <trkpt lat="40.77015" lon="-73.97241">
        <ele>32</ele>
        <time>2012-04-16T12:01:54Z</time>
      </trkpt>
      <trkpt lat="40.77013" lon="-73.97243">
        <ele>32</ele>
        <time>2012-04-16T12:01:55Z</time>
      </trkpt>
      <trkpt lat="40.77012" lon="-73.97243">
        <ele>32</ele>
        <time>2012-04-16T12:01:56Z</time>
      </trkpt>
      <trkpt lat="40.7701" lon="-73.97246">
        <ele>32</ele>
        <time>2012-04-16T12:01:57Z</time>
      </trkpt>
      <trkpt lat="40.77009" lon="-73.97247">
        <ele>32</ele>
        <time>2012-04-16T12:01:58Z</time>
      </trkpt>
      <trkpt lat="40.77008" lon="-73.97247">
        <ele>32</ele>
        <time>2012-04-16T12:01:59Z</time>
      </trkpt>
      <trkpt lat="40.77006" lon="-73.97248">
        <ele>32</ele>
        <time>2012-04-16T12:02:00Z</time>
      </trkpt>
      <trkpt lat="40.77004" lon="-73.97249">
        <ele>32</ele>
        <time>2012-04-16T12:02:01Z</time>
      </trkpt>
      <trkpt lat="40.77003" lon="-73.9725">
        <ele>32</ele>
        <time>2012-04-16T12:02:02Z</time>
      </trkpt>
      <trkpt lat="40.77001" lon="-73.9725">
        <ele>32</ele>
        <time>2012-04-16T12:02:03Z</time>
      </trkpt>
      <trkpt lat="40.76999" lon="-73.9725">
        <ele>33</ele>
        <time>2012-04-16T12:02:04Z</time>
      </trkpt>
      <trkpt lat="40.76998" lon="-73.97252">
        <ele>33</ele>
        <time>2012-04-16T12:02:05Z</time>
      </trkpt>
      <trkpt lat="40.76997" lon="-73.97253">
        <ele>33</ele>
        <time>2012-04-16T12:02:06Z</time>
      </trkpt>
      <trkpt lat="40.76996" lon="-73.97255">
        <ele>33</ele>
        <time>2012-04-16T12:02:07Z</time>
      </trkpt>
      <trkpt lat="40.76994" lon="-73.97257">
        <ele>33</ele>
        <time>2012-04-16T12:02:08Z</time>
      </trkpt>
      <trkpt lat="40.76993" lon="-73.9726">
        <ele>33</ele>
        <time>2012-04-16T12:02:09Z</time>
      </trkpt>
      <trkpt lat="40.76992" lon="-73.97261">
        <ele>33</ele>
        <time>2012-04-16T12:02:10Z</time>
      </trkpt>
      <trkpt lat="40.7699" lon="-73.97263">
        <ele>33</ele>
        <time>2012-04-16T12:02:11Z</time>
      </trkpt>
      <trkpt lat="40.76988" lon="-73.97264">
        <ele>33</ele>
        <time>2012-04-16T12:02:12Z</time>
      </trkpt>
      <trkpt lat="40.76986" lon="-73.97266">
        <ele>33</ele>
        <time>2012-04-16T12:02:13Z</time>
      </trkpt>
      <trkpt lat="40.76985" lon="-73.97267">
        <ele>33</ele>
        <time>2012-04-16T12:02:14Z</time>
      </trkpt>
      <trkpt lat="40.76985" lon="-73.9727">
        <ele>33</ele>
        <time>2012-04-16T12:02:15Z</time>
      </trkpt>
      <trkpt lat="40.76984" lon="-73.97272">
        <ele>33</ele>
        <time>2012-04-16T12:02:16Z</time>
      </trkpt>
      <trkpt lat="40.76984" lon="-73.97276">
        <ele>33</ele>
        <time>2012-04-16T12:02:17Z</time>
      </trkpt>
      <trkpt lat="40.76983" lon="-73.97278">
        <ele>33</ele>
        <time>2012-04-16T12:02:18Z</time>
      </trkpt>
      <trkpt lat="40.76982" lon="-73.97281">
        <ele>33</ele>
        <time>2012-04-16T12:02:19Z</time>
      </trkpt>
      <trkpt lat="40.76982" lon="-73.97283">
        <ele>33</ele>
        <time>2012-04-16T12:02:20Z</time>
      </trkpt>
      <trkpt lat="40.76981" lon="-73.97285">
        <ele>33</ele>
        <time>2012-04-16T12:02:21Z</time>
      </trkpt>
      <trkpt lat="40.76981" lon="-73.97289">
        <ele>33</ele>
        <time>2012-04-16T12:02:22Z</time>
      </trkpt>
      <trkpt lat="40.7698" lon="-73.97291">
        <ele>33</ele>
        <time>2012-04-16T12:02:23Z</time>
      </trkpt>
      <trkpt lat="40.7698" lon="-73.97294">
        <ele>33</ele>
        <time>2012-04-16T12:02:24Z</time>
      </trkpt>
      <trkpt lat="40.76981" lon="-73.97297">
        <ele>33</ele>
        <time>2012-04-16T12:02:25Z</time>
      </trkpt>
      <trkpt lat="40.76981" lon="-73.973">
        <ele>33</ele>
        <time>2012-04-16T12:02:26Z</time>
      </trkpt>
      <trkpt lat="40.76981" lon="-73.97303">
        <ele>33</ele>
        <time>2012-04-16T12:02:27Z</time>
      </trkpt>
      <trkpt lat="40.76981" lon="-73.97306">
        <ele>33</ele>
        <time>2012-04-16T12:02:28Z</time>
      </trkpt>
      <trkpt lat="40.76981" lon="-73.97308">
        <ele>33</ele>
        <time>2012-04-16T12:02:29Z</time>
      </trkpt>
      <trkpt lat="40.76982" lon="-73.97312">
        <ele>33</ele>
        <time>2012-04-16T12:02:30Z</time>
      </trkpt>
      <trkpt lat="40.76984" lon="-73.97315">
        <ele>33</ele>
        <time>2012-04-16T12:02:31Z</time>
      </trkpt>
      <trkpt lat="40.76985" lon="-73.97318">
        <ele>33</ele>
        <time>2012-04-16T12:02:32Z</time>
      </trkpt>
      <trkpt lat="40.76987" lon="-73.97322">
        <ele>33</ele>
        <time>2012-04-16T12:02:33Z</time>
      </trkpt>
      <trkpt lat="40.76989" lon="-73.97325">
        <ele>33</ele>
        <time>2012-04-16T12:02:34Z</time>
      </trkpt>
      <trkpt lat="40.76991" lon="-73.97328">
        <ele>34</ele>
        <time>2012-04-16T12:02:35Z</time>
      </trkpt>
      <trkpt lat="40.76992" lon="-73.97332">
        <ele>35</ele>
        <time>2012-04-16T12:02:36Z</time>
      </trkpt>
      <trkpt lat="40.76993" lon="-73.97334">
        <ele>36</ele>
        <time>2012-04-16T12:02:37Z</time>
      </trkpt>
      <trkpt lat="40.76994" lon="-73.97337">
        <ele>37</ele>
        <time>2012-04-16T12:02:38Z</time>
      </trkpt>
      <trkpt lat="40.76995" lon="-73.9734">
        <ele>37</ele>
        <time>2012-04-16T12:02:39Z</time>
      </trkpt>
      <trkpt lat="40.76996" lon="-73.97343">
        <ele>37</ele>
        <time>2012-04-16T12:02:40Z</time>
      </trkpt>
      <trkpt lat="40.76997" lon="-73.97345">
        <ele>37</ele>
        <time>2012-04-16T12:02:41Z</time>
      </trkpt>
      <trkpt lat="40.76998" lon="-73.97347">
        <ele>37</ele>
        <time>2012-04-16T12:02:42Z</time>
      </trkpt>
      <trkpt lat="40.76999" lon="-73.9735">
        <ele>37</ele>
        <time>2012-04-16T12:02:43Z</time>
      </trkpt>
      <trkpt lat="40.76999" lon="-73.97352">
        <ele>37</ele>
        <time>2012-04-16T12:02:44Z</time>
      </trkpt>
      <trkpt lat="40.77" lon="-73.97356">
        <ele>37</ele>
        <time>2012-04-16T12:02:45Z</time>
      </trkpt>
      <trkpt lat="40.77" lon="-73.97358">
        <ele>37</ele>
        <time>2012-04-16T12:02:46Z</time>
      </trkpt>
      <trkpt lat="40.77001" lon="-73.97361">
        <ele>37</ele>
        <time>2012-04-16T12:02:47Z</time>
      </trkpt>
      <trkpt lat="40.77001" lon="-73.97363">
        <ele>37</ele>
        <time>2012-04-16T12:02:48Z</time>
      </trkpt>
      <trkpt lat="40.77" lon="-73.97366">
        <ele>37</ele>
        <time>2012-04-16T12:02:49Z</time>
      </trkpt>
      <trkpt lat="40.77" lon="-73.97369">
        <ele>37</ele>
        <time>2012-04-16T12:02:50Z</time>
      </trkpt>
      <trkpt lat="40.77001" lon="-73.97372">
        <ele>37</ele>
        <time>2012-04-16T12:02:51Z</time>
      </trkpt>
      <trkpt lat="40.77002" lon="-73.97375">
        <ele>37</ele>
        <time>2012-04-16T12:02:52Z</time>
      </trkpt>
      <trkpt lat="40.77002" lon="-73.97379">
        <ele>37</ele>
        <time>2012-04-16T12:02:53Z</time>
      </trkpt>
      <trkpt lat="40.77002" lon="-73.97382">
        <ele>37</ele>
        <time>2012-04-16T12:02:54Z</time>
      </trkpt>
      <trkpt lat="40.77001" lon="-73.97385">
        <ele>37</ele>
        <time>2012-04-16T12:02:55Z</time>
      </trkpt>
      <trkpt lat="40.77001" lon="-73.97387">
        <ele>37</ele>
        <time>2012-04-16T12:02:56Z</time>
      </trkpt>
      <trkpt lat="40.77" lon="-73.97389">
        <ele>37</ele>
        <time>2012-04-16T12:02:57Z</time>
      </trkpt>
      <trkpt lat="40.77" lon="-73.97392">
        <ele>37</ele>
        <time>2012-04-16T12:02:58Z</time>
      </trkpt>
      <trkpt lat="40.76999" lon="-73.97395">
        <ele>37</ele>
        <time>2012-04-16T12:02:59Z</time>
      </trkpt>
      <trkpt lat="40.76998" lon="-73.97399">
        <ele>37</ele>
        <time>2012-04-16T12:03:00Z</time>
      </trkpt>
      <trkpt lat="40.76997" lon="-73.97402">
        <ele>37</ele>
        <time>2012-04-16T12:03:01Z</time>
      </trkpt>
      <trkpt lat="40.76998" lon="-73.97405">
        <ele>37</ele>
        <time>2012-04-16T12:03:02Z</time>
      </trkpt>
      <trkpt lat="40.76997" lon="-73.97409">
        <ele>37</ele>
        <time>2012-04-16T12:03:03Z</time>
      </trkpt>
      <trkpt lat="40.76996" lon="-73.97412">
        <ele>37</ele>
        <time>2012-04-16T12:03:04Z</time>
      </trkpt>
      <trkpt lat="40.76995" lon="-73.97415">
        <ele>36</ele>
        <time>2012-04-16T12:03:05Z</time>
      </trkpt>
      <trkpt lat="40.76994" lon="-73.97418">
        <ele>36</ele>
        <time>2012-04-16T12:03:06Z</time>
      </trkpt>
      <trkpt lat="40.76993" lon="-73.97421">
        <ele>35</ele>
        <time>2012-04-16T12:03:07Z</time>
      </trkpt>
      <trkpt lat="40.76993" lon="-73.97425">
        <ele>35</ele>
        <time>2012-04-16T12:03:08Z</time>
      </trkpt>
      <trkpt lat="40.76992" lon="-73.97428">
        <ele>34</ele>
        <time>2012-04-16T12:03:09Z</time>
      </trkpt>
      <trkpt lat="40.76991" lon="-73.97431">
        <ele>34</ele>
        <time>2012-04-16T12:03:10Z</time>
      </trkpt>
      <trkpt lat="40.7699" lon="-73.97433">
        <ele>33</ele>
        <time>2012-04-16T12:03:11Z</time>
      </trkpt>
      <trkpt lat="40.76989" lon="-73.97437">
        <ele>33</ele>
        <time>2012-04-16T12:03:12Z</time>
      </trkpt>
      <trkpt lat="40.76989" lon="-73.9744">
        <ele>33</ele>
        <time>2012-04-16T12:03:13Z</time>
      </trkpt>
      <trkpt lat="40.76988" lon="-73.97443">
        <ele>32</ele>
        <time>2012-04-16T12:03:14Z</time>
      </trkpt>
      <trkpt lat="40.76988" lon="-73.97447">
        <ele>32</ele>
        <time>2012-04-16T12:03:15Z</time>
      </trkpt>
      <trkpt lat="40.76987" lon="-73.97451">
        <ele>31</ele>
        <time>2012-04-16T12:03:16Z</time>
      </trkpt>
      <trkpt lat="40.76986" lon="-73.97454">
        <ele>31</ele>
        <time>2012-04-16T12:03:17Z</time>
      </trkpt>
      <trkpt lat="40.76985" lon="-73.97457">
        <ele>31</ele>
        <time>2012-04-16T12:03:18Z</time>
      </trkpt>
      <trkpt lat="40.76984" lon="-73.9746">
        <ele>30</ele>
        <time>2012-04-16T12:03:19Z</time>
      </trkpt>
      <trkpt lat="40.76982" lon="-73.97462">
        <ele>30</ele>
        <time>2012-04-16T12:03:20Z</time>
      </trkpt>
      <trkpt lat="40.76981" lon="-73.97466">
        <ele>30</ele>
        <time>2012-04-16T12:03:21Z</time>
      </trkpt>
      <trkpt lat="40.76981" lon="-73.97469">
        <ele>29</ele>
        <time>2012-04-16T12:03:22Z</time>
      </trkpt>
      <trkpt lat="40.76981" lon="-73.97472">
        <ele>29</ele>
        <time>2012-04-16T12:03:23Z</time>
      </trkpt>
      <trkpt lat="40.76981" lon="-73.97475">
        <ele>29</ele>
        <time>2012-04-16T12:03:24Z</time>
      </trkpt>
      <trkpt lat="40.76981" lon="-73.97477">
        <ele>28</ele>
        <time>2012-04-16T12:03:25Z</time>
      </trkpt>
      <trkpt lat="40.7698" lon="-73.9748">
        <ele>28</ele>
        <time>2012-04-16T12:03:26Z</time>
      </trkpt>
      <trkpt lat="40.7698" lon="-73.97483">
        <ele>28</ele>
        <time>2012-04-16T12:03:27Z</time>
      </trkpt>
      <trkpt lat="40.76979" lon="-73.97486">
        <ele>27</ele>
        <time>2012-04-16T12:03:28Z</time>
      </trkpt>
      <trkpt lat="40.76979" lon="-73.97489">
        <ele>27</ele>
        <time>2012-04-16T12:03:29Z</time>
      </trkpt>
      <trkpt lat="40.7698" lon="-73.97493">
        <ele>27</ele>
        <time>2012-04-16T12:03:30Z</time>
      </trkpt>
      <trkpt lat="40.7698" lon="-73.97496">
        <ele>26</ele>
        <time>2012-04-16T12:03:31Z</time>
      </trkpt>
      <trkpt lat="40.76981" lon="-73.97499">
        <ele>26</ele>
        <time>2012-04-16T12:03:32Z</time>
      </trkpt>
      <trkpt lat="40.76981" lon="-73.97503">
        <ele>25</ele>
        <time>2012-04-16T12:03:33Z</time>
      </trkpt>
      <trkpt lat="40.76981" lon="-73.97507">
        <ele>24</ele>
        <time>2012-04-16T12:03:34Z</time>
      </trkpt>
      <trkpt lat="40.7698" lon="-73.97511">
        <ele>24</ele>
        <time>2012-04-16T12:03:35Z</time>
      </trkpt>
      <trkpt lat="40.76979" lon="-73.97514">
        <ele>23</ele>
        <time>2012-04-16T12:03:36Z</time>
      </trkpt>
      <trkpt lat="40.76977" lon="-73.97517">
        <ele>22</ele>
        <time>2012-04-16T12:03:37Z</time>
      </trkpt>
      <trkpt lat="40.76976" lon="-73.9752">
        <ele>22</ele>
        <time>2012-04-16T12:03:38Z</time>
      </trkpt>
      <trkpt lat="40.76975" lon="-73.97523">
        <ele>21</ele>
        <time>2012-04-16T12:03:39Z</time>
      </trkpt>
      <trkpt lat="40.76973" lon="-73.97526">
        <ele>21</ele>
        <time>2012-04-16T12:03:40Z</time>
      </trkpt>
      <trkpt lat="40.76972" lon="-73.97529">
        <ele>20</ele>
        <time>2012-04-16T12:03:41Z</time>
      </trkpt>
      <trkpt lat="40.76971" lon="-73.97531">
        <ele>20</ele>
        <time>2012-04-16T12:03:42Z</time>
      </trkpt>
      <trkpt lat="40.76969" lon="-73.97534">
        <ele>20</ele>
        <time>2012-04-16T12:03:43Z</time>
      </trkpt>
      <trkpt lat="40.76967" lon="-73.97536">
        <ele>20</ele>
        <time>2012-04-16T12:03:44Z</time>
      </trkpt>
      <trkpt lat="40.76966" lon="-73.97538">
        <ele>19</ele>
        <time>2012-04-16T12:03:45Z</time>
      </trkpt>
      <trkpt lat="40.76963" lon="-73.9754">
        <ele>19</ele>
        <time>2012-04-16T12:03:46Z</time>
      </trkpt>
      <trkpt lat="40.76961" lon="-73.97541">
        <ele>19</ele>
        <time>2012-04-16T12:03:47Z</time>
      </trkpt>
      <trkpt lat="40.76958" lon="-73.97543">
        <ele>18</ele>
        <time>2012-04-16T12:03:48Z</time>
      </trkpt>
      <trkpt lat="40.76956" lon="-73.97544">
        <ele>18</ele>
        <time>2012-04-16T12:03:49Z</time>
      </trkpt>
      <trkpt lat="40.76954" lon="-73.97546">
        <ele>18</ele>
        <time>2012-04-16T12:03:50Z</time>
      </trkpt>
      <trkpt lat="40.76952" lon="-73.97547">
        <ele>18</ele>
        <time>2012-04-16T12:03:51Z</time>
      </trkpt>
      <trkpt lat="40.7695" lon="-73.97549">
        <ele>18</ele>
        <time>2012-04-16T12:03:52Z</time>
      </trkpt>
      <trkpt lat="40.76947" lon="-73.9755">
        <ele>18</ele>
        <time>2012-04-16T12:03:53Z</time>
      </trkpt>
      <trkpt lat="40.76945" lon="-73.97552">
        <ele>18</ele>
        <time>2012-04-16T12:03:54Z</time>
      </trkpt>
      <trkpt lat="40.76943" lon="-73.97553">
        <ele>18</ele>
        <time>2012-04-16T12:03:55Z</time>
      </trkpt>
      <trkpt lat="40.76941" lon="-73.97555">
        <ele>18</ele>
        <time>2012-04-16T12:03:56Z</time>
      </trkpt>
      <trkpt lat="40.76939" lon="-73.97556">
        <ele>18</ele>
        <time>2012-04-16T12:03:57Z</time>
      </trkpt>
      <trkpt lat="40.76937" lon="-73.97557">
        <ele>18</ele>
        <time>2012-04-16T12:03:58Z</time>
      </trkpt>
      <trkpt lat="40.76935" lon="-73.97559">
        <ele>18</ele>
        <time>2012-04-16T12:03:59Z</time>
      </trkpt>
      <trkpt lat="40.76933" lon="-73.9756">
        <ele>18</ele>
        <time>2012-04-16T12:04:00Z</time>
      </trkpt>
      <trkpt lat="40.76931" lon="-73.97561">
        <ele>18</ele>
        <time>2012-04-16T12:04:01Z</time>
      </trkpt>
      <trkpt lat="40.76929" lon="-73.97562">
        <ele>18</ele>
        <time>2012-04-16T12:04:02Z</time>
      </trkpt>
      <trkpt lat="40.76927" lon="-73.97563">
        <ele>18</ele>
        <time>2012-04-16T12:04:03Z</time>
      </trkpt>
      <trkpt lat="40.76924" lon="-73.97564">
        <ele>18</ele>
        <time>2012-04-16T12:04:04Z</time>
      </trkpt>
      <trkpt lat="40.76921" lon="-73.97565">
        <ele>18</ele>
        <time>2012-04-16T12:04:05Z</time>
      </trkpt>
      <trkpt lat="40.76919" lon="-73.97567">
        <ele>18</ele>
        <time>2012-04-16T12:04:06Z</time>
      </trkpt>
      <trkpt lat="40.76917" lon="-73.97569">
        <ele>18</ele>
        <time>2012-04-16T12:04:07Z</time>
      </trkpt>
      <trkpt lat="40.76915" lon="-73.97571">
        <ele>19</ele>
        <time>2012-04-16T12:04:08Z</time>
      </trkpt>
      <trkpt lat="40.76914" lon="-73.97573">
        <ele>19</ele>
        <time>2012-04-16T12:04:09Z</time>
      </trkpt>
      <trkpt lat="40.76913" lon="-73.97575">
        <ele>19</ele>
        <time>2012-04-16T12:04:10Z</time>
      </trkpt>
      <trkpt lat="40.76912" lon="-73.97578">
        <ele>19</ele>
        <time>2012-04-16T12:04:11Z</time>
      </trkpt>
      <trkpt lat="40.7691" lon="-73.97581">
        <ele>20</ele>
        <time>2012-04-16T12:04:12Z</time>
      </trkpt>
      <trkpt lat="40.76909" lon="-73.97583">
        <ele>20</ele>
        <time>2012-04-16T12:04:13Z</time>
      </trkpt>
      <trkpt lat="40.76907" lon="-73.97587">
        <ele>20</ele>
        <time>2012-04-16T12:04:14Z</time>
      </trkpt>
      <trkpt lat="40.76906" lon="-73.9759">
        <ele>20</ele>
        <time>2012-04-16T12:04:15Z</time>
      </trkpt>
      <trkpt lat="40.76905" lon="-73.97592">
        <ele>20</ele>
        <time>2012-04-16T12:04:16Z</time>
      </trkpt>
      <trkpt lat="40.76903" lon="-73.97594">
        <ele>20</ele>
        <time>2012-04-16T12:04:17Z</time>
      </trkpt>
      <trkpt lat="40.76901" lon="-73.97597">
        <ele>20</ele>
        <time>2012-04-16T12:04:18Z</time>
      </trkpt>
      <trkpt lat="40.76899" lon="-73.97599">
        <ele>20</ele>
        <time>2012-04-16T12:04:19Z</time>
      </trkpt>
      <trkpt lat="40.76897" lon="-73.97601">
        <ele>20</ele>
        <time>2012-04-16T12:04:20Z</time>
      </trkpt>
      <trkpt lat="40.76896" lon="-73.97603">
        <ele>20</ele>
        <time>2012-04-16T12:04:21Z</time>
      </trkpt>
      <trkpt lat="40.76894" lon="-73.97605">
        <ele>20</ele>
        <time>2012-04-16T12:04:22Z</time>
      </trkpt>
      <trkpt lat="40.76893" lon="-73.97607">
        <ele>20</ele>
        <time>2012-04-16T12:04:23Z</time>
      </trkpt>
      <trkpt lat="40.76891" lon="-73.9761">
        <ele>20</ele>
        <time>2012-04-16T12:04:24Z</time>
      </trkpt>
      <trkpt lat="40.7689" lon="-73.97612">
        <ele>20</ele>
        <time>2012-04-16T12:04:25Z</time>
      </trkpt>
      <trkpt lat="40.76889" lon="-73.97614">
        <ele>20</ele>
        <time>2012-04-16T12:04:26Z</time>
      </trkpt>
      <trkpt lat="40.76887" lon="-73.97617">
        <ele>20</ele>
        <time>2012-04-16T12:04:27Z</time>
      </trkpt>
      <trkpt lat="40.76886" lon="-73.97618">
        <ele>20</ele>
        <time>2012-04-16T12:04:28Z</time>
      </trkpt>
      <trkpt lat="40.76884" lon="-73.9762">
        <ele>20</ele>
        <time>2012-04-16T12:04:29Z</time>
      </trkpt>
      <trkpt lat="40.76883" lon="-73.97623">
        <ele>20</ele>
        <time>2012-04-16T12:04:30Z</time>
      </trkpt>
      <trkpt lat="40.76883" lon="-73.97625">
        <ele>20</ele>
        <time>2012-04-16T12:04:31Z</time>
      </trkpt>
      <trkpt lat="40.76881" lon="-73.97627">
        <ele>20</ele>
        <time>2012-04-16T12:04:32Z</time>
      </trkpt>
      <trkpt lat="40.7688" lon="-73.9763">
        <ele>20</ele>
        <time>2012-04-16T12:04:33Z</time>
      </trkpt>
      <trkpt lat="40.76879" lon="-73.9763">
        <ele>20</ele>
        <time>2012-04-16T12:04:34Z</time>
      </trkpt>
      <trkpt lat="40.76876" lon="-73.97632">
        <ele>20</ele>
        <time>2012-04-16T12:04:35Z</time>
      </trkpt>
      <trkpt lat="40.76874" lon="-73.97633">
        <ele>20</ele>
        <time>2012-04-16T12:04:36Z</time>
      </trkpt>
      <trkpt lat="40.76872" lon="-73.97634">
        <ele>20</ele>
        <time>2012-04-16T12:04:37Z</time>
      </trkpt>
      <trkpt lat="40.7687" lon="-73.97635">
        <ele>20</ele>
        <time>2012-04-16T12:04:38Z</time>
      </trkpt>
      <trkpt lat="40.76869" lon="-73.97636">
        <ele>20</ele>
        <time>2012-04-16T12:04:39Z</time>
      </trkpt>
      <trkpt lat="40.76866" lon="-73.97636">
        <ele>20</ele>
        <time>2012-04-16T12:04:40Z</time>
      </trkpt>
      <trkpt lat="40.76864" lon="-73.97637">
        <ele>20</ele>
        <time>2012-04-16T12:04:41Z</time>
      </trkpt>
      <trkpt lat="40.76862" lon="-73.97639">
        <ele>20</ele>
        <time>2012-04-16T12:04:42Z</time>
      </trkpt>
      <trkpt lat="40.7686" lon="-73.9764">
        <ele>20</ele>
        <time>2012-04-16T12:04:43Z</time>
      </trkpt>
      <trkpt lat="40.76858" lon="-73.97643">
        <ele>20</ele>
        <time>2012-04-16T12:04:44Z</time>
      </trkpt>
      <trkpt lat="40.76857" lon="-73.97645">
        <ele>20</ele>
        <time>2012-04-16T12:04:45Z</time>
      </trkpt>
      <trkpt lat="40.76855" lon="-73.97647">
        <ele>20</ele>
        <time>2012-04-16T12:04:46Z</time>
      </trkpt>
      <trkpt lat="40.76854" lon="-73.9765">
        <ele>20</ele>
        <time>2012-04-16T12:04:47Z</time>
      </trkpt>
      <trkpt lat="40.76852" lon="-73.97652">
        <ele>20</ele>
        <time>2012-04-16T12:04:48Z</time>
      </trkpt>
      <trkpt lat="40.76851" lon="-73.97654">
        <ele>20</ele>
        <time>2012-04-16T12:04:49Z</time>
      </trkpt>
      <trkpt lat="40.76849" lon="-73.97656">
        <ele>20</ele>
        <time>2012-04-16T12:04:50Z</time>
      </trkpt>
      <trkpt lat="40.76848" lon="-73.97659">
        <ele>20</ele>
        <time>2012-04-16T12:04:51Z</time>
      </trkpt>
      <trkpt lat="40.76846" lon="-73.97661">
        <ele>20</ele>
        <time>2012-04-16T12:04:52Z</time>
      </trkpt>
      <trkpt lat="40.76844" lon="-73.97662">
        <ele>20</ele>
        <time>2012-04-16T12:04:53Z</time>
      </trkpt>
      <trkpt lat="40.76842" lon="-73.97664">
        <ele>20</ele>
        <time>2012-04-16T12:04:54Z</time>
      </trkpt>
      <trkpt lat="40.76841" lon="-73.97666">
        <ele>20</ele>
        <time>2012-04-16T12:04:55Z</time>
      </trkpt>
      <trkpt lat="40.76839" lon="-73.97668">
        <ele>20</ele>
        <time>2012-04-16T12:04:56Z</time>
      </trkpt>
      <trkpt lat="40.76837" lon="-73.9767">
        <ele>21</ele>
        <time>2012-04-16T12:04:57Z</time>
      </trkpt>
      <trkpt lat="40.76836" lon="-73.97673">
        <ele>21</ele>
        <time>2012-04-16T12:04:58Z</time>
      </trkpt>
      <trkpt lat="40.76834" lon="-73.97675">
        <ele>21</ele>
        <time>2012-04-16T12:04:59Z</time>
      </trkpt>
      <trkpt lat="40.76833" lon="-73.97677">
        <ele>21</ele>
        <time>2012-04-16T12:05:00Z</time>
      </trkpt>
      <trkpt lat="40.76832" lon="-73.97679">
        <ele>21</ele>
        <time>2012-04-16T12:05:01Z</time>
      </trkpt>
      <trkpt lat="40.7683" lon="-73.97681">
        <ele>21</ele>
        <time>2012-04-16T12:05:02Z</time>
      </trkpt>
      <trkpt lat="40.76828" lon="-73.97683">
        <ele>21</ele>
        <time>2012-04-16T12:05:03Z</time>
      </trkpt>
      <trkpt lat="40.76827" lon="-73.97684">
        <ele>21</ele>
        <time>2012-04-16T12:05:04Z</time>
      </trkpt>
      <trkpt lat="40.76826" lon="-73.97688">
        <ele>21</ele>
        <time>2012-04-16T12:05:05Z</time>
      </trkpt>
      <trkpt lat="40.76824" lon="-73.9769">
        <ele>21</ele>
        <time>2012-04-16T12:05:06Z</time>
      </trkpt>
      <trkpt lat="40.76823" lon="-73.97692">
        <ele>21</ele>
        <time>2012-04-16T12:05:07Z</time>
      </trkpt>
      <trkpt lat="40.76822" lon="-73.97694">
        <ele>21</ele>
        <time>2012-04-16T12:05:08Z</time>
      </trkpt>
      <trkpt lat="40.7682" lon="-73.97695">
        <ele>21</ele>
        <time>2012-04-16T12:05:09Z</time>
      </trkpt>
      <trkpt lat="40.76818" lon="-73.97697">
        <ele>21</ele>
        <time>2012-04-16T12:05:10Z</time>
      </trkpt>
      <trkpt lat="40.76817" lon="-73.977">
        <ele>21</ele>
        <time>2012-04-16T12:05:11Z</time>
      </trkpt>
      <trkpt lat="40.76816" lon="-73.97701">
        <ele>21</ele>
        <time>2012-04-16T12:05:12Z</time>
      </trkpt>
      <trkpt lat="40.76815" lon="-73.97704">
        <ele>21</ele>
        <time>2012-04-16T12:05:13Z</time>
      </trkpt>
      <trkpt lat="40.76813" lon="-73.97705">
        <ele>21</ele>
        <time>2012-04-16T12:05:14Z</time>
      </trkpt>
      <trkpt lat="40.76812" lon="-73.97707">
        <ele>21</ele>
        <time>2012-04-16T12:05:15Z</time>
      </trkpt>
      <trkpt lat="40.76811" lon="-73.97709">
        <ele>21</ele>
        <time>2012-04-16T12:05:16Z</time>
      </trkpt>
      <trkpt lat="40.7681" lon="-73.9771">
        <ele>21</ele>
        <time>2012-04-16T12:05:17Z</time>
      </trkpt>
      <trkpt lat="40.76808" lon="-73.97713">
        <ele>21</ele>
        <time>2012-04-16T12:05:19Z</time>
      </trkpt>
      <trkpt lat="40.76808" lon="-73.97714">
        <ele>21</ele>
        <time>2012-04-16T12:05:20Z</time>
      </trkpt>
      <trkpt lat="40.76807" lon="-73.97716">
        <ele>21</ele>
        <time>2012-04-16T12:05:21Z</time>
      </trkpt>
      <trkpt lat="40.76807" lon="-73.97718">
        <ele>21</ele>
        <time>2012-04-16T12:05:22Z</time>
      </trkpt>
      <trkpt lat="40.76807" lon="-73.9772">
        <ele>21</ele>
        <time>2012-04-16T12:05:23Z</time>
      </trkpt>
      <trkpt lat="40.76806" lon="-73.9772">
        <ele>21</ele>
        <time>2012-04-16T12:05:24Z</time>
      </trkpt>
      <trkpt lat="40.76806" lon="-73.97723">
        <ele>21</ele>
        <time>2012-04-16T12:05:25Z</time>
      </trkpt>
      <trkpt lat="40.76805" lon="-73.97724">
        <ele>21</ele>
        <time>2012-04-16T12:05:26Z</time>
      </trkpt>
      <trkpt lat="40.76805" lon="-73.97726">
        <ele>21</ele>
        <time>2012-04-16T12:05:27Z</time>
      </trkpt>
      <trkpt lat="40.76805" lon="-73.97729">
        <ele>21</ele>
        <time>2012-04-16T12:05:28Z</time>
      </trkpt>
      <trkpt lat="40.76804" lon="-73.97731">
        <ele>21</ele>
        <time>2012-04-16T12:05:29Z</time>
      </trkpt>
      <trkpt lat="40.76805" lon="-73.97733">
        <ele>21</ele>
        <time>2012-04-16T12:05:30Z</time>
      </trkpt>
      <trkpt lat="40.76805" lon="-73.97736">
        <ele>21</ele>
        <time>2012-04-16T12:05:31Z</time>
      </trkpt>
      <trkpt lat="40.76805" lon="-73.97737">
        <ele>21</ele>
        <time>2012-04-16T12:05:32Z</time>
      </trkpt>
      <trkpt lat="40.76806" lon="-73.97739">
        <ele>21</ele>
        <time>2012-04-16T12:05:33Z</time>
      </trkpt>
      <trkpt lat="40.76806" lon="-73.97742">
        <ele>21</ele>
        <time>2012-04-16T12:05:34Z</time>
      </trkpt>
      <trkpt lat="40.76806" lon="-73.97743">
        <ele>21</ele>
        <time>2012-04-16T12:05:35Z</time>
      </trkpt>
      <trkpt lat="40.76805" lon="-73.97745">
        <ele>21</ele>
        <time>2012-04-16T12:05:36Z</time>
      </trkpt>
      <trkpt lat="40.76805" lon="-73.97747">
        <ele>21</ele>
        <time>2012-04-16T12:05:37Z</time>
      </trkpt>
      <trkpt lat="40.76804" lon="-73.97749">
        <ele>21</ele>
        <time>2012-04-16T12:05:38Z</time>
      </trkpt>
      <trkpt lat="40.76804" lon="-73.9775">
        <ele>21</ele>
        <time>2012-04-16T12:05:39Z</time>
      </trkpt>
      <trkpt lat="40.76805" lon="-73.97752">
        <ele>21</ele>
        <time>2012-04-16T12:05:40Z</time>
      </trkpt>
      <trkpt lat="40.76805" lon="-73.97754">
        <ele>21</ele>
        <time>2012-04-16T12:05:41Z</time>
      </trkpt>
      <trkpt lat="40.76806" lon="-73.97757">
        <ele>21</ele>
        <time>2012-04-16T12:05:43Z</time>
      </trkpt>
      <trkpt lat="40.76806" lon="-73.97758">
        <ele>21</ele>
        <time>2012-04-16T12:05:44Z</time>
      </trkpt>
      <trkpt lat="40.76807" lon="-73.9776">
        <ele>21</ele>
        <time>2012-04-16T12:05:45Z</time>
      </trkpt>
      <trkpt lat="40.76807" lon="-73.97762">
        <ele>21</ele>
        <time>2012-04-16T12:05:46Z</time>
      </trkpt>
      <trkpt lat="40.76808" lon="-73.97765">
        <ele>21</ele>
        <time>2012-04-16T12:05:48Z</time>
      </trkpt>
      <trkpt lat="40.76808" lon="-73.97766">
        <ele>21</ele>
        <time>2012-04-16T12:05:49Z</time>
      </trkpt>
      <trkpt lat="40.76809" lon="-73.97768">
        <ele>21</ele>
        <time>2012-04-16T12:05:50Z</time>
      </trkpt>
      <trkpt lat="40.7681" lon="-73.9777">
        <ele>21</ele>
        <time>2012-04-16T12:05:52Z</time>
      </trkpt>
      <trkpt lat="40.7681" lon="-73.97773">
        <ele>21</ele>
        <time>2012-04-16T12:05:54Z</time>
      </trkpt>
      <trkpt lat="40.76811" lon="-73.97775">
        <ele>21</ele>
        <time>2012-04-16T12:05:55Z</time>
      </trkpt>
      <trkpt lat="40.7681" lon="-73.97776">
        <ele>21</ele>
        <time>2012-04-16T12:05:56Z</time>
      </trkpt>
      <trkpt lat="40.76811" lon="-73.97778">
        <ele>21</ele>
        <time>2012-04-16T12:05:57Z</time>
      </trkpt>
      <trkpt lat="40.76812" lon="-73.97781">
        <ele>21</ele>
        <time>2012-04-16T12:05:58Z</time>
      </trkpt>
      <trkpt lat="40.76812" lon="-73.97783">
        <ele>21</ele>
        <time>2012-04-16T12:05:59Z</time>
      </trkpt>
      <trkpt lat="40.76813" lon="-73.97784">
        <ele>21</ele>
        <time>2012-04-16T12:06:00Z</time>
      </trkpt>
      <trkpt lat="40.76814" lon="-73.97787">
        <ele>21</ele>
        <time>2012-04-16T12:06:01Z</time>
      </trkpt>
      <trkpt lat="40.76814" lon="-73.97788">
        <ele>21</ele>
        <time>2012-04-16T12:06:02Z</time>
      </trkpt>
      <trkpt lat="40.76815" lon="-73.9779">
        <ele>21</ele>
        <time>2012-04-16T12:06:03Z</time>
      </trkpt>
      <trkpt lat="40.76815" lon="-73.97792">
        <ele>21</ele>
        <time>2012-04-16T12:06:04Z</time>
      </trkpt>
      <trkpt lat="40.76816" lon="-73.97794">
        <ele>21</ele>
        <time>2012-04-16T12:06:05Z</time>
      </trkpt>
      <trkpt lat="40.76817" lon="-73.97796">
        <ele>21</ele>
        <time>2012-04-16T12:06:06Z</time>
      </trkpt>
      <trkpt lat="40.76818" lon="-73.97798">
        <ele>21</ele>
        <time>2012-04-16T12:06:07Z</time>
      </trkpt>
      <trkpt lat="40.76819" lon="-73.978">
        <ele>21</ele>
        <time>2012-04-16T12:06:08Z</time>
      </trkpt>
      <trkpt lat="40.7682" lon="-73.97801">
        <ele>21</ele>
        <time>2012-04-16T12:06:09Z</time>
      </trkpt>
      <trkpt lat="40.7682" lon="-73.97803">
        <ele>21</ele>
        <time>2012-04-16T12:06:10Z</time>
      </trkpt>
      <trkpt lat="40.76821" lon="-73.97805">
        <ele>21</ele>
        <time>2012-04-16T12:06:11Z</time>
      </trkpt>
      <trkpt lat="40.76822" lon="-73.97807">
        <ele>21</ele>
        <time>2012-04-16T12:06:12Z</time>
      </trkpt>
      <trkpt lat="40.76822" lon="-73.97808">
        <ele>21</ele>
        <time>2012-04-16T12:06:13Z</time>
      </trkpt>
      <trkpt lat="40.76823" lon="-73.9781">
        <ele>21</ele>
        <time>2012-04-16T12:06:14Z</time>
      </trkpt>
      <trkpt lat="40.76824" lon="-73.97811">
        <ele>21</ele>
        <time>2012-04-16T12:06:15Z</time>
      </trkpt>
      <trkpt lat="40.76825" lon="-73.97814">
        <ele>21</ele>
        <time>2012-04-16T12:06:17Z</time>
      </trkpt>
      <trkpt lat="40.76826" lon="-73.97816">
        <ele>21</ele>
        <time>2012-04-16T12:06:18Z</time>
      </trkpt>
      <trkpt lat="40.76827" lon="-73.97817">
        <ele>21</ele>
        <time>2012-04-16T12:06:19Z</time>
      </trkpt>
      <trkpt lat="40.76828" lon="-73.9782">
        <ele>21</ele>
        <time>2012-04-16T12:06:21Z</time>
      </trkpt>
      <trkpt lat="40.76828" lon="-73.97822">
        <ele>21</ele>
        <time>2012-04-16T12:06:22Z</time>
      </trkpt>
      <trkpt lat="40.76828" lon="-73.97823">
        <ele>21</ele>
        <time>2012-04-16T12:06:23Z</time>
      </trkpt>
      <trkpt lat="40.76828" lon="-73.97825">
        <ele>21</ele>
        <time>2012-04-16T12:06:24Z</time>
      </trkpt>
      <trkpt lat="40.76828" lon="-73.97826">
        <ele>21</ele>
        <time>2012-04-16T12:06:25Z</time>
      </trkpt>
      <trkpt lat="40.76827" lon="-73.97829">
        <ele>21</ele>
        <time>2012-04-16T12:06:27Z</time>
      </trkpt>
      <trkpt lat="40.76825" lon="-73.97831">
        <ele>21</ele>
        <time>2012-04-16T12:06:29Z</time>
      </trkpt>
      <trkpt lat="40.76825" lon="-73.97832">
        <ele>21</ele>
        <time>2012-04-16T12:06:30Z</time>
      </trkpt>
      <trkpt lat="40.76824" lon="-73.97835">
        <ele>21</ele>
        <time>2012-04-16T12:06:31Z</time>
      </trkpt>
      <trkpt lat="40.76822" lon="-73.97837">
        <ele>21</ele>
        <time>2012-04-16T12:06:33Z</time>
      </trkpt>
      <trkpt lat="40.76821" lon="-73.97839">
        <ele>21</ele>
        <time>2012-04-16T12:06:34Z</time>
      </trkpt>
      <trkpt lat="40.76821" lon="-73.97841">
        <ele>21</ele>
        <time>2012-04-16T12:06:35Z</time>
      </trkpt>
      <trkpt lat="40.76821" lon="-73.97842">
        <ele>21</ele>
        <time>2012-04-16T12:06:36Z</time>
      </trkpt>
      <trkpt lat="40.76822" lon="-73.97844">
        <ele>21</ele>
        <time>2012-04-16T12:06:37Z</time>
      </trkpt>
      <trkpt lat="40.76822" lon="-73.97845">
        <ele>21</ele>
        <time>2012-04-16T12:06:38Z</time>
      </trkpt>
      <trkpt lat="40.76823" lon="-73.97847">
        <ele>21</ele>
        <time>2012-04-16T12:06:39Z</time>
      </trkpt>
      <trkpt lat="40.76823" lon="-73.97849">
        <ele>21</ele>
        <time>2012-04-16T12:06:41Z</time>
      </trkpt>
      <trkpt lat="40.76824" lon="-73.97852">
        <ele>21</ele>
        <time>2012-04-16T12:06:42Z</time>
      </trkpt>
      <trkpt lat="40.76824" lon="-73.97853">
        <ele>21</ele>
        <time>2012-04-16T12:06:43Z</time>
      </trkpt>
      <trkpt lat="40.76824" lon="-73.97855">
        <ele>21</ele>
        <time>2012-04-16T12:06:44Z</time>
      </trkpt>
      <trkpt lat="40.76824" lon="-73.97858">
        <ele>21</ele>
        <time>2012-04-16T12:06:46Z</time>
      </trkpt>
      <trkpt lat="40.76825" lon="-73.97859">
        <ele>21</ele>
        <time>2012-04-16T12:06:47Z</time>
      </trkpt>
      <trkpt lat="40.76825" lon="-73.97861">
        <ele>21</ele>
        <time>2012-04-16T12:06:49Z</time>
      </trkpt>
      <trkpt lat="40.76825" lon="-73.97864">
        <ele>21</ele>
        <time>2012-04-16T12:06:51Z</time>
      </trkpt>
      <trkpt lat="40.76827" lon="-73.97866">
        <ele>21</ele>
        <time>2012-04-16T12:06:53Z</time>
      </trkpt>
      <trkpt lat="40.76828" lon="-73.97869">
        <ele>21</ele>
        <time>2012-04-16T12:06:55Z</time>
      </trkpt>
      <trkpt lat="40.7683" lon="-73.97871">
        <ele>21</ele>
        <time>2012-04-16T12:06:57Z</time>
      </trkpt>
      <trkpt lat="40.76831" lon="-73.97872">
        <ele>21</ele>
        <time>2012-04-16T12:06:58Z</time>
      </trkpt>
      <trkpt lat="40.76833" lon="-73.97874">
        <ele>21</ele>
        <time>2012-04-16T12:06:59Z</time>
      </trkpt>
      <trkpt lat="40.76834" lon="-73.97876">
        <ele>21</ele>
        <time>2012-04-16T12:07:01Z</time>
      </trkpt>
      <trkpt lat="40.76835" lon="-73.97878">
        <ele>21</ele>
        <time>2012-04-16T12:07:03Z</time>
      </trkpt>
      <trkpt lat="40.76836" lon="-73.97879">
        <ele>21</ele>
        <time>2012-04-16T12:07:04Z</time>
      </trkpt>
      <trkpt lat="40.76838" lon="-73.97881">
        <ele>21</ele>
        <time>2012-04-16T12:07:05Z</time>
      </trkpt>
      <trkpt lat="40.76839" lon="-73.97884">
        <ele>21</ele>
        <time>2012-04-16T12:07:06Z</time>
      </trkpt>
      <trkpt lat="40.76839" lon="-73.97885">
        <ele>21</ele>
        <time>2012-04-16T12:07:07Z</time>
      </trkpt>
      <trkpt lat="40.7684" lon="-73.97887">
        <ele>21</ele>
        <time>2012-04-16T12:07:08Z</time>
      </trkpt>
      <trkpt lat="40.76841" lon="-73.97889">
        <ele>21</ele>
        <time>2012-04-16T12:07:09Z</time>
      </trkpt>
      <trkpt lat="40.76842" lon="-73.97891">
        <ele>21</ele>
        <time>2012-04-16T12:07:10Z</time>
      </trkpt>
      <trkpt lat="40.76844" lon="-73.97893">
        <ele>21</ele>
        <time>2012-04-16T12:07:11Z</time>
      </trkpt>
      <trkpt lat="40.76843" lon="-73.97894">
        <ele>21</ele>
        <time>2012-04-16T12:07:12Z</time>
      </trkpt>
      <trkpt lat="40.76843" lon="-73.97897">
        <ele>22</ele>
        <time>2012-04-16T12:07:14Z</time>
      </trkpt>
      <trkpt lat="40.76843" lon="-73.97898">
        <ele>23</ele>
        <time>2012-04-16T12:07:17Z</time>
      </trkpt>
      <trkpt lat="40.76843" lon="-73.979">
        <ele>24</ele>
        <time>2012-04-16T12:07:20Z</time>
      </trkpt>
      <trkpt lat="40.76844" lon="-73.97901">
        <ele>24</ele>
        <time>2012-04-16T12:07:22Z</time>
      </trkpt>
      <trkpt lat="40.76845" lon="-73.97903">
        <ele>24</ele>
        <time>2012-04-16T12:07:26Z</time>
      </trkpt>
      <trkpt lat="40.76844" lon="-73.97901">
        <ele>24</ele>
        <time>2012-04-16T12:07:32Z</time>
      </trkpt>
      <trkpt lat="40.76843" lon="-73.979">
        <ele>24</ele>
        <time>2012-04-16T12:07:37Z</time>
      </trkpt>
      <trkpt lat="40.76844" lon="-73.979">
        <ele>24</ele>
        <time>2012-04-16T12:07:43Z</time>
      </trkpt>
      <trkpt lat="40.76843" lon="-73.979">
        <ele>24</ele>
        <time>2012-04-16T12:07:47Z</time>
      </trkpt>
      <trkpt lat="40.76842" lon="-73.97901">
        <ele>24</ele>
        <time>2012-04-16T12:07:49Z</time>
      </trkpt>
      <trkpt lat="40.76841" lon="-73.97903">
        <ele>24</ele>
        <time>2012-04-16T12:07:51Z</time>
      </trkpt>
      <trkpt lat="40.76841" lon="-73.97905">
        <ele>24</ele>
        <time>2012-04-16T12:07:54Z</time>
      </trkpt>
      <trkpt lat="40.76841" lon="-73.97907">
        <ele>24</ele>
        <time>2012-04-16T12:07:56Z</time>
      </trkpt>
      <trkpt lat="40.76841" lon="-73.9791">
        <ele>24</ele>
        <time>2012-04-16T12:07:58Z</time>
      </trkpt>
      <trkpt lat="40.76841" lon="-73.97912">
        <ele>24</ele>
        <time>2012-04-16T12:08:00Z</time>
      </trkpt>
      <trkpt lat="40.76841" lon="-73.97914">
        <ele>24</ele>
        <time>2012-04-16T12:08:01Z</time>
      </trkpt>
      <trkpt lat="40.76841" lon="-73.97916">
        <ele>24</ele>
        <time>2012-04-16T12:08:02Z</time>
      </trkpt>
      <trkpt lat="40.76841" lon="-73.97917">
        <ele>24</ele>
        <time>2012-04-16T12:08:03Z</time>
      </trkpt>
      <trkpt lat="40.76841" lon="-73.9792">
        <ele>24</ele>
        <time>2012-04-16T12:08:05Z</time>
      </trkpt>
      <trkpt lat="40.76841" lon="-73.97923">
        <ele>24</ele>
        <time>2012-04-16T12:08:06Z</time>
      </trkpt>
      <trkpt lat="40.76842" lon="-73.97924">
        <ele>24</ele>
        <time>2012-04-16T12:08:07Z</time>
      </trkpt>
      <trkpt lat="40.76842" lon="-73.97926">
        <ele>24</ele>
        <time>2012-04-16T12:08:08Z</time>
      </trkpt>
      <trkpt lat="40.76843" lon="-73.97928">
        <ele>24</ele>
        <time>2012-04-16T12:08:09Z</time>
      </trkpt>
      <trkpt lat="40.76844" lon="-73.9793">
        <ele>24</ele>
        <time>2012-04-16T12:08:11Z</time>
      </trkpt>
      <trkpt lat="40.76844" lon="-73.97932">
        <ele>24</ele>
        <time>2012-04-16T12:08:13Z</time>
      </trkpt>
      <trkpt lat="40.76843" lon="-73.97934">
        <ele>24</ele>
        <time>2012-04-16T12:08:15Z</time>
      </trkpt>
      <trkpt lat="40.76844" lon="-73.97936">
        <ele>24</ele>
        <time>2012-04-16T12:08:17Z</time>
      </trkpt>
      <trkpt lat="40.76845" lon="-73.97938">
        <ele>24</ele>
        <time>2012-04-16T12:08:18Z</time>
      </trkpt>
      <trkpt lat="40.76847" lon="-73.9794">
        <ele>24</ele>
        <time>2012-04-16T12:08:20Z</time>
      </trkpt>
      <trkpt lat="40.76848" lon="-73.97942">
        <ele>24</ele>
        <time>2012-04-16T12:08:22Z</time>
      </trkpt>
      <trkpt lat="40.76849" lon="-73.97944">
        <ele>24</ele>
        <time>2012-04-16T12:08:24Z</time>
      </trkpt>
      <trkpt lat="40.76851" lon="-73.97946">
        <ele>24</ele>
        <time>2012-04-16T12:08:26Z</time>
      </trkpt>
      <trkpt lat="40.76854" lon="-73.97948">
        <ele>25</ele>
        <time>2012-04-16T12:08:28Z</time>
      </trkpt>
      <trkpt lat="40.76857" lon="-73.97951">
        <ele>27</ele>
        <time>2012-04-16T12:08:30Z</time>
      </trkpt>
      <trkpt lat="40.76858" lon="-73.97952">
        <ele>28</ele>
        <time>2012-04-16T12:08:31Z</time>
      </trkpt>
      <trkpt lat="40.76859" lon="-73.97955">
        <ele>29</ele>
        <time>2012-04-16T12:08:32Z</time>
      </trkpt>
      <trkpt lat="40.7686" lon="-73.97956">
        <ele>30</ele>
        <time>2012-04-16T12:08:33Z</time>
      </trkpt>
      <trkpt lat="40.76862" lon="-73.97958">
        <ele>30</ele>
        <time>2012-04-16T12:08:34Z</time>
      </trkpt>
      <trkpt lat="40.76863" lon="-73.9796">
        <ele>30</ele>
        <time>2012-04-16T12:08:35Z</time>
      </trkpt>
      <trkpt lat="40.76865" lon="-73.97961">
        <ele>30</ele>
        <time>2012-04-16T12:08:36Z</time>
      </trkpt>
      <trkpt lat="40.76866" lon="-73.97963">
        <ele>30</ele>
        <time>2012-04-16T12:08:37Z</time>
      </trkpt>
      <trkpt lat="40.76867" lon="-73.97964">
        <ele>30</ele>
        <time>2012-04-16T12:08:38Z</time>
      </trkpt>
      <trkpt lat="40.76869" lon="-73.97966">
        <ele>30</ele>
        <time>2012-04-16T12:08:40Z</time>
      </trkpt>
      <trkpt lat="40.7687" lon="-73.97968">
        <ele>30</ele>
        <time>2012-04-16T12:08:41Z</time>
      </trkpt>
      <trkpt lat="40.76872" lon="-73.97968">
        <ele>30</ele>
        <time>2012-04-16T12:08:42Z</time>
      </trkpt>
      <trkpt lat="40.76874" lon="-73.97969">
        <ele>30</ele>
        <time>2012-04-16T12:08:43Z</time>
      </trkpt>
      <trkpt lat="40.76876" lon="-73.97972">
        <ele>30</ele>
        <time>2012-04-16T12:08:44Z</time>
      </trkpt>
      <trkpt lat="40.76877" lon="-73.97974">
        <ele>30</ele>
        <time>2012-04-16T12:08:45Z</time>
      </trkpt>
      <trkpt lat="40.76878" lon="-73.97975">
        <ele>30</ele>
        <time>2012-04-16T12:08:46Z</time>
      </trkpt>
      <trkpt lat="40.7688" lon="-73.97977">
        <ele>30</ele>
        <time>2012-04-16T12:08:48Z</time>
      </trkpt>
      <trkpt lat="40.76881" lon="-73.97978">
        <ele>30</ele>
        <time>2012-04-16T12:08:49Z</time>
      </trkpt>
      <trkpt lat="40.76882" lon="-73.9798">
        <ele>30</ele>
        <time>2012-04-16T12:08:51Z</time>
      </trkpt>
      <trkpt lat="40.76884" lon="-73.9798">
        <ele>30</ele>
        <time>2012-04-16T12:08:52Z</time>
      </trkpt>
      <trkpt lat="40.76885" lon="-73.97983">
        <ele>30</ele>
        <time>2012-04-16T12:08:54Z</time>
      </trkpt>
      <trkpt lat="40.76886" lon="-73.97984">
        <ele>30</ele>
        <time>2012-04-16T12:08:55Z</time>
      </trkpt>
      <trkpt lat="40.76888" lon="-73.97987">
        <ele>30</ele>
        <time>2012-04-16T12:08:57Z</time>
      </trkpt>
      <trkpt lat="40.76888" lon="-73.97987">
        <ele>30</ele>
        <time>2012-04-16T12:08:59Z</time>
      </trkpt>
    </trkseg>
  </trk>
</gpx>